# Wetter Temperatur Luftdruck Luftfeuchtigkeit Sichtweite Windgeschwindigkeit Windrichtung Zeit
1 Clouds -5 989 68 11265 2.6 40 19:42 17.10.2019
2 Clouds -5 988 62 16093 3.1 10 19:20 17.10.2019
3 Clouds -5 988 68 11265 1 40 18:59 17.10.2019
4 Clouds -5 988 68 11265 1 40 18:39 17.10.2019
5 Clouds -5 988 68 11265 1 40 18:20 17.10.2019
6 Clouds -6 988 62 16093 3.6 30 17:43 17.10.2019
7 Clouds -6 988 62 11265 1.5 50 17:25 17.10.2019
8 Clouds -6 988 67 16093 3.1 10 16:59 17.10.2019
9 Clouds -6 988 67 16093 3.1 10 16:41 17.10.2019
10 Clouds -6 988 67 16093 3.1 10 16:19 17.10.2019
11 Clouds -6 989 67 16093 3.1 20 15:57 17.10.2019
12 Clouds -6 989 67 16093 3.1 20 15:38 17.10.2019
13 Clouds -7 989 67 16093 3.1 20 15:20 17.10.2019
14 Clouds -7 989 67 16093 3.1 40 14:56 17.10.2019
15 Clouds -7 989 67 16093 3.1 40 14:38 17.10.2019
16 Clouds -7 989 67 16093 3.1 40 14:19 17.10.2019
17 Clouds -7 989 67 16093 2.1 40 13:39 17.10.2019
18 Clouds -8 989 67 16093 2.1 40 13:20 17.10.2019
19 Clouds -7 989 67 16093 2.6 40 12:57 17.10.2019
20 Clouds -7 989 67 16093 2.6 40 12:37 17.10.2019
21 Clouds -7 989 67 16093 2.6 40 12:19 17.10.2019
22 Clouds -7 989 67 16093 3.6 10 11:42 17.10.2019
23 Clouds -7 989 67 16093 3.6 10 11:42 17.10.2019
24 Clouds -7 989 67 16093 3.6 10 11:22 17.10.2019
25 Clouds -7 990 67 16093 3.1 10 10:59 17.10.2019
26 Clouds -7 990 67 16093 3.1 10 10:41 17.10.2019
27 Clouds -6 990 67 16093 3.1 10 10:19 17.10.2019
28 Clouds -6 990 62 11265 1.5 70 09:56 17.10.2019
29 Clouds -6 990 62 11265 1.5 70 09:38 17.10.2019
30 Clouds -6 990 62 11265 1.5 70 09:19 17.10.2019
31 Clouds -6 990 67 16093 2.6 40 08:48 17.10.2019
32 Clouds -5 990 67 16093 2.6 40 08:27 17.10.2019
33 Clouds -5 990 62 16093 3.6 70 07:59 17.10.2019
34 Clouds -5 990 58 11265 1 40 07:41 17.10.2019
35 Clouds -4 990 58 11265 1 40 07:21 17.10.2019
36 Clouds -4 990 58 11265 1 40 07:21 17.10.2019
37 Clouds -4 990 63 16093 3.6 60 06:51 17.10.2019
38 Clouds -4 990 63 16093 3.6 60 06:31 17.10.2019
39 Clouds -3 990 54 11265 2.6 40 05:59 17.10.2019
40 Clouds -3 990 54 11265 2.6 40 05:37 17.10.2019
41 Clouds -3 990 58 16093 3.6 80 05:19 17.10.2019
42 Clouds -2 991 47 11265 1.5 40 04:45 17.10.2019
43 Clouds 0 991 48 11265 3.1 70 03:45 17.10.2019
44 Clouds 0 991 47 16093 4.1 80 01:57 17.10.2019
45 Clouds 0 992 47 16093 4.1 60 00:42 17.10.2019
46 Clouds 0 992 47 16093 4.1 60 00:21 17.10.2019
47 Clouds -1 992 50 11265 3.6 60 23:59 16.10.2019
48 Clouds -1 992 50 11265 3.6 60 23:40 16.10.2019
49 Clouds -1 992 50 11265 3.6 60 23:18 16.10.2019
50 Clouds -3 992 54 11265 4.6 50 22:54 16.10.2019
51 Clouds -2 992 54 11265 4.6 50 22:36 16.10.2019
52 Clouds -3 992 54 11265 4.6 50 22:18 16.10.2019
53 Clouds -4 993 62 11265 3.1 50 21:54 16.10.2019
54 Clouds -4 993 62 11265 3.1 50 21:54 16.10.2019
55 Clouds -4 993 62 11265 3.1 50 21:36 16.10.2019
56 Clouds -5 993 62 11265 3.1 50 21:18 16.10.2019
57 Clouds -6 993 67 11265 2.1 60 20:56 16.10.2019
58 Clouds -6 993 67 11265 2.1 60 20:37 16.10.2019
59 Clouds -6 993 67 11265 2.1 60 20:37 16.10.2019
60 Clouds -7 993 67 11265 2.1 60 20:19 16.10.2019
61 Clouds -8 993 78 11265 1 350 19:40 16.10.2019
62 Clouds -8 993 78 11265 1 350 19:40 16.10.2019
63 Clouds -8 993 78 11265 1 350 19:21 16.10.2019
64 Clouds -8 994 78 16093 1.882 31 18:58 16.10.2019
65 Clouds -8 994 78 16093 1.882 31 18:58 16.10.2019
66 Clouds -7 994 78 16093 1.882 31 18:38 16.10.2019
67 Clouds -8 994 78 16093 1.123 43 18:18 16.10.2019
68 Clouds -8 994 78 16093 1.123 43 18:18 16.10.2019
69 Clear -8 994 57 11265 1.123 43 17:56 16.10.2019
70 Clear -8 994 57 11265 1.123 43 17:37 16.10.2019
71 Clear -7 994 57 11265 1.123 43 17:19 16.10.2019
72 Clear -8 994 85 16093 1.5 330 16:57 16.10.2019
73 Clear -8 994 85 16093 1.5 330 16:38 16.10.2019
74 Clouds -7 995 78 16093 1.123 43 16:20 16.10.2019
75 Clouds -7 995 78 16093 1.123 43 15:41 16.10.2019
76 Clouds -7 995 78 16093 1.123 43 15:41 16.10.2019
77 Clouds -6 995 67 16093 1.51 34 15:19 16.10.2019
78 Clouds -6 995 67 16093 1.51 34 14:59 16.10.2019
79 Clouds -6 995 67 16093 1.51 34 14:41 16.10.2019
80 Clouds -6 995 67 16093 1.433 35 14:23 16.10.2019
81 Clouds -6 995 67 16093 1.433 35 13:59 16.10.2019
82 Clouds -6 995 73 16093 1.5 40 13:41 16.10.2019
83 Clouds -6 995 73 16093 1.5 40 13:22 16.10.2019
84 Clouds -5 995 58 16093 1.433 35 12:44 16.10.2019
85 Clouds -5 995 58 16093 1.951 41 12:20 16.10.2019
86 Clouds -5 995 58 16093 1.951 41 11:59 16.10.2019
87 Clouds -5 995 62 16093 2.6 50 11:41 16.10.2019
88 Clouds -4 995 62 16093 2.6 50 11:18 16.10.2019
89 Clouds -4 995 53 16093 2.6 60 10:37 16.10.2019
90 Clouds -4 995 53 16093 2.6 60 10:19 16.10.2019
91 Clouds -4 995 53 16093 3.1 50 09:41 16.10.2019
92 Clouds -4 995 53 16093 3.1 50 09:22 16.10.2019
93 Clouds -4 995 53 16093 3.1 50 08:58 16.10.2019
94 Clouds -3 995 54 11265 1 40 08:40 16.10.2019
95 Clouds -3 995 54 11265 1 40 08:22 16.10.2019
96 Clouds -3 995 50 11265 2.1 40 07:45 16.10.2019
97 -273 0 0 0 0 0 07:24 16.10.2019
98 Clouds -2 995 50 16093 3.1 70 06:56 16.10.2019
99 Clouds -2 995 46 11265 2.1 40 06:35 16.10.2019
100 Clouds -2 995 46 16093 3.1 80 05:39 16.10.2019
101 Clouds 0 995 34 16093 6.2 90 02:57 16.10.2019
102 Clouds 0 995 34 16093 6.2 90 02:37 16.10.2019
103 Clouds 0 995 34 16093 3.6 90 01:18 16.10.2019
104 Rain 0 996 37 16093 4.1 70 00:46 16.10.2019
105 Rain 0 996 37 16093 4.1 70 00:27 16.10.2019
106 Clouds -1 997 46 11265 2.6 50 23:40 15.10.2019
107 Clouds -1 997 46 11265 2.6 50 23:22 15.10.2019
108 Clouds -2 997 49 11265 2.6 50 22:56 15.10.2019
109 Clouds -3 997 49 11265 2.6 50 22:38 15.10.2019
110 Clouds -3 997 49 11265 2.6 50 22:19 15.10.2019
111 Clouds -5 997 49 16093 3.6 30 21:56 15.10.2019
112 Clouds -5 997 57 11265 2.1 30 21:38 15.10.2019
113 Clouds -5 997 57 11265 2.1 30 21:19 15.10.2019
114 Clouds -6 998 53 16093 3.1 50 20:57 15.10.2019
115 Clouds -7 997 53 11265 1.5 60 20:39 15.10.2019
116 Clouds -8 997 53 11265 1.5 60 20:20 15.10.2019
117 Clouds -8 997 53 11265 1.5 60 20:20 15.10.2019
118 Clouds -8 998 67 16093 2.6 40 19:58 15.10.2019
119 Clouds -9 1000 57 11265 2.1 50 19:40 15.10.2019
120 Clouds -9 1000 57 11265 2.1 50 19:19 15.10.2019
121 Clouds -8 1000 72 11265 1 80 18:47 15.10.2019
122 Clouds -8 1000 72 11265 1 80 18:29 15.10.2019
123 Clear -8 1000 67 11265 1 100 17:59 15.10.2019
124 Clear -9 1000 67 11265 1 100 17:39 15.10.2019
125 Clear -8 1000 67 11265 1 100 17:20 15.10.2019
126 Clear -7 1001 62 16093 4.6 50 16:55 15.10.2019
127 Clear -7 1001 62 16093 4.6 50 16:37 15.10.2019
128 Clear -7 1001 62 16093 4.6 50 16:19 15.10.2019
129 Clear -8 1000 58 16093 4.1 70 15:42 15.10.2019
130 Clear -8 1002 62 16093 5.1 30 15:20 15.10.2019
131 Clear -8 1002 62 16093 5.1 30 14:58 15.10.2019
132 Clear -8 1002 67 16093 4.1 30 14:38 15.10.2019
133 Clear -8 1002 67 16093 4.1 30 14:20 15.10.2019
134 Clear -7 1002 67 16093 4.1 30 13:55 15.10.2019
135 Clear -7 1002 85 16093 6.7 60 13:37 15.10.2019
136 Clear -7 1003 67 16093 2.6 30 13:18 15.10.2019
137 Clear -8 1004 62 16093 3.6 50 12:41 15.10.2019
138 Clear -8 1004 62 16093 3.6 50 12:21 15.10.2019
139 Clear -7 1005 67 16093 3.1 30 11:56 15.10.2019
140 Clear -7 1005 67 16093 3.1 30 11:37 15.10.2019
141 Clear -7 1005 67 16093 3.1 30 11:18 15.10.2019
142 Clear -6 1006 62 16093 3.6 60 10:43 15.10.2019
143 Clear -6 1006 62 16093 3.6 60 10:19 15.10.2019
144 Clear -6 1006 62 16093 3.6 60 09:57 15.10.2019
145 Clear -6 1006 67 16093 3.6 50 09:37 15.10.2019
146 Clear -6 1006 67 16093 3.6 50 09:37 15.10.2019
147 Clear -6 1006 67 16093 3.6 50 09:19 15.10.2019
148 Clear -5 1007 62 16093 3.1 60 08:43 15.10.2019
149 Clear -5 1007 62 16093 3.1 60 08:22 15.10.2019
150 Clear -5 1007 62 16093 3.1 60 08:22 15.10.2019
151 Clear -5 1007 62 16093 3.1 60 07:58 15.10.2019
152 Clear -4 1008 58 16093 3.6 70 07:39 15.10.2019
153 Clear -4 1008 58 16093 3.6 70 07:20 15.10.2019
154 Clear -3 1009 58 16093 2.6 70 06:45 15.10.2019
155 Clear -3 1009 58 16093 2.6 70 06:26 15.10.2019
156 Clouds -3 1009 58 16093 2.1 70 05:41 15.10.2019
157 Clouds -2 1009 58 16093 2.1 70 05:23 15.10.2019
158 Clouds -2 1010 69 16093 2.6 70 04:32 15.10.2019
159 Clouds -1 1011 47 16093 4.1 90 03:37 15.10.2019
160 Clouds 0 1012 47 16093 4.1 70 02:42 15.10.2019
161 Clear -1 1012 63 16093 2.1 70 01:49 15.10.2019
162 Clear 0 1013 43 16093 5.1 90 01:22 15.10.2019
163 Clear -1 1013 43 16093 4.1 70 00:49 15.10.2019
164 Clear -1 1013 41 16093 4.1 70 00:22 15.10.2019
165 Clear -2 1014 50 16093 4.6 70 23:45 14.10.2019
166 Clear -2 1014 50 16093 4.6 70 23:20 14.10.2019
167 Clear -3 1015 58 16093 5.7 80 22:58 14.10.2019
168 Clear -4 1015 58 16093 5.7 80 22:38 14.10.2019
169 Clear -4 1015 58 16093 5.7 80 22:19 14.10.2019
170 Clear -4 1015 58 16093 5.7 80 21:56 14.10.2019
171 Clear -5 1015 73 16093 3.1 50 21:37 14.10.2019
172 Clear -6 1015 73 16093 3.1 50 21:19 14.10.2019
173 Clear -6 1016 79 16093 2.6 50 20:55 14.10.2019
174 Clear -6 1016 79 16093 2.6 50 20:36 14.10.2019
175 Clear -6 1016 79 16093 2.6 50 20:18 14.10.2019
176 Clear -7 1016 78 16093 2.6 40 19:41 14.10.2019
177 Clear -8 1016 78 16093 2.6 40 19:23 14.10.2019
178 Clear -8 1016 78 16093 2.6 40 18:58 14.10.2019
179 Clear -8 1017 78 16093 3.1 40 18:39 14.10.2019
180 Clear -8 1017 78 16093 3.1 40 18:39 14.10.2019
181 Clear -7 1017 78 16093 3.1 40 18:19 14.10.2019
182 Clear -7 1017 78 16093 3.1 40 18:19 14.10.2019
183 Clear -7 1017 73 16093 2.6 40 17:57 14.10.2019
184 Clear -7 1017 73 16093 2.6 40 17:38 14.10.2019
185 Clear -7 1017 73 16093 2.6 40 17:20 14.10.2019
186 Clear -7 1018 73 16093 3.6 40 16:44 14.10.2019
187 Clear -7 1018 73 16093 3.6 40 16:21 14.10.2019
188 Clear -6 1018 73 16093 3.1 50 15:44 14.10.2019
189 Clear -6 1018 73 16093 3.1 50 15:25 14.10.2019
190 Clear -6 1018 85 16093 2.6 60 14:58 14.10.2019
191 Clear -6 1018 85 16093 2.6 60 14:39 14.10.2019
192 Clear -6 1018 85 16093 2.6 60 14:20 14.10.2019
193 Clear -6 1019 73 16093 2.6 30 13:44 14.10.2019
194 Clear -6 1019 73 16093 2.6 30 13:22 14.10.2019
195 Clear -6 1019 73 16093 3.1 70 12:56 14.10.2019
196 Clear -6 1019 73 16093 3.1 70 12:56 14.10.2019
197 Clear -6 1019 73 16093 3.1 70 12:37 14.10.2019
198 Clear -6 1019 73 16093 3.1 70 12:18 14.10.2019
199 Clouds -6 1019 73 16093 3.1 70 11:45 14.10.2019
200 Clouds -5 1019 73 16093 3.1 70 11:26 14.10.2019
201 Clouds -5 1020 73 16093 2.6 60 10:57 14.10.2019
202 Clouds -5 1020 73 16093 2.6 60 10:38 14.10.2019
203 Clear -5 1019 79 16093 2.1 110 10:20 14.10.2019
204 Clear -5 1020 85 16093 2.1 40 09:54 14.10.2019
205 Clear -5 1020 85 16093 2.1 40 09:36 14.10.2019
206 Clear -5 1020 85 16093 2.1 40 09:18 14.10.2019
207 Clouds -4 1020 79 16093 1.69 34.255 08:42 14.10.2019
208 Clouds -4 1020 79 16093 1.69 34.255 08:20 14.10.2019
209 Clouds -3 1020 63 16093 3.6 90 07:41 14.10.2019
210 Clouds -3 1020 63 16093 3.6 90 07:41 14.10.2019
211 Clouds -3 1020 63 16093 3.6 90 07:18 14.10.2019
212 Clouds -3 1021 68 16093 3.1 60 06:38 14.10.2019
213 Clouds -2 1021 68 16093 3.1 60 06:20 14.10.2019
214 Clouds -2 1021 68 16093 3.1 80 05:46 14.10.2019
215 Clouds -2 1021 68 16093 4.6 120 04:42 14.10.2019
216 Snow -2 1021 74 16093 1.5 100 03:27 14.10.2019
217 Snow -2 1021 86 16093 1.35 104.48 02:42 14.10.2019
218 Clouds -2 1021 86 16093 1.5 140 01:23 14.10.2019
219 Clouds -2 1021 79 16093 1.34 101.184 00:53 14.10.2019
220 Clouds -2 1022 80 16093 0.96 79.711 00:19 14.10.2019
221 Clouds -2 1022 86 16093 0.96 79.711 23:45 13.10.2019
222 Clouds -2 1021 92 16093 0.96 79.711 23:20 13.10.2019
223 Snow -2 1021 86 16093 1.5 240 22:58 13.10.2019
224 Snow -2 1021 86 16093 1.5 240 22:40 13.10.2019
225 Snow -2 1021 86 16093 1.5 240 22:21 13.10.2019
226 Clouds -3 1021 86 14484 2.1 200 21:58 13.10.2019
227 Clouds -3 1021 86 14484 2.1 200 21:37 13.10.2019
228 Clouds -3 1021 92 14484 2.1 220 21:19 13.10.2019
229 Clouds -3 1021 92 14484 2.1 220 21:19 13.10.2019
230 Clouds -3 1021 92 16093 1.5 220 20:57 13.10.2019
231 Clouds -3 1021 92 16093 1.5 220 20:38 13.10.2019
232 Clouds -3 1021 92 16093 1.5 200 20:20 13.10.2019
233 -273 0 0 0 0 0 19:58 13.10.2019
234 Clouds -3 1021 92 16093 0.73 70.969 19:39 13.10.2019
235 Clouds -3 1021 92 16093 0.73 70.969 19:21 13.10.2019
236 Snow -3 1021 86 16093 3.1 240 18:57 13.10.2019
237 Snow -3 1021 86 16093 3.1 240 18:57 13.10.2019
238 Snow -3 1021 86 16093 3.1 240 18:37 13.10.2019
239 Clouds -3 1021 86 16093 2.6 250 18:19 13.10.2019
240 Clouds -3 1021 86 16093 3.6 250 17:57 13.10.2019
241 Clouds -3 1021 86 16093 3.6 250 17:38 13.10.2019
242 Clouds -3 1021 86 16093 2.6 240 17:20 13.10.2019
243 Clouds -3 1020 86 16093 1.5 220 16:41 13.10.2019
244 Clouds -3 1021 86 16093 3.6 210 16:18 13.10.2019
245 Clouds -3 1021 92 16093 2.6 210 15:57 13.10.2019
246 Clouds -3 1021 92 16093 2.6 210 15:38 13.10.2019
247 Clouds -3 1021 92 16093 2.6 210 15:18 13.10.2019
248 Clouds -3 1021 92 16093 3.6 230 14:57 13.10.2019
249 Clouds -3 1021 92 16093 3.6 230 14:38 13.10.2019
250 Clouds -3 1021 92 16093 3.1 210 14:19 13.10.2019
251 Clouds -3 1021 92 16093 3.6 210 13:41 13.10.2019
252 Snow -2 1021 80 16093 2.6 220 13:23 13.10.2019
253 Clouds -2 1021 86 16093 1.01 156.13 12:59 13.10.2019
254 Clouds -2 1021 86 16093 1.01 156.13 12:39 13.10.2019
255 Clouds -2 1022 80 16093 2.1 200 12:21 13.10.2019
256 Clouds -2 1022 80 16093 3.1 240 11:58 13.10.2019
257 Clouds -2 1022 80 16093 3.1 240 11:39 13.10.2019
258 Clouds -2 1022 80 16093 3.1 240 11:20 13.10.2019
259 Clouds -2 1022 86 16093 3.1 200 10:57 13.10.2019
260 Clouds -2 1022 86 16093 3.1 200 10:38 13.10.2019
261 Clouds -2 1022 86 16093 3.1 200 10:20 13.10.2019
262 Clouds -2 1022 86 16093 2.6 180 09:39 13.10.2019
263 Clouds -3 1022 86 16093 2.6 180 09:21 13.10.2019
264 Clouds -3 1022 92 16093 1.5 220 08:45 13.10.2019
265 Clouds -3 1022 92 16093 1.5 220 08:26 13.10.2019
266 Clouds -3 1023 100 16093 0.97 173.765 07:52 13.10.2019
267 Clouds -3 1023 100 16093 0.97 173.765 07:33 13.10.2019
268 -273 0 0 0 0 0 06:54 13.10.2019
269 Clouds -3 1022 92 16093 0.97 173.765 06:54 13.10.2019
270 Clouds -3 1022 92 16093 1.1 188.559 06:24 13.10.2019
271 Clouds -3 1022 92 16093 0.97 173.765 06:24 13.10.2019
272 Clouds -3 1022 92 16093 1.1 188.559 06:24 13.10.2019
273 Clear -3 1022 92 16093 1.5 60 05:27 13.10.2019
274 Clouds -2 1022 86 16093 2.1 170 04:35 13.10.2019
275 Clear -1 1022 80 16093 3.6 180 03:34 13.10.2019
276 Clear 0 1022 80 16093 3.1 210 02:31 13.10.2019
277 Clear 0 1022 80 16093 3.1 210 02:31 13.10.2019
278 Clear 1 1022 69 16093 2.6 200 01:37 13.10.2019
279 Clouds 1 1022 69 16093 3.6 200 00:56 13.10.2019
280 Clouds 1 1022 69 16093 3.6 200 00:38 13.10.2019
281 Clouds 1 1022 69 16093 3.6 200 00:19 13.10.2019
282 Clouds 0 1021 86 16093 0.79 216.957 23:42 12.10.2019
283 Clouds 0 1021 86 16093 0.79 216.957 23:42 12.10.2019
284 Clouds 0 1021 69 16093 2.1 270 23:23 12.10.2019
285 Clouds 0 1021 66 16093 1.5 230 22:59 12.10.2019
286 Clouds 0 1021 66 16093 1.5 230 22:40 12.10.2019
287 Clouds -1 1021 66 16093 1.5 230 22:22 12.10.2019
288 Clouds -1 1020 86 16093 2.1 230 21:58 12.10.2019
289 Clouds -1 1020 86 16093 2.1 230 21:40 12.10.2019
290 Clouds -1 1020 86 16093 2.1 230 21:40 12.10.2019
291 Clouds -1 1020 86 16093 2.1 230 21:40 12.10.2019
292 Clouds -1 1020 86 16093 2.1 230 21:21 12.10.2019
293 Clouds -2 1019 86 16093 1.5 240 20:54 12.10.2019
294 Clouds -2 1019 86 16093 1.5 240 20:54 12.10.2019
295 Clouds -2 1019 86 16093 1.5 240 20:36 12.10.2019
296 Clouds -2 1019 86 16093 1.5 240 20:18 12.10.2019
297 Clouds -2 1019 86 16093 3.1 230 19:36 12.10.2019
298 Clouds -2 1019 86 16093 3.1 230 19:18 12.10.2019
299 Clouds -2 1018 80 16093 2.1 260 18:43 12.10.2019
300 Clouds -2 1018 80 16093 2.1 260 18:24 12.10.2019
301 Clouds -2 1018 86 16093 0.44 336.87 17:46 12.10.2019
302 Clouds -2 1017 80 16093 0.44 336.87 17:22 12.10.2019
303 Clouds -2 1017 88 16093 3.1 270 16:59 12.10.2019
304 Clouds -2 1017 88 16093 3.1 270 16:40 12.10.2019
305 Clouds -2 1017 88 16093 3.1 270 16:40 12.10.2019
306 Clouds -2 1017 88 16093 3.1 270 16:21 12.10.2019
307 Clouds -1 1016 69 16093 2.6 290 15:56 12.10.2019
308 Clouds -1 1016 69 16093 2.6 290 15:37 12.10.2019
309 Clouds -1 1016 69 16093 2.6 290 15:18 12.10.2019
310 Clouds -1 1015 69 16093 2.6 290 14:40 12.10.2019
311 Clouds -1 1015 69 16093 2.6 290 14:20 12.10.2019
312 Clouds -1 1015 87 16093 2.6 260 13:51 12.10.2019
313 Clouds -1 1015 86 16093 2.6 260 13:32 12.10.2019
314 Clouds -1 1014 92 16093 3.6 260 12:56 12.10.2019
315 Clouds -1 1014 92 16093 3.6 260 12:38 12.10.2019
316 Clouds -1 1014 92 16093 3.6 260 12:38 12.10.2019
317 Clouds -1 1014 86 16093 3.1 280 12:20 12.10.2019
318 Clouds -1 1014 86 16093 3.1 280 12:20 12.10.2019
319 Clouds -1 1013 86 16093 4.1 280 11:45 12.10.2019
320 Snow -1 1013 80 16093 3.1 280 11:24 12.10.2019
321 Snow 0 1013 74 14484 2.6 280 10:58 12.10.2019
322 Snow 0 1013 74 14484 2.6 280 10:39 12.10.2019
323 Snow 0 1012 86 14484 2.6 280 10:20 12.10.2019
324 Clouds -1 1012 86 14484 3.6 290 09:57 12.10.2019
325 Clouds -1 1012 86 14484 3.6 290 09:57 12.10.2019
326 Clouds -1 1012 80 16093 4.1 300 09:38 12.10.2019
327 Clouds -1 1012 80 16093 4.1 300 09:19 12.10.2019
328 Clouds -1 1012 80 16093 4.1 300 09:19 12.10.2019
329 Clouds 0 1011 86 14484 3.6 290 08:44 12.10.2019
330 Clouds 0 1011 86 14484 3.6 290 08:44 12.10.2019
331 Snow 0 1011 86 14484 4.1 280 08:24 12.10.2019
332 Snow 0 1011 86 11265 4.6 280 07:57 12.10.2019
333 Snow 0 1010 80 14484 3.6 290 07:31 12.10.2019
334 Snow 0 1009 86 11265 3.6 310 06:28 12.10.2019
335 Snow 0 1009 86 11265 2.6 310 05:43 12.10.2019
336 Snow 0 1008 74 11265 4.1 330 04:34 12.10.2019
337 Snow 0 1007 69 14484 3.1 320 03:54 12.10.2019
338 Snow 1 1006 73 4023 4.1 270 02:50 12.10.2019
339 Snow 0 1005 74 16093 3.6 300 01:33 12.10.2019
340 Snow 0 1005 73 1609 4.6 270 00:55 12.10.2019
341 Snow 0 1005 80 16093 3.6 280 00:37 12.10.2019
342 Snow 0 1005 80 14484 3.1 330 23:55 11.10.2019
343 Snow 0 1005 80 14484 3.6 340 23:36 11.10.2019
344 Snow 0 1005 80 14484 3.6 340 23:18 11.10.2019
345 Snow 0 1005 80 16093 3.6 340 22:38 11.10.2019
346 Snow 0 1005 80 14484 3.1 320 22:19 11.10.2019
347 Snow 0 1004 80 14484 4.1 310 21:43 11.10.2019
348 Snow 0 1004 80 12874 3.1 330 21:22 11.10.2019
349 Snow 0 1004 80 12874 4.1 320 20:59 11.10.2019
350 Snow 0 1004 80 12874 4.1 320 20:41 11.10.2019
351 Snow 0 1004 80 14484 3.6 320 20:23 11.10.2019
352 Snow -1 1003 85 4828 4.6 290 19:55 11.10.2019
353 Snow -1 1003 85 4828 4.6 290 19:37 11.10.2019
354 Snow -1 1004 86 14484 2.6 320 19:18 11.10.2019
355 Snow -1 1004 86 14484 2.6 320 19:18 11.10.2019
356 Snow -1 1004 86 14484 2.6 320 19:18 11.10.2019
357 Snow -1 1004 86 14484 2.6 320 19:18 11.10.2019
358 Snow -1 1004 86 14484 2.6 320 19:18 11.10.2019
359 Snow 0 1005 86 11265 3.6 320 18:56 11.10.2019
360 Snow 0 1004 74 9656 4.6 340 18:37 11.10.2019
361 Snow 0 1005 86 14484 3.1 320 18:18 11.10.2019
362 Snow 0 1004 86 14484 3.1 320 17:55 11.10.2019
363 Snow 0 1004 86 14484 3.1 320 17:36 11.10.2019
364 Snow 0 1004 80 4023 4.6 340 17:18 11.10.2019
365 Snow 0 1003 92 6437 4.1 300 16:40 11.10.2019
366 Snow 0 1004 92 12874 3.1 320 16:20 11.10.2019
367 Snow 0 1004 92 12874 3.1 320 16:20 11.10.2019
368 Snow 0 1004 92 14484 2.6 300 15:58 11.10.2019
369 Snow 1 1004 92 14484 2.6 300 15:38 11.10.2019
370 Snow 1 1005 94 14484 2.6 310 15:19 11.10.2019
371 Rain 1 1005 94 14484 3.6 340 14:47 11.10.2019
372 Rain 1 1005 94 14484 3.6 340 14:29 11.10.2019
373 Snow 1 1005 94 14484 3.1 330 13:56 11.10.2019
374 Snow 1 1005 94 14484 3.1 330 13:37 11.10.2019
375 Rain 1 1005 93 16093 2.1 330 13:19 11.10.2019
376 Snow 1 1005 93 16093 1.5 340 12:54 11.10.2019
377 Snow 1 1005 93 16093 1.94 328.449 12:36 11.10.2019
378 Snow 1 1005 93 16093 1.62 332.488 12:18 11.10.2019
379 Snow 1 1006 93 11265 2.6 20 11:41 11.10.2019
380 Rain 1 1006 93 11265 2.6 20 11:22 11.10.2019
381 Snow 1 1006 93 11265 1.62 332.488 10:56 11.10.2019
382 Snow 1 1006 93 11265 1.62 332.488 10:38 11.10.2019
383 Rain 1 1006 93 12874 1.5 340 10:20 11.10.2019
384 Rain 1 1005 97 16093 1.62 332.488 09:55 11.10.2019
385 Rain 1 1005 97 16093 1.79 326.905 09:37 11.10.2019
386 Snow 1 1006 93 16093 1.5 330 09:18 11.10.2019
387 Snow 1 1006 93 16093 1.5 330 09:18 11.10.2019
388 Rain 1 1007 93 16093 1.5 320 08:54 11.10.2019
389 Rain 1 1007 93 16093 1.5 320 08:36 11.10.2019
390 Rain 1 1007 93 16093 1.5 320 08:18 11.10.2019
391 Rain 1 1006 93 12874 2.1 320 07:41 11.10.2019
392 Rain 1 1007 100 11265 1.51 331.928 07:22 11.10.2019
393 Rain 2 1006 86 16093 3.1 360 06:47 11.10.2019
394 Rain 2 1007 100 11265 1.26 339.081 06:22 11.10.2019
395 Rain 2 1007 93 14484 1.26 339.081 05:37 11.10.2019
396 Rain 2 1007 100 14484 1.26 339.081 04:59 11.10.2019
397 Rain 2 1007 93 14484 2.6 350 04:24 11.10.2019
398 Rain 2 1008 100 8047 1.5 130 02:19 11.10.2019
399 Rain 2 1008 97 4828 1.21 333.923 00:43 11.10.2019
400 Rain 2 1008 93 8047 1.2 324.412 00:25 11.10.2019
401 Rain 2 1008 100 8047 1.2 324.412 23:43 10.10.2019
402 Rain 2 1008 100 8047 1.2 324.412 23:21 10.10.2019
403 Rain 2 1008 100 8047 1.2 324.412 22:57 10.10.2019
404 Rain 2 1008 100 8047 1.2 324.412 22:38 10.10.2019
405 Rain 2 1008 100 8047 1.2 324.412 22:20 10.10.2019
406 Rain 2 1009 100 9656 1.2 324.412 21:56 10.10.2019
407 Rain 2 1009 100 9656 1.2 324.412 21:56 10.10.2019
408 Rain 2 1009 100 9656 1.2 324.412 21:56 10.10.2019
409 Rain 2 1009 100 9656 1.2 324.412 21:38 10.10.2019
410 Rain 2 1009 100 9656 1.03 347.994 21:20 10.10.2019
411 Rain 2 1009 93 14484 1.5 120 20:42 10.10.2019
412 Rain 2 1009 93 16093 0.78 350.381 20:21 10.10.2019
413 Rain 2 1009 93 9656 1.5 360 19:58 10.10.2019
414 Rain 2 1009 93 9656 1.5 360 19:40 10.10.2019
415 Rain 2 1009 93 9656 1.5 360 19:20 10.10.2019
416 Rain 2 1009 93 9656 1.5 360 19:20 10.10.2019
417 Rain 1 1010 100 11265 1.5 310 18:57 10.10.2019
418 Rain 2 1010 93 11265 1.5 310 18:38 10.10.2019
419 Rain 2 1010 93 11265 1.5 310 18:19 10.10.2019
420 Rain 2 1011 100 16093 0.73 340.184 17:54 10.10.2019
421 Clouds 1 1011 100 16093 0.73 340.184 17:36 10.10.2019
422 Rain 2 1011 93 16093 0.73 340.184 17:18 10.10.2019
423 Rain 2 1011 93 11265 1.5 310 16:41 10.10.2019
424 Rain 2 1011 100 11265 1.5 310 16:22 10.10.2019
425 Rain 2 1011 100 11265 0.73 340.184 15:44 10.10.2019
426 Rain 2 1011 100 11265 1.5 320 15:25 10.10.2019
427 Rain 1 1011 93 16093 3.1 310 14:59 10.10.2019
428 Rain 2 1011 93 16093 3.1 310 14:38 10.10.2019
429 Rain 2 1012 86 6437 0.02 217.405 14:19 10.10.2019
430 Rain 2 1012 100 12874 0.02 217.405 13:59 10.10.2019
431 Rain 2 1012 100 12874 0.02 217.405 13:59 10.10.2019
432 Rain 2 1012 100 12874 0.02 217.405 13:41 10.10.2019
433 Rain 2 1012 100 12874 0.72 22.202 13:20 10.10.2019
434 Rain 2 1012 100 12874 0.72 22.202 12:57 10.10.2019
435 Rain 2 1013 100 11265 0.72 22.202 12:39 10.10.2019
436 Rain 2 1013 100 11265 0.55 83.442 12:19 10.10.2019
437 Rain 2 1013 100 9656 0.55 83.442 11:55 10.10.2019
438 Rain 2 1013 100 9656 0.55 83.442 11:37 10.10.2019
439 Rain 2 1013 100 11265 0.55 83.442 11:18 10.10.2019
440 Snow 2 1014 100 12874 0.55 83.442 10:44 10.10.2019
441 Rain 2 1014 100 16093 0.55 83.442 10:25 10.10.2019
442 Snow 2 1014 100 16093 0.55 83.442 09:56 10.10.2019
443 Clouds 2 1014 93 16093 0.55 83.442 09:37 10.10.2019
444 Rain 2 1014 93 16093 0.85 138.406 09:19 10.10.2019
445 Rain 2 1014 93 16093 0.85 138.406 08:41 10.10.2019
446 Rain 2 1014 100 16093 0.85 138.406 08:23 10.10.2019
447 Rain 2 1014 93 16093 0.85 138.406 07:58 10.10.2019
448 Rain 2 1014 93 16093 0.85 138.406 07:40 10.10.2019
449 Rain 3 1014 93 14484 0.85 138.406 07:20 10.10.2019
450 Rain 3 1014 93 4828 0.85 138.406 06:45 10.10.2019
451 Rain 3 1014 93 16093 2.1 200 06:22 10.10.2019
452 Drizzle 3 1014 100 16093 1.5 180 05:24 10.10.2019
453 Rain 3 1014 93 16093 1.5 190 04:37 10.10.2019
454 Rain 4 1014 86 12874 2.1 280 03:27 10.10.2019
455 Clouds 4 1014 80 16093 3.1 320 01:42 10.10.2019
456 Clouds 4 1014 80 16093 3.1 320 01:42 10.10.2019
457 Clouds 4 1014 80 16093 3.1 320 01:24 10.10.2019
458 Clouds 4 1014 75 16093 1.5 360 00:45 10.10.2019
459 Clouds 4 1013 87 0 0.45 286 00:20 10.10.2019
460 Rain 3 1013 86 16093 1.5 320 23:39 09.10.2019
461 Rain 3 1013 86 16093 1.5 320 23:20 09.10.2019
462 Rain 3 1013 86 16093 1.5 350 22:43 09.10.2019
463 Rain 3 1013 86 16093 1.5 350 22:24 09.10.2019
464 Rain 2 1014 100 16093 0.9 218.071 21:59 09.10.2019
465 Rain 2 1014 100 16093 0.9 218.071 21:59 09.10.2019
466 Rain 2 1014 100 16093 0.9 218.071 21:40 09.10.2019
467 Rain 2 1014 100 16093 0.41 82.341 21:20 09.10.2019
468 Rain 2 1014 100 12874 0.58 74.884 20:56 09.10.2019
469 Rain 2 1014 100 12874 0.58 74.884 20:56 09.10.2019
470 Rain 1 1014 100 12874 0.58 74.884 20:37 09.10.2019
471 Rain 1 1013 93 16093 1.5 40 20:18 09.10.2019
472 Rain 1 1013 93 16093 1.5 40 20:18 09.10.2019
473 Rain 1 1014 93 16093 0.58 74.884 19:46 09.10.2019
474 Rain 1 1014 93 16093 0.58 74.884 19:24 09.10.2019
475 Clouds 1 1014 93 16093 0.58 74.884 18:58 09.10.2019
476 Clouds 1 1014 93 16093 0.58 74.884 18:38 09.10.2019
477 Rain 1 1014 93 16093 0.61 118.039 18:18 09.10.2019
478 Rain 1 1014 100 14484 0.61 118.039 17:56 09.10.2019
479 Rain 1 1014 100 14484 0.61 118.039 17:37 09.10.2019
480 Rain 1 1014 100 14484 0.61 118.039 17:18 09.10.2019
481 Clouds 1 1015 100 14484 0.61 118.039 16:42 09.10.2019
482 Rain 1 1015 93 12874 0.61 118.039 16:23 09.10.2019
483 Rain 1 1014 93 16093 0.61 118.039 15:58 09.10.2019
484 Rain 1 1014 93 16093 0.61 118.039 15:39 09.10.2019
485 Clouds 1 1015 100 16093 1.5 70 15:20 09.10.2019
486 Rain 1 1016 100 16093 1.14 139.616 14:59 09.10.2019
487 Rain 1 1016 100 16093 1.14 139.616 14:41 09.10.2019
488 Rain 1 1016 100 16093 1.14 139.616 14:18 09.10.2019
489 Rain 1 1015 93 16093 1.14 139.616 13:40 09.10.2019
490 Rain 1 1015 93 16093 1.14 139.616 13:40 09.10.2019
491 Rain 1 1016 93 12874 1.23 135.329 13:22 09.10.2019
492 Rain 1 1016 100 14484 1.23 135.329 12:59 09.10.2019
493 Rain 1 1016 100 14484 1.23 135.329 12:41 09.10.2019
494 Rain 1 1016 100 12874 1.5 60 12:21 09.10.2019
495 Rain 1 1016 93 12874 2.6 60 11:55 09.10.2019
496 Rain 1 1016 93 12874 2.6 60 11:37 09.10.2019
497 Rain 1 1016 93 11265 2.1 70 11:19 09.10.2019
498 Rain 1 1016 93 6437 2.6 60 10:44 09.10.2019
499 Rain 1 1016 93 12874 1.5 70 10:22 09.10.2019
500 Rain 1 1016 93 12874 1.31 139.251 09:59 09.10.2019
501 Rain 1 1016 93 12874 1.31 139.251 09:40 09.10.2019
502 Rain 1 1016 93 11265 0.9 111.991 09:19 09.10.2019
503 Rain 1 1016 93 14484 1.5 60 08:41 09.10.2019
504 Snow 1 1016 93 16093 2.1 50 08:23 09.10.2019
505 Rain 1 1016 93 16093 1.5 70 07:59 09.10.2019
506 Snow 1 1016 93 16093 1.5 70 07:39 09.10.2019
507 Snow 1 1016 93 16093 1.5 70 07:20 09.10.2019
508 Snow 1 1017 93 16093 1.5 100 06:51 09.10.2019
509 Rain 1 1017 93 16093 2.1 80 05:56 09.10.2019
510 Rain 1 1017 93 16093 2.1 80 05:37 09.10.2019
511 Rain 1 1017 100 4828 3.1 60 04:25 09.10.2019
512 Mist 1 1018 93 12874 2.1 80 02:53 09.10.2019
513 Snow 1 1018 93 12874 2.1 60 01:43 09.10.2019
514 Snow 1 1018 93 16093 2.1 60 01:20 09.10.2019
515 Mist 1 1018 86 11265 1.5 40 00:57 09.10.2019
516 Mist 1 1019 97 6437 2.6 70 00:38 09.10.2019
517 Mist 1 1019 93 6437 2.6 70 00:20 09.10.2019
518 Rain 0 1019 93 4828 2.6 50 23:39 08.10.2019
519 Rain 0 1019 93 3219 2.6 80 23:19 08.10.2019
520 Rain 0 1019 93 3219 2.6 80 23:19 08.10.2019
521 Rain 0 1019 93 3017 2.6 80 22:57 08.10.2019
522 Rain 0 1019 93 3017 2.6 80 22:38 08.10.2019
523 Rain 0 1019 93 4023 3.1 70 22:19 08.10.2019
524 Rain 0 1020 93 6437 2.6 80 21:57 08.10.2019
525 Snow 0 1020 93 2012 2.6 100 21:39 08.10.2019
526 Snow -1 1020 94 2012 2.6 100 21:19 08.10.2019
527 Snow -1 1020 94 2012 2.6 100 21:19 08.10.2019
528 Snow -1 1019 94 3219 1.37 135.148 20:56 08.10.2019
529 Snow -1 1019 94 3219 1.28 128.73 20:37 08.10.2019
530 Snow -1 1020 94 2012 2.1 70 20:19 08.10.2019
531 Snow -1 1020 94 3219 2.1 70 19:57 08.10.2019
532 Snow -1 1020 94 3219 2.1 70 19:38 08.10.2019
533 Snow -1 1020 100 9656 2.1 60 19:20 08.10.2019
534 Snow -1 1020 94 3219 1.5 60 18:46 08.10.2019
535 Snow -1 1020 94 16093 2.1 70 18:28 08.10.2019
536 Snow -1 1020 100 16093 2.1 60 17:59 08.10.2019
537 Snow -1 1020 100 16093 2.1 60 17:40 08.10.2019
538 Snow -1 1021 91 16093 1.5 60 17:20 08.10.2019
539 Snow -1 1021 91 11265 1.5 80 16:57 08.10.2019
540 Snow -1 1021 91 11265 1.5 80 16:38 08.10.2019
541 Snow -1 1021 91 14484 1.5 80 16:20 08.10.2019
542 Snow -1 1022 91 16093 1.5 60 15:40 08.10.2019
543 Snow -1 1022 93 16093 1.5 60 15:21 08.10.2019
544 Snow -1 1022 93 16093 1.57 151.494 14:57 08.10.2019
545 Clouds -1 1022 93 16093 1.57 151.494 14:39 08.10.2019
546 Snow -1 1022 93 16093 1.57 151.494 14:20 08.10.2019
547 Clouds -1 1023 93 16093 3.6 70 13:56 08.10.2019
548 Clouds -1 1023 93 16093 3.6 70 13:37 08.10.2019
549 Clouds -1 1023 93 16093 3.6 70 13:18 08.10.2019
550 Clouds -1 1023 92 16093 1.47 139.69 12:42 08.10.2019
551 Clouds -1 1023 89 16093 1.5 70 12:22 08.10.2019
552 Clouds -1 1023 89 16093 1.5 50 11:59 08.10.2019
553 Clouds -1 1023 89 16093 1.5 50 11:40 08.10.2019
554 Clouds -1 1023 89 16093 1.5 50 11:22 08.10.2019
555 Clouds -1 1024 89 16093 2.6 70 10:56 08.10.2019
556 Clouds -1 1024 89 16093 2.6 70 10:36 08.10.2019
557 Clouds -1 1024 89 16093 2.6 70 10:18 08.10.2019
558 Clear -1 1024 89 16093 2.1 70 09:41 08.10.2019
559 Clear -1 1024 91 16093 2.1 70 09:23 08.10.2019
560 Clouds -1 1025 91 16093 2.6 70 08:59 08.10.2019
561 Clouds -1 1025 95 16093 2.6 70 08:41 08.10.2019
562 Clouds -1 1025 95 16093 2.6 70 08:22 08.10.2019
563 Clouds -1 1025 95 16093 2.6 80 07:42 08.10.2019
564 Clouds 0 1025 95 16093 2.6 80 07:21 08.10.2019
565 Clouds 0 1025 95 16093 2.6 80 07:21 08.10.2019
566 Clouds 0 1026 95 16093 1.15 142.513 06:49 08.10.2019
567 Clouds 0 1025 74 16093 2.1 120 06:28 08.10.2019
568 Clouds 0 1026 80 16093 1.5 90 05:46 08.10.2019
569 Clouds 1 1026 80 16093 1.5 90 05:25 08.10.2019
570 Rain 1 1026 80 16093 2.1 270 03:57 08.10.2019
571 Rain 1 1026 80 16093 2.1 270 03:24 08.10.2019
572 Rain 1 1026 80 16093 3.6 210 02:35 08.10.2019
573 Rain 1 1026 80 16093 3.1 220 01:45 08.10.2019
574 Rain 2 1026 74 16093 2.1 270 01:26 08.10.2019
575 Rain 1 1026 74 16093 4.1 260 00:46 08.10.2019
576 Rain 1 1026 80 16093 4.1 240 00:20 08.10.2019
577 Clouds 1 1026 80 16093 4.6 240 23:39 07.10.2019
578 Clouds 1 1026 80 16093 4.6 240 23:20 07.10.2019
579 Clouds 1 1026 80 16093 5.1 230 22:56 07.10.2019
580 Clouds 1 1026 80 16093 5.1 230 22:38 07.10.2019
581 Clouds 0 1026 80 16093 5.1 230 22:20 07.10.2019
582 Clouds 0 1025 68 16093 3.6 260 21:56 07.10.2019
583 Clouds 0 1025 68 16093 4.6 230 21:37 07.10.2019
584 Clouds 0 1025 68 16093 4.6 230 21:37 07.10.2019
585 Clouds -1 1025 82 16093 4.6 230 21:19 07.10.2019
586 Clouds -1 1025 82 16093 4.6 230 21:19 07.10.2019
587 Clouds -1 1025 82 16093 4.6 230 21:19 07.10.2019
588 Clouds -1 1025 85 14484 3.1 240 20:57 07.10.2019
589 Clouds -1 1025 85 14484 3.1 240 20:39 07.10.2019
590 Clouds -1 1025 85 14484 3.6 240 20:19 07.10.2019
591 Clouds -1 1024 85 16093 3.6 240 19:57 07.10.2019
592 Clouds -2 1024 85 16093 3.6 240 19:39 07.10.2019
593 Clouds -1 1024 85 14484 4.1 240 19:18 07.10.2019
594 Clouds -2 1024 92 14484 3.6 240 18:56 07.10.2019
595 Clouds -2 1024 92 16093 3.1 240 18:38 07.10.2019
596 Clouds -1 1024 92 16093 3.1 240 18:18 07.10.2019
597 Clouds -1 1023 100 14484 2.1 250 17:42 07.10.2019
598 Clouds -1 1023 100 16093 1.71 242.551 17:19 07.10.2019
599 Snow -1 1023 100 14484 1.71 242.551 16:55 07.10.2019
600 Snow -1 1023 100 14484 1.71 242.551 16:37 07.10.2019
601 Snow -1 1023 87 16093 2.6 210 16:19 07.10.2019
602 Clouds -2 1023 92 16093 1.71 242.551 15:43 07.10.2019
603 Snow -1 1022 92 16093 1.27 234.882 15:25 07.10.2019
604 Clouds -2 1022 92 14484 1.27 234.882 14:42 07.10.2019
605 Snow -1 1022 89 16093 2.1 240 14:24 07.10.2019
606 -273 0 0 0 0 0 14:24 07.10.2019
607 Clouds -1 1021 89 16093 3.1 240 13:59 07.10.2019
608 Clouds -1 1021 89 16093 3.1 240 13:41 07.10.2019
609 Clouds -2 1021 92 16093 2.6 240 13:19 07.10.2019
610 Clouds -2 1021 92 16093 2.1 230 12:55 07.10.2019
611 Clouds -2 1021 92 16093 2.1 230 12:37 07.10.2019
612 Clouds -2 1020 92 14484 2.1 210 12:18 07.10.2019
613 Clouds -2 1020 96 16093 3.1 0 11:56 07.10.2019
614 Clouds -2 1020 96 16093 3.1 0 11:37 07.10.2019
615 Clear -2 1020 92 16093 3.6 260 11:18 07.10.2019
616 Clouds -2 1019 96 16093 4.6 270 10:41 07.10.2019
617 Clear -2 1019 92 16093 5.7 260 10:20 07.10.2019
618 Clouds -1 1018 96 16093 4.6 260 09:42 07.10.2019
619 Clear -1 1018 91 16093 4.6 260 09:23 07.10.2019
620 Clouds -1 1016 91 16093 4.6 250 08:56 07.10.2019
621 Clouds -1 1016 93 16093 4.6 250 08:38 07.10.2019
622 Clouds -1 1016 93 16093 4.6 250 08:19 07.10.2019
623 Clouds 0 1015 80 16093 5.1 260 07:41 07.10.2019
624 Clouds 0 1015 80 16093 5.1 260 07:21 07.10.2019
625 Clouds 0 1014 86 16093 5.7 270 06:49 07.10.2019
626 Clouds 0 1014 86 16093 5.7 270 06:27 07.10.2019
627 Snow 0 1013 86 16093 4.1 270 05:47 07.10.2019
628 Snow 0 1013 86 16093 4.1 270 05:21 07.10.2019
629 Rain 0 1013 86 16093 6.7 260 04:25 07.10.2019
630 Rain 0 1012 86 16093 4.6 250 03:44 07.10.2019
631 Rain 0 1012 86 16093 4.6 250 03:44 07.10.2019
632 Rain 0 1012 83 14484 3.1 260 03:20 07.10.2019
633 Rain 0 1011 83 16093 4.1 240 02:21 07.10.2019
634 Rain 1 1010 83 16093 5.7 230 01:50 07.10.2019
635 Rain 1 1010 84 16093 3.6 220 01:21 07.10.2019
636 Rain 1 1009 84 16093 3.1 230 00:39 07.10.2019
637 Rain 1 1009 84 16093 3.1 230 00:39 07.10.2019
638 Rain 1 1009 89 16093 3.1 200 00:20 07.10.2019
639 Clouds 1 1008 86 16093 2.6 0 23:42 06.10.2019
640 Snow 0 1008 89 16093 1.5 240 23:22 06.10.2019
641 Mist 0 1008 89 16093 2.1 260 22:59 06.10.2019
642 Mist 0 1008 89 16093 2.1 260 22:41 06.10.2019
643 Mist 0 1007 89 16093 1.32 251.017 22:22 06.10.2019
644 Snow 0 1007 89 16093 1.32 251.017 21:58 06.10.2019
645 Snow 0 1007 89 16093 1.32 251.017 21:38 06.10.2019
646 Snow 0 1007 89 16093 1.32 251.017 21:38 06.10.2019
647 Snow 0 1006 96 3219 1.13 178.982 21:19 06.10.2019
648 Snow -1 1006 100 2816 1.13 178.982 20:58 06.10.2019
649 Snow -1 1006 100 2816 1.13 178.982 20:58 06.10.2019
650 Snow -1 1006 100 2816 0.9 186.873 20:40 06.10.2019
651 Snow -1 1006 100 3017 0.9 186.873 20:20 06.10.2019
652 Snow -1 1005 92 1609 0.9 186.873 19:57 06.10.2019
653 Snow -1 1006 100 2213 0.9 186.873 19:37 06.10.2019
654 Snow -1 1006 100 2213 0.9 186.873 19:19 06.10.2019
655 Snow -1 1006 100 2414 2.1 170 18:57 06.10.2019
656 Snow -1 1006 100 2414 2.1 170 18:38 06.10.2019
657 Snow -1 1005 100 3621 2.1 170 18:19 06.10.2019
658 Snow -1 1005 100 3621 2.1 170 18:19 06.10.2019
659 Snow -1 1005 92 3219 1.5 150 17:57 06.10.2019
660 Snow -1 1005 92 3219 1.5 150 17:38 06.10.2019
661 Snow -1 1005 92 3219 2.1 140 17:19 06.10.2019
662 Snow -1 1005 92 4023 2.6 130 16:42 06.10.2019
663 Snow -1 1006 100 4828 1.5 130 16:23 06.10.2019
664 Snow -1 1006 100 4828 2.6 140 15:56 06.10.2019
665 Snow -2 1006 100 4828 2.6 140 15:38 06.10.2019
666 Snow -2 1006 92 1609 2.1 140 15:18 06.10.2019
667 Snow -2 1006 100 16093 1.5 120 14:42 06.10.2019
668 -273 0 0 0 0 0 14:24 06.10.2019
669 Clouds -2 1006 86 16093 1.13 187.829 13:58 06.10.2019
670 Clouds -2 1006 86 16093 1.13 187.829 13:39 06.10.2019
671 Clouds -2 1006 92 16093 0.94 179.574 13:20 06.10.2019
672 Clouds -2 1006 92 16093 0.94 179.574 12:56 06.10.2019
673 Clouds -2 1006 92 16093 0.94 179.574 12:38 06.10.2019
674 Clouds -2 1006 92 16093 3.1 200 12:20 06.10.2019
675 Clouds -2 1007 92 16093 2.6 200 11:56 06.10.2019
676 Clouds -2 1007 92 16093 2.6 200 11:37 06.10.2019
677 Clouds -2 1007 92 16093 2.6 200 11:37 06.10.2019
678 Clouds -2 1007 92 16093 2.6 200 11:18 06.10.2019
679 Clouds -2 1006 86 16093 2.1 200 10:42 06.10.2019
680 Clouds -2 1006 100 16093 2.1 160 10:24 06.10.2019
681 Clouds -2 1006 100 16093 1.5 190 09:56 06.10.2019
682 Clouds -2 1006 100 16093 1.5 190 09:38 06.10.2019
683 Clouds -1 1006 100 16093 2.1 140 09:18 06.10.2019
684 Clouds -1 1006 96 16093 3.1 200 08:40 06.10.2019
685 Clouds -1 1006 96 16093 3.1 200 08:20 06.10.2019
686 Clouds -1 1006 96 16093 5.1 220 07:44 06.10.2019
687 Clouds -1 1006 96 16093 5.1 220 07:19 06.10.2019
688 Snow -1 1006 94 12874 4.6 190 06:20 06.10.2019
689 Snow -1 1006 94 11265 2.75 201.488 05:33 06.10.2019
690 Snow 0 1006 86 1207 3.1 200 03:41 06.10.2019
691 Snow 1 1007 80 14484 4.1 200 02:42 06.10.2019
692 Snow 1 1007 96 16093 5.1 210 02:20 06.10.2019
693 Snow 0 1007 74 12874 4.6 210 01:40 06.10.2019
694 Rain 0 1007 86 14484 4.1 200 01:21 06.10.2019
695 Rain 0 1007 86 4828 4.6 210 00:46 06.10.2019
696 Snow 0 1007 86 4828 4.1 240 00:25 06.10.2019
697 Snow 0 1007 86 12874 5.1 230 23:44 05.10.2019
698 Snow 0 1007 80 3219 5.7 250 23:22 05.10.2019
699 Snow 0 1007 74 16093 3.1 160 22:58 05.10.2019
700 Snow 0 1007 74 16093 3.1 160 22:40 05.10.2019
701 Snow 0 1007 74 16093 3.1 160 22:40 05.10.2019
702 Clouds 0 1007 74 16093 3.1 140 22:20 05.10.2019
703 Clouds 0 1008 94 12874 3.68 215.921 21:56 05.10.2019
704 Clouds 0 1008 94 12874 3.68 215.921 21:38 05.10.2019
705 -273 0 0 0 0 0 21:18 05.10.2019
706 Clouds -1 1008 86 16093 3.1 160 20:55 05.10.2019
707 Clouds -1 1008 86 16093 3.1 160 20:37 05.10.2019
708 Clouds -1 1008 86 16093 3.1 160 20:18 05.10.2019
709 Clouds -2 1008 86 16093 3.6 120 19:37 05.10.2019
710 Clouds -2 1008 86 16093 3.6 120 19:19 05.10.2019
711 Clouds -2 1008 80 16093 2.1 0 18:55 05.10.2019
712 Clouds -2 1008 80 16093 2.1 0 18:37 05.10.2019
713 Clouds -2 1008 86 16093 3.6 200 18:19 05.10.2019
714 Clear -2 1009 86 16093 2.01 197.443 17:43 05.10.2019
715 Clouds -1 1008 97 16093 2.6 220 17:24 05.10.2019
716 Clouds -1 1009 97 16093 4.1 240 16:57 05.10.2019
717 Clouds -1 1009 97 16093 4.1 240 16:39 05.10.2019
718 Clouds -1 1009 97 16093 4.1 240 16:20 05.10.2019
719 Clouds -1 1009 97 16093 3.1 220 15:57 05.10.2019
720 Clouds -1 1009 97 16093 3.1 220 15:38 05.10.2019
721 Clouds -1 1009 89 16093 3.1 220 15:20 05.10.2019
722 Clouds 0 1008 86 16093 5.1 210 14:44 05.10.2019
723 Clouds 0 1008 86 16093 5.1 210 14:25 05.10.2019
724 Clouds 0 1008 86 16093 5.7 240 13:59 05.10.2019
725 Clouds 0 1008 86 16093 5.7 240 13:40 05.10.2019
726 Clouds 0 1008 86 16093 5.7 240 13:20 05.10.2019
727 Clouds 0 1007 86 16093 6.2 250 12:44 05.10.2019
728 Clouds 0 1007 80 16093 5.1 250 12:19 05.10.2019
729 Rain 1 1006 93 16093 5.1 240 11:44 05.10.2019
730 Rain 1 1005 93 16093 3.6 250 11:23 05.10.2019
731 Rain 1 1006 97 16093 3.6 240 10:59 05.10.2019
732 Rain 1 1006 97 16093 3.6 240 10:40 05.10.2019
733 Rain 1 1005 93 16093 2.1 220 10:21 05.10.2019
734 Clouds 1 1005 97 16093 3.25 218.723 09:56 05.10.2019
735 Clouds 1 1005 97 16093 3.25 218.723 09:37 05.10.2019
736 Clouds 1 1005 93 11265 4.1 240 09:19 05.10.2019
737 Clouds 1 1005 93 11265 5.7 230 08:39 05.10.2019
738 Clouds 1 1005 93 11265 5.7 230 08:19 05.10.2019
739 Clouds 2 1004 93 11265 6.7 220 07:52 05.10.2019
740 Clouds 2 1004 86 16093 3.6 210 07:31 05.10.2019
741 Clouds 2 1003 86 16093 5.1 240 06:57 05.10.2019
742 Rain 2 1003 86 16093 5.1 240 06:24 05.10.2019
743 Rain 2 1003 93 16093 3.1 0 05:39 05.10.2019
744 Rain 4 1001 93 14484 2.1 180 03:39 05.10.2019
745 Rain 4 1001 93 11265 1.89 174.712 03:20 05.10.2019
746 Rain 3 1001 93 9656 2.15 165.279 01:29 05.10.2019
747 Rain 3 1002 93 9656 2.6 190 00:51 05.10.2019
748 Rain 3 1002 93 6437 2.6 120 00:28 05.10.2019
749 Rain 3 1002 93 8047 2.23 131.98 23:59 04.10.2019
750 Rain 3 1002 93 8047 2.23 131.98 23:41 04.10.2019
751 Rain 3 1002 93 8047 2.6 70 23:23 04.10.2019
752 Rain 3 1002 93 16093 2.23 131.98 22:57 04.10.2019
753 Rain 3 1002 93 16093 2.23 131.98 22:38 04.10.2019
754 Rain 3 1002 93 16093 2.23 131.98 22:38 04.10.2019
755 Rain 3 1003 93 8047 2.23 131.98 22:19 04.10.2019
756 Rain 2 1003 100 12874 2.1 120 21:55 04.10.2019
757 Rain 2 1003 100 12874 2.1 120 21:36 04.10.2019
758 Rain 2 1003 100 9656 2.6 70 21:18 04.10.2019
759 Rain 2 1004 93 12874 1.93 123.55 20:42 04.10.2019
760 Rain 1 1004 100 9656 2.6 100 20:23 04.10.2019
761 Rain 1 1004 93 16093 2.6 100 19:58 04.10.2019
762 Rain 1 1005 100 16093 3.1 80 19:39 04.10.2019
763 Rain 1 1005 100 16093 3.1 80 19:21 04.10.2019
764 Mist 1 1005 100 9656 2.1 80 18:56 04.10.2019
765 Mist 1 1005 100 9656 2.1 80 18:37 04.10.2019
766 Clouds 1 1006 100 16093 1.43 123.211 18:18 04.10.2019
767 Clear 1 1006 100 16093 3.6 70 17:41 04.10.2019
768 Clear 1 1006 100 16093 3.6 70 17:22 04.10.2019
769 Clouds 1 1008 100 16093 3.6 60 16:58 04.10.2019
770 Clouds 1 1008 100 16093 3.6 60 16:40 04.10.2019
771 Clouds 1 1008 100 16093 3.6 60 16:40 04.10.2019
772 Clouds 1 1008 100 16093 3.6 60 16:19 04.10.2019
773 Clouds 1 1008 100 16093 3.6 60 16:19 04.10.2019
774 Clear 1 1009 100 16093 1.5 80 15:57 04.10.2019
775 Clear 1 1009 100 16093 1.5 80 15:39 04.10.2019
776 Clear 1 1009 100 16093 1.5 80 15:19 04.10.2019
777 Fog 1 1009 100 16093 3.1 60 14:56 04.10.2019
778 Fog 0 1009 100 16093 3.1 60 14:38 04.10.2019
779 Fog 0 1009 100 16093 3.1 60 14:20 04.10.2019
780 Clear 1 1011 100 16093 2.6 70 13:44 04.10.2019
781 Clear 1 1011 100 16093 2.6 70 13:22 04.10.2019
782 Clear 1 1012 100 16093 2.1 70 12:55 04.10.2019
783 Clear 1 1012 100 16093 2.1 70 12:55 04.10.2019
784 Clear 1 1012 100 16093 2.1 70 12:36 04.10.2019
785 Snow 1 1012 100 16093 2.1 70 12:18 04.10.2019
786 Snow 1 1013 100 16093 2.6 80 11:42 04.10.2019
787 Clear 1 1013 100 16093 2.6 80 11:22 04.10.2019
788 Mist 1 1013 100 16093 2.6 70 10:55 04.10.2019
789 Mist 2 1013 86 16093 1.5 110 10:37 04.10.2019
790 Clouds 2 1013 100 16093 2.6 80 10:18 04.10.2019
791 Clouds 2 1014 100 16093 2.1 70 09:41 04.10.2019
792 Clouds 2 1014 100 16093 2.1 70 09:23 04.10.2019
793 Clouds 3 1015 100 16093 2.1 70 08:45 04.10.2019
794 Clouds 3 1015 100 16093 2.1 70 08:26 04.10.2019
795 Clouds 3 1015 93 16093 2.6 60 07:47 04.10.2019
796 Clouds 3 1015 93 16093 1.5 60 07:26 04.10.2019
797 Clouds 3 1015 93 12874 2.1 80 06:58 04.10.2019
798 Clouds 3 1015 93 12874 2.1 80 06:39 04.10.2019
799 Clouds 3 1015 93 12874 2.1 80 06:20 04.10.2019
800 Clouds 3 1015 93 12874 2.1 80 06:20 04.10.2019
801 Mist 3 1016 100 9656 1.5 50 05:20 04.10.2019
802 Mist 4 1016 100 2012 1.5 60 04:38 04.10.2019
803 Mist 3 1016 100 3017 1.23 163.403 03:18 04.10.2019
804 Rain 3 1016 100 9656 1.5 50 02:43 04.10.2019
805 Rain 3 1016 100 1810 1.5 80 01:53 04.10.2019
806 Rain 3 1016 100 1609 2.1 60 01:26 04.10.2019
807 Rain 2 1016 100 2414 2.1 70 00:33 04.10.2019
808 Rain 2 1015 93 2414 1.5 130 23:40 03.10.2019
809 Rain 2 1015 93 2414 1.5 130 23:21 03.10.2019
810 Rain 1 1016 100 3219 2.6 60 22:58 03.10.2019
811 Rain 1 1016 100 3219 2.6 60 22:58 03.10.2019
812 Rain 1 1016 100 3219 2.6 60 22:39 03.10.2019
813 Rain 1 1016 100 3219 2.6 60 22:39 03.10.2019
814 Rain 1 1016 100 3219 2.6 60 22:39 03.10.2019
815 Rain 1 1015 93 2414 1.4 148.679 22:21 03.10.2019
816 Rain 1 1015 93 11265 2.6 0 21:58 03.10.2019
817 Rain 1 1015 93 11265 2.6 0 21:40 03.10.2019
818 Rain 1 1016 100 6437 2.6 50 21:20 03.10.2019
819 Rain 1 1016 100 6437 1.61 152.323 20:58 03.10.2019
820 Rain 1 1016 100 6437 1.56 157.357 20:39 03.10.2019
821 Rain 0 1016 100 6437 1.56 157.357 20:20 03.10.2019
822 Rain 0 1016 100 4828 1.56 157.357 19:56 03.10.2019
823 Rain 0 1016 100 4828 1.56 157.357 19:56 03.10.2019
824 Rain 0 1016 100 4828 1.56 157.357 19:38 03.10.2019
825 Rain 0 1016 100 4828 1.56 157.357 19:19 03.10.2019
826 Rain 0 1016 100 4828 1.56 157.357 18:56 03.10.2019
827 Rain 0 1016 100 4828 1.56 157.357 18:37 03.10.2019
828 Rain 0 1015 86 3219 2.6 160 18:18 03.10.2019
829 Rain 1 1015 98 12874 1.18 127.828 17:42 03.10.2019
830 Rain 0 1015 98 12874 1.18 127.828 17:22 03.10.2019
831 Clouds 0 1015 98 16093 1.18 127.828 16:57 03.10.2019
832 Clouds 0 1015 98 16093 1.18 127.828 16:39 03.10.2019
833 Clouds 1 1015 100 16093 1.5 100 16:20 03.10.2019
834 Clouds 1 1016 100 14484 1.18 127.828 15:45 03.10.2019
835 Clouds 1 1015 100 16093 1.5 60 15:24 03.10.2019
836 Clouds 1 1015 98 16093 1.5 100 14:59 03.10.2019
837 Clouds 1 1015 93 14484 1.5 50 14:37 03.10.2019
838 Clouds 1 1015 93 14484 1.5 50 14:19 03.10.2019
839 Mist 1 1015 98 16093 2.6 160 13:44 03.10.2019
840 Mist 1 1015 100 11265 1.5 70 13:26 03.10.2019
841 Mist 1 1015 93 6437 1.38 152.656 12:59 03.10.2019
842 Mist 1 1015 93 6437 1.38 152.656 12:40 03.10.2019
843 Mist 1 1015 93 6437 1.38 152.656 12:40 03.10.2019
844 Mist 1 1015 100 8047 1.5 90 12:20 03.10.2019
845 Mist 1 1015 100 1408 1.5 100 11:58 03.10.2019
846 Mist 1 1015 100 1408 1.5 100 11:58 03.10.2019
847 Mist 1 1015 100 1408 1.5 100 11:40 03.10.2019
848 Clouds 1 1015 100 12874 1.49 147.133 11:21 03.10.2019
849 Clouds 2 1015 100 14484 1.5 60 10:57 03.10.2019
850 Clouds 2 1015 100 14484 1.5 60 10:38 03.10.2019
851 Clouds 2 1014 93 16093 1.5 130 10:18 03.10.2019
852 Clouds 2 1014 100 14484 1.49 147.133 09:56 03.10.2019
853 Clouds 2 1014 100 14484 1.49 147.133 09:37 03.10.2019
854 Clouds 2 1014 100 16093 1.31 152.4 09:19 03.10.2019
855 Clouds 2 1014 100 14484 1.16 146.365 08:42 03.10.2019
856 Rain 2 1014 100 12874 1.16 146.365 08:24 03.10.2019
857 Clouds 2 1014 100 16093 1.16 146.365 07:42 03.10.2019
858 Clouds 2 1014 100 16093 1.16 146.365 07:20 03.10.2019
859 Rain 3 1013 93 16093 1.5 190 06:53 03.10.2019
860 Rain 3 1014 100 12874 1.5 170 06:27 03.10.2019
861 Rain 2 1014 100 14484 2.1 200 05:49 03.10.2019
862 Rain 2 1013 100 16093 2.6 210 05:27 03.10.2019
863 Rain 2 1013 100 11265 4.1 220 04:45 03.10.2019
864 Rain 3 1013 100 11265 4.6 230 03:54 03.10.2019
865 Rain 2 1012 93 16093 2.1 230 03:19 03.10.2019
866 Rain 3 1012 93 12874 5.1 240 02:22 03.10.2019
867 Rain 2 1012 93 11265 2.1 270 01:40 03.10.2019
868 Rain 2 1011 93 12874 3.6 250 00:53 03.10.2019
869 Rain 2 1011 100 12874 3.6 250 00:31 03.10.2019
870 Rain 2 1011 100 12874 4.1 250 23:55 02.10.2019
871 Rain 1 1011 100 12874 4.1 250 23:36 02.10.2019
872 Rain 1 1011 100 12874 4.1 250 23:18 02.10.2019
873 Rain 2 1010 100 9656 4.1 260 22:41 02.10.2019
874 Rain 2 1010 100 9656 3.6 260 22:20 02.10.2019
875 Rain 2 1009 96 4828 3.1 270 21:55 02.10.2019
876 Rain 2 1009 96 4828 3.1 270 21:55 02.10.2019
877 Rain 1 1009 96 4828 3.1 270 21:37 02.10.2019
878 Rain 2 1009 86 4828 2.6 280 21:18 02.10.2019
879 Rain 2 1009 86 6437 1.5 250 20:55 02.10.2019
880 Rain 2 1009 86 6437 1.5 250 20:55 02.10.2019
881 Rain 2 1009 86 6437 1.5 250 20:54 02.10.2019
882 Rain 2 1009 86 6437 1.5 250 20:36 02.10.2019
883 Rain 2 1009 86 6437 1.5 250 20:36 02.10.2019
884 Rain 2 1009 86 6437 1.5 250 20:18 02.10.2019
885 Rain 2 1008 93 14484 1.05 297.586 19:43 02.10.2019
886 Rain 2 1008 93 14484 1.05 297.586 19:21 02.10.2019
887 Rain 2 1008 86 14484 1.05 297.586 18:57 02.10.2019
888 Rain 2 1008 86 14484 1.05 297.586 18:38 02.10.2019
889 Rain 2 1008 93 14484 1.08 315.827 18:20 02.10.2019
890 Rain 2 1008 86 11265 1.5 260 17:56 02.10.2019
891 Rain 2 1008 86 11265 1.5 260 17:37 02.10.2019
892 Rain 2 1008 86 11265 1.5 260 17:19 02.10.2019
893 Rain 2 1008 100 12874 2.6 270 16:42 02.10.2019
894 Rain 2 1008 93 11265 2.6 280 16:22 02.10.2019
895 Rain 2 1008 93 11265 2.6 280 15:59 02.10.2019
896 Rain 2 1008 86 11265 2.1 300 15:40 02.10.2019
897 Rain 3 1008 86 11265 2.1 300 15:22 02.10.2019
898 Rain 3 1008 93 9656 2.1 280 14:57 02.10.2019
899 Rain 3 1008 93 11265 2.1 280 14:39 02.10.2019
900 Rain 3 1008 93 11265 2.1 280 14:20 02.10.2019
901 Rain 3 1008 93 11265 1.5 280 13:45 02.10.2019
902 Rain 3 1008 93 11265 1.5 280 13:25 02.10.2019
903 Rain 3 1008 93 9656 1.15 316.699 12:58 02.10.2019
904 Rain 3 1007 100 11265 1.15 316.699 12:37 02.10.2019
905 Rain 3 1007 100 11265 1.32 329.171 12:19 02.10.2019
906 Rain 3 1007 100 12874 2.1 280 11:44 02.10.2019
907 Rain 3 1007 100 12874 2.1 280 11:23 02.10.2019
908 Rain 4 1007 86 9656 1.5 300 10:42 02.10.2019
909 Rain 4 1007 86 9656 1.5 300 10:20 02.10.2019
910 Rain 4 1007 86 6437 1.32 329.171 09:59 02.10.2019
911 Rain 4 1007 86 9656 1.32 329.171 09:37 02.10.2019
912 Rain 4 1007 86 9656 1.07 326.739 09:18 02.10.2019
913 Rain 4 1006 86 11265 1.28 316.393 08:44 02.10.2019
914 Rain 4 1007 86 12874 1.5 280 08:24 02.10.2019
915 Rain 4 1006 86 16093 1.5 310 07:58 02.10.2019
916 Rain 4 1007 86 4828 2.6 20 07:38 02.10.2019
917 Rain 4 1007 86 4828 2.6 20 07:20 02.10.2019
918 Rain 4 1007 86 4828 2.6 20 07:20 02.10.2019
919 Rain 4 1006 81 4828 3.1 40 06:31 02.10.2019
920 Rain 5 1006 87 8047 3.1 30 05:55 02.10.2019
921 Rain 5 1006 81 8047 3.1 20 05:24 02.10.2019
922 Rain 6 1005 93 9656 1.55 351.891 04:50 02.10.2019
923 Rain 7 1005 93 16093 1.55 351.891 03:52 02.10.2019
924 Clouds 7 1005 75 16093 2.07 346.332 02:41 02.10.2019
925 Clouds 7 1005 75 16093 2.07 346.332 02:23 02.10.2019
926 Clouds 7 1005 81 16093 1.5 160 01:22 02.10.2019
927 Clear 7 1006 81 16093 2.15 345.195 00:49 02.10.2019
928 Clear 7 1006 81 16093 2.15 345.195 00:25 02.10.2019
929 Rain 6 1006 86 16093 2.39 345.958 23:43 01.10.2019
930 Rain 5 1006 86 16093 2.39 345.958 23:24 01.10.2019
931 Rain 5 1006 93 16093 2.39 345.958 22:58 01.10.2019
932 Rain 4 1006 93 14484 2.39 345.958 22:39 01.10.2019
933 Rain 4 1006 93 14484 2.39 345.958 22:19 01.10.2019
934 Clouds 3 1006 93 14484 2.39 345.958 21:55 01.10.2019
935 Clouds 4 1006 93 14484 2.39 345.958 21:37 01.10.2019
936 Clouds 3 1006 93 14484 2.07 343.243 21:18 01.10.2019
937 Clouds 2 1007 100 16093 2.07 343.243 20:54 01.10.2019
938 Clouds 2 1007 100 16093 1.59 338.833 20:36 01.10.2019
939 Clouds 2 1007 100 16093 1.59 338.833 20:18 01.10.2019
940 Clear 2 1007 91 16093 1.5 140 19:44 01.10.2019
941 Clear 2 1007 91 16093 1.5 140 19:26 01.10.2019
942 Clear 1 1007 91 16093 2.6 110 18:59 01.10.2019
943 Clear 1 1007 91 16093 2.6 110 18:39 01.10.2019
944 Clear 1 1007 91 16093 2.6 110 18:39 01.10.2019
945 Clear 1 1007 94 16093 2.6 110 18:21 01.10.2019
946 Clouds 0 1008 100 14484 1.58 346.431 17:55 01.10.2019
947 Clouds 0 1008 100 14484 1.58 346.431 17:37 01.10.2019
948 Clouds 1 1008 100 14484 1.58 346.431 17:18 01.10.2019
949 Mist 0 1008 100 6437 1.58 346.431 16:57 01.10.2019
950 Mist 1 1008 100 1810 1.58 346.431 16:39 01.10.2019
951 Mist 1 1008 100 1810 1.58 346.431 16:20 01.10.2019
952 Mist 0 1008 94 16093 1.58 346.431 15:42 01.10.2019
953 Mist 1 1008 94 16093 1.14 0.252 15:21 01.10.2019
954 Mist 1 1008 94 2615 1.14 0.252 14:41 01.10.2019
955 Mist 1 1008 94 2615 1.14 0.252 14:20 01.10.2019
956 Fog 0 1009 100 603 1.14 0.252 13:57 01.10.2019
957 Clear 1 1009 94 14484 1.14 0.252 13:39 01.10.2019
958 Clear 1 1009 93 14484 1.32 359.264 13:20 01.10.2019
959 Clear 1 1009 93 14484 1.32 359.264 13:20 01.10.2019
960 Clear 1 1009 93 14484 1.32 359.264 13:20 01.10.2019
961 Mist 1 1009 100 1408 1.32 359.264 12:57 01.10.2019
962 Mist 1 1009 100 1408 1.32 359.264 12:57 01.10.2019
963 Clear 1 1009 93 12874 1.32 359.264 12:39 01.10.2019
964 Clear 2 1009 100 16093 0.95 357.216 12:18 01.10.2019
965 Clear 2 1009 100 16093 0.95 357.216 11:57 01.10.2019
966 Clear 2 1009 100 16093 0.95 357.216 11:37 01.10.2019
967 Clear 2 1009 100 16093 0.95 357.216 11:18 01.10.2019
968 Clear 2 1009 100 16093 0.95 357.216 11:18 01.10.2019
969 Clouds 3 1010 93 14484 0.95 357.216 10:49 01.10.2019
970 Clouds 3 1010 93 14484 0.95 357.216 10:29 01.10.2019
971 Clouds 3 1010 100 14484 0.95 357.216 09:48 01.10.2019
972 Clouds 3 1010 100 14484 0.95 357.216 09:27 01.10.2019
973 Clouds 4 1010 93 16093 0.78 328.671 08:57 01.10.2019
974 Clouds 4 1010 93 16093 0.59 322.503 08:39 01.10.2019
975 Clouds 4 1010 93 16093 0.59 322.503 08:39 01.10.2019
976 Clouds 4 1010 93 16093 0.59 322.503 08:21 01.10.2019
977 Rain 4 1010 93 16093 0.59 322.503 07:43 01.10.2019
978 Rain 4 1010 93 16093 0.59 322.503 07:24 01.10.2019
979 Clouds 5 1010 81 16093 0.59 322.503 06:46 01.10.2019
980 Clouds 6 1010 66 16093 1.5 190 06:18 01.10.2019
981 Clouds 6 1010 66 16093 1.5 190 05:45 01.10.2019
982 Clouds 8 1011 93 16093 1.05 207.028 04:50 01.10.2019
983 Clouds 8 1010 61 16093 1.5 0 04:26 01.10.2019
984 Rain 9 1011 62 14484 3.1 220 02:26 01.10.2019
985 Rain 9 1011 71 16093 1.59 200.447 01:58 01.10.2019
986 Clouds 9 1012 76 12874 1.5 90 00:53 01.10.2019
987 Clouds 9 1012 76 12874 1.5 90 00:27 01.10.2019
988 Fog 8 1012 87 14484 1.8 195.534 23:55 30.09.2019
989 Fog 8 1012 87 14484 1.8 195.534 23:37 30.09.2019
990 Fog 8 1012 87 14484 1.8 195.534 23:19 30.09.2019
991 Fog 8 1012 87 14484 1.8 195.534 23:19 30.09.2019
992 Fog 7 1012 93 14484 1.8 195.534 22:42 30.09.2019
993 Fog 7 1012 93 14484 1.8 195.534 22:24 30.09.2019
994 Rain 6 1012 93 12874 1.8 195.534 21:57 30.09.2019
995 Rain 6 1012 93 14484 1.8 195.534 21:38 30.09.2019
996 Rain 6 1012 93 14484 1.36 181.773 21:19 30.09.2019
997 Rain 6 1012 93 14484 1.36 181.773 21:19 30.09.2019
998 Fog 6 1012 93 14484 1.36 181.773 20:56 30.09.2019
999 Rain 6 1012 100 11265 1.35 195.957 20:38 30.09.2019
1000 Rain 6 1012 100 11265 1.35 195.957 20:20 30.09.2019
1001 Fog 6 1011 100 14484 1.35 195.957 19:56 30.09.2019
1002 Fog 6 1011 100 14484 1.35 195.957 19:38 30.09.2019
1003 Rain 6 1011 93 16093 1.35 195.957 19:19 30.09.2019
1004 Rain 6 1011 93 16093 1.35 195.957 18:57 30.09.2019
1005 Rain 6 1011 93 16093 1.35 195.957 18:57 30.09.2019
1006 Rain 6 1011 93 16093 1.35 195.957 18:37 30.09.2019
1007 Rain 6 1011 93 16093 1.36 217.571 18:19 30.09.2019
1008 Rain 6 1011 93 16093 2.1 240 17:42 30.09.2019
1009 Rain 6 1011 93 16093 2.1 240 17:22 30.09.2019
1010 Clouds 6 1011 87 16093 1.36 217.571 16:57 30.09.2019
1011 Clouds 6 1011 93 16093 3.1 220 16:39 30.09.2019
1012 Clouds 6 1011 93 16093 3.1 220 16:19 30.09.2019
1013 Rain 6 1011 87 16093 1.36 217.571 15:58 30.09.2019
1014 Rain 6 1011 100 16093 2.6 220 15:37 30.09.2019
1015 Rain 6 1011 100 16093 2.6 220 15:19 30.09.2019
1016 Rain 7 1010 93 16093 2.1 260 14:57 30.09.2019
1017 Rain 7 1010 93 16093 4.6 230 14:37 30.09.2019
1018 Rain 7 1010 93 16093 4.6 230 14:18 30.09.2019
1019 Rain 7 1010 93 16093 4.6 230 14:18 30.09.2019
1020 Rain 7 1010 93 16093 4.6 230 14:18 30.09.2019
1021 Rain 7 1010 93 16093 4.6 230 13:56 30.09.2019
1022 Rain 7 1009 93 14484 4.1 240 13:37 30.09.2019
1023 Rain 8 1009 87 16093 5.1 250 13:19 30.09.2019
1024 Rain 8 1009 87 16093 5.7 230 12:42 30.09.2019
1025 Rain 8 1009 87 16093 5.7 230 12:22 30.09.2019
1026 Rain 8 1009 93 14484 5.1 230 11:56 30.09.2019
1027 Rain 8 1009 93 14484 5.1 230 11:56 30.09.2019
1028 Rain 8 1008 93 12874 1.5 210 11:38 30.09.2019
1029 Rain 8 1008 93 12874 1.5 210 11:19 30.09.2019
1030 Rain 8 1007 100 11265 2.13 212.884 10:41 30.09.2019
1031 Rain 8 1007 100 11265 2.13 212.884 10:41 30.09.2019
1032 Rain 8 1007 100 11265 2.13 212.884 10:19 30.09.2019
1033 Rain 8 1007 93 16093 2.13 212.884 09:59 30.09.2019
1034 Rain 8 1007 93 9656 2.13 212.884 09:39 30.09.2019
1035 Rain 8 1007 93 9656 1.28 173.329 09:20 30.09.2019
1036 Rain 8 1007 100 11265 1.28 173.329 08:47 30.09.2019
1037 Rain 8 1007 100 11265 1.28 173.329 08:47 30.09.2019
1038 Rain 8 1007 100 11265 0.46 175.611 08:29 30.09.2019
1039 Rain 8 1006 100 11265 0.46 175.611 07:46 30.09.2019
1040 Rain 8 1006 100 11265 0.46 175.611 07:28 30.09.2019
1041 Rain 8 1006 100 12874 0.46 175.611 06:56 30.09.2019
1042 Rain 8 1006 100 12874 0.46 175.611 06:56 30.09.2019
1043 Rain 8 1006 100 12874 0.46 175.611 06:56 30.09.2019
1044 Rain 8 1006 100 12874 0.46 175.611 06:34 30.09.2019
1045 Rain 9 1005 93 11265 0.84 80.929 05:48 30.09.2019
1046 Rain 9 1005 93 11265 0.84 80.929 05:24 30.09.2019
1047 Rain 9 1005 93 8047 1.5 40 02:49 30.09.2019
1048 Rain 9 1006 87 8047 1.09 63.81 01:39 30.09.2019
1049 Rain 9 1006 87 8047 0.93 88.948 00:44 30.09.2019
1050 Rain 9 1006 87 8047 0.78 357.642 00:24 30.09.2019
1051 Rain 9 1005 81 16093 0.78 357.642 23:57 29.09.2019
1052 Rain 10 1006 81 6437 2.1 70 23:39 29.09.2019
1053 Rain 10 1006 81 6437 2.1 70 23:19 29.09.2019
1054 Rain 10 1006 71 11265 2.6 80 22:43 29.09.2019
1055 Rain 10 1006 71 11265 2.6 80 22:23 29.09.2019
1056 Rain 9 1006 76 11265 2.1 70 21:58 29.09.2019
1057 Rain 9 1006 71 14484 1.5 80 21:38 29.09.2019
1058 Rain 9 1006 71 14484 1.5 80 21:19 29.09.2019
1059 Drizzle 8 1006 81 14484 0.79 76.859 20:58 29.09.2019
1060 Drizzle 8 1006 81 14484 0.79 76.859 20:40 29.09.2019
1061 Drizzle 7 1006 81 14484 0.73 93.394 20:19 29.09.2019
1062 Drizzle 7 1006 81 14484 0.73 93.394 20:19 29.09.2019
1063 Rain 7 1006 81 14484 0.73 93.394 19:54 29.09.2019
1064 Rain 7 1006 81 12874 0.73 93.394 19:36 29.09.2019
1065 Rain 7 1006 81 12874 0.73 93.394 19:18 29.09.2019
1066 Rain 6 1007 81 11265 0.73 93.394 18:54 29.09.2019
1067 Rain 6 1007 70 12874 1.5 80 18:36 29.09.2019
1068 Rain 6 1007 70 12874 1.5 80 18:18 29.09.2019
1069 Rain 6 1007 75 11265 2.6 70 17:54 29.09.2019
1070 Rain 6 1007 75 11265 2.6 70 17:54 29.09.2019
1071 Rain 6 1007 75 11265 2.6 70 17:36 29.09.2019
1072 Rain 6 1007 75 11265 2.6 70 17:18 29.09.2019
1073 Rain 6 1008 70 11265 3.1 60 16:41 29.09.2019
1074 Rain 6 1008 70 11265 3.1 60 16:20 29.09.2019
1075 Rain 6 1007 65 16093 3.1 120 15:58 29.09.2019
1076 Rain 6 1008 70 12874 3.1 70 15:37 29.09.2019
1077 Rain 6 1008 70 12874 3.1 70 15:19 29.09.2019
1078 Rain 6 1008 62 14484 3.6 60 14:58 29.09.2019
1079 Clouds 5 1008 62 16093 3.6 60 14:38 29.09.2019
1080 Clouds 6 1008 62 16093 3.6 60 14:19 29.09.2019
1081 Rain 6 1009 62 14484 3.6 60 13:56 29.09.2019
1082 Rain 6 1010 62 8047 2.1 60 13:36 29.09.2019
1083 Rain 6 1010 52 16093 2.6 50 13:18 29.09.2019
1084 Rain 7 1010 52 16093 2.6 50 12:56 29.09.2019
1085 Clouds 7 1011 52 16093 2.6 50 12:38 29.09.2019
1086 Clouds 7 1011 52 16093 2.6 50 12:38 29.09.2019
1087 Clouds 6 1011 52 16093 2.6 50 12:20 29.09.2019
1088 Clouds 6 1011 56 16093 2.6 60 11:41 29.09.2019
1089 Clouds 6 1011 56 16093 2.6 60 11:20 29.09.2019
1090 Clear 6 1012 52 16093 3.6 60 10:58 29.09.2019
1091 Clear 6 1012 52 16093 3.6 60 10:39 29.09.2019
1092 Clear 6 1012 52 16093 3.6 60 10:21 29.09.2019
1093 Clear 6 1012 52 16093 3.6 60 10:20 29.09.2019
1094 Clouds 6 1013 56 16093 4.1 60 09:59 29.09.2019
1095 Clouds 6 1013 56 16093 4.1 60 09:41 29.09.2019
1096 Clouds 6 1013 56 16093 4.1 60 09:19 29.09.2019
1097 Clouds 6 1015 52 16093 3.1 60 08:43 29.09.2019
1098 Clouds 6 1015 52 16093 3.1 60 08:22 29.09.2019
1099 Clouds 6 1016 52 16093 3.6 60 07:45 29.09.2019
1100 Clouds 6 1016 52 16093 3.6 60 07:27 29.09.2019
1101 Clouds 6 1016 52 16093 2.6 70 06:55 29.09.2019
1102 Clouds 6 1016 52 16093 2.6 70 06:32 29.09.2019
1103 Clear 9 1018 39 16093 2.6 70 04:52 29.09.2019
1104 Clear 9 1018 39 16093 2.6 70 04:24 29.09.2019
1105 Clear 10 1020 37 16093 1.16 68.428 03:42 29.09.2019
1106 Clouds 10 1021 37 16093 1.5 110 02:19 29.09.2019
1107 Clear 10 1021 43 16093 2.1 90 01:45 29.09.2019
1108 Clear 10 1021 43 16093 2.1 90 01:20 29.09.2019
1109 Clouds 9 1022 43 16093 1.5 100 00:41 29.09.2019
1110 Clouds 8 1023 56 16093 1.14 94.14 00:19 29.09.2019
1111 Clouds 8 1023 56 16093 1.14 94.14 23:39 28.09.2019
1112 Rain 8 1023 56 16093 1.14 94.14 23:21 28.09.2019
1113 Clouds 7 1023 56 16093 1.14 94.14 22:41 28.09.2019
1114 Clouds 6 1023 56 16093 1.14 94.14 22:23 28.09.2019
1115 Clouds 5 1024 64 16093 1.5 50 21:59 28.09.2019
1116 Clouds 5 1024 64 16093 1.5 50 21:40 28.09.2019
1117 Clouds 4 1024 64 16093 1.5 50 21:21 28.09.2019
1118 Clouds 3 1024 80 16093 1.5 70 20:59 28.09.2019
1119 Clouds 2 1024 80 16093 1.5 70 20:40 28.09.2019
1120 Clouds 0 1024 80 16093 1.5 70 20:20 28.09.2019
1121 Clear 0 1024 92 16093 1.02 114.854 19:58 28.09.2019
1122 Clear 0 1024 92 16093 1.02 114.854 19:39 28.09.2019
1123 Clear -1 1024 92 16093 1.02 114.854 19:21 28.09.2019
1124 Clear -1 1024 92 16093 1.02 114.854 18:58 28.09.2019
1125 Clear -1 1024 92 16093 1.02 114.854 18:39 28.09.2019
1126 Clear -1 1024 92 16093 1.29 54.436 18:21 28.09.2019
1127 Clouds 0 1025 75 16093 1.29 54.436 17:56 28.09.2019
1128 Clouds 0 1025 75 16093 1.29 54.436 17:38 28.09.2019
1129 Clouds 0 1025 75 16093 1.29 54.436 17:20 28.09.2019
1130 Clouds 0 1025 80 16093 1.29 54.436 16:44 28.09.2019
1131 Clouds 0 1025 80 16093 1.29 54.436 16:25 28.09.2019
1132 Clouds 0 1025 80 16093 1.29 54.436 15:42 28.09.2019
1133 Clouds 1 1025 80 16093 1.22 82.055 15:23 28.09.2019
1134 Clouds 0 1025 86 16093 1.22 82.055 14:58 28.09.2019
1135 Clouds 0 1025 86 16093 1.22 82.055 14:40 28.09.2019
1136 Clouds 0 1025 86 16093 1.22 82.055 14:21 28.09.2019
1137 Clouds 0 1025 86 16093 2.6 70 13:58 28.09.2019
1138 Clouds 1 1025 86 16093 2.6 70 13:38 28.09.2019
1139 Clouds 1 1025 86 16093 2.6 70 13:20 28.09.2019
1140 Clouds 2 1025 74 16093 3.1 60 12:45 28.09.2019
1141 Clouds 2 1025 74 16093 3.1 60 12:20 28.09.2019
1142 Clear 1 1026 74 16093 3.6 70 11:59 28.09.2019
1143 Clear 2 1026 74 16093 3.6 70 11:39 28.09.2019
1144 Clear 2 1026 74 16093 3.6 70 11:19 28.09.2019
1145 Clouds 2 1026 74 16093 2.1 60 10:43 28.09.2019
1146 Clouds 2 1026 74 16093 2.1 60 10:21 28.09.2019
1147 Clouds 2 1026 74 16093 2.6 60 09:58 28.09.2019
1148 Clouds 2 1026 74 16093 2.6 60 09:40 28.09.2019
1149 Clouds 2 1026 74 16093 2.6 60 09:40 28.09.2019
1150 Clouds 3 1026 74 16093 2.6 60 09:18 28.09.2019
1151 Clouds 3 1027 65 16093 2.6 80 08:46 28.09.2019
1152 Clouds 3 1027 65 16093 2.6 80 08:28 28.09.2019
1153 Clouds 4 1027 74 16093 0.94 80.548 07:46 28.09.2019
1154 -273 0 0 0 0 0 07:24 28.09.2019
1155 Clouds 5 1027 70 16093 0.94 80.548 06:59 28.09.2019
1156 Clouds 5 1027 70 16093 0.94 80.548 06:33 28.09.2019
1157 Clouds 6 1028 71 16093 0.47 74.724 05:59 28.09.2019
1158 Clouds 6 1028 71 16093 0.47 74.724 05:24 28.09.2019
1159 Clouds 7 1028 52 16093 0.47 74.724 04:44 28.09.2019
1160 Clouds 7 1028 52 16093 0.47 74.724 04:21 28.09.2019
1161 Clouds 7 1029 52 16093 0.47 74.724 03:33 28.09.2019
1162 Clouds 7 1029 52 14484 0.96 118.534 02:57 28.09.2019
1163 Clouds 7 1029 52 14484 0.96 118.534 02:36 28.09.2019
1164 Clear 7 1030 57 16093 1.5 100 01:56 28.09.2019
1165 Clear 7 1030 57 16093 1.5 100 01:56 28.09.2019
1166 Clear 7 1030 57 16093 1.5 100 01:38 28.09.2019
1167 Clear 7 1030 53 16093 1.5 100 01:18 28.09.2019
1168 Clear 6 1030 53 16093 0.8 119.194 00:43 28.09.2019
1169 Clear 6 1030 53 16093 0.8 119.194 00:25 28.09.2019
1170 Clear 6 1031 70 16093 1.1 127.306 23:38 27.09.2019
1171 Clear 5 1031 70 16093 1.1 127.306 23:20 27.09.2019
1172 Clear 4 1031 80 16093 1.1 127.306 22:47 27.09.2019
1173 Clear 4 1031 80 16093 1.1 127.306 22:47 27.09.2019
1174 Clear 4 1031 80 16093 1.1 127.306 22:20 27.09.2019
1175 Clear 3 1031 63 14484 1.1 127.306 21:59 27.09.2019
1176 Clear 2 1031 63 14484 1.1 127.306 21:39 27.09.2019
1177 Clear 1 1031 86 14484 0.91 99.993 21:20 27.09.2019
1178 Fog 1 1031 86 11265 0.91 99.993 20:58 27.09.2019
1179 Fog 0 1031 85 11265 0.89 96.853 20:40 27.09.2019
1180 Fog 0 1031 85 11265 0.89 96.853 20:19 27.09.2019
1181 Fog 0 1031 85 11265 0.89 96.853 20:19 27.09.2019
1182 Mist -1 1031 92 6437 0.89 96.853 19:57 27.09.2019
1183 Fog -1 1031 100 14484 0.89 96.853 19:38 27.09.2019
1184 Fog -2 1031 100 14484 0.89 96.853 19:19 27.09.2019
1185 Mist -2 1031 100 6437 0.89 96.853 18:42 27.09.2019
1186 Mist -2 1031 100 6437 0.86 122.076 18:23 27.09.2019
1187 Mist -2 1032 92 9656 1.5 70 17:56 27.09.2019
1188 Mist -2 1032 92 9656 1.5 70 17:38 27.09.2019
1189 Mist -2 1032 92 9656 1.5 70 17:19 27.09.2019
1190 Mist -2 1031 92 201 2.1 50 16:57 27.09.2019
1191 Fog -2 1031 86 402 0.86 122.076 16:37 27.09.2019
1192 Fog -2 1031 86 402 0.86 122.076 16:37 27.09.2019
1193 Fog -2 1031 86 402 0.86 122.076 16:18 27.09.2019
1194 Fog -2 1031 86 402 0.86 122.076 16:18 27.09.2019
1195 Mist -2 1031 92 1207 0.86 122.076 15:45 27.09.2019
1196 Fog -2 1031 100 16093 1.01 143.039 15:21 27.09.2019
1197 Fog -2 1031 100 16093 1.01 143.039 15:21 27.09.2019
1198 Mist -2 1031 100 4828 1.01 143.039 14:59 27.09.2019
1199 Clear -2 1031 100 16093 1.01 143.039 14:41 27.09.2019
1200 Clear -1 1031 100 16093 1.01 143.039 14:21 27.09.2019
1201 Clear -1 1031 96 16093 1.01 143.039 13:58 27.09.2019
1202 Clear -1 1031 96 16093 1.01 143.039 13:39 27.09.2019
1203 Clear 0 1031 96 16093 0.96 134.83 13:21 27.09.2019
1204 Clouds 0 1031 96 16093 1.5 80 12:54 27.09.2019
1205 Clouds 0 1031 94 16093 1.5 80 12:24 27.09.2019
1206 Clouds 0 1031 100 16093 1.07 159.976 11:58 27.09.2019
1207 Clouds 1 1031 100 16093 1.07 159.976 11:38 27.09.2019
1208 Clouds 1 1031 100 16093 1.07 159.976 11:20 27.09.2019
1209 Clouds 1 1030 93 16093 1.07 159.976 10:43 27.09.2019
1210 Clouds 1 1030 93 16093 1.07 159.976 10:23 27.09.2019
1211 Clouds 1 1030 93 16093 1.07 159.976 09:58 27.09.2019
1212 Clouds 1 1030 93 16093 1.07 159.976 09:40 27.09.2019
1213 Clouds 1 1030 93 16093 1.33 202.848 09:19 27.09.2019
1214 Clouds 2 1030 100 16093 1.33 202.848 08:42 27.09.2019
1215 Clouds 2 1030 100 16093 1.29 207.542 08:21 27.09.2019
1216 Clouds 2 1030 93 14484 1.29 207.542 07:57 27.09.2019
1217 Drizzle 2 1030 93 16093 1.29 207.542 07:39 27.09.2019
1218 Drizzle 2 1030 93 16093 1.29 207.542 07:19 27.09.2019
1219 Rain 2 1029 86 12874 1.29 207.542 06:40 27.09.2019
1220 Rain 2 1029 86 16093 1.31 180.614 06:21 27.09.2019
1221 Rain 3 1029 75 14484 2.1 240 05:47 27.09.2019
1222 Rain 4 1029 75 14484 2.1 240 05:29 27.09.2019
1223 Rain 5 1028 75 16093 2.6 230 03:40 27.09.2019
1224 Rain 5 1028 70 16093 3.6 250 01:57 27.09.2019
1225 Rain 5 1028 70 16093 3.6 250 01:57 27.09.2019
1226 Rain 5 1027 70 16093 2.1 0 01:34 27.09.2019
1227 Rain 4 1027 80 14484 3.1 220 00:44 27.09.2019
1228 Rain 4 1027 86 16093 2.6 230 23:59 26.09.2019
1229 Rain 4 1027 86 16093 2.6 230 23:41 26.09.2019
1230 Rain 4 1027 86 16093 2.6 230 23:22 26.09.2019
1231 Rain 3 1027 93 11265 1.5 260 22:59 26.09.2019
1232 Rain 3 1026 93 9656 2.6 270 22:40 26.09.2019
1233 Rain 3 1026 93 9656 2.6 270 22:19 26.09.2019
1234 Drizzle 3 1026 93 14484 2.6 220 21:59 26.09.2019
1235 Drizzle 3 1026 93 14484 2.6 220 21:59 26.09.2019
1236 Drizzle 3 1026 93 16093 3.1 230 21:38 26.09.2019
1237 Drizzle 2 1026 93 16093 3.1 230 21:20 26.09.2019
1238 Drizzle 2 1025 86 8047 3.6 200 20:59 26.09.2019
1239 -273 0 0 0 0 0 20:40 26.09.2019
1240 Drizzle 2 1025 93 8047 2.1 200 20:40 26.09.2019
1241 Drizzle 2 1025 93 8047 2.1 200 20:22 26.09.2019
1242 Mist 2 1025 100 14484 2.6 220 19:59 26.09.2019
1243 Clouds 2 1024 100 16093 3.1 230 19:40 26.09.2019
1244 Clouds 1 1024 90 12874 1.5 190 19:18 26.09.2019
1245 Clouds 1 1024 90 12874 1.5 190 18:57 26.09.2019
1246 Rain 1 1023 100 16093 1.5 220 18:37 26.09.2019
1247 Clouds 1 1023 93 11265 2.1 220 18:19 26.09.2019
1248 Clouds 1 1023 93 12874 2.1 200 17:38 26.09.2019
1249 Clouds 1 1023 93 12874 2.1 200 17:38 26.09.2019
1250 Clouds 1 1023 93 12874 2.1 200 17:19 26.09.2019
1251 Clouds 1 1022 98 16093 2.1 0 16:58 26.09.2019
1252 Clouds 1 1021 98 16093 0.81 208.91 16:39 26.09.2019
1253 Clouds 1 1021 98 16093 0.81 208.91 16:20 26.09.2019
1254 Clouds 1 1021 98 16093 2.6 270 15:56 26.09.2019
1255 Clouds 1 1021 98 16093 2.6 270 15:37 26.09.2019
1256 Clouds 1 1021 97 16093 2.6 270 15:18 26.09.2019
1257 Clouds 1 1020 97 16093 2.6 220 14:41 26.09.2019
1258 Clouds 1 1020 97 16093 2.6 220 14:23 26.09.2019
1259 Clouds 1 1019 97 16093 2.1 270 13:58 26.09.2019
1260 Clouds 1 1019 97 16093 1.5 260 13:40 26.09.2019
1261 Clouds 1 1018 93 16093 1.5 240 13:19 26.09.2019
1262 Clouds 1 1018 93 16093 1.5 240 12:56 26.09.2019
1263 Clouds 1 1018 93 16093 1.5 240 12:38 26.09.2019
1264 Clouds 1 1017 86 16093 1.5 170 12:19 26.09.2019
1265 Clouds 1 1017 86 16093 1.5 170 12:19 26.09.2019
1266 Clouds 1 1017 86 16093 1.02 229.356 11:42 26.09.2019
1267 Clouds 2 1017 97 16093 1.02 229.356 11:21 26.09.2019
1268 Clouds 2 1016 80 16093 2.1 200 10:55 26.09.2019
1269 Clouds 2 1016 80 16093 2.1 200 10:37 26.09.2019
1270 Clouds 2 1016 80 16093 2.1 200 10:19 26.09.2019
1271 Clouds 3 1015 80 14484 2.1 270 09:43 26.09.2019
1272 Clouds 3 1015 80 14484 2.1 270 09:43 26.09.2019
1273 Clouds 3 1015 80 14484 2.1 270 09:25 26.09.2019
1274 Clouds 3 1014 80 16093 2.6 270 08:54 26.09.2019
1275 Clouds 3 1014 80 16093 2.6 270 08:33 26.09.2019
1276 Clouds 3 1013 94 16093 4.1 250 07:59 26.09.2019
1277 Clouds 3 1013 94 16093 4.1 250 07:41 26.09.2019
1278 Clouds 3 1013 94 16093 1.45 235.883 07:20 26.09.2019
1279 Clouds 3 1013 75 16093 4.1 260 06:43 26.09.2019
1280 Clouds 3 1013 75 16093 4.1 260 06:43 26.09.2019
1281 Clouds 3 1013 75 16093 4.1 260 06:24 26.09.2019
1282 Clouds 4 1012 80 16093 4.1 250 05:44 26.09.2019
1283 Clouds 4 1012 80 16093 4.1 250 05:21 26.09.2019
1284 Clouds 6 1010 70 16093 5.1 230 02:47 26.09.2019
1285 Clouds 7 1009 61 16093 2.1 240 01:53 26.09.2019
1286 Clouds 7 1009 65 16093 3.1 260 01:28 26.09.2019
1287 Clouds 7 1009 65 16093 1.83 227.887 00:55 26.09.2019
1288 Clear 7 1008 65 16093 1.83 227.887 00:37 26.09.2019
1289 Clear 6 1008 65 16093 2.6 70 23:47 25.09.2019
1290 Clear 6 1008 65 16093 2.6 70 23:28 25.09.2019
1291 Clouds 5 1008 80 16093 1.5 20 22:57 25.09.2019
1292 Clouds 5 1008 80 16093 1.5 20 22:39 25.09.2019
1293 Clouds 4 1008 80 16093 1.5 20 22:20 25.09.2019
1294 Clouds 3 1007 86 16093 3.1 60 21:57 25.09.2019
1295 Clouds 3 1008 100 16093 3.6 80 21:38 25.09.2019
1296 Clouds 2 1008 100 16093 3.6 80 21:19 25.09.2019
1297 Mist 1 1008 100 6437 4.1 70 20:57 25.09.2019
1298 Mist 1 1008 100 4828 3.1 40 20:39 25.09.2019
1299 Mist 1 1008 100 4828 3.1 40 20:20 25.09.2019
1300 Fog 1 1008 100 805 3.1 60 19:43 25.09.2019
1301 Fog 0 1008 100 805 3.1 60 19:25 25.09.2019
1302 Fog 0 1008 86 805 3.6 40 18:58 25.09.2019
1303 Fog 0 1009 88 805 3.1 80 18:39 25.09.2019
1304 Fog 0 1009 98 805 3.1 80 18:21 25.09.2019
1305 Fog 0 1009 98 402 2.6 100 17:59 25.09.2019
1306 Fog 0 1010 98 402 1.5 110 17:38 25.09.2019
1307 Fog 0 1010 98 402 1.5 110 17:19 25.09.2019
1308 Mist 0 1010 100 1006 1.5 90 16:45 25.09.2019
1309 Mist 0 1010 100 1006 1.5 90 16:27 25.09.2019
1310 Fog 1 1010 86 402 0.99 72.889 15:59 25.09.2019
1311 Fog 0 1011 100 805 0.99 72.889 15:40 25.09.2019
1312 Fog 0 1011 100 805 0.62 160.056 15:22 25.09.2019
1313 Mist 1 1011 98 402 0.62 160.056 14:56 25.09.2019
1314 Mist 1 1011 100 2213 0.62 160.056 14:38 25.09.2019
1315 Mist 1 1011 100 2213 0.62 160.056 14:20 25.09.2019
1316 Mist 1 1012 100 4023 1.5 230 13:41 25.09.2019
1317 Mist 1 1012 100 4023 1.5 230 13:22 25.09.2019
1318 Mist 1 1012 100 4023 1.5 230 13:22 25.09.2019
1319 Clouds 2 1012 93 16093 3.6 230 12:58 25.09.2019
1320 Clouds 2 1012 93 16093 3.6 230 12:39 25.09.2019
1321 Clouds 2 1012 93 16093 3.6 230 12:21 25.09.2019
1322 Mist 2 1012 93 9656 2.6 0 11:55 25.09.2019
1323 Rain 2 1012 100 16093 4.1 220 11:36 25.09.2019
1324 Rain 2 1012 100 16093 4.1 220 11:18 25.09.2019
1325 Rain 3 1012 93 16093 4.6 240 10:41 25.09.2019
1326 Rain 3 1012 93 16093 4.6 240 10:23 25.09.2019
1327 Rain 3 1012 93 16093 3.6 240 09:56 25.09.2019
1328 Rain 3 1012 86 16093 4.1 250 09:37 25.09.2019
1329 Rain 3 1012 86 16093 4.1 250 09:19 25.09.2019
1330 Rain 4 1011 93 16093 4.1 230 08:42 25.09.2019
1331 Rain 4 1011 93 16093 4.1 230 08:21 25.09.2019
1332 Rain 4 1011 93 16093 4.1 230 08:21 25.09.2019
1333 Rain 4 1011 93 16093 3.6 240 07:57 25.09.2019
1334 Rain 4 1011 81 16093 3.6 250 07:38 25.09.2019
1335 Rain 5 1011 81 16093 3.6 250 07:19 25.09.2019
1336 Rain 5 1011 75 16093 4.6 250 06:43 25.09.2019
1337 Rain 5 1011 75 16093 4.6 250 06:22 25.09.2019
1338 Clouds 5 1010 83 16093 4.1 220 05:28 25.09.2019
1339 Rain 6 1009 83 16093 1.74 261.656 04:50 25.09.2019
1340 Clouds 6 1008 60 16093 2.6 220 02:19 25.09.2019
1341 Clouds 6 1008 56 16093 1.4 256.79 00:45 25.09.2019
1342 Clouds 5 1008 65 16093 1.4 256.79 00:25 25.09.2019
1343 Clouds 5 1008 65 16093 0.69 249.522 23:57 24.09.2019
1344 Clouds 5 1008 60 16093 0.69 249.522 23:38 24.09.2019
1345 Clouds 5 1008 60 16093 0.69 249.522 23:19 24.09.2019
1346 Clouds 4 1008 64 16093 0.69 249.522 22:39 24.09.2019
1347 Clouds 4 1008 64 16093 0.69 249.522 22:20 24.09.2019
1348 Clear 3 1008 74 14484 2.1 80 21:56 24.09.2019
1349 Clear 3 1008 74 14484 2.1 80 21:37 24.09.2019
1350 Clear 2 1008 74 14484 2.1 80 21:19 24.09.2019
1351 Clear 1 1008 80 16093 1.5 60 20:58 24.09.2019
1352 Clear 0 1008 80 16093 1.5 60 20:39 24.09.2019
1353 Clear 0 1008 80 16093 1.5 60 20:20 24.09.2019
1354 Clear 0 1008 86 14484 0.31 75.116 19:55 24.09.2019
1355 Clear 0 1008 86 14484 0.31 75.116 19:36 24.09.2019
1356 Clear -1 1007 86 14484 2.6 60 19:18 24.09.2019
1357 Clear -1 1007 86 14484 2.6 60 19:18 24.09.2019
1358 Clear -1 1007 86 14484 2.6 60 18:42 24.09.2019
1359 Clear -2 1007 86 14484 2.6 60 18:22 24.09.2019
1360 Clear -2 1006 86 16093 0.73 58.086 17:59 24.09.2019
1361 Clear -2 1006 86 16093 0.73 58.086 17:39 24.09.2019
1362 Clear -2 1006 86 16093 0.73 58.086 17:39 24.09.2019
1363 Clear -2 1006 86 16093 0.73 58.086 17:21 24.09.2019
1364 Clear -1 1006 86 16093 1.5 40 16:59 24.09.2019
1365 Clear -1 1006 86 16093 1.5 40 16:59 24.09.2019
1366 Clear -1 1006 86 16093 1.5 40 16:40 24.09.2019
1367 Clear -1 1006 86 16093 1.5 40 16:19 24.09.2019
1368 Clear -1 1006 86 16093 1.5 40 16:19 24.09.2019
1369 Clear -1 1006 80 16093 2.1 50 15:43 24.09.2019
1370 Clear -1 1006 80 16093 2.1 50 15:23 24.09.2019
1371 Clear -1 1005 86 16093 1.5 70 14:58 24.09.2019
1372 Clear -1 1005 86 16093 1.5 70 14:58 24.09.2019
1373 Clear -1 1005 86 16093 1.5 70 14:37 24.09.2019
1374 Clear -1 1005 86 16093 1.5 70 14:18 24.09.2019
1375 Clear 0 1005 80 16093 3.1 70 13:40 24.09.2019
1376 Clear 0 1005 80 16093 3.1 70 13:21 24.09.2019
1377 Clear 0 1004 86 16093 1.5 80 12:42 24.09.2019
1378 Clear 0 1004 86 16093 1.5 80 12:21 24.09.2019
1379 Clear 0 1004 81 16093 1.5 90 11:57 24.09.2019
1380 Clear 0 1004 81 16093 1.5 90 11:39 24.09.2019
1381 Clear 0 1004 81 16093 1.5 90 11:19 24.09.2019
1382 Clear 0 1003 81 16093 2.1 80 10:40 24.09.2019
1383 Clear 1 1003 81 16093 2.1 80 10:21 24.09.2019
1384 Clear 2 1003 69 16093 1.1 2.659 09:57 24.09.2019
1385 Clear 2 1003 69 16093 1.1 2.659 09:39 24.09.2019
1386 Clear 2 1003 69 16093 1.22 340.51 09:19 24.09.2019
1387 Clear 2 1002 52 16093 1.5 260 08:55 24.09.2019
1388 Clear 2 1002 52 16093 1.5 260 08:55 24.09.2019
1389 Clear 2 1002 52 16093 1.5 260 08:55 24.09.2019
1390 Clear 2 1002 52 16093 1.5 260 08:55 24.09.2019
1391 Clear 2 1002 52 16093 1.5 260 08:55 24.09.2019
1392 Clear 2 1002 52 16093 1.5 260 08:36 24.09.2019
1393 Clear 2 1002 52 16093 1.5 260 08:18 24.09.2019
1394 Clear 2 1002 52 16093 1.5 260 08:18 24.09.2019
1395 Clear 3 1001 56 16093 2.1 280 07:41 24.09.2019
1396 Clear 4 1001 56 16093 2.1 280 07:23 24.09.2019
1397 Clear 6 1001 39 16093 2.6 270 06:46 24.09.2019
1398 Clouds 6 1001 65 16093 1.19 331.973 06:27 24.09.2019
1399 Clear 9 1000 37 16093 3.1 290 05:25 24.09.2019
1400 Clear 11 1000 32 16093 2.1 270 04:19 24.09.2019
1401 Clear 11 999 30 16093 2.6 330 03:34 24.09.2019
1402 Clear 11 999 37 16093 2.6 240 02:45 24.09.2019
1403 Clear 11 999 40 16093 2.6 240 01:43 24.09.2019
1404 Clear 10 999 43 16093 1.6 301.338 00:42 24.09.2019
1405 Clear 10 999 43 16093 0.77 290.748 00:23 24.09.2019
1406 Clear 9 999 49 16093 0.77 290.748 23:43 23.09.2019
1407 Clear 8 999 49 16093 0.77 290.748 23:23 23.09.2019
1408 Clear 8 999 52 16093 0.77 290.748 22:57 23.09.2019
1409 Clear 7 999 52 16093 0.77 290.748 22:37 23.09.2019
1410 Clear 8 999 52 16093 0.77 290.748 22:37 23.09.2019
1411 Clear 7 999 52 16093 0.77 290.748 22:19 23.09.2019
1412 Clear 6 999 69 16093 0.77 290.748 21:56 23.09.2019
1413 Clear 5 999 69 16093 0.77 290.748 21:37 23.09.2019
1414 Clear 4 999 69 16093 0.57 345.818 21:18 23.09.2019
1415 Clear 3 999 80 14484 0.54 348.836 20:40 23.09.2019
1416 Clear 2 999 80 14484 0.54 348.836 20:19 23.09.2019
1417 Clear 1 999 59 14484 0.54 348.836 19:55 23.09.2019
1418 Clear 1 999 59 14484 0.54 348.836 19:55 23.09.2019
1419 Clear 1 999 59 14484 0.54 348.836 19:37 23.09.2019
1420 Clear 0 998 92 14484 0.54 348.836 19:19 23.09.2019
1421 Clear 0 998 92 14484 0.54 348.836 18:42 23.09.2019
1422 Clear 0 998 92 14484 0.54 348.836 18:42 23.09.2019
1423 Clear 0 999 86 16093 1.22 34.015 18:21 23.09.2019
1424 Clear 0 999 86 16093 1.22 34.015 17:59 23.09.2019
1425 Clear 0 999 86 16093 1.22 34.015 17:39 23.09.2019
1426 Clear 0 999 86 16093 1.22 34.015 17:20 23.09.2019
1427 Clear 0 999 63 16093 2.1 40 16:58 23.09.2019
1428 Clear 0 999 63 16093 2.1 40 16:37 23.09.2019
1429 Clear 0 999 63 16093 2.1 40 16:19 23.09.2019
1430 Clouds 0 999 63 16093 1.22 34.015 15:57 23.09.2019
1431 Clouds 0 999 63 16093 1.22 34.015 15:38 23.09.2019
1432 Clouds 0 999 64 16093 1.89 27.094 15:19 23.09.2019
1433 Clouds 0 998 64 16093 4.1 70 14:40 23.09.2019
1434 Clouds 0 998 64 16093 4.1 70 14:40 23.09.2019
1435 Clouds 0 998 64 16093 4.1 70 14:40 23.09.2019
1436 Clouds 0 998 64 16093 4.1 70 14:21 23.09.2019
1437 Clear 0 999 92 16093 2.1 70 13:59 23.09.2019
1438 Clear -1 999 92 16093 2.1 70 13:39 23.09.2019
1439 Clear 0 999 92 16093 2.1 70 13:18 23.09.2019
1440 Clear 0 999 86 16093 4.1 50 12:56 23.09.2019
1441 Clear 0 1000 65 16093 2.1 80 12:37 23.09.2019
1442 Clear -1 1000 72 16093 2.1 80 12:19 23.09.2019
1443 Clear -1 1000 72 16093 4.1 70 11:44 23.09.2019
1444 Clear -1 1000 72 16093 4.1 70 11:26 23.09.2019
1445 Clear 0 1000 72 16093 5.1 60 10:55 23.09.2019
1446 Clear -1 1000 72 16093 5.1 60 10:36 23.09.2019
1447 Clear 0 1000 72 16093 5.1 60 10:18 23.09.2019
1448 Clear 0 1000 86 16093 3.1 70 09:38 23.09.2019
1449 Clear 1 1000 86 16093 3.1 70 09:20 23.09.2019
1450 Clear 1 1000 74 16093 2.6 70 08:50 23.09.2019
1451 Clear 1 1000 74 16093 2.6 70 08:30 23.09.2019
1452 Clear 2 1000 77 16093 2.1 50 07:58 23.09.2019
1453 Clear 2 1000 77 16093 2.1 50 07:33 23.09.2019
1454 Clear 4 1001 75 16093 1.85 38.288 06:44 23.09.2019
1455 Clear 5 1001 68 16093 2.1 50 06:18 23.09.2019
1456 Clear 6 1001 68 16093 2.1 50 05:22 23.09.2019
1457 Clear 8 1001 49 14484 0.96 62.072 04:55 23.09.2019
1458 Clear 7 1002 49 16093 1.5 50 03:54 23.09.2019
1459 Clear 7 1003 52 16093 2.6 140 01:22 23.09.2019
1460 Clear 6 1003 74 16093 0.97 131.811 00:23 23.09.2019
1461 Clear 6 1003 74 16093 0.97 131.811 23:57 22.09.2019
1462 Clear 6 1003 74 16093 0.97 131.811 23:33 22.09.2019
1463 Clear 5 1004 74 16093 0.97 131.811 22:59 22.09.2019
1464 Clear 5 1004 74 16093 0.97 131.811 22:41 22.09.2019
1465 Clear 4 1004 74 16093 0.97 131.811 22:23 22.09.2019
1466 Clear 4 1004 74 16093 0.97 131.811 22:23 22.09.2019
1467 Clear 3 1004 86 12874 1.5 60 21:55 22.09.2019
1468 Clear 3 1004 86 12874 1.5 60 21:37 22.09.2019
1469 Clear 3 1004 86 12874 1.5 60 21:37 22.09.2019
1470 Clear 2 1004 86 12874 1.5 60 21:19 22.09.2019
1471 Clear 1 1004 93 12874 2.6 70 20:42 22.09.2019
1472 Clear 1 1004 93 12874 2.6 70 20:24 22.09.2019
1473 Fog 0 1003 91 12874 2.1 70 19:56 22.09.2019
1474 Fog 0 1003 91 12874 2.1 70 19:37 22.09.2019
1475 Fog 0 1003 91 16093 1.5 350 19:19 22.09.2019
1476 Fog -1 1003 91 16093 1.5 350 18:56 22.09.2019
1477 Fog -1 1003 91 14484 2.1 70 18:36 22.09.2019
1478 Fog -1 1003 91 14484 2.1 70 18:36 22.09.2019
1479 Fog -1 1003 92 16093 0.88 136.478 18:18 22.09.2019
1480 Clouds -1 1003 98 14484 2.1 60 17:42 22.09.2019
1481 Clouds -1 1003 98 14484 2.1 60 17:24 22.09.2019
1482 Clouds 0 1003 100 16093 0.88 136.478 16:46 22.09.2019
1483 Clouds 0 1003 100 16093 0.88 136.478 16:27 22.09.2019
1484 Clouds 1 1003 93 14484 0.88 136.478 15:58 22.09.2019
1485 Clouds 1 1003 93 14484 0.88 136.478 15:40 22.09.2019
1486 Clouds 1 1003 93 14484 0.98 163.183 15:22 22.09.2019
1487 Clouds 1 1003 93 16093 0.98 163.183 14:47 22.09.2019
1488 Clouds 1 1003 93 16093 0.98 163.183 14:27 22.09.2019
1489 Clouds 1 1003 93 16093 0.98 163.183 13:59 22.09.2019
1490 Clouds 1 1003 93 16093 0.98 163.183 13:41 22.09.2019
1491 Clouds 1 1003 93 16093 0.98 163.183 13:41 22.09.2019
1492 Clouds 1 1003 93 16093 1 165.28 13:22 22.09.2019
1493 Clouds 1 1002 97 16093 3.1 200 12:56 22.09.2019
1494 Clouds 1 1002 97 16093 3.1 200 12:38 22.09.2019
1495 Clouds 1 1002 97 16093 1.5 160 12:18 22.09.2019
1496 Clouds 2 1002 93 16093 4.1 210 11:43 22.09.2019
1497 Clouds 2 1002 93 16093 4.1 210 11:24 22.09.2019
1498 Clouds 2 1002 97 16093 1.5 190 10:55 22.09.2019
1499 Clouds 3 1002 97 16093 1.5 190 10:55 22.09.2019
1500 Clouds 3 1002 93 16093 4.6 210 10:37 22.09.2019
1501 Clouds 3 1001 93 16093 4.1 220 10:18 22.09.2019
1502 Clouds 3 1001 93 16093 4.1 220 09:42 22.09.2019
1503 Clouds 3 1001 93 16093 4.1 220 09:42 22.09.2019
1504 Clouds 3 1001 93 16093 4.1 220 09:21 22.09.2019
1505 Clouds 3 1001 93 16093 4.1 220 09:21 22.09.2019
1506 Clouds 3 1001 93 16093 4.1 220 08:48 22.09.2019
1507 Rain 3 1001 93 16093 4.1 220 08:26 22.09.2019
1508 Rain 3 1001 93 16093 4.1 220 07:58 22.09.2019
1509 Rain 3 1001 93 16093 4.6 220 07:39 22.09.2019
1510 Rain 3 1001 93 16093 4.6 220 07:21 22.09.2019
1511 Rain 3 1000 86 16093 3.6 200 06:56 22.09.2019
1512 Rain 4 1000 93 14484 4.1 220 05:45 22.09.2019
1513 Rain 4 999 86 12874 7.7 250 03:53 22.09.2019
1514 Rain 4 998 86 14484 5.1 250 02:43 22.09.2019
1515 Rain 4 998 86 14484 5.1 250 02:23 22.09.2019
1516 Rain 4 998 86 12874 5.7 240 01:35 22.09.2019
1517 Rain 4 998 86 14484 5.7 250 00:40 22.09.2019
1518 Rain 4 998 86 14484 5.7 250 00:21 22.09.2019
1519 Rain 4 998 86 14484 5.7 250 00:21 22.09.2019
1520 Rain 4 997 93 12874 4.6 230 23:45 21.09.2019
1521 Rain 4 997 93 12874 4.6 230 23:27 21.09.2019
1522 Rain 4 996 93 12874 5.7 220 22:40 21.09.2019
1523 Rain 3 996 93 12874 5.7 220 22:21 21.09.2019
1524 Rain 3 996 93 14484 5.1 230 21:57 21.09.2019
1525 Rain 3 995 93 14484 5.7 230 21:38 21.09.2019
1526 Rain 3 995 93 12874 5.7 230 21:18 21.09.2019
1527 Rain 3 995 93 12874 5.7 230 21:18 21.09.2019
1528 Rain 3 995 93 16093 5.7 240 20:41 21.09.2019
1529 Rain 3 995 93 16093 5.7 240 20:22 21.09.2019
1530 Rain 3 994 93 14484 4.6 230 19:57 21.09.2019
1531 Rain 3 994 93 14484 4.6 230 19:57 21.09.2019
1532 Rain 3 994 93 16093 4.6 230 19:39 21.09.2019
1533 Rain 3 994 93 14484 5.1 230 19:18 21.09.2019
1534 Rain 3 993 93 16093 6.7 240 18:39 21.09.2019
1535 Rain 3 993 93 16093 6.7 240 18:20 21.09.2019
1536 Rain 3 993 93 16093 6.7 240 18:20 21.09.2019
1537 Rain 3 992 93 16093 6.2 240 17:42 21.09.2019
1538 Rain 4 992 93 16093 6.2 240 17:23 21.09.2019
1539 Rain 4 992 93 16093 7.2 230 16:56 21.09.2019
1540 Rain 4 991 100 16093 6.7 230 16:36 21.09.2019
1541 Rain 4 991 100 16093 6.7 230 16:18 21.09.2019
1542 Rain 5 990 93 14484 6.2 240 15:42 21.09.2019
1543 Rain 5 990 93 14484 6.2 240 15:20 21.09.2019
1544 Rain 5 990 93 9656 4.1 240 14:47 21.09.2019
1545 Rain 5 989 100 14484 4.6 240 14:28 21.09.2019
1546 Rain 5 989 100 14484 4.6 240 14:28 21.09.2019
1547 Rain 5 989 100 14484 5.1 240 13:45 21.09.2019
1548 Rain 6 988 100 14484 5.7 240 13:25 21.09.2019
1549 Rain 6 988 100 14484 5.7 240 13:25 21.09.2019
1550 Rain 6 988 87 12874 2.6 240 12:59 21.09.2019
1551 Rain 6 988 100 14484 4.1 230 12:41 21.09.2019
1552 Rain 6 988 100 14484 4.1 230 12:20 21.09.2019
1553 Rain 6 987 93 9656 2.1 220 11:58 21.09.2019
1554 Rain 6 987 93 16093 3.6 200 11:39 21.09.2019
1555 Rain 6 987 93 16093 3.6 200 11:19 21.09.2019
1556 Rain 7 987 93 16093 1.5 200 10:40 21.09.2019
1557 Rain 7 987 93 16093 1.5 200 10:21 21.09.2019
1558 Rain 8 986 93 6437 1.5 60 09:57 21.09.2019
1559 Rain 8 986 93 6437 1.5 60 09:38 21.09.2019
1560 Rain 8 986 93 6437 1.5 60 09:19 21.09.2019
1561 Rain 8 986 93 6437 1.64 312.872 08:48 21.09.2019
1562 Rain 8 986 100 4023 2.1 40 08:22 21.09.2019
1563 Rain 9 986 87 12874 1.65 317.927 07:40 21.09.2019
1564 Rain 9 986 93 16093 1.5 280 07:20 21.09.2019
1565 Rain 9 986 93 16093 1.5 280 07:20 21.09.2019
1566 Rain 9 986 93 14484 1.65 317.927 06:36 21.09.2019
1567 Rain 10 986 87 12874 2.1 190 05:51 21.09.2019
1568 Rain 10 986 81 16093 2.1 320 04:40 21.09.2019
1569 Rain 11 986 76 14484 1.5 350 03:39 21.09.2019
1570 Rain 10 987 76 16093 4.1 10 02:25 21.09.2019
1571 Rain 10 988 81 16093 1.88 340.946 01:49 21.09.2019
1572 Rain 10 988 81 16093 1.88 340.946 01:26 21.09.2019
1573 Rain 10 989 81 9656 2.6 80 00:26 21.09.2019
1574 Rain 9 989 81 12874 3.1 50 23:58 20.09.2019
1575 Clouds 9 990 93 16093 1.68 15.626 23:30 20.09.2019
1576 Rain 9 991 93 12874 1.68 15.626 22:59 20.09.2019
1577 Rain 9 991 100 9656 1.68 15.626 22:38 20.09.2019
1578 Rain 9 991 100 9656 1.68 15.626 22:20 20.09.2019
1579 Rain 9 991 93 9656 1.5 130 21:55 20.09.2019
1580 Rain 8 992 93 8047 1.68 15.626 21:37 20.09.2019
1581 Rain 8 992 93 8047 2.39 17.191 21:18 20.09.2019
1582 Rain 7 992 87 8047 3.1 40 20:41 20.09.2019
1583 Rain 8 992 87 8047 3.1 40 20:21 20.09.2019
1584 Rain 8 992 87 12874 2.6 60 19:58 20.09.2019
1585 Clouds 7 993 93 14484 1.5 40 19:39 20.09.2019
1586 Rain 7 993 93 14484 1.5 40 19:20 20.09.2019
1587 Rain 7 994 93 14484 1.5 30 18:40 20.09.2019
1588 Clouds 6 994 93 14484 1.5 30 18:20 20.09.2019
1589 Clouds 6 995 100 16093 1.71 1.544 17:59 20.09.2019
1590 Clouds 6 995 100 16093 1.71 1.544 17:41 20.09.2019
1591 Clouds 6 995 100 16093 1.71 1.544 17:22 20.09.2019
1592 Clouds 6 996 93 16093 2.6 60 16:41 20.09.2019
1593 Clouds 6 996 93 16093 2.6 60 16:19 20.09.2019
1594 Clear 5 997 93 16093 2.1 100 15:55 20.09.2019
1595 Clouds 5 997 94 0 1.71 1.544 15:37 20.09.2019
1596 Rain 6 998 93 16093 1.84 15.903 15:19 20.09.2019
1597 Rain 6 998 93 16093 1.84 15.903 14:42 20.09.2019
1598 Rain 6 998 93 16093 1.84 15.903 14:19 20.09.2019
1599 Rain 5 999 93 14484 1.5 40 13:48 20.09.2019
1600 Rain 5 999 93 14484 1.5 40 13:28 20.09.2019
1601 Rain 6 999 93 14484 1.5 40 12:57 20.09.2019
1602 Clouds 5 999 100 14484 1.95 17.421 12:37 20.09.2019
1603 Rain 6 1000 100 14484 1.68 24.229 12:18 20.09.2019
1604 Rain 6 1000 100 14484 1.68 24.229 11:48 20.09.2019
1605 Clouds 6 1000 93 16093 1.68 24.229 11:21 20.09.2019
1606 Rain 5 1001 93 4828 2.1 70 10:43 20.09.2019
1607 Rain 6 1001 93 4828 2.1 70 10:24 20.09.2019
1608 Rain 6 1001 93 14484 1.5 120 09:59 20.09.2019
1609 Clouds 6 1001 75 16093 3.6 360 09:37 20.09.2019
1610 Clouds 6 1001 75 16093 3.6 360 09:37 20.09.2019
1611 Clouds 6 1001 75 16093 3.6 360 09:18 20.09.2019
1612 Clouds 5 1002 93 16093 1.08 25.595 08:41 20.09.2019
1613 Clouds 5 1002 93 16093 1.08 25.595 08:23 20.09.2019
1614 Clouds 6 1002 87 16093 1.08 25.595 07:47 20.09.2019
1615 Clouds 5 1002 93 16093 1.24 48.274 07:28 20.09.2019
1616 Clouds 6 1003 87 16093 1.5 20 06:44 20.09.2019
1617 Clouds 6 1003 87 16093 1.5 20 06:22 20.09.2019
1618 Clouds 7 1004 81 16093 2.6 40 05:47 20.09.2019
1619 Clouds 7 1004 75 16093 1.5 170 03:42 20.09.2019
1620 Clouds 7 1004 75 16093 1.5 170 03:19 20.09.2019
1621 Rain 7 1005 75 16093 2.6 210 01:45 20.09.2019
1622 Rain 7 1005 75 16093 3.1 190 00:53 20.09.2019
1623 Rain 7 1005 87 16093 3.1 190 00:26 20.09.2019
1624 Rain 7 1005 93 16093 3.6 200 23:44 19.09.2019
1625 Rain 6 1005 93 16093 3.6 200 23:20 19.09.2019
1626 Rain 6 1004 100 16093 2.6 280 22:57 19.09.2019
1627 Rain 6 1004 100 16093 2.6 280 22:37 19.09.2019
1628 Rain 6 1004 100 16093 2.6 280 22:19 19.09.2019
1629 Rain 6 1004 93 16093 2.6 210 21:56 19.09.2019
1630 Rain 6 1004 93 8047 2.1 190 21:37 19.09.2019
1631 Rain 6 1004 93 8047 2.1 190 21:18 19.09.2019
1632 Rain 6 1004 100 11265 1.5 210 20:43 19.09.2019
1633 Rain 6 1004 100 11265 1.5 210 20:22 19.09.2019
1634 Rain 6 1003 100 16093 2.1 210 19:55 19.09.2019
1635 Rain 6 1003 100 16093 1.62 197.272 19:37 19.09.2019
1636 Rain 6 1002 93 4023 2.6 180 19:19 19.09.2019
1637 Rain 6 1002 100 16093 1.5 210 18:42 19.09.2019
1638 Rain 5 1002 100 16093 1.5 210 18:24 19.09.2019
1639 Rain 6 1002 100 16093 1.5 210 17:54 19.09.2019
1640 Rain 6 1002 100 16093 1.5 200 17:36 19.09.2019
1641 Rain 6 1002 100 16093 1.5 200 17:18 19.09.2019
1642 Rain 6 1001 93 8047 1.4 200.369 16:56 19.09.2019
1643 Rain 6 1001 100 16093 1.4 200.369 16:37 19.09.2019
1644 Rain 6 1001 100 16093 1.4 200.369 16:18 19.09.2019
1645 Rain 6 1001 100 12874 1.5 210 15:38 19.09.2019
1646 Rain 6 1001 100 12874 1.5 210 15:18 19.09.2019
1647 Rain 6 1000 100 1408 0.62 219.734 14:41 19.09.2019
1648 Rain 6 1000 100 1408 0.62 219.734 14:23 19.09.2019
1649 Mist 6 999 100 4828 0.62 219.734 13:58 19.09.2019
1650 Fog 6 999 93 805 0.62 219.734 13:38 19.09.2019
1651 Fog 6 999 93 805 0.7 194.455 13:19 19.09.2019
1652 Mist 6 999 93 3017 0.7 194.455 12:38 19.09.2019
1653 Rain 6 998 93 805 0.54 229.696 12:19 19.09.2019
1654 Rain 6 998 93 805 0.54 229.696 11:56 19.09.2019
1655 Rain 6 998 100 16093 2.1 210 11:38 19.09.2019
1656 Rain 7 997 93 16093 0.54 229.696 11:19 19.09.2019
1657 Rain 7 997 87 9656 2.6 190 10:40 19.09.2019
1658 Rain 7 997 87 9656 2.6 190 10:21 19.09.2019
1659 Rain 7 996 93 16093 2.6 190 09:58 19.09.2019
1660 Rain 7 996 100 16093 2.1 220 09:40 19.09.2019
1661 Rain 7 996 100 16093 2.1 220 09:20 19.09.2019
1662 Rain 8 996 100 16093 2.6 240 08:52 19.09.2019
1663 Rain 8 996 100 16093 2.6 240 08:27 19.09.2019
1664 Rain 8 995 93 16093 2.6 250 07:55 19.09.2019
1665 Rain 8 995 93 16093 2.1 260 07:36 19.09.2019
1666 Clouds 8 995 93 16093 2.1 260 07:18 19.09.2019
1667 Clouds 9 994 93 16093 1.5 260 06:42 19.09.2019
1668 Clouds 8 994 93 16093 1.5 260 06:24 19.09.2019
1669 Clouds 9 993 93 16093 2.1 220 05:50 19.09.2019
1670 Rain 10 993 81 16093 2.6 230 04:24 19.09.2019
1671 Clouds 10 993 76 16093 2.6 210 03:21 19.09.2019
1672 Rain 10 992 93 16093 0.75 316.292 01:50 19.09.2019
1673 Rain 10 992 93 16093 1.02 351.759 01:20 19.09.2019
1674 Rain 9 992 93 14484 1.02 351.759 00:45 19.09.2019
1675 Rain 9 992 93 14484 0.72 5.309 00:24 19.09.2019
1676 Rain 9 991 93 9656 2.1 60 23:39 18.09.2019
1677 Rain 9 991 93 9656 2.1 60 23:20 18.09.2019
1678 Rain 9 991 93 9656 2.1 60 23:20 18.09.2019
1679 Rain 8 991 87 9656 2.6 60 22:43 18.09.2019
1680 Rain 8 991 87 9656 2.6 60 22:20 18.09.2019
1681 Rain 7 991 100 14484 0.72 5.309 21:58 18.09.2019
1682 Rain 7 991 100 14484 0.72 5.309 21:40 18.09.2019
1683 Rain 7 991 100 14484 0.72 5.309 21:40 18.09.2019
1684 Rain 7 991 100 14484 2.03 37.153 21:19 18.09.2019
1685 Rain 6 991 93 9656 4.1 60 20:58 18.09.2019
1686 Rain 6 991 93 9656 4.1 60 20:40 18.09.2019
1687 Rain 6 991 93 9656 4.1 60 20:22 18.09.2019
1688 Rain 6 991 81 14484 2.1 320 19:57 18.09.2019
1689 Rain 5 991 93 8047 3.6 50 19:38 18.09.2019
1690 Rain 5 991 93 16093 2.13 28.856 19:19 18.09.2019
1691 Rain 5 991 93 16093 2.13 28.856 18:55 18.09.2019
1692 Rain 5 992 93 9656 2.1 60 18:37 18.09.2019
1693 Rain 5 992 93 9656 2.1 60 18:18 18.09.2019
1694 Rain 4 992 93 6437 2.1 60 17:57 18.09.2019
1695 Rain 4 992 93 6437 2.1 60 17:57 18.09.2019
1696 Rain 4 992 93 9656 1.81 29.713 17:39 18.09.2019
1697 Rain 4 993 93 9656 2.6 70 17:18 18.09.2019
1698 Rain 4 992 93 9656 1.81 29.713 17:18 18.09.2019
1699 Rain 4 993 93 9656 2.6 70 16:55 18.09.2019
1700 Rain 4 994 93 2213 3.1 50 16:37 18.09.2019
1701 Rain 4 994 93 2213 3.1 50 16:18 18.09.2019
1702 Rain 3 994 86 2012 2.6 60 15:54 18.09.2019
1703 Rain 3 995 85 4023 2.6 50 15:36 18.09.2019
1704 Rain 3 995 85 4023 2.6 50 15:36 18.09.2019
1705 Rain 3 995 67 4023 2.6 50 15:18 18.09.2019
1706 Rain 3 996 74 14484 2.1 50 14:57 18.09.2019
1707 Clouds 3 996 74 16093 2.1 50 14:37 18.09.2019
1708 Clouds 3 996 74 16093 2.1 50 14:37 18.09.2019
1709 Clouds 3 996 74 16093 2.1 50 14:19 18.09.2019
1710 Clouds 3 998 74 16093 2.1 50 13:42 18.09.2019
1711 Clouds 3 999 80 16093 2.6 60 13:19 18.09.2019
1712 Clouds 3 999 80 16093 2.6 60 12:53 18.09.2019
1713 Clouds 3 999 80 16093 2.6 60 12:32 18.09.2019
1714 Clear 2 1000 72 16093 2.6 60 11:59 18.09.2019
1715 Clear 3 1000 72 16093 2.6 60 11:39 18.09.2019
1716 Clear 2 1000 72 16093 2.6 60 11:19 18.09.2019
1717 Clear 3 1002 72 16093 3.1 70 10:40 18.09.2019
1718 Clear 3 1002 72 16093 3.1 70 10:40 18.09.2019
1719 Clear 3 1002 72 16093 3.1 70 10:40 18.09.2019
1720 Clear 3 1002 72 16093 3.1 70 10:21 18.09.2019
1721 Clear 3 1002 72 16093 3.1 70 10:21 18.09.2019
1722 Clouds 2 1003 69 16093 3.6 30 09:58 18.09.2019
1723 Clouds 2 1003 69 16093 3.6 30 09:58 18.09.2019
1724 Clouds 2 1003 69 16093 3.6 30 09:39 18.09.2019
1725 Clouds 2 1003 69 16093 3.6 30 09:21 18.09.2019
1726 Clouds 2 1004 69 16093 3.1 40 08:45 18.09.2019
1727 Clouds 2 1004 69 16093 3.1 40 08:26 18.09.2019
1728 Clouds 3 1004 64 16093 1.62 38.593 07:59 18.09.2019
1729 Clouds 3 1004 64 16093 1.62 38.593 07:40 18.09.2019
1730 Clouds 3 1004 64 16093 1.62 38.593 07:40 18.09.2019
1731 Clouds 4 1004 64 16093 1.62 38.593 07:22 18.09.2019
1732 Clouds 5 1005 36 16093 2.1 290 06:40 18.09.2019
1733 Clouds 6 1006 36 14484 3.6 310 05:51 18.09.2019
1734 Clouds 7 1005 42 16093 3.1 320 05:21 18.09.2019
1735 Clouds 8 1006 29 16093 4.6 240 03:21 18.09.2019
1736 Clouds 8 1006 49 16093 3.6 200 02:39 18.09.2019
1737 Clouds 8 1006 43 16093 5.1 200 01:25 18.09.2019
1738 Rain 7 1006 43 16093 4.1 200 00:49 18.09.2019
1739 Rain 7 1006 57 16093 4.1 200 00:22 18.09.2019
1740 Clouds 7 1006 57 16093 3.6 200 23:46 17.09.2019
1741 Clouds 7 1006 57 16093 3.6 200 23:46 17.09.2019
1742 Clouds 7 1006 57 16093 3.6 200 23:23 17.09.2019
1743 Clouds 7 1006 57 16093 3.1 240 22:43 17.09.2019
1744 Clouds 7 1006 57 16093 3.1 240 22:24 17.09.2019
1745 Clouds 7 1006 57 16093 3.6 220 21:56 17.09.2019
1746 Clouds 7 1006 57 16093 3.6 220 21:37 17.09.2019
1747 Clouds 6 1006 83 16093 3.6 220 21:19 17.09.2019
1748 Clouds 6 1006 83 16093 3.6 220 21:19 17.09.2019
1749 Clouds 6 1006 75 16093 1.77 202.398 20:58 17.09.2019
1750 Clouds 6 1006 75 16093 1.77 202.398 20:58 17.09.2019
1751 Clouds 6 1006 81 12874 3.6 230 20:40 17.09.2019
1752 Clouds 6 1006 81 12874 3.6 230 20:40 17.09.2019
1753 Clouds 6 1006 81 12874 3.6 230 20:40 17.09.2019
1754 Clouds 6 1006 81 12874 3.6 230 20:22 17.09.2019
1755 Clouds 6 1006 81 12874 3.6 230 20:22 17.09.2019
1756 Clouds 6 1006 81 12874 3.6 230 20:22 17.09.2019
1757 Clouds 6 1006 87 16093 2.1 0 19:58 17.09.2019
1758 Clouds 5 1006 87 16093 2.1 0 19:39 17.09.2019
1759 Clouds 5 1006 87 16093 2.6 0 19:20 17.09.2019
1760 Clouds 5 1006 87 16093 2.6 0 18:57 17.09.2019
1761 Clouds 5 1006 87 16093 2.6 0 18:57 17.09.2019
1762 Rain 5 1006 93 16093 1.77 202.398 18:38 17.09.2019
1763 Rain 5 1006 93 16093 1.76 195.238 18:20 17.09.2019
1764 Rain 6 1006 93 16093 2.6 230 17:46 17.09.2019
1765 Rain 6 1006 93 16093 2.6 230 17:20 17.09.2019
1766 Clouds 5 1005 87 16093 1.76 195.238 16:58 17.09.2019
1767 Clouds 5 1006 93 16093 1.76 195.238 16:40 17.09.2019
1768 Clouds 5 1006 93 16093 1.76 195.238 16:21 17.09.2019
1769 Clouds 6 1005 93 16093 1.76 195.238 15:40 17.09.2019
1770 Clouds 6 1005 93 16093 1.27 185.711 15:21 17.09.2019
1771 Rain 6 1005 87 14484 1.27 185.711 14:57 17.09.2019
1772 Rain 6 1005 87 16093 1.27 185.711 14:39 17.09.2019
1773 Rain 6 1005 87 16093 1.27 185.711 14:19 17.09.2019
1774 Clouds 6 1005 87 16093 1.27 185.711 13:57 17.09.2019
1775 Rain 6 1005 81 16093 1.27 185.711 13:38 17.09.2019
1776 Rain 6 1005 81 16093 1.46 188.364 13:20 17.09.2019
1777 Clouds 6 1005 81 16093 2.1 60 12:42 17.09.2019
1778 Clouds 6 1005 81 16093 2.1 60 12:20 17.09.2019
1779 Clouds 6 1005 81 16093 1.01 205.343 11:46 17.09.2019
1780 Clouds 6 1005 81 16093 1.01 205.343 11:27 17.09.2019
1781 Clouds 6 1004 87 16093 2.1 150 10:59 17.09.2019
1782 Clouds 6 1004 93 16093 1.5 140 10:41 17.09.2019
1783 Clouds 7 1004 93 16093 1.5 140 10:21 17.09.2019
1784 Clouds 7 1004 87 16093 1.01 205.343 09:55 17.09.2019
1785 Rain 7 1004 81 14484 1.01 205.343 09:37 17.09.2019
1786 Rain 7 1004 81 14484 0.38 304.029 09:19 17.09.2019
1787 Clouds 8 1004 75 16093 0.38 304.029 08:43 17.09.2019
1788 Clouds 8 1004 75 16093 0.38 304.029 08:43 17.09.2019
1789 Clouds 8 1004 75 16093 1.17 288.528 08:25 17.09.2019
1790 Clouds 8 1004 82 16093 1.5 280 07:45 17.09.2019
1791 Clouds 8 1004 82 16093 1.5 280 07:27 17.09.2019
1792 Clouds 8 1004 82 14484 1.5 290 06:54 17.09.2019
1793 Clouds 9 1004 82 14484 1.5 290 06:35 17.09.2019
1794 Clear 10 1004 64 16093 3.6 290 05:54 17.09.2019
1795 Clouds 11 1004 64 14484 5.1 290 04:56 17.09.2019
1796 Clear 11 1004 64 14484 4.6 300 03:49 17.09.2019
1797 Clear 11 1003 57 14484 5.7 290 02:40 17.09.2019
1798 Clear 11 1003 57 11265 6.7 270 01:50 17.09.2019
1799 Clear 12 1002 54 14484 2.6 260 00:56 17.09.2019
1800 Clouds 11 1002 62 12874 2.1 190 23:42 16.09.2019
1801 Clouds 11 1002 62 12874 2.1 190 23:20 16.09.2019
1802 Clouds 11 1002 76 14484 1.5 150 22:59 16.09.2019
1803 Clouds 10 1002 76 14484 1.5 150 22:41 16.09.2019
1804 Clouds 10 1002 76 14484 1.5 150 22:23 16.09.2019
1805 Clouds 9 1002 87 16093 1.5 0 21:58 16.09.2019
1806 Clouds 9 1001 81 14484 1.5 150 21:38 16.09.2019
1807 Clouds 8 1001 81 14484 1.5 150 21:20 16.09.2019
1808 Clouds 8 1001 81 14484 1.5 150 21:20 16.09.2019
1809 Clouds 8 1001 81 14484 1.5 150 21:20 16.09.2019
1810 Clouds 8 1001 81 12874 1.39 315.904 20:55 16.09.2019
1811 Clouds 7 1001 81 12874 1.33 310.41 20:37 16.09.2019
1812 Clouds 8 1001 81 12874 1.33 310.41 20:18 16.09.2019
1813 Rain 8 1000 81 12874 1.5 220 19:42 16.09.2019
1814 Rain 7 1000 81 12874 1.5 220 19:20 16.09.2019
1815 Clouds 7 1000 75 16093 1.5 200 18:57 16.09.2019
1816 Rain 7 999 81 14484 2.1 210 18:39 16.09.2019
1817 Rain 7 999 81 14484 2.1 210 18:20 16.09.2019
1818 Clouds 8 999 87 16093 1.5 210 17:43 16.09.2019
1819 Clouds 8 999 87 16093 1.5 210 17:24 16.09.2019
1820 Clouds 8 998 87 16093 2.1 220 16:58 16.09.2019
1821 Rain 8 998 93 16093 2.1 220 16:39 16.09.2019
1822 Rain 8 998 93 16093 2.1 220 16:20 16.09.2019
1823 Clouds 9 998 87 16093 1.5 220 15:56 16.09.2019
1824 Clouds 9 998 87 16093 1.5 220 15:56 16.09.2019
1825 Rain 9 998 76 16093 2.6 190 15:37 16.09.2019
1826 Clouds 9 997 93 16093 2.1 230 15:19 16.09.2019
1827 Clouds 10 997 81 14484 1.36 344.239 14:44 16.09.2019
1828 Clouds 10 997 81 14484 1.36 344.239 14:24 16.09.2019
1829 Rain 10 996 87 16093 2.6 230 13:59 16.09.2019
1830 Clouds 10 997 81 16093 2.1 190 13:39 16.09.2019
1831 Clouds 10 997 81 16093 2.1 190 13:21 16.09.2019
1832 Rain 10 996 76 16093 1.52 349.665 12:46 16.09.2019
1833 Rain 10 996 76 16093 1.52 349.665 12:27 16.09.2019
1834 Rain 10 995 76 16093 2.6 340 11:58 16.09.2019
1835 Clouds 11 996 81 16093 1.5 20 11:39 16.09.2019
1836 Clouds 10 996 81 16093 1.5 20 11:21 16.09.2019
1837 Clouds 11 996 81 16093 1.56 353.071 10:39 16.09.2019
1838 Clouds 11 996 81 16093 1.56 353.071 10:21 16.09.2019
1839 Clouds 12 996 58 16093 1.5 250 09:58 16.09.2019
1840 Clouds 12 996 58 16093 1.5 250 09:39 16.09.2019
1841 Clouds 12 996 58 16093 1.5 250 09:19 16.09.2019
1842 Clouds 12 995 66 14484 2.02 355.575 08:47 16.09.2019
1843 Clouds 12 995 66 14484 2.09 356.46 08:28 16.09.2019
1844 Clouds 13 995 62 12874 3.6 350 07:56 16.09.2019
1845 Clouds 13 995 62 12874 3.6 350 07:38 16.09.2019
1846 Clouds 13 995 62 12874 3.6 350 07:38 16.09.2019
1847 Clouds 13 995 62 12874 3.6 350 07:20 16.09.2019
1848 Rain 14 995 55 12874 3.6 350 06:46 16.09.2019
1849 Rain 14 995 55 12874 3.6 350 06:27 16.09.2019
1850 Smoke 15 995 48 16093 2.1 320 05:51 16.09.2019
1851 Smoke 15 995 48 16093 2.1 320 05:29 16.09.2019
1852 Smoke 17 996 42 16093 2.1 350 04:38 16.09.2019
1853 Smoke 17 997 42 16093 3.1 20 02:36 16.09.2019
1854 Smoke 16 999 48 11265 2.6 80 00:44 16.09.2019
1855 Smoke 16 999 48 11265 2.6 80 00:26 16.09.2019
1856 Smoke 14 1001 58 16093 2.1 60 23:44 15.09.2019
1857 Smoke 14 1001 58 16093 2.1 60 23:21 15.09.2019
1858 Smoke 13 1002 58 16093 2.6 80 22:58 15.09.2019
1859 Smoke 13 1002 58 16093 2.6 80 22:37 15.09.2019
1860 Smoke 13 1002 58 16093 2.6 80 22:18 15.09.2019
1861 Smoke 12 1002 76 16093 1.85 63.435 21:55 15.09.2019
1862 Smoke 12 1004 71 16093 4.1 80 21:37 15.09.2019
1863 Smoke 11 1004 71 16093 4.1 80 21:18 15.09.2019
1864 Smoke 9 1005 87 16093 2.6 70 20:43 15.09.2019
1865 Smoke 7 1005 87 16093 2.6 70 20:25 15.09.2019
1866 Smoke 7 1006 93 16093 1.34 48.292 19:47 15.09.2019
1867 Smoke 6 1006 93 16093 1.34 48.292 19:26 15.09.2019
1868 Smoke 4 1007 100 14484 1.5 50 18:55 15.09.2019
1869 Smoke 4 1007 100 14484 1.5 50 18:36 15.09.2019
1870 Smoke 2 1007 100 14484 1.5 50 18:18 15.09.2019
1871 Smoke 2 1007 100 14484 1.5 50 18:18 15.09.2019
1872 Smoke 3 1007 100 14484 1.36 48.097 17:41 15.09.2019
1873 Smoke 3 1007 100 14484 1.36 48.097 17:21 15.09.2019
1874 Clear 3 1008 100 16093 1.5 70 16:56 15.09.2019
1875 Clear 2 1008 100 16093 1.5 70 16:38 15.09.2019
1876 Clear 3 1008 100 16093 1.5 70 16:20 15.09.2019
1877 Mist 3 1009 93 16093 2.1 50 15:41 15.09.2019
1878 Mist 4 1009 93 16093 2.1 50 15:21 15.09.2019
1879 Clear 4 1009 100 16093 1 77.664 14:59 15.09.2019
1880 Mist 4 1010 100 16093 1.5 60 14:41 15.09.2019
1881 Mist 4 1010 100 16093 1.5 60 14:22 15.09.2019
1882 Clear 5 1011 93 16093 1.5 110 13:48 15.09.2019
1883 Clear 5 1011 93 16093 1.5 110 13:26 15.09.2019
1884 Clear 5 1012 93 16093 3.1 60 12:59 15.09.2019
1885 Clear 5 1012 93 16093 3.1 60 12:40 15.09.2019
1886 Clear 6 1012 93 16093 3.1 60 12:20 15.09.2019
1887 Clear 6 1012 100 16093 1.5 80 11:43 15.09.2019
1888 Clear 6 1012 100 16093 1.5 80 11:23 15.09.2019
1889 Clear 6 1012 93 16093 2.1 60 10:59 15.09.2019
1890 Clear 6 1012 93 16093 2.1 60 10:40 15.09.2019
1891 Clear 7 1012 93 16093 2.1 60 10:21 15.09.2019
1892 Clear 7 1012 87 12874 0.76 57.488 09:44 15.09.2019
1893 Clear 8 1012 87 12874 0.97 326.539 09:21 15.09.2019
1894 Clear 9 1012 81 16093 0.97 326.539 08:59 15.09.2019
1895 Clear 9 1012 81 16093 0.97 326.539 08:59 15.09.2019
1896 Clear 9 1012 81 16093 0.97 326.539 08:40 15.09.2019
1897 Clear 9 1012 81 16093 0.96 355.62 08:19 15.09.2019
1898 Clear 10 1012 62 14484 1.5 230 07:46 15.09.2019
1899 Smoke 13 1012 58 14484 3.1 220 06:45 15.09.2019
1900 Smoke 13 1012 58 14484 3.1 220 06:27 15.09.2019
1901 Smoke 16 1011 51 16093 3.6 230 03:20 15.09.2019
1902 Smoke 16 1011 48 14484 4.1 240 02:20 15.09.2019
1903 Smoke 16 1011 51 16093 4.1 220 01:37 15.09.2019
1904 Smoke 16 1011 51 14484 4.1 200 00:57 15.09.2019
1905 Smoke 16 1011 51 14484 4.1 200 00:57 15.09.2019
1906 Smoke 16 1011 51 14484 4.1 200 00:37 15.09.2019
1907 Smoke 16 1011 51 14484 4.1 200 00:19 15.09.2019
1908 Smoke 15 1011 54 14484 2.6 230 23:56 14.09.2019
1909 Smoke 15 1011 54 14484 2.6 230 23:38 14.09.2019
1910 Smoke 15 1011 54 14484 2.6 230 23:38 14.09.2019
1911 Smoke 15 1011 54 14484 2.6 230 23:19 14.09.2019
1912 Smoke 15 1011 58 14484 1.14 326.06 22:57 14.09.2019
1913 Smoke 14 1011 58 14484 1.14 326.06 22:37 14.09.2019
1914 Smoke 14 1011 58 14484 1.14 326.06 22:18 14.09.2019
1915 Smoke 13 1010 66 12874 1.14 326.06 21:40 14.09.2019
1916 Smoke 12 1010 66 12874 1.3 347.26 21:21 14.09.2019
1917 Smoke 12 1010 66 12874 1.3 347.26 21:21 14.09.2019
1918 Clouds 12 1010 71 14484 1.3 347.26 20:58 14.09.2019
1919 Clouds 12 1010 71 14484 1.2 353.26 20:39 14.09.2019
1920 Clouds 11 1010 71 14484 1.2 353.26 20:21 14.09.2019
1921 Clouds 10 1009 87 12874 1.2 353.26 19:47 14.09.2019
1922 Clouds 10 1009 87 12874 1.2 353.26 19:23 14.09.2019
1923 Clouds 10 1009 81 16093 1.2 353.26 18:58 14.09.2019
1924 Smoke 10 1008 93 12874 1.2 353.26 18:38 14.09.2019
1925 Smoke 10 1008 93 12874 1.55 349.401 18:20 14.09.2019
1926 Smoke 10 1007 66 16093 4.1 360 17:45 14.09.2019
1927 Smoke 10 1007 66 16093 4.1 360 17:45 14.09.2019
1928 Smoke 10 1007 66 16093 4.1 360 17:24 14.09.2019
1929 Clouds 10 1006 93 16093 1.55 349.401 16:56 14.09.2019
1930 Clouds 10 1006 93 16093 1.55 349.401 16:38 14.09.2019
1931 Clouds 10 1006 93 16093 1.55 349.401 16:18 14.09.2019
1932 Clouds 11 1005 81 16093 1.55 349.401 15:42 14.09.2019
1933 Clouds 12 1005 81 16093 2.02 358.636 15:22 14.09.2019
1934 Rain 12 1005 81 16093 2.02 358.636 14:55 14.09.2019
1935 Rain 12 1005 81 16093 2.02 358.636 14:36 14.09.2019
1936 Rain 12 1005 81 16093 2.02 358.636 14:18 14.09.2019
1937 Rain 12 1005 81 16093 2.02 358.636 14:18 14.09.2019
1938 Rain 12 1004 76 12874 2.02 358.636 13:44 14.09.2019
1939 Rain 12 1004 76 12874 1.72 350.538 13:20 14.09.2019
1940 Rain 13 1003 62 16093 1.72 350.538 12:45 14.09.2019
1941 Rain 13 1003 62 16093 2.32 6.193 12:23 14.09.2019
1942 Rain 13 1002 58 16093 2.1 50 11:41 14.09.2019
1943 Rain 14 1002 58 16093 2.1 50 11:20 14.09.2019
1944 Clouds 14 1001 54 14484 2.6 40 10:40 14.09.2019
1945 Clouds 14 1001 54 14484 2.6 40 10:40 14.09.2019
1946 Clouds 14 1001 54 14484 2.6 40 10:22 14.09.2019
1947 Smoke 14 1000 54 14484 2.6 50 09:59 14.09.2019
1948 Smoke 14 1000 54 14484 2.6 50 09:40 14.09.2019
1949 Smoke 14 1000 54 14484 2.6 50 09:21 14.09.2019
1950 Smoke 14 999 48 12874 2.6 60 08:57 14.09.2019
1951 Smoke 14 999 48 12874 2.6 60 08:38 14.09.2019
1952 Smoke 14 999 48 12874 2.6 60 08:19 14.09.2019
1953 Smoke 14 998 48 14484 1.5 60 07:43 14.09.2019
1954 Smoke 14 998 48 14484 1.5 60 07:21 14.09.2019
1955 Haze 16 997 42 11265 4.6 60 06:33 14.09.2019
1956 Haze 17 996 42 9656 3.6 20 05:53 14.09.2019
1957 Clouds 20 995 30 11265 5.1 30 04:27 14.09.2019
1958 Clear 21 995 27 14484 2.6 120 03:20 14.09.2019
1959 Clear 22 995 25 16093 2.6 40 02:42 14.09.2019
1960 Clear 22 995 25 16093 2.6 40 02:42 14.09.2019
1961 Clear 21 994 28 14484 4.1 90 01:45 14.09.2019
1962 Clear 21 994 32 14484 2.1 80 01:19 14.09.2019
1963 Clear 20 994 32 14484 2.1 80 00:40 14.09.2019
1964 Clear 20 994 32 14484 2.1 80 00:21 14.09.2019
1965 Clouds 20 994 32 16093 4.1 50 23:55 13.09.2019
1966 Clouds 20 994 32 16093 4.1 50 23:55 13.09.2019
1967 Clouds 19 994 34 14484 4.1 50 23:36 13.09.2019
1968 Clouds 19 994 34 14484 4.1 50 23:18 13.09.2019
1969 Clouds 18 994 42 14484 2.1 90 22:40 13.09.2019
1970 Clouds 18 994 42 14484 2.1 90 22:22 13.09.2019
1971 Clouds 17 994 54 12874 2.1 70 21:59 13.09.2019
1972 Clouds 16 994 54 12874 2.1 70 21:39 13.09.2019
1973 Clouds 14 994 66 11265 2.1 60 21:19 13.09.2019
1974 Clouds 14 994 66 11265 2.1 60 20:57 13.09.2019
1975 Clouds 14 994 66 11265 2.1 60 20:57 13.09.2019
1976 Clouds 14 994 66 11265 2.1 60 20:57 13.09.2019
1977 Clouds 13 994 66 11265 2.1 60 20:37 13.09.2019
1978 Clouds 13 994 66 11265 2.1 60 20:19 13.09.2019
1979 Clear 13 993 66 14484 3.1 60 19:44 13.09.2019
1980 Clouds 12 993 76 16093 2.6 30 19:22 13.09.2019
1981 Clouds 12 993 76 16093 2.6 30 18:59 13.09.2019
1982 Clouds 12 993 71 14484 3.1 70 18:38 13.09.2019
1983 Clouds 12 993 71 14484 3.1 70 18:38 13.09.2019
1984 Clouds 10 993 71 14484 2.1 40 18:19 13.09.2019
1985 Clouds 10 993 71 14484 2.1 40 17:44 13.09.2019
1986 Clouds 10 993 71 14484 2.1 40 17:21 13.09.2019
1987 Clouds 10 993 71 16093 3.6 60 16:59 13.09.2019
1988 Clouds 10 993 71 16093 3.6 60 16:39 13.09.2019
1989 Clouds 10 993 71 16093 3.6 60 16:19 13.09.2019
1990 Clouds 10 993 71 16093 3.1 60 15:42 13.09.2019
1991 Clouds 10 993 71 16093 3.1 60 15:23 13.09.2019
1992 Clouds 10 993 71 16093 3.6 60 14:55 13.09.2019
1993 Clouds 10 993 71 16093 3.6 60 14:37 13.09.2019
1994 Clouds 10 993 71 16093 3.6 60 14:18 13.09.2019
1995 Clouds 10 993 71 16093 3.6 60 13:41 13.09.2019
1996 Clouds 9 993 71 16093 3.6 60 13:22 13.09.2019
1997 Clouds 8 993 66 16093 2.6 60 12:45 13.09.2019
1998 -273 0 0 0 0 0 12:25 13.09.2019
1999 Clouds 9 993 62 16093 4.1 60 11:57 13.09.2019
2000 Clouds 9 993 62 16093 4.1 60 11:20 13.09.2019
2001 Clear 9 993 62 16093 3.1 50 10:57 13.09.2019
2002 Clear 9 993 62 16093 3.1 50 10:37 13.09.2019
2003 Clear 10 993 54 16093 4.6 50 10:18 13.09.2019
2004 Clear 10 993 54 16093 4.6 50 09:43 13.09.2019
2005 Clear 10 993 54 16093 4.6 50 09:43 13.09.2019
2006 Clear 11 993 54 16093 4.6 50 09:20 13.09.2019
2007 Clouds 11 993 50 16093 3.6 60 08:55 13.09.2019
2008 Clouds 12 993 50 16093 3.6 60 08:37 13.09.2019
2009 Clouds 12 993 50 16093 3.6 60 08:19 13.09.2019
2010 Clouds 14 993 44 16093 3.6 60 07:41 13.09.2019
2011 Clouds 14 993 44 16093 3.6 60 07:21 13.09.2019
2012 Clouds 17 993 42 14484 2.1 90 06:37 13.09.2019
2013 Clouds 19 994 32 14484 3.1 90 05:34 13.09.2019
2014 Clouds 20 994 37 16093 3.6 60 03:52 13.09.2019
2015 Clouds 19 994 37 16093 3.6 60 03:25 13.09.2019
2016 Haze 18 995 39 16093 2.6 80 02:20 13.09.2019
2017 Haze 18 995 37 16093 3.6 100 01:37 13.09.2019
2018 Clouds 18 995 39 16093 4.1 110 00:59 13.09.2019
2019 Clouds 17 995 39 16093 4.1 110 00:35 13.09.2019
2020 Clear 17 996 42 16093 3.1 100 23:53 12.09.2019
2021 Clear 18 996 42 16093 3.1 100 23:25 12.09.2019
2022 Clear 16 996 48 16093 5.7 80 22:58 12.09.2019
2023 Clear 16 996 48 16093 5.7 80 22:39 12.09.2019
2024 Clear 16 996 48 16093 5.7 80 22:21 12.09.2019
2025 Clouds 15 997 54 16093 5.1 60 21:55 12.09.2019
2026 Clouds 14 997 54 16093 5.1 60 21:37 12.09.2019
2027 Clouds 13 997 54 16093 5.1 60 21:18 12.09.2019
2028 Clear 11 998 71 16093 4.1 60 20:44 12.09.2019
2029 Clear 11 998 71 16093 4.1 60 20:23 12.09.2019
2030 Clear 8 998 87 16093 5.1 60 19:57 12.09.2019
2031 Clear 8 998 87 16093 5.1 60 19:39 12.09.2019
2032 Clear 5 999 93 14484 4.6 50 19:19 12.09.2019
2033 Clear 4 999 93 14484 4.6 50 18:56 12.09.2019
2034 Clear 4 999 93 14484 4.6 50 18:36 12.09.2019
2035 Clear 4 999 86 16093 1.89 69.241 18:18 12.09.2019
2036 Fog 3 1000 86 16093 4.1 60 17:41 12.09.2019
2037 Fog 3 1000 86 16093 4.1 60 17:20 12.09.2019
2038 Clear 3 1001 100 16093 3.1 60 16:56 12.09.2019
2039 Clear 3 1001 100 16093 3.1 60 16:38 12.09.2019
2040 Clear 3 1001 100 16093 3.1 60 16:19 12.09.2019
2041 Fog 4 1001 93 16093 2.6 70 15:41 12.09.2019
2042 Fog 4 1001 93 16093 2.6 70 15:23 12.09.2019
2043 Fog 5 1002 93 16093 3.1 80 14:46 12.09.2019
2044 Fog 5 1002 93 16093 3.1 80 14:22 12.09.2019
2045 Clear 4 1002 93 16093 3.1 70 13:58 12.09.2019
2046 Clear 4 1002 93 16093 3.1 70 13:38 12.09.2019
2047 Clear 5 1002 93 16093 3.1 70 13:19 12.09.2019
2048 Clear 6 1002 87 16093 3.6 60 12:45 12.09.2019
2049 Clear 6 1002 87 16093 3.6 60 12:19 12.09.2019
2050 Clear 6 1002 87 16093 3.6 60 12:19 12.09.2019
2051 Clear 6 1003 81 16093 4.1 70 11:57 12.09.2019
2052 Clear 6 1003 81 16093 4.1 70 11:39 12.09.2019
2053 Clear 6 1003 81 16093 4.1 70 11:19 12.09.2019
2054 Clear 6 1003 81 16093 4.6 70 10:45 12.09.2019
2055 Clear 6 1003 81 16093 4.6 70 10:26 12.09.2019
2056 Clear 7 1004 76 16093 3.6 70 09:45 12.09.2019
2057 Clear 7 1004 76 16093 3.6 70 09:25 12.09.2019
2058 Clear 8 1004 71 14484 3.1 70 08:59 12.09.2019
2059 Clear 8 1004 71 14484 3.1 70 08:41 12.09.2019
2060 Clear 8 1004 71 14484 3.1 70 08:22 12.09.2019
2061 Clear 9 1005 71 14484 2.6 50 07:44 12.09.2019
2062 Clear 11 1005 58 14484 1.5 60 07:20 12.09.2019
2063 Clear 12 1005 58 14484 1.5 60 06:51 12.09.2019
2064 Clouds 12 1005 62 16093 2.6 70 06:29 12.09.2019
2065 Clear 13 1006 51 14484 2.6 60 05:51 12.09.2019
2066 Clear 13 1006 51 14484 2.6 60 05:33 12.09.2019
2067 Clear 14 1006 51 16093 2.1 120 04:41 12.09.2019
2068 Clouds 14 1008 58 16093 2.6 120 02:59 12.09.2019
2069 Clouds 14 1009 67 16093 2.1 130 01:37 12.09.2019
2070 Clouds 13 1009 67 16093 2.1 130 01:19 12.09.2019
2071 Clouds 13 1009 71 16093 2.6 160 00:44 12.09.2019
2072 Clouds 13 1009 71 16093 2.6 160 00:24 12.09.2019
2073 Clouds 12 1010 87 14484 2.1 70 23:42 11.09.2019
2074 Clouds 12 1010 87 14484 2.1 70 23:24 11.09.2019
2075 Rain 11 1011 87 16093 3.6 80 22:57 11.09.2019
2076 Rain 10 1011 87 16093 3.6 80 22:37 11.09.2019
2077 Rain 10 1011 87 16093 3.6 80 22:19 11.09.2019
2078 Rain 9 1011 87 12874 1.17 99.559 21:43 11.09.2019
2079 Rain 9 1011 87 12874 1.17 99.559 21:25 11.09.2019
2080 Rain 8 1011 87 14484 0.65 123.005 20:58 11.09.2019
2081 Rain 8 1011 87 14484 0.87 125.293 20:40 11.09.2019
2082 Rain 8 1011 87 14484 0.87 125.293 20:20 11.09.2019
2083 Rain 8 1011 87 14484 0.87 125.293 20:20 11.09.2019
2084 Rain 8 1011 93 16093 1.5 80 19:58 11.09.2019
2085 Rain 8 1012 100 16093 1.5 40 19:40 11.09.2019
2086 Rain 7 1012 100 16093 1.5 40 19:21 11.09.2019
2087 Rain 7 1012 100 16093 0.87 125.293 18:58 11.09.2019
2088 Rain 7 1012 100 16093 0.87 125.293 18:40 11.09.2019
2089 Rain 7 1012 100 16093 0.46 137.121 18:22 11.09.2019
2090 Rain 7 1012 93 11265 2.6 130 17:56 11.09.2019
2091 Rain 7 1012 93 11265 2.6 130 17:38 11.09.2019
2092 Rain 7 1012 93 11265 2.6 130 17:20 11.09.2019
2093 Rain 7 1012 100 14484 1.5 110 16:48 11.09.2019
2094 Rain 7 1012 93 12874 1.5 80 16:26 11.09.2019
2095 Rain 7 1012 93 4426 2.1 40 15:59 11.09.2019
2096 Rain 7 1012 93 16093 0.46 137.121 15:40 11.09.2019
2097 Rain 7 1012 93 16093 0.51 132.51 15:19 11.09.2019
2098 Clouds 7 1012 93 16093 0.51 132.51 14:55 11.09.2019
2099 Rain 7 1012 100 16093 0.51 132.51 14:36 11.09.2019
2100 Rain 7 1012 100 16093 0.51 132.51 14:18 11.09.2019
2101 Clouds 7 1011 100 14484 1.5 60 13:38 11.09.2019
2102 Clouds 7 1011 100 14484 1.5 60 13:20 11.09.2019
2103 Rain 7 1012 93 16093 1.5 90 12:56 11.09.2019
2104 Clouds 7 1011 93 16093 0.47 123.792 12:38 11.09.2019
2105 Clouds 7 1011 93 16093 0.29 64.219 12:20 11.09.2019
2106 Clouds 8 1011 93 16093 1.5 90 11:39 11.09.2019
2107 Clouds 8 1011 93 16093 1.5 90 11:21 11.09.2019
2108 Clear 8 1011 87 16093 0.29 64.219 10:57 11.09.2019
2109 Clear 8 1011 87 16093 0.29 64.219 10:38 11.09.2019
2110 Clear 8 1011 76 16093 2.6 260 10:19 11.09.2019
2111 Clear 9 1011 76 16093 2.6 260 09:39 11.09.2019
2112 Clear 9 1011 76 16093 2.6 260 09:20 11.09.2019
2113 Clear 9 1011 76 16093 2.1 290 08:55 11.09.2019
2114 Clear 9 1011 76 16093 2.1 290 08:55 11.09.2019
2115 Clear 9 1011 76 16093 2.1 290 08:37 11.09.2019
2116 Clear 10 1011 76 16093 2.1 290 08:19 11.09.2019
2117 Clear 10 1010 71 16093 2.1 270 07:40 11.09.2019
2118 Clear 11 1010 71 16093 2.1 270 07:22 11.09.2019
2119 Clear 12 1010 66 16093 3.1 240 06:48 11.09.2019
2120 Clear 13 1010 66 16093 3.1 240 06:29 11.09.2019
2121 Clear 14 1010 55 16093 2.1 190 05:37 11.09.2019
2122 Clear 14 1010 55 16093 2.1 190 05:18 11.09.2019
2123 Clouds 15 1010 55 16093 0.87 214.716 04:22 11.09.2019
2124 Clouds 16 1010 51 16093 4.1 240 03:31 11.09.2019
2125 Clouds 16 1010 51 16093 4.1 240 03:31 11.09.2019
2126 Clouds 16 1009 48 16093 3.6 240 02:41 11.09.2019
2127 Clear 16 1009 59 16093 1.5 190 01:50 11.09.2019
2128 Clear 16 1010 59 16093 3.1 240 00:49 11.09.2019
2129 Clear 15 1010 59 16093 3.1 240 00:20 11.09.2019
2130 Clouds 15 1010 71 16093 2.15 244.198 23:41 10.09.2019
2131 Clouds 15 1010 71 16093 2.15 244.198 23:22 10.09.2019
2132 Clouds 15 1010 71 16093 2.15 244.198 23:22 10.09.2019
2133 Clouds 14 1010 67 16093 1.5 0 22:59 10.09.2019
2134 Clouds 14 1010 67 16093 1.5 0 22:41 10.09.2019
2135 Clouds 13 1010 93 14484 2.15 244.198 22:19 10.09.2019
2136 Clouds 13 1010 93 14484 2.15 244.198 22:19 10.09.2019
2137 Fog 12 1010 76 16093 1.5 0 21:55 10.09.2019
2138 Fog 12 1010 76 16093 1.5 0 21:37 10.09.2019
2139 Fog 12 1010 76 16093 1.5 0 21:37 10.09.2019
2140 Fog 12 1010 76 16093 1.5 0 21:37 10.09.2019
2141 Mist 11 1010 100 4828 2.6 170 21:18 10.09.2019
2142 Mist 11 1010 100 4828 2.6 170 20:57 10.09.2019
2143 Clouds 11 1010 87 12874 1.5 170 20:38 10.09.2019
2144 Clouds 10 1010 87 12874 1.5 170 20:19 10.09.2019
2145 Clear 10 1010 93 14484 0.63 260.162 20:19 10.09.2019
2146 Clear 10 1010 93 14484 0.63 260.162 19:56 10.09.2019
2147 Clear 9 1010 93 14484 0.63 260.162 19:37 10.09.2019
2148 Clouds 8 1009 100 16093 0.63 260.162 19:18 10.09.2019
2149 Mist 8 1009 100 14484 0.63 260.162 18:46 10.09.2019
2150 Mist 8 1009 100 14484 0.58 229.764 18:23 10.09.2019
2151 Fog 7 1009 93 0 3.6 230 17:59 10.09.2019
2152 Fog 7 1009 93 0 3.6 230 17:59 10.09.2019
2153 Clear 7 1009 93 14484 0.58 229.764 17:41 10.09.2019
2154 Clear 7 1009 93 14484 0.58 229.764 17:21 10.09.2019
2155 Clouds 7 1009 100 16093 0.58 229.764 16:57 10.09.2019
2156 Clouds 8 1009 100 16093 0.58 229.764 16:39 10.09.2019
2157 Clouds 8 1009 100 16093 0.58 229.764 16:20 10.09.2019
2158 Mist 9 1008 93 8047 0.58 229.764 15:56 10.09.2019
2159 Clouds 8 1009 93 16093 0.58 229.764 15:38 10.09.2019
2160 Clouds 8 1009 93 16093 0.58 229.764 15:38 10.09.2019
2161 Clouds 8 1009 93 16093 0.56 175.813 15:19 10.09.2019
2162 Clouds 9 1008 93 16093 0.56 175.813 14:40 10.09.2019
2163 Clouds 9 1008 93 16093 0.56 175.813 14:22 10.09.2019
2164 Clouds 10 1008 93 16093 1.5 60 13:50 10.09.2019
2165 Clouds 9 1008 93 16093 1.5 60 13:24 10.09.2019
2166 Clouds 10 1008 87 16093 0.71 200.225 12:58 10.09.2019
2167 Clouds 10 1008 87 16093 0.71 200.225 12:40 10.09.2019
2168 Clouds 9 1008 87 16093 1.5 250 12:22 10.09.2019
2169 Clouds 9 1008 87 16093 1.5 250 11:54 10.09.2019
2170 Clouds 10 1008 100 16093 0.4 16.863 11:36 10.09.2019
2171 Clear 10 1008 93 16093 1.5 40 11:18 10.09.2019
2172 Clear 11 1008 93 16093 1.5 40 10:39 10.09.2019
2173 Clouds 11 1008 87 16093 0.4 16.863 10:19 10.09.2019
2174 Clouds 12 1008 87 16093 0.4 16.863 09:50 10.09.2019
2175 Clouds 12 1008 87 16093 0.76 329.798 09:20 10.09.2019
2176 Clouds 12 1008 82 16093 0.76 329.798 08:59 10.09.2019
2177 Clouds 12 1008 82 16093 0.75 329.893 08:41 10.09.2019
2178 Clouds 13 1008 82 16093 0.75 329.893 08:22 10.09.2019
2179 Rain 13 1008 87 16093 0.75 329.893 07:44 10.09.2019
2180 Rain 13 1008 87 16093 0.75 329.893 07:26 10.09.2019
2181 Rain 14 1008 87 16093 0.75 329.893 06:51 10.09.2019
2182 Rain 15 1008 87 16093 0.75 329.893 06:32 10.09.2019
2183 Rain 17 1008 55 16093 3.1 260 04:57 10.09.2019
2184 Rain 18 1008 45 16093 3.1 230 03:48 10.09.2019
2185 Rain 19 1008 45 16093 2.6 200 02:23 10.09.2019
2186 Rain 19 1008 45 16093 2.6 200 02:23 10.09.2019
2187 Clear 19 1009 48 16093 3.1 270 01:55 10.09.2019
2188 Clear 19 1009 48 16093 3.1 270 01:55 10.09.2019
2189 Clear 18 1009 48 16093 3.1 270 01:37 10.09.2019
2190 Clouds 18 1009 51 16093 2.1 260 00:46 10.09.2019
2191 Clouds 18 1009 51 16093 2.1 260 00:25 10.09.2019
2192 Clouds 17 1009 55 16093 0.48 248.155 23:47 09.09.2019
2193 Clear 16 1010 58 16093 1.5 220 23:20 09.09.2019
2194 Clear 16 1010 58 16093 1.5 220 22:56 09.09.2019
2195 Clear 15 1010 58 16093 1.5 220 22:38 09.09.2019
2196 Clouds 14 1010 66 16093 0.48 248.155 22:20 09.09.2019
2197 Clouds 14 1010 66 16093 0.48 248.155 21:57 09.09.2019
2198 Clouds 14 1010 66 16093 0.48 248.155 21:38 09.09.2019
2199 Clouds 13 1010 66 16093 0.71 73.921 21:20 09.09.2019
2200 Clouds 12 1011 71 14484 1.5 260 20:56 09.09.2019
2201 Clouds 12 1011 71 14484 1.5 260 20:37 09.09.2019
2202 Clouds 11 1011 76 16093 0.71 193.392 20:19 09.09.2019
2203 Clouds 11 1011 76 16093 0.71 193.392 19:57 09.09.2019
2204 Clouds 11 1011 76 16093 1.5 190 19:39 09.09.2019
2205 Clouds 10 1011 76 16093 1.5 190 19:19 09.09.2019
2206 Clouds 10 1011 81 16093 0.71 193.392 18:57 09.09.2019
2207 Clouds 10 1011 81 16093 0.71 193.392 18:39 09.09.2019
2208 Clouds 8 1011 76 16093 1.5 100 18:20 09.09.2019
2209 Clouds 8 1011 76 16093 1.5 100 17:57 09.09.2019
2210 Clouds 7 1011 93 12874 1.45 36.507 17:39 09.09.2019
2211 Clouds 7 1011 93 12874 1.45 36.507 17:21 09.09.2019
2212 Mist 8 1012 87 16093 1.5 190 16:55 09.09.2019
2213 Mist 9 1012 87 16093 1.5 190 16:37 09.09.2019
2214 Mist 9 1012 87 16093 1.5 120 16:19 09.09.2019
2215 Mist 8 1012 87 16093 1.5 120 15:55 09.09.2019
2216 Mist 8 1012 87 16093 1.5 120 15:55 09.09.2019
2217 Mist 8 1012 87 16093 1.5 120 15:36 09.09.2019
2218 Clouds 8 1012 93 14484 1.56 34.688 15:18 09.09.2019
2219 Mist 8 1013 87 16093 1.56 34.688 14:54 09.09.2019
2220 Mist 7 1013 87 16093 1.56 34.688 14:36 09.09.2019
2221 Mist 7 1012 87 6437 1.56 34.688 14:18 09.09.2019
2222 Clouds 7 1013 87 16093 1.56 34.688 13:43 09.09.2019
2223 Clouds 7 1013 76 16093 2.1 100 13:19 09.09.2019
2224 Clouds 7 1013 76 16093 2.1 100 12:57 09.09.2019
2225 Clear 8 1013 81 14484 2.1 90 12:38 09.09.2019
2226 Clouds 9 1013 70 16093 3.1 50 12:19 09.09.2019
2227 Haze 9 1013 87 14484 1.5 70 11:46 09.09.2019
2228 Haze 9 1013 87 14484 1.5 70 11:22 09.09.2019
2229 Haze 9 1013 87 14484 1.5 70 11:22 09.09.2019
2230 Haze 9 1013 87 9656 2.02 27.996 10:58 09.09.2019
2231 Clouds 9 1014 87 14484 1.5 100 10:39 09.09.2019
2232 Clouds 10 1014 76 16093 2.02 27.996 10:20 09.09.2019
2233 Clouds 10 1014 76 16093 2.02 27.996 09:56 09.09.2019
2234 Clouds 11 1014 76 16093 2.02 27.996 09:37 09.09.2019
2235 Clouds 12 1014 54 16093 1.73 15.882 09:18 09.09.2019
2236 Clouds 12 1014 54 16093 1.67 15.511 08:38 09.09.2019
2237 Clear 13 1014 54 12874 1.67 15.511 08:19 09.09.2019
2238 Clear 13 1014 54 12874 1.67 15.511 07:45 09.09.2019
2239 Clear 13 1014 54 12874 1.67 15.511 07:22 09.09.2019
2240 Clouds 14 1014 62 16093 1.67 15.511 06:56 09.09.2019
2241 Clear 16 1015 45 16093 1.5 350 06:31 09.09.2019
2242 Clear 18 1015 37 16093 1.11 15.684 04:54 09.09.2019
2243 Clear 18 1016 39 16093 1.5 90 02:43 09.09.2019
2244 Clear 18 1017 37 16093 0.67 126.24 01:50 09.09.2019
2245 Clear 18 1017 45 16093 1.65 119.034 00:39 09.09.2019
2246 Clouds 18 1017 45 16093 2.6 110 00:21 09.09.2019
2247 Clear 17 1018 48 16093 1.51 135.966 23:44 08.09.2019
2248 Clear 17 1018 48 16093 1.51 135.966 23:23 08.09.2019
2249 Clear 17 1018 55 16093 1.51 135.966 22:55 08.09.2019
2250 Clear 17 1018 55 16093 1.51 135.966 22:36 08.09.2019
2251 Clear 17 1018 55 16093 1.51 135.966 22:36 08.09.2019
2252 Clouds 16 1018 51 16093 1.5 170 22:18 08.09.2019
2253 Clouds 15 1018 67 14484 1.51 135.966 21:41 08.09.2019
2254 Clouds 14 1018 67 14484 1.18 78.396 21:22 08.09.2019
2255 Clouds 14 1018 71 12874 1.5 80 20:57 08.09.2019
2256 Clouds 13 1018 71 12874 1.5 80 20:38 08.09.2019
2257 Clouds 12 1017 76 12874 0.75 103.888 20:20 08.09.2019
2258 Clouds 12 1017 76 12874 0.75 103.888 19:57 08.09.2019
2259 Clouds 12 1017 76 12874 0.75 103.888 19:37 08.09.2019
2260 Clouds 10 1017 66 16093 1.5 80 19:18 08.09.2019
2261 Clouds 10 1017 66 16093 1.5 80 18:56 08.09.2019
2262 Clouds 10 1017 87 14484 0.75 103.888 18:37 08.09.2019
2263 Clouds 10 1017 71 16093 2.1 90 18:18 08.09.2019
2264 Clouds 10 1016 87 14484 0.87 357.68 17:54 08.09.2019
2265 Clouds 9 1016 87 14484 0.87 357.68 17:36 08.09.2019
2266 Clouds 9 1016 87 14484 1.5 100 17:18 08.09.2019
2267 Rain 10 1016 87 14484 1.5 100 16:42 08.09.2019
2268 Rain 10 1016 87 14484 1.5 100 16:21 08.09.2019
2269 Rain 10 1016 87 14484 0.87 357.68 15:58 08.09.2019
2270 Clouds 10 1015 87 16093 0.87 357.68 15:39 08.09.2019
2271 Clouds 10 1014 81 16093 2.1 40 15:21 08.09.2019
2272 Clouds 10 1014 81 16093 2.1 40 14:55 08.09.2019
2273 Clouds 10 1014 81 16093 2.1 40 14:36 08.09.2019
2274 Clear 10 1014 71 16093 1.23 255.023 14:18 08.09.2019
2275 Clear 11 1014 71 16093 1.23 255.023 13:55 08.09.2019
2276 Clear 11 1014 71 16093 1.23 255.023 13:36 08.09.2019
2277 Clouds 11 1013 76 16093 1.5 160 13:18 08.09.2019
2278 Clear 11 1013 71 16093 1.37 249.203 12:41 08.09.2019
2279 Clear 11 1013 71 16093 0.65 223.621 12:23 08.09.2019
2280 Clouds 10 1013 76 16093 0.65 223.621 11:58 08.09.2019
2281 Clouds 10 1012 81 16093 0.65 223.621 11:38 08.09.2019
2282 Clouds 11 1012 71 16093 0.65 223.621 11:19 08.09.2019
2283 Clouds 10 1012 71 16093 0.65 223.621 10:55 08.09.2019
2284 Clouds 10 1012 71 16093 0.65 223.621 10:37 08.09.2019
2285 Clouds 11 1011 76 16093 2.1 60 10:18 08.09.2019
2286 Clouds 11 1011 76 16093 2.1 60 09:38 08.09.2019
2287 Clouds 11 1011 71 14484 1.06 44.885 09:19 08.09.2019
2288 Clouds 12 1011 71 14484 1.06 44.885 08:56 08.09.2019
2289 Clouds 12 1011 71 14484 1.1 9.729 08:36 08.09.2019
2290 Clouds 13 1010 66 12874 1.1 9.729 08:18 08.09.2019
2291 Clouds 12 1010 66 12874 1.1 9.729 07:38 08.09.2019
2292 Clouds 12 1010 66 12874 1.1 9.729 07:38 08.09.2019
2293 Haze 14 1010 67 16093 1.1 9.729 07:20 08.09.2019
2294 Haze 15 1010 58 8047 1.1 9.729 06:45 08.09.2019
2295 Haze 17 1010 59 16093 1.5 290 05:57 08.09.2019
2296 Haze 17 1010 48 8047 0.88 338.756 05:35 08.09.2019
2297 Clear 19 1010 26 16093 0.88 338.756 03:51 08.09.2019
2298 Clouds 20 1010 34 16093 0.46 131.352 02:54 08.09.2019
2299 Clouds 19 1010 34 16093 0.46 131.352 02:25 08.09.2019
2300 Clear 20 1010 28 16093 3.1 140 01:34 08.09.2019
2301 Clear 19 1011 32 16093 1.5 100 00:57 08.09.2019
2302 Clear 19 1011 32 16093 1.5 100 00:37 08.09.2019
2303 Clouds 19 1010 37 16093 2.1 100 00:19 08.09.2019
2304 Clear 18 1011 42 16093 2.1 70 23:38 07.09.2019
2305 Clear 17 1011 47 16093 3.1 80 23:19 07.09.2019
2306 Clear 17 1011 47 16093 3.1 80 22:57 07.09.2019
2307 Clear 17 1011 47 16093 3.1 80 22:37 07.09.2019
2308 Clear 15 1011 54 16093 3.1 90 22:19 07.09.2019
2309 Clear 15 1011 54 16093 3.1 90 21:41 07.09.2019
2310 Clear 13 1011 54 16093 3.1 90 21:23 07.09.2019
2311 Clear 11 1011 76 14484 1.34 62.381 20:54 07.09.2019
2312 Clear 11 1011 76 14484 1.19 72.279 20:36 07.09.2019
2313 Clouds 10 1011 70 16093 1.19 72.279 20:18 07.09.2019
2314 Clouds 10 1011 70 16093 1.19 72.279 19:54 07.09.2019
2315 Clouds 11 1011 70 16093 1.19 72.279 19:36 07.09.2019
2316 Clouds 9 1011 81 16093 1.5 130 19:18 07.09.2019
2317 Clouds 8 1011 81 16093 1.5 130 18:54 07.09.2019
2318 Clouds 8 1012 75 14484 1.5 300 18:36 07.09.2019
2319 Clouds 7 1011 81 16093 1.57 65.741 18:18 07.09.2019
2320 Clear 7 1012 81 14484 3.1 70 17:41 07.09.2019
2321 Clear 7 1012 81 16093 1.5 70 17:19 07.09.2019
2322 Clear 7 1012 81 16093 1.5 70 16:59 07.09.2019
2323 Clear 7 1012 81 16093 1.5 70 16:41 07.09.2019
2324 Clear 7 1012 81 16093 1.5 60 16:20 07.09.2019
2325 Clear 7 1012 81 16093 1.5 60 15:48 07.09.2019
2326 Clear 7 1012 81 16093 1.5 60 15:26 07.09.2019
2327 Clear 7 1013 81 16093 1.5 70 14:58 07.09.2019
2328 Clear 7 1013 81 16093 1.5 70 14:37 07.09.2019
2329 Clear 7 1013 81 16093 1.5 70 14:19 07.09.2019
2330 Clear 7 1013 81 16093 1.5 70 13:58 07.09.2019
2331 Clear 7 1013 81 16093 1.5 70 13:58 07.09.2019
2332 Clear 8 1013 81 16093 1.5 70 13:39 07.09.2019
2333 Clear 8 1013 81 16093 1.5 70 13:21 07.09.2019
2334 Clear 7 1014 76 14484 3.1 70 12:44 07.09.2019
2335 Clear 8 1014 76 14484 3.1 70 12:25 07.09.2019
2336 Haze 8 1013 81 16093 2.01 51.705 11:58 07.09.2019
2337 Haze 8 1014 81 9656 1.5 30 11:39 07.09.2019
2338 Clear 8 1014 76 16093 3.6 70 11:19 07.09.2019
2339 Clear 8 1014 76 16093 3.6 70 11:19 07.09.2019
2340 Clear 8 1014 76 16093 3.6 70 10:40 07.09.2019
2341 Clear 8 1014 76 16093 3.6 70 10:22 07.09.2019
2342 Clear 9 1014 93 16093 2.01 51.705 09:56 07.09.2019
2343 Clear 9 1014 93 16093 2.01 51.705 09:37 07.09.2019
2344 Clear 9 1014 93 16093 2.01 51.705 09:37 07.09.2019
2345 Clear 11 1014 81 14484 1.73 50.974 09:19 07.09.2019
2346 Clear 11 1014 81 14484 1.64 50.932 08:44 07.09.2019
2347 Clear 11 1014 81 14484 1.64 50.932 08:25 07.09.2019
2348 Haze 12 1015 67 9656 2.6 50 07:46 07.09.2019
2349 Haze 12 1015 67 9656 2.6 50 07:27 07.09.2019
2350 Clouds 15 1015 55 16093 1.64 50.932 06:50 07.09.2019
2351 Clouds 15 1015 51 16093 1.5 50 06:20 07.09.2019
2352 Clear 17 1016 42 16093 0.81 63.751 04:49 07.09.2019
2353 Clear 17 1016 42 16093 1.5 160 04:23 07.09.2019
2354 Clear 18 1016 42 16093 1.5 130 02:49 07.09.2019
2355 Clear 18 1017 37 16093 1.5 60 01:53 07.09.2019
2356 Clear 18 1017 37 16093 1.5 60 01:23 07.09.2019
2357 Clear 17 1018 42 16093 1.99 128.529 00:40 07.09.2019
2358 Clouds 17 1017 45 16093 2.6 60 00:19 07.09.2019
2359 Clear 16 1018 48 16093 1.42 128.123 23:41 06.09.2019
2360 Clear 16 1018 48 16093 1.42 128.123 23:22 06.09.2019
2361 Clear 15 1019 58 16093 1.42 128.123 22:58 06.09.2019
2362 Clear 15 1019 58 16093 1.42 128.123 22:58 06.09.2019
2363 Clear 15 1019 58 16093 1.42 128.123 22:38 06.09.2019
2364 Clear 13 1019 66 16093 1.42 128.123 22:19 06.09.2019
2365 Clear 13 1019 66 16093 1.42 128.123 21:58 06.09.2019
2366 Clear 12 1019 66 16093 1.42 128.123 21:39 06.09.2019
2367 Clear 11 1019 66 16093 0.71 84.886 21:21 06.09.2019
2368 Clear 10 1020 76 14484 0.71 84.886 20:58 06.09.2019
2369 Clear 10 1020 76 14484 0.66 112.766 20:39 06.09.2019
2370 Clear 10 1020 76 14484 0.66 112.766 20:21 06.09.2019
2371 Haze 8 1020 76 16093 0.66 112.766 19:57 06.09.2019
2372 Haze 7 1020 81 3621 0.66 112.766 19:39 06.09.2019
2373 Clouds 6 1020 81 16093 0.66 112.766 19:20 06.09.2019
2374 Clear 6 1020 86 11265 0.66 112.766 18:46 06.09.2019
2375 Mist 4 1020 86 16093 1.1 65.043 18:25 06.09.2019
2376 Mist 4 1020 86 16093 1.1 65.043 17:59 06.09.2019
2377 Mist 4 1020 86 16093 1.1 65.043 17:59 06.09.2019
2378 Mist 4 1020 93 4023 1.1 65.043 17:38 06.09.2019
2379 Mist 4 1020 93 4828 1.1 65.043 17:19 06.09.2019
2380 Mist 4 1020 86 4023 1.1 65.043 16:41 06.09.2019
2381 Mist 5 1020 87 9656 3.6 70 16:19 06.09.2019
2382 Mist 5 1020 87 9656 3.6 70 15:44 06.09.2019
2383 Mist 5 1020 87 9656 3.6 70 15:26 06.09.2019
2384 Mist 6 1020 100 8047 1.33 44.028 14:59 06.09.2019
2385 Mist 5 1020 100 8047 1.33 44.028 14:39 06.09.2019
2386 Mist 6 1020 93 9656 1.33 44.028 14:18 06.09.2019
2387 Mist 6 1020 93 9656 1.33 44.028 13:43 06.09.2019
2388 Mist 6 1020 93 9656 1.23 53.345 13:22 06.09.2019
2389 Mist 7 1020 87 8047 1.23 53.345 12:39 06.09.2019
2390 Haze 7 1020 81 16093 1.5 40 12:21 06.09.2019
2391 Haze 7 1020 81 16093 1.5 40 11:57 06.09.2019
2392 Haze 8 1020 81 8047 3.1 90 11:39 06.09.2019
2393 Haze 8 1020 81 8047 3.1 90 11:20 06.09.2019
2394 Clear 8 1019 81 11265 1.75 43.634 10:42 06.09.2019
2395 Clear 9 1019 81 11265 1.59 46.329 10:22 06.09.2019
2396 Clear 10 1019 76 14484 1.59 46.329 09:58 06.09.2019
2397 Clear 10 1019 76 14484 1.59 46.329 09:37 06.09.2019
2398 Haze 10 1019 81 8047 1.64 43.94 09:18 06.09.2019
2399 Haze 11 1019 81 8047 1.64 43.94 08:44 06.09.2019
2400 Haze 11 1019 81 8047 1.64 43.94 08:26 06.09.2019
2401 Haze 12 1019 71 8047 1.64 43.94 07:51 06.09.2019
2402 Haze 12 1019 71 8047 1.64 43.94 07:28 06.09.2019
2403 Clouds 15 1019 71 16093 1.64 43.94 06:59 06.09.2019
2404 Clear 15 1019 48 14484 1.64 43.94 06:33 06.09.2019
2405 Clear 16 1019 42 16093 2.1 30 05:45 06.09.2019
2406 Clear 16 1020 42 16093 0.67 30.139 04:54 06.09.2019
2407 Clouds 17 1019 45 16093 2.1 30 04:24 06.09.2019
2408 Clear 17 1021 45 16093 1.5 100 02:44 06.09.2019
2409 Clouds 16 1021 51 16093 1.5 0 00:57 06.09.2019
2410 Clouds 16 1021 55 16093 3.1 90 00:20 06.09.2019
2411 Clouds 16 1021 55 16093 3.1 90 00:20 06.09.2019
2412 Clear 15 1022 62 16093 1.06 131.778 23:41 05.09.2019
2413 Clear 15 1022 62 16093 1.06 131.778 23:22 05.09.2019
2414 Clear 14 1022 67 14484 1.5 80 22:45 05.09.2019
2415 Clear 14 1022 67 14484 1.5 80 22:25 05.09.2019
2416 Clouds 13 1023 76 14484 1.5 70 21:57 05.09.2019
2417 Clouds 12 1023 76 14484 1.5 70 21:39 05.09.2019
2418 Clouds 12 1023 76 14484 1.5 70 21:39 05.09.2019
2419 Clouds 11 1022 76 16093 1.5 0 21:20 05.09.2019
2420 Clouds 11 1022 76 16093 1.5 0 20:58 05.09.2019
2421 Clouds 9 1023 93 14484 1 119.681 20:38 05.09.2019
2422 Clouds 9 1022 76 16093 2.1 60 20:20 05.09.2019
2423 Clouds 8 1022 76 16093 2.1 60 19:57 05.09.2019
2424 Clear 8 1023 100 11265 1 119.681 19:39 05.09.2019
2425 Clear 8 1023 100 11265 1 119.681 19:20 05.09.2019
2426 Clear 7 1023 93 11265 1 119.681 18:43 05.09.2019
2427 Clear 7 1023 93 11265 1 119.681 18:43 05.09.2019
2428 Clear 6 1023 93 11265 1 119.681 18:25 05.09.2019
2429 Clouds 6 1022 87 16093 0.93 114.754 17:59 05.09.2019
2430 Fog 6 1023 100 11265 0.93 114.754 17:40 05.09.2019
2431 Fog 5 1022 87 16093 2.1 50 17:22 05.09.2019
2432 Fog 5 1022 87 16093 2.1 50 16:57 05.09.2019
2433 Fog 5 1022 87 16093 2.1 50 16:57 05.09.2019
2434 Fog 6 1022 87 16093 2.1 50 16:57 05.09.2019
2435 Fog 6 1022 87 16093 2.1 50 16:39 05.09.2019
2436 Clouds 5 1021 86 16093 1.5 30 16:19 05.09.2019
2437 Clouds 6 1021 86 16093 1.5 30 15:40 05.09.2019
2438 Clear 6 1021 100 11265 2.1 80 15:19 05.09.2019
2439 Clear 6 1021 100 11265 2.1 80 14:58 05.09.2019
2440 Clear 6 1021 100 11265 2.1 80 14:40 05.09.2019
2441 Mist 7 1021 100 9656 1.5 90 14:19 05.09.2019
2442 Mist 6 1021 100 9656 1.5 90 13:43 05.09.2019
2443 Clouds 7 1021 87 16093 1.5 90 13:21 05.09.2019
2444 Clouds 7 1021 93 16093 1.5 40 12:46 05.09.2019
2445 Clouds 7 1021 93 16093 1.5 40 12:27 05.09.2019
2446 Clouds 8 1020 87 16093 2.1 70 11:58 05.09.2019
2447 Clouds 8 1020 93 12874 0.55 188.73 11:40 05.09.2019
2448 Clouds 9 1019 81 14484 0.55 188.73 11:19 05.09.2019
2449 Clouds 9 1019 81 14484 0.55 188.73 10:42 05.09.2019
2450 Clouds 9 1019 81 16093 0.55 188.73 10:22 05.09.2019
2451 Clouds 10 1019 81 16093 0.55 188.73 09:58 05.09.2019
2452 Clouds 10 1019 81 16093 0.55 188.73 09:58 05.09.2019
2453 Clouds 10 1019 81 12874 1.5 240 09:40 05.09.2019
2454 Clouds 11 1019 76 16093 1.5 260 09:18 05.09.2019
2455 Clouds 11 1018 71 16093 2.1 260 08:46 05.09.2019
2456 Clouds 11 1018 71 16093 2.1 260 08:26 05.09.2019
2457 Clouds 12 1018 67 16093 3.1 270 07:46 05.09.2019
2458 Clouds 12 1018 67 16093 3.1 270 07:28 05.09.2019
2459 Clouds 13 1018 66 16093 1.05 217.923 06:58 05.09.2019
2460 Clouds 14 1017 54 16093 3.6 260 06:31 05.09.2019
2461 Clouds 14 1017 51 14484 3.6 250 05:51 05.09.2019
2462 Clouds 14 1017 51 14484 3.6 250 05:32 05.09.2019
2463 Clouds 15 1017 58 16093 3.1 260 04:55 05.09.2019
2464 Clouds 15 1017 48 14484 4.1 230 04:29 05.09.2019
2465 Rain 16 1016 48 14484 5.1 230 03:40 05.09.2019
2466 Clear 16 1017 48 14484 4.1 220 02:53 05.09.2019
2467 Clear 16 1017 48 14484 4.1 220 02:27 05.09.2019
2468 Clouds 16 1017 51 16093 2.1 210 01:37 05.09.2019
2469 Clouds 16 1017 55 16093 2.1 220 00:48 05.09.2019
2470 Clouds 15 1017 59 16093 2.1 310 00:22 05.09.2019
2471 Clouds 15 1017 62 16093 2.6 210 23:56 04.09.2019
2472 Clouds 15 1017 62 16093 2.6 210 23:37 04.09.2019
2473 Clouds 14 1017 82 14484 1.5 210 23:18 04.09.2019
2474 Clouds 14 1017 82 14484 1.5 210 22:46 04.09.2019
2475 Clouds 13 1017 76 16093 1.5 210 22:19 04.09.2019
2476 Clouds 12 1016 87 14484 1.06 175.51 21:40 04.09.2019
2477 Clouds 12 1016 87 16093 0.95 154.728 21:20 04.09.2019
2478 Clouds 12 1016 87 14484 0.95 154.728 21:20 04.09.2019
2479 Clouds 11 1016 87 16093 0.95 154.728 20:58 04.09.2019
2480 Clouds 11 1016 87 14484 0.95 154.728 20:40 04.09.2019
2481 Clouds 11 1016 81 16093 0.95 154.728 20:19 04.09.2019
2482 Clouds 10 1016 81 16093 0.95 154.728 19:57 04.09.2019
2483 Mist 10 1016 93 16093 0.95 154.728 19:38 04.09.2019
2484 Mist 9 1016 93 16093 0.95 154.728 19:19 04.09.2019
2485 Fog 9 1016 93 4828 1.5 50 18:39 04.09.2019
2486 Mist 9 1016 93 4828 0.74 128.817 18:20 04.09.2019
2487 -273 0 0 0 0 0 17:55 04.09.2019
2488 Fog 9 1015 100 805 0.74 128.817 17:36 04.09.2019
2489 Fog 9 1015 93 805 1.5 90 17:18 04.09.2019
2490 Clouds 8 1015 100 16093 2.1 60 16:46 04.09.2019
2491 Clouds 8 1015 100 16093 2.1 60 16:28 04.09.2019
2492 Clouds 8 1015 93 16093 2.1 50 15:58 04.09.2019
2493 Clouds 8 1015 93 14484 0.74 128.817 15:39 04.09.2019
2494 Clouds 8 1015 100 14484 0.57 142.628 15:20 04.09.2019
2495 Clouds 8 1015 100 14484 0.57 142.628 14:56 04.09.2019
2496 Clouds 8 1015 100 14484 0.57 142.628 14:37 04.09.2019
2497 Clouds 8 1014 87 16093 0.57 142.628 14:19 04.09.2019
2498 Clouds 9 1015 93 16093 0.57 142.628 13:40 04.09.2019
2499 Clouds 9 1014 93 16093 0.58 160.809 13:22 04.09.2019
2500 Clouds 10 1014 93 16093 0.58 160.809 12:59 04.09.2019
2501 Clouds 10 1014 87 16093 0.58 160.809 12:39 04.09.2019
2502 Clouds 10 1014 87 16093 1.5 190 12:21 04.09.2019
2503 Clouds 10 1014 87 16093 1.5 190 11:55 04.09.2019
2504 Clouds 11 1014 87 16093 0.83 186.386 11:37 04.09.2019
2505 Clouds 11 1014 87 16093 0.83 186.386 11:18 04.09.2019
2506 Clouds 11 1013 87 16093 0.83 186.386 10:44 04.09.2019
2507 Clouds 11 1013 87 16093 0.83 186.386 10:25 04.09.2019
2508 Clouds 11 1013 76 16093 0.8 191.648 09:57 04.09.2019
2509 Clouds 11 1013 76 16093 0.8 191.648 09:39 04.09.2019
2510 Clouds 12 1013 76 16093 2.6 240 09:18 04.09.2019
2511 Clouds 12 1013 76 16093 2.6 240 08:41 04.09.2019
2512 Clouds 12 1013 76 16093 2.6 240 08:23 04.09.2019
2513 Clouds 12 1013 76 16093 1.33 217.621 07:51 04.09.2019
2514 Clouds 12 1012 67 14484 3.6 220 07:32 04.09.2019
2515 Clouds 15 1012 63 14484 4.1 250 06:42 04.09.2019
2516 Clouds 14 1012 59 16093 4.6 240 06:21 04.09.2019
2517 Clear 16 1011 55 16093 6.2 250 04:53 04.09.2019
2518 Clouds 16 1011 55 16093 4.1 260 04:19 04.09.2019
2519 Clouds 17 1011 55 14484 3.6 230 01:49 04.09.2019
2520 Clouds 17 1010 63 16093 1.5 30 00:55 04.09.2019
2521 Clouds 17 1010 63 16093 1.5 30 00:34 04.09.2019
2522 Clouds 15 1010 52 16093 6.2 250 23:56 03.09.2019
2523 Clouds 15 1010 67 14484 2.1 20 23:38 03.09.2019
2524 Rain 14 1009 55 16093 3.1 220 23:19 03.09.2019
2525 Rain 13 1010 71 9656 1.68 208.211 22:40 03.09.2019
2526 Rain 13 1010 71 9656 1.68 208.211 22:22 03.09.2019
2527 Rain 13 1010 71 9656 1.68 208.211 22:22 03.09.2019
2528 Rain 13 1010 62 16093 1.5 240 21:56 03.09.2019
2529 Rain 13 1010 62 16093 1.5 240 21:56 03.09.2019
2530 Rain 12 1010 76 11265 0.86 181.536 21:38 03.09.2019
2531 Clouds 11 1009 71 16093 0.81 147.507 21:20 03.09.2019
2532 Clouds 11 1009 81 14484 0.81 147.507 20:43 03.09.2019
2533 Clouds 11 1009 81 14484 0.81 147.507 20:43 03.09.2019
2534 Clouds 11 1008 76 16093 0.81 147.507 20:24 03.09.2019
2535 Clouds 10 1008 76 16093 0.81 147.507 19:57 03.09.2019
2536 Clouds 10 1008 87 12874 0.81 147.507 19:38 03.09.2019
2537 Clouds 10 1008 87 12874 0.81 147.507 19:19 03.09.2019
2538 Clouds 8 1007 93 12874 2.6 70 18:56 03.09.2019
2539 Clouds 8 1007 93 12874 2.6 70 18:38 03.09.2019
2540 Clouds 7 1007 87 16093 1.5 60 18:18 03.09.2019
2541 Clouds 7 1007 100 14484 2.1 80 17:42 03.09.2019
2542 Clouds 7 1007 100 14484 2.1 80 17:21 03.09.2019
2543 Clouds 7 1006 100 14484 1.5 50 16:59 03.09.2019
2544 Clouds 6 1006 100 14484 1.5 50 16:39 03.09.2019
2545 Clear 6 1006 93 16093 0.53 153.386 16:21 03.09.2019
2546 Clear 6 1006 93 16093 0.53 153.386 15:41 03.09.2019
2547 Clear 6 1006 93 16093 0.53 153.386 15:41 03.09.2019
2548 Clear 7 1006 93 16093 0.51 149.962 15:22 03.09.2019
2549 Clear 8 1005 87 16093 1.5 10 14:58 03.09.2019
2550 Clear 8 1005 87 16093 1.5 10 14:40 03.09.2019
2551 Clouds 8 1005 81 16093 0.51 149.962 14:21 03.09.2019
2552 Clouds 8 1005 81 16093 0.51 149.962 13:57 03.09.2019
2553 Clouds 8 1005 81 16093 0.51 149.962 13:57 03.09.2019
2554 Clear 8 1005 93 16093 2.1 70 13:37 03.09.2019
2555 Clouds 8 1004 87 16093 1.5 70 13:19 03.09.2019
2556 Clouds 8 1004 87 16093 1.5 70 13:19 03.09.2019
2557 Clouds 8 1004 87 16093 1.5 70 12:56 03.09.2019
2558 Clear 9 1004 93 16093 2.1 80 12:38 03.09.2019
2559 Clouds 9 1004 87 16093 0.9 247.585 12:20 03.09.2019
2560 Clear 10 1004 93 16093 0.9 247.585 11:42 03.09.2019
2561 Clear 10 1004 93 16093 0.9 247.585 11:22 03.09.2019
2562 Clear 10 1003 81 16093 0.9 247.585 10:57 03.09.2019
2563 Clear 10 1003 81 16093 0.9 247.585 10:38 03.09.2019
2564 Rain 11 1002 81 16093 2.1 70 10:20 03.09.2019
2565 Rain 11 1002 81 16093 2.1 70 09:44 03.09.2019
2566 Rain 12 1002 81 16093 2.1 70 09:25 03.09.2019
2567 Clouds 13 1002 71 14484 1.5 250 08:55 03.09.2019
2568 Rain 13 1002 76 14484 1.5 130 08:36 03.09.2019
2569 Haze 14 1001 51 16093 2.1 190 08:18 03.09.2019
2570 Haze 14 1001 72 8047 1.49 218.876 07:40 03.09.2019
2571 Haze 14 1001 72 8047 1.49 218.876 07:40 03.09.2019
2572 Clouds 15 1000 51 16093 2.1 200 07:22 03.09.2019
2573 Clouds 17 1000 45 16093 1.49 218.876 06:44 03.09.2019
2574 Clear 17 1000 52 16093 1.53 197.88 05:53 03.09.2019
2575 Clouds 20 1000 37 16093 2.1 250 03:36 03.09.2019
2576 Clouds 21 1000 33 16093 0.94 176.82 02:44 03.09.2019
2577 Clouds 21 1000 33 16093 0.94 176.82 02:23 03.09.2019
2578 Clouds 20 1000 35 16093 2.1 300 01:49 03.09.2019
2579 Clouds 21 1000 35 16093 2.1 300 01:29 03.09.2019
2580 Clouds 21 1000 37 14484 3.1 150 00:40 03.09.2019
2581 Clouds 21 1000 37 16093 2.6 100 00:20 03.09.2019
2582 Clear 21 1000 45 16093 4.24 142.409 23:40 02.09.2019
2583 Clear 21 1000 45 16093 4.24 142.409 23:40 02.09.2019
2584 Clouds 19 1000 48 14484 3.1 60 23:20 02.09.2019
2585 Clouds 19 1000 48 14484 3.1 60 22:56 02.09.2019
2586 Clouds 19 1000 48 14484 3.1 60 22:38 02.09.2019
2587 Clouds 19 1000 48 14484 3.1 60 22:38 02.09.2019
2588 Clouds 18 1000 52 16093 3.1 80 22:19 02.09.2019
2589 Clouds 18 1000 52 16093 3.1 80 21:56 02.09.2019
2590 Clouds 18 999 52 14484 4.1 80 21:38 02.09.2019
2591 Clouds 17 999 55 16093 3.1 90 21:20 02.09.2019
2592 Clouds 16 999 55 16093 3.1 90 20:57 02.09.2019
2593 Clouds 16 999 59 16093 4.1 60 20:39 02.09.2019
2594 Clouds 15 999 59 16093 2.6 60 20:18 02.09.2019
2595 Clouds 14 999 59 16093 2.6 60 19:55 02.09.2019
2596 Clouds 14 999 59 16093 2.6 60 19:55 02.09.2019
2597 Clear 13 999 71 12874 4.1 80 19:37 02.09.2019
2598 Clouds 13 999 76 16093 1.5 0 19:19 02.09.2019
2599 Clear 12 999 71 16093 4.1 40 18:39 02.09.2019
2600 Clouds 11 999 81 16093 3.1 350 18:21 02.09.2019
2601 Clouds 11 999 81 16093 3.1 350 17:57 02.09.2019
2602 Clear 11 999 76 16093 2.6 70 17:39 02.09.2019
2603 Clear 11 999 71 16093 3.1 100 17:19 02.09.2019
2604 Clear 11 999 71 16093 3.1 100 16:42 02.09.2019
2605 Clear 11 999 71 16093 3.1 100 16:23 02.09.2019
2606 Clouds 12 999 81 16093 1.82 77.335 15:59 02.09.2019
2607 Clouds 12 999 62 16093 3.6 70 15:41 02.09.2019
2608 Rain 13 998 55 16093 6.2 110 15:21 02.09.2019
2609 Rain 13 998 55 16093 6.2 110 14:56 02.09.2019
2610 Clouds 13 999 62 16093 4.1 60 14:37 02.09.2019
2611 Clouds 13 999 71 16093 3.6 30 14:19 02.09.2019
2612 Clouds 13 999 62 16093 3.1 70 13:44 02.09.2019
2613 Clouds 12 999 62 16093 3.1 70 13:25 02.09.2019
2614 -273 0 0 0 0 0 13:25 02.09.2019
2615 Clouds 12 999 71 16093 2.1 60 12:56 02.09.2019
2616 Clear 12 999 66 16093 4.1 60 12:38 02.09.2019
2617 Clouds 13 999 71 16093 1.5 10 12:18 02.09.2019
2618 Clouds 12 999 71 16093 1.5 10 11:55 02.09.2019
2619 Clouds 12 999 62 16093 3.6 70 11:36 02.09.2019
2620 Clouds 13 1000 62 16093 3.1 60 11:18 02.09.2019
2621 Clouds 13 1000 62 16093 3.1 60 10:42 02.09.2019
2622 Clouds 12 1000 62 16093 3.1 60 10:22 02.09.2019
2623 Clear 13 1000 62 14484 3.6 80 09:58 02.09.2019
2624 Clear 13 1000 62 14484 3.6 80 09:38 02.09.2019
2625 Clear 14 1000 58 14484 3.1 50 09:20 02.09.2019
2626 Clear 14 1000 58 14484 3.1 50 08:42 02.09.2019
2627 Clouds 15 999 58 16093 2.6 60 08:21 02.09.2019
2628 Clouds 15 999 58 16093 2.6 60 07:56 02.09.2019
2629 Clouds 16 1000 55 14484 3.1 60 07:37 02.09.2019
2630 Clouds 16 999 51 16093 2.1 80 07:18 02.09.2019
2631 Clear 17 1000 45 14484 4.1 90 06:41 02.09.2019
2632 Clear 18 1001 40 16093 5.1 100 05:53 02.09.2019
2633 Clouds 19 1000 42 16093 3.1 110 05:24 02.09.2019
2634 Clear 20 1001 35 14484 4.1 100 04:48 02.09.2019
2635 Clouds 20 1002 37 16093 4.6 110 01:59 02.09.2019
2636 Clear 19 1003 42 16093 3.6 100 01:28 02.09.2019
2637 Clouds 18 1004 45 16093 5.7 70 00:36 02.09.2019
2638 Clouds 18 1004 48 16093 4.6 80 00:18 02.09.2019
2639 Clouds 16 1004 55 16093 4.6 90 23:39 01.09.2019
2640 Clouds 15 1005 58 16093 6.2 70 23:19 01.09.2019
2641 Clouds 15 1005 58 16093 6.2 70 22:56 01.09.2019
2642 Clouds 15 1005 58 16093 6.2 70 22:38 01.09.2019
2643 Clouds 15 1005 58 16093 6.2 70 22:38 01.09.2019
2644 Clouds 14 1005 62 16093 3.6 80 22:18 01.09.2019
2645 Clear 13 1006 66 16093 4.1 70 21:42 01.09.2019
2646 Clear 13 1006 66 16093 4.1 70 21:23 01.09.2019
2647 Clouds 13 1006 66 16093 3.6 70 21:23 01.09.2019
2648 Clouds 12 1006 66 16093 3.6 70 20:58 01.09.2019
2649 Clear 12 1007 76 16093 4.1 70 20:39 01.09.2019
2650 Clouds 11 1006 71 16093 3.1 50 20:19 01.09.2019
2651 Clouds 11 1006 71 16093 3.1 50 19:59 01.09.2019
2652 Clear 11 1007 81 16093 4.6 60 19:40 01.09.2019
2653 Clear 10 1007 81 16093 4.6 60 19:21 01.09.2019
2654 Clear 9 1008 87 16093 4.1 60 18:48 01.09.2019
2655 Clear 9 1008 87 16093 4.1 60 18:30 01.09.2019
2656 Clear 8 1008 87 16093 4.1 60 17:59 01.09.2019
2657 Clear 7 1008 93 16093 3.1 60 17:39 01.09.2019
2658 Clear 7 1008 93 16093 3.1 60 17:21 01.09.2019
2659 Clear 7 1009 93 14484 4.1 60 16:41 01.09.2019
2660 Clear 7 1009 93 14484 4.1 60 16:41 01.09.2019
2661 Clouds 7 1009 81 16093 2.6 50 16:22 01.09.2019
2662 Clouds 7 1009 81 16093 2.6 50 15:59 01.09.2019
2663 Clear 7 1009 87 16093 3.6 60 15:41 01.09.2019
2664 Clear 7 1009 87 16093 3.6 60 15:23 01.09.2019
2665 Clear 7 1010 87 16093 4.1 60 14:44 01.09.2019
2666 Clear 7 1010 87 16093 4.1 60 14:26 01.09.2019
2667 Clear 7 1010 87 16093 4.1 60 13:59 01.09.2019
2668 Clear 7 1010 87 16093 4.1 60 13:40 01.09.2019
2669 Clear 7 1010 87 16093 4.1 60 13:40 01.09.2019
2670 Clear 7 1010 87 16093 4.1 60 13:22 01.09.2019
2671 Clear 8 1011 87 16093 4.1 60 12:44 01.09.2019
2672 Clear 8 1011 87 16093 4.1 60 12:26 01.09.2019
2673 Clouds 8 1011 87 16093 2.1 360 11:58 01.09.2019
2674 Clear 8 1011 81 16093 3.1 70 11:38 01.09.2019
2675 Clear 9 1011 87 14484 3.6 60 11:19 01.09.2019
2676 Clear 9 1011 87 14484 3.6 60 10:45 01.09.2019
2677 Clear 9 1011 93 14484 3.1 60 10:23 01.09.2019
2678 Clear 9 1011 93 14484 3.1 60 09:48 01.09.2019
2679 Clear 10 1011 93 14484 3.1 60 09:26 01.09.2019
2680 Clear 11 1011 93 12874 1.48 22.54 08:58 01.09.2019
2681 Clear 11 1011 93 12874 1.48 22.54 08:39 01.09.2019
2682 Haze 12 1011 76 9656 1.5 50 08:20 01.09.2019
2683 Smoke 12 1011 66 16093 2.1 350 07:41 01.09.2019
2684 Haze 13 1011 66 16093 2.1 350 07:21 01.09.2019
2685 Haze 14 1011 77 8047 1.48 22.54 06:39 01.09.2019
2686 Haze 16 1011 55 16093 1.5 260 05:59 01.09.2019
2687 Haze 16 1011 55 16093 1.5 260 05:59 01.09.2019
2688 Haze 16 1011 55 16093 1.5 260 05:59 01.09.2019
2689 Clear 17 1011 52 14484 2.1 240 04:53 01.09.2019
2690 Clouds 18 1012 48 16093 2.6 270 03:50 01.09.2019
2691 Clouds 18 1012 48 16093 2.6 270 03:32 01.09.2019
2692 Clear 18 1012 48 16093 3.1 250 02:40 01.09.2019
2693 Clouds 18 1012 52 16093 2.6 210 02:22 01.09.2019
2694 Clear 18 1012 48 16093 1.5 220 01:30 01.09.2019
2695 Clouds 17 1012 55 16093 3.1 200 00:59 01.09.2019
2696 Clouds 17 1012 51 16093 1.07 299.585 00:40 01.09.2019
2697 Clouds 17 1012 51 16093 0.88 317.357 00:20 01.09.2019
2698 Clear 17 1012 55 16093 0.88 317.357 23:43 31.08.2019
2699 Clear 16 1012 58 16093 1.5 290 23:21 31.08.2019
2700 Clear 16 1012 58 16093 1.5 290 22:55 31.08.2019
2701 Clear 16 1012 58 16093 1.5 290 22:37 31.08.2019
2702 Clouds 15 1012 66 16093 0.88 317.357 22:19 31.08.2019
2703 Clouds 14 1012 66 16093 0.88 317.357 21:44 31.08.2019
2704 Clouds 14 1012 66 16093 0.84 328.872 21:23 31.08.2019
2705 Clouds 13 1012 66 14484 1.5 100 20:59 31.08.2019
2706 Clouds 13 1012 66 14484 1.5 100 20:41 31.08.2019
2707 Clouds 12 1012 66 14484 1.5 100 20:23 31.08.2019
2708 Clear 11 1012 87 14484 0.84 328.872 19:43 31.08.2019
2709 Clouds 9 1012 71 16093 1.5 360 19:22 31.08.2019
2710 Clouds 9 1012 71 16093 1.5 360 18:56 31.08.2019
2711 Clouds 8 1012 93 16093 0.84 328.872 18:37 31.08.2019
2712 Clouds 8 1012 93 16093 0.84 328.872 18:37 31.08.2019
2713 Clouds 8 1012 81 16093 2.1 50 18:19 31.08.2019
2714 Clouds 7 1012 81 16093 2.1 50 17:55 31.08.2019
2715 Clear 7 1012 100 14484 1.5 40 17:36 31.08.2019
2716 Clear 7 1012 93 16093 1.57 20.739 17:18 31.08.2019
2717 Clear 7 1012 93 16093 1.57 20.739 16:55 31.08.2019
2718 Clear 7 1012 93 16093 1.57 20.739 16:36 31.08.2019
2719 Clear 7 1012 87 16093 1.57 20.739 16:18 31.08.2019
2720 Clear 8 1012 87 16093 1.57 20.739 15:41 31.08.2019
2721 Clear 8 1012 76 14484 1.5 30 15:19 31.08.2019
2722 Clear 8 1012 76 14484 1.5 30 14:44 31.08.2019
2723 Clear 9 1012 76 14484 1.5 30 14:26 31.08.2019
2724 Clear 9 1012 76 14484 1.5 30 14:26 31.08.2019
2725 Clear 9 1013 76 16093 2.13 32.797 13:59 31.08.2019
2726 Clear 9 1013 76 16093 2.13 32.797 13:39 31.08.2019
2727 Haze 9 1012 81 16093 3.6 50 13:21 31.08.2019
2728 Haze 9 1012 81 16093 3.6 50 12:56 31.08.2019
2729 Haze 10 1013 76 4828 2.6 50 12:38 31.08.2019
2730 Haze 10 1012 76 16093 2.1 50 12:18 31.08.2019
2731 Haze 10 1013 76 1609 3.6 70 11:44 31.08.2019
2732 Haze 10 1013 76 1609 3.6 70 11:26 31.08.2019
2733 Haze 10 1013 76 2414 4.1 60 10:57 31.08.2019
2734 Haze 10 1013 76 8047 3.6 70 10:39 31.08.2019
2735 Haze 10 1013 76 4828 4.1 60 10:18 31.08.2019
2736 Haze 10 1013 76 3219 4.1 60 09:40 31.08.2019
2737 Haze 11 1013 76 3219 4.1 60 09:22 31.08.2019
2738 Clear 11 1013 81 11265 1.93 14.381 08:58 31.08.2019
2739 Clear 11 1013 81 11265 1.93 14.381 08:58 31.08.2019
2740 Clear 11 1013 81 11265 1.93 14.381 08:39 31.08.2019
2741 Clear 12 1013 67 16093 1.93 14.381 08:20 31.08.2019
2742 Clear 13 1013 67 16093 1.93 14.381 07:39 31.08.2019
2743 Clouds 13 1013 67 16093 2.6 350 07:18 31.08.2019
2744 Clear 15 1014 48 16093 1.93 14.381 06:27 31.08.2019
2745 Clouds 16 1014 55 16093 2.1 360 05:55 31.08.2019
2746 Clear 17 1014 42 16093 2.1 40 05:29 31.08.2019
2747 Clear 18 1015 40 16093 2.6 80 04:29 31.08.2019
2748 Clear 18 1015 42 16093 0.83 63.065 03:42 31.08.2019
2749 Clear 18 1016 45 16093 1.5 340 02:23 31.08.2019
2750 Clouds 17 1017 48 16093 2.6 60 01:49 31.08.2019
2751 Clouds 17 1017 48 16093 2.6 60 01:31 31.08.2019
2752 Clouds 17 1017 48 16093 2.1 20 00:47 31.08.2019
2753 Clouds 17 1017 48 16093 2.1 20 00:27 31.08.2019
2754 Clouds 17 1017 48 16093 2.1 20 00:27 31.08.2019
2755 Clouds 16 1018 51 16093 2.1 50 23:51 30.08.2019
2756 Clouds 16 1018 58 16093 1.5 30 23:20 30.08.2019
2757 Clouds 16 1018 58 16093 1.5 30 23:20 30.08.2019
2758 Clouds 16 1018 58 16093 1.5 30 22:59 30.08.2019
2759 Clouds 15 1018 58 16093 1.5 30 22:39 30.08.2019
2760 Clouds 14 1018 58 16093 1.5 30 22:21 30.08.2019
2761 Clouds 13 1018 58 16093 1.5 30 21:57 30.08.2019
2762 Clear 12 1019 71 16093 0.64 52.703 21:37 30.08.2019
2763 Clear 12 1019 71 16093 0.64 52.703 21:37 30.08.2019
2764 Clouds 11 1019 66 16093 1.5 40 21:18 30.08.2019
2765 Clouds 11 1019 66 16093 1.5 40 20:56 30.08.2019
2766 Clouds 10 1019 81 16093 0.82 63.875 20:38 30.08.2019
2767 Clouds 9 1019 76 16093 1.5 70 20:19 30.08.2019
2768 Clouds 9 1019 76 16093 1.5 70 20:19 30.08.2019
2769 Clouds 8 1019 76 16093 1.5 70 19:55 30.08.2019
2770 Clear 7 1019 100 14484 0.82 63.875 19:36 30.08.2019
2771 Clear 8 1019 100 14484 0.82 63.875 19:18 30.08.2019
2772 Clear 8 1019 100 14484 0.82 63.875 19:18 30.08.2019
2773 Clear 7 1020 93 11265 0.82 63.875 18:44 30.08.2019
2774 Clouds 5 1019 81 16093 1.5 70 18:24 30.08.2019
2775 Clear 5 1020 93 11265 1.2 44.966 18:24 30.08.2019
2776 Clouds 5 1019 81 16093 1.5 70 17:57 30.08.2019
2777 Clear 4 1020 100 14484 1.5 60 17:39 30.08.2019
2778 Clouds 4 1019 93 16093 1.2 44.966 17:19 30.08.2019
2779 Clear 4 1020 93 16093 1.2 44.966 16:49 30.08.2019
2780 Clear 4 1020 93 16093 1.2 44.966 16:29 30.08.2019
2781 Clear 4 1020 100 16093 1.2 44.966 15:59 30.08.2019
2782 Clear 4 1020 100 16093 1.2 44.966 15:39 30.08.2019
2783 Clouds 5 1019 93 16093 0.75 69.105 15:20 30.08.2019
2784 Mist 5 1020 93 16093 0.75 69.105 14:45 30.08.2019
2785 Mist 5 1020 93 16093 0.75 69.105 14:25 30.08.2019
2786 Clear 5 1020 93 16093 0.75 69.105 13:56 30.08.2019
2787 Clear 5 1020 93 16093 0.75 69.105 13:38 30.08.2019
2788 Clouds 5 1020 87 16093 0.97 51.81 13:20 30.08.2019
2789 Clear 6 1020 93 16093 0.97 51.81 12:44 30.08.2019
2790 Clear 6 1020 93 16093 1.11 34.891 12:25 30.08.2019
2791 -273 0 0 0 0 0 11:55 30.08.2019
2792 Clear 7 1020 87 16093 1.11 34.891 11:37 30.08.2019
2793 Clear 7 1019 87 16093 1.5 50 11:18 30.08.2019
2794 Clear 7 1019 87 16093 1.5 50 10:37 30.08.2019
2795 Clear 8 1019 81 14484 1.11 34.891 10:19 30.08.2019
2796 Clear 8 1019 81 14484 1.11 34.891 09:42 30.08.2019
2797 Clouds 9 1019 81 16093 0.92 15.271 09:20 30.08.2019
2798 Clouds 9 1019 81 16093 0.92 15.271 08:59 30.08.2019
2799 Clouds 9 1019 81 16093 0.92 15.271 08:41 30.08.2019
2800 Clouds 10 1019 81 16093 0.92 15.271 08:22 30.08.2019
2801 Clear 11 1019 62 12874 1.5 360 07:45 30.08.2019
2802 Clouds 12 1019 62 16093 2.1 340 07:25 30.08.2019
2803 Clouds 14 1019 51 16093 3.1 310 06:49 30.08.2019
2804 Clouds 14 1019 51 16093 3.1 310 06:30 30.08.2019
2805 Clouds 14 1019 51 16093 2.6 310 05:59 30.08.2019
2806 Clear 15 1019 55 16093 2.1 260 04:53 30.08.2019
2807 Clouds 15 1020 51 16093 1.09 316.45 03:55 30.08.2019
2808 Clouds 15 1020 51 16093 1.09 316.45 03:34 30.08.2019
2809 Clouds 15 1021 51 16093 1.69 260.582 02:35 30.08.2019
2810 Clouds 15 1021 54 16093 2.6 300 01:40 30.08.2019
2811 Clouds 14 1021 54 16093 1.5 250 00:46 30.08.2019
2812 Clouds 14 1021 58 16093 1.44 242.225 00:18 30.08.2019
2813 Clouds 13 1022 62 16093 1.44 242.225 23:42 29.08.2019
2814 Clouds 13 1022 62 16093 1.44 242.225 23:21 29.08.2019
2815 Clouds 13 1022 71 14484 1.44 242.225 22:45 29.08.2019
2816 Clouds 13 1022 71 14484 1.44 242.225 22:45 29.08.2019
2817 Clouds 13 1022 71 14484 1.44 242.225 22:45 29.08.2019
2818 Clouds 12 1022 71 14484 1.44 242.225 22:26 29.08.2019
2819 Clouds 12 1022 71 14484 1.44 242.225 22:26 29.08.2019
2820 Clouds 12 1022 76 14484 1.51 221.232 21:58 29.08.2019
2821 Clouds 12 1022 76 14484 1.51 221.232 21:58 29.08.2019
2822 Clouds 12 1022 76 14484 1.51 221.232 21:58 29.08.2019
2823 Clouds 11 1022 76 14484 1.51 221.232 21:40 29.08.2019
2824 Clouds 11 1022 76 14484 0.81 162.57 21:21 29.08.2019
2825 Clouds 11 1022 76 16093 0.81 162.57 21:21 29.08.2019
2826 Clouds 10 1022 76 16093 0.81 162.57 20:57 29.08.2019
2827 Clouds 10 1022 87 12874 0.81 162.57 20:38 29.08.2019
2828 Clouds 10 1022 87 12874 0.81 162.57 20:18 29.08.2019
2829 Clouds 10 1022 87 16093 0.81 162.57 19:46 29.08.2019
2830 Clouds 9 1022 87 16093 0.81 162.57 19:26 29.08.2019
2831 Clouds 9 1022 93 16093 0.81 162.57 18:57 29.08.2019
2832 Clouds 9 1022 93 16093 0.81 162.57 18:38 29.08.2019
2833 Clouds 9 1022 93 16093 0.64 122.232 18:18 29.08.2019
2834 Clouds 8 1022 93 16093 0.64 122.232 17:54 29.08.2019
2835 Clouds 8 1022 93 16093 0.64 122.232 17:36 29.08.2019
2836 Clouds 8 1022 93 16093 0.64 122.232 17:18 29.08.2019
2837 Clouds 8 1022 93 16093 0.64 122.232 17:18 29.08.2019
2838 Clouds 8 1021 78 0 0.64 122.232 16:41 29.08.2019
2839 -273 0 0 0 0 0 16:41 29.08.2019
2840 Clouds 9 1022 87 16093 0.64 122.232 16:23 29.08.2019
2841 Clouds 9 1022 87 16093 0.64 122.232 15:41 29.08.2019
2842 Clouds 9 1022 87 16093 0.73 142.989 15:21 29.08.2019
2843 Clouds 9 1022 87 16093 0.73 142.989 14:58 29.08.2019
2844 Clouds 9 1022 87 16093 0.73 142.989 14:40 29.08.2019
2845 Clouds 9 1023 87 16093 1.5 260 14:20 29.08.2019
2846 Clouds 9 1023 87 16093 1.5 260 13:57 29.08.2019
2847 Clouds 9 1023 87 16093 1.5 260 13:38 29.08.2019
2848 Clouds 9 1022 87 16093 0.74 142.678 13:18 29.08.2019
2849 Clouds 9 1022 87 16093 0.74 142.678 12:56 29.08.2019
2850 Clouds 9 1022 93 16093 0.74 142.678 12:38 29.08.2019
2851 Clouds 9 1022 87 16093 0.87 188.711 12:19 29.08.2019
2852 Clouds 9 1022 87 16093 0.87 188.711 11:42 29.08.2019
2853 Clouds 9 1022 87 16093 0.87 188.711 11:21 29.08.2019
2854 Clouds 9 1022 87 16093 0.87 188.711 10:57 29.08.2019
2855 Clouds 9 1022 87 16093 0.87 188.711 10:38 29.08.2019
2856 Clouds 9 1022 71 16093 0.87 188.711 10:20 29.08.2019
2857 Clouds 9 1022 71 16093 0.59 205.69 09:41 29.08.2019
2858 Clouds 9 1022 71 16093 0.59 205.69 09:41 29.08.2019
2859 Clouds 10 1021 76 16093 1.19 231.265 09:19 29.08.2019
2860 Clouds 10 1021 76 16093 1.19 231.265 08:56 29.08.2019
2861 Clouds 10 1021 76 16093 1.19 231.265 08:31 29.08.2019
2862 Clouds 11 1021 66 14484 2.6 260 07:59 29.08.2019
2863 Clouds 11 1021 66 14484 2.6 260 07:41 29.08.2019
2864 Clouds 11 1021 66 16093 2.1 250 07:23 29.08.2019
2865 Clouds 12 1021 67 16093 2.1 210 06:40 29.08.2019
2866 Clouds 13 1021 62 16093 2.1 250 05:54 29.08.2019
2867 Clouds 13 1021 67 16093 3.1 200 05:33 29.08.2019
2868 Clouds 13 1021 67 16093 2.6 320 04:49 29.08.2019
2869 Clouds 13 1021 67 16093 2.6 320 04:28 29.08.2019
2870 Clouds 13 1021 62 16093 3.1 270 02:21 29.08.2019
2871 Clouds 13 1021 67 16093 5.1 240 01:41 29.08.2019
2872 Clouds 13 1021 62 16093 4.1 280 00:51 29.08.2019
2873 Clouds 13 1021 66 16093 4.1 290 00:24 29.08.2019
2874 Clouds 13 1021 66 16093 4.1 290 23:59 28.08.2019
2875 Clouds 13 1021 67 14484 3.6 260 23:41 28.08.2019
2876 Clouds 13 1021 67 14484 3.6 260 23:22 28.08.2019
2877 Clouds 13 1021 67 16093 4.1 240 22:57 28.08.2019
2878 Clouds 13 1021 67 16093 4.1 240 22:38 28.08.2019
2879 Clouds 13 1021 66 16093 2.1 220 22:18 28.08.2019
2880 Clouds 13 1021 66 16093 2.1 220 21:54 28.08.2019
2881 Clouds 13 1021 76 14484 3.6 230 21:36 28.08.2019
2882 Clouds 12 1021 71 16093 2.6 240 21:18 28.08.2019
2883 Clouds 12 1021 81 14484 3.1 210 20:40 28.08.2019
2884 Clouds 11 1021 76 16093 1.5 0 20:22 28.08.2019
2885 Clouds 11 1021 87 16093 3.1 220 19:44 28.08.2019
2886 Clouds 10 1021 87 16093 3.1 220 19:23 28.08.2019
2887 Clouds 10 1021 87 16093 3.1 220 18:59 28.08.2019
2888 Clouds 10 1021 87 14484 2.1 180 18:41 28.08.2019
2889 Clouds 10 1020 81 16093 1.5 220 18:21 28.08.2019
2890 Clouds 10 1020 87 16093 3.1 210 17:39 28.08.2019
2891 Clouds 10 1020 81 16093 3.6 210 17:20 28.08.2019
2892 Clouds 10 1020 81 16093 3.6 210 16:56 28.08.2019
2893 Clouds 10 1020 81 16093 3.6 210 16:56 28.08.2019
2894 Clouds 10 1020 81 16093 3.6 210 16:38 28.08.2019
2895 Clouds 10 1020 81 16093 3.6 210 16:38 28.08.2019
2896 Clouds 10 1020 81 16093 3.1 220 16:18 28.08.2019
2897 Clouds 10 1020 81 16093 4.1 230 15:39 28.08.2019
2898 Clouds 11 1020 81 16093 3.6 220 15:20 28.08.2019
2899 Clouds 11 1020 81 16093 3.6 220 14:58 28.08.2019
2900 Clouds 11 1019 81 16093 2.6 210 14:40 28.08.2019
2901 Clouds 11 1019 81 16093 3.1 220 14:21 28.08.2019
2902 Clouds 11 1019 81 16093 3.1 220 13:59 28.08.2019
2903 Clouds 11 1019 81 16093 3.1 220 13:39 28.08.2019
2904 Clouds 11 1019 76 16093 3.1 250 13:20 28.08.2019
2905 Clouds 11 1019 76 16093 4.1 220 12:44 28.08.2019
2906 Clouds 11 1019 76 16093 2.1 210 12:25 28.08.2019
2907 Clouds 11 1019 76 16093 2.1 210 11:59 28.08.2019
2908 Clouds 11 1019 81 16093 3.6 210 11:40 28.08.2019
2909 Clouds 11 1019 81 16093 3.6 210 11:21 28.08.2019
2910 Clouds 11 1018 71 16093 3.6 230 10:56 28.08.2019
2911 Clouds 11 1018 71 16093 3.6 230 10:56 28.08.2019
2912 Clouds 11 1018 71 16093 3.6 230 10:56 28.08.2019
2913 Clouds 11 1018 71 16093 3.6 230 10:37 28.08.2019
2914 Clouds 11 1018 71 16093 3.1 250 10:19 28.08.2019
2915 Clouds 12 1018 71 16093 3.1 250 09:41 28.08.2019
2916 Clouds 12 1018 71 16093 3.1 250 09:21 28.08.2019
2917 Clouds 12 1018 67 16093 3.6 270 08:55 28.08.2019
2918 Clouds 12 1018 67 16093 3.6 270 08:36 28.08.2019
2919 Clouds 12 1017 71 16093 3.1 280 08:18 28.08.2019
2920 Clouds 12 1017 71 16093 3.1 280 07:37 28.08.2019
2921 Clouds 13 1017 67 16093 2.1 280 07:19 28.08.2019
2922 Clouds 13 1017 62 16093 4.1 250 06:46 28.08.2019
2923 Clouds 14 1017 62 16093 3.1 270 05:52 28.08.2019
2924 Clouds 14 1017 62 16093 2.6 270 04:40 28.08.2019
2925 Clouds 14 1017 59 16093 6.2 230 01:57 28.08.2019
2926 Clouds 15 1017 59 16093 6.2 230 01:30 28.08.2019
2927 Clouds 14 1017 62 14484 4.1 220 00:43 28.08.2019
2928 Clouds 14 1017 62 14484 4.1 220 00:23 28.08.2019
2929 Clouds 13 1017 67 16093 4.1 220 23:44 27.08.2019
2930 Clouds 13 1017 67 16093 4.1 220 23:22 27.08.2019
2931 Clouds 12 1017 76 14484 4.1 220 22:59 27.08.2019
2932 Clouds 12 1017 76 14484 4.1 220 22:39 27.08.2019
2933 Clouds 12 1017 71 16093 2.6 0 22:20 27.08.2019
2934 Clouds 12 1017 71 16093 2.6 0 21:56 27.08.2019
2935 Clouds 11 1017 76 16093 2.1 260 21:38 27.08.2019
2936 Clouds 11 1017 71 16093 2.1 210 21:18 27.08.2019
2937 Clouds 11 1017 71 16093 2.1 210 20:56 27.08.2019
2938 Clouds 10 1016 87 14484 2.35 224.724 20:37 27.08.2019
2939 Clouds 10 1016 76 16093 2.6 210 20:19 27.08.2019
2940 Clouds 9 1016 93 12874 2.1 60 19:43 27.08.2019
2941 Clouds 9 1016 93 12874 2.1 60 19:24 27.08.2019
2942 Clouds 9 1016 93 12874 1.5 60 18:56 27.08.2019
2943 Clouds 9 1016 93 12874 1.5 60 18:36 27.08.2019
2944 Clouds 8 1016 81 16093 2.1 210 18:18 27.08.2019
2945 Clouds 8 1016 93 14484 1.48 221.685 17:43 27.08.2019
2946 Clouds 8 1016 93 14484 1.48 221.685 17:24 27.08.2019
2947 Clouds 8 1016 81 16093 1.48 221.685 16:57 27.08.2019
2948 Clouds 7 1016 100 16093 1.48 221.685 16:36 27.08.2019
2949 Clouds 8 1016 93 16093 1.48 221.685 16:18 27.08.2019
2950 Clouds 8 1016 93 16093 1.48 221.685 15:42 27.08.2019
2951 Clouds 8 1016 87 16093 1.5 80 15:23 27.08.2019
2952 Clouds 8 1016 87 16093 1.5 80 14:59 27.08.2019
2953 Clouds 8 1016 87 16093 1.5 80 14:41 27.08.2019
2954 Clouds 8 1015 87 16093 1.5 70 14:23 27.08.2019
2955 Clouds 8 1015 87 16093 1.5 70 13:43 27.08.2019
2956 Clouds 9 1015 87 16093 1.5 60 13:24 27.08.2019
2957 Clouds 9 1015 87 16093 1.5 70 12:56 27.08.2019
2958 Clouds 9 1015 87 16093 1.5 70 12:37 27.08.2019
2959 Clouds 9 1015 87 16093 1.22 253.004 12:19 27.08.2019
2960 Clouds 9 1015 87 16093 1.22 253.004 11:44 27.08.2019
2961 Clouds 9 1015 87 16093 1.22 253.004 11:25 27.08.2019
2962 Clouds 9 1015 87 16093 1.22 253.004 10:46 27.08.2019
2963 Clouds 9 1015 87 16093 1.22 253.004 10:22 27.08.2019
2964 Clouds 9 1015 93 16093 1.22 253.004 09:59 27.08.2019
2965 Clouds 9 1015 93 16093 1.24 256.556 09:39 27.08.2019
2966 Clouds 10 1015 87 16093 1.49 260.152 09:20 27.08.2019
2967 Clouds 10 1015 87 16093 1.49 260.152 08:55 27.08.2019
2968 Clouds 10 1015 87 16093 1.49 260.152 08:37 27.08.2019
2969 Clouds 10 1015 76 16093 1.49 260.152 08:18 27.08.2019
2970 Clear 12 1015 62 16093 1.49 260.152 07:40 27.08.2019
2971 Clouds 12 1015 62 16093 1.5 250 07:19 27.08.2019
2972 Clear 13 1015 48 16093 3.1 260 06:54 27.08.2019
2973 Clear 14 1015 48 16093 3.1 260 06:25 27.08.2019
2974 Clear 15 1015 42 16093 3.6 280 05:42 27.08.2019
2975 Clear 15 1015 45 16093 3.1 280 04:43 27.08.2019
2976 Clouds 16 1015 39 16093 3.1 240 03:35 27.08.2019
2977 Clouds 16 1016 45 16093 3.1 280 02:23 27.08.2019
2978 Clouds 16 1016 48 16093 3.6 240 01:40 27.08.2019
2979 Clouds 16 1016 48 16093 3.6 270 01:21 27.08.2019
2980 Clouds 16 1016 51 16093 3.15 265.248 00:41 27.08.2019
2981 Clouds 15 1016 51 16093 3.6 210 00:22 27.08.2019
2982 Clear 15 1017 58 16093 2.93 251.949 23:38 26.08.2019
2983 Clear 14 1017 66 16093 2.93 251.949 23:19 26.08.2019
2984 Clear 13 1017 66 16093 2.93 251.949 22:39 26.08.2019
2985 Clear 13 1017 66 16093 2.93 251.949 22:19 26.08.2019
2986 Clear 12 1017 81 16093 1.5 80 21:58 26.08.2019
2987 Clear 11 1017 81 16093 1.5 80 21:38 26.08.2019
2988 Clear 10 1017 81 16093 1.5 80 21:19 26.08.2019
2989 Clear 9 1017 93 16093 1.5 70 20:56 26.08.2019
2990 Clear 8 1017 93 16093 1.5 70 20:37 26.08.2019
2991 Clear 8 1017 93 16093 1.5 70 20:37 26.08.2019
2992 Clear 8 1017 93 16093 1.5 70 20:18 26.08.2019
2993 Clear 8 1017 93 16093 1.5 50 19:43 26.08.2019
2994 Clear 7 1017 93 16093 1.5 50 19:19 26.08.2019
2995 Clouds 7 1016 81 16093 1.5 30 18:58 26.08.2019
2996 Clear 6 1017 100 16093 2.1 80 18:38 26.08.2019
2997 Clear 6 1017 100 16093 2.1 80 18:19 26.08.2019
2998 Clear 5 1016 100 16093 1.15 224.155 17:44 26.08.2019
2999 Clear 5 1016 100 16093 1.15 224.155 17:20 26.08.2019
3000 Mist 5 1016 93 4426 2.6 170 16:57 26.08.2019
3001 Clear 5 1016 100 14484 1.15 224.155 16:39 26.08.2019
3002 Clear 6 1016 100 14484 1.15 224.155 16:19 26.08.2019
3003 Clouds 6 1015 100 16093 1.5 50 15:56 26.08.2019
3004 Clouds 6 1015 100 16093 1.5 50 15:38 26.08.2019
3005 Clouds 6 1015 100 16093 1.5 50 15:20 26.08.2019
3006 Clouds 7 1015 93 16093 1.15 241.74 14:44 26.08.2019
3007 Clouds 7 1015 93 16093 1.15 241.74 14:23 26.08.2019
3008 Clouds 7 1015 93 16093 1.15 241.74 13:57 26.08.2019
3009 Clouds 7 1015 93 16093 1.15 241.74 13:37 26.08.2019
3010 Clouds 7 1015 93 16093 1.23 229.535 13:18 26.08.2019
3011 Clouds 7 1014 93 16093 1.23 229.535 12:43 26.08.2019
3012 Clouds 8 1014 93 16093 1.13 229.922 12:22 26.08.2019
3013 Clouds 8 1014 93 16093 1.13 229.922 11:44 26.08.2019
3014 Clouds 8 1014 93 16093 1.13 229.922 11:26 26.08.2019
3015 Clouds 9 1013 93 16093 1.13 229.922 10:59 26.08.2019
3016 Clouds 9 1013 93 16093 1.13 229.922 10:59 26.08.2019
3017 Clouds 8 1013 93 16093 1.13 229.922 10:41 26.08.2019
3018 Clouds 9 1013 93 16093 1.13 229.922 10:19 26.08.2019
3019 Clouds 9 1013 93 16093 1.13 229.922 10:19 26.08.2019
3020 Clouds 9 1013 87 16093 1.13 229.922 09:47 26.08.2019
3021 Clouds 10 1013 87 16093 1.01 233.085 09:26 26.08.2019
3022 Rain 11 1013 66 8047 1.04 229.011 08:59 26.08.2019
3023 Rain 11 1013 76 16093 1.04 229.011 08:41 26.08.2019
3024 Rain 11 1013 76 16093 1.04 229.011 08:22 26.08.2019
3025 Rain 13 1012 51 16093 2.6 260 07:46 26.08.2019
3026 Rain 13 1012 51 16093 2.6 260 07:25 26.08.2019
3027 Rain 15 1012 36 16093 3.1 260 06:59 26.08.2019
3028 Rain 15 1012 36 16093 3.1 260 06:39 26.08.2019
3029 Rain 15 1012 36 16093 3.1 260 06:20 26.08.2019
3030 Rain 15 1012 59 16093 3.1 160 05:48 26.08.2019
3031 Rain 16 1011 36 16093 7.7 250 04:24 26.08.2019
3032 Clouds 16 1012 51 16093 3.6 150 02:48 26.08.2019
3033 Clouds 16 1012 48 16093 2.1 220 01:25 26.08.2019
3034 Clear 15 1012 54 16093 4.15 255.029 00:46 26.08.2019
3035 Clear 15 1012 54 16093 4.15 255.029 00:27 26.08.2019
3036 Clouds 14 1012 58 16093 3.38 227.563 23:55 25.08.2019
3037 Clouds 14 1012 58 16093 3.38 227.563 23:36 25.08.2019
3038 Clouds 13 1012 58 16093 3.38 227.563 23:18 25.08.2019
3039 Clouds 12 1013 66 16093 3.38 227.563 22:54 25.08.2019
3040 Clouds 12 1013 66 16093 3.38 227.563 22:36 25.08.2019
3041 Clouds 11 1013 66 16093 3.38 227.563 22:18 25.08.2019
3042 Clouds 9 1013 70 16093 1.5 80 21:41 25.08.2019
3043 Clouds 9 1013 70 16093 1.5 80 21:19 25.08.2019
3044 Clouds 8 1013 75 16093 2.1 60 20:59 25.08.2019
3045 Clouds 8 1013 75 16093 2.1 60 20:39 25.08.2019
3046 Clouds 8 1013 75 16093 2.1 60 20:19 25.08.2019
3047 Clouds 7 1012 86 14484 2.1 60 19:55 25.08.2019
3048 Clouds 6 1012 86 14484 2.1 60 19:37 25.08.2019
3049 Clouds 6 1012 86 14484 2.1 60 19:37 25.08.2019
3050 Clouds 6 1012 86 14484 2.1 60 19:18 25.08.2019
3051 Clear 5 1012 93 16093 2.1 70 18:55 25.08.2019
3052 Clear 5 1012 93 16093 2.1 70 18:55 25.08.2019
3053 Clear 4 1012 93 16093 2.1 70 18:37 25.08.2019
3054 Clear 3 1012 93 16093 2.1 70 18:18 25.08.2019
3055 Clear 2 1012 93 16093 0.93 127.745 17:40 25.08.2019
3056 Clear 2 1012 93 16093 0.93 127.745 17:21 25.08.2019
3057 Fog 2 1011 83 16093 0.93 127.745 16:43 25.08.2019
3058 Clear 2 1012 93 16093 2.1 40 16:23 25.08.2019
3059 Clear 2 1011 100 16093 2.6 60 15:58 25.08.2019
3060 Clear 2 1011 100 16093 2.6 60 15:39 25.08.2019
3061 Clear 3 1011 100 16093 2.6 60 15:21 25.08.2019
3062 Clear 3 1011 93 16093 2.6 80 14:41 25.08.2019
3063 Clear 3 1011 93 16093 2.6 80 14:23 25.08.2019
3064 Clear 3 1011 93 16093 1.5 70 13:46 25.08.2019
3065 Clear 3 1011 93 16093 1.5 70 13:22 25.08.2019
3066 Clear 3 1011 93 16093 2.1 60 12:57 25.08.2019
3067 Clear 3 1011 93 16093 2.1 60 12:39 25.08.2019
3068 Clear 4 1011 93 16093 2.1 60 12:20 25.08.2019
3069 Clear 5 1010 86 16093 1.02 166.769 11:57 25.08.2019
3070 Clear 5 1010 86 16093 1.02 166.769 11:37 25.08.2019
3071 Clear 5 1010 86 16093 1.02 166.769 11:18 25.08.2019
3072 Clear 5 1010 93 16093 1.02 166.769 10:55 25.08.2019
3073 Clear 5 1010 93 16093 1.02 166.769 10:36 25.08.2019
3074 Clear 5 1010 93 16093 1.02 166.769 10:18 25.08.2019
3075 Clear 6 1009 87 16093 1.02 166.769 09:42 25.08.2019
3076 Clear 7 1009 87 16093 1.05 235.511 09:23 25.08.2019
3077 Clear 8 1009 81 16093 1.5 60 08:44 25.08.2019
3078 Clear 8 1009 81 16093 1.5 60 08:23 25.08.2019
3079 Clear 10 1008 54 14484 1.05 235.511 07:46 25.08.2019
3080 Clear 10 1008 54 14484 1.05 235.511 07:23 25.08.2019
3081 Clear 13 1008 29 14484 2.6 230 06:31 25.08.2019
3082 Clear 14 1008 36 16093 3.6 210 04:58 25.08.2019
3083 Clear 15 1008 36 16093 2.1 240 03:43 25.08.2019
3084 Clouds 15 1008 48 16093 2.6 200 02:41 25.08.2019
3085 Clouds 14 1008 51 16093 2.6 310 01:45 25.08.2019
3086 Clear 14 1008 71 16093 2.1 230 00:42 25.08.2019
3087 Clear 13 1008 71 16093 2.1 230 00:22 25.08.2019
3088 Clear 13 1008 76 16093 2.1 210 23:54 24.08.2019
3089 Clear 12 1008 76 16093 2.1 210 23:24 24.08.2019
3090 Clear 11 1008 81 16093 1.9 255.444 22:58 24.08.2019
3091 Clear 11 1008 81 16093 1.9 255.444 22:40 24.08.2019
3092 Clear 11 1008 81 16093 1.9 255.444 22:19 24.08.2019
3093 Clouds 10 1007 81 16093 1.9 255.444 21:57 24.08.2019
3094 Clouds 10 1008 93 14484 1.9 255.444 21:39 24.08.2019
3095 Clouds 9 1008 93 14484 0.84 170.064 21:20 24.08.2019
3096 Clouds 9 1008 93 14484 0.84 170.064 21:20 24.08.2019
3097 Mist 8 1007 93 8047 0.84 170.064 20:56 24.08.2019
3098 Mist 8 1007 93 8047 0.84 170.064 20:56 24.08.2019
3099 Mist 8 1007 100 14484 0.84 170.064 20:37 24.08.2019
3100 Mist 8 1007 100 14484 0.84 170.064 20:37 24.08.2019
3101 Mist 8 1007 100 14484 0.84 170.064 20:37 24.08.2019
3102 Mist 8 1007 100 14484 0.84 170.064 20:18 24.08.2019
3103 Mist 8 1007 100 9656 0.84 170.064 19:57 24.08.2019
3104 Mist 7 1007 93 3219 0.84 170.064 19:38 24.08.2019
3105 Mist 7 1007 100 2816 0.84 170.064 19:18 24.08.2019
3106 Fog 6 1007 100 402 0.84 170.064 18:45 24.08.2019
3107 Fog 6 1007 93 805 0.52 104.09 18:23 24.08.2019
3108 Fog 6 1006 93 1408 0.52 104.09 17:46 24.08.2019
3109 Fog 5 1006 100 603 0.52 104.09 17:27 24.08.2019
3110 Mist 5 1006 100 1408 0.52 104.09 16:56 24.08.2019
3111 Fog 5 1006 100 201 0.52 104.09 16:36 24.08.2019
3112 Fog 5 1006 100 201 0.52 104.09 16:18 24.08.2019
3113 Mist 5 1006 100 2414 0.52 104.09 15:43 24.08.2019
3114 Mist 6 1005 100 16093 0.38 90 15:24 24.08.2019
3115 Clouds 7 1005 100 14484 1.5 70 14:55 24.08.2019
3116 Clouds 7 1005 100 14484 1.5 70 14:37 24.08.2019
3117 Clouds 7 1005 100 14484 1.5 70 14:18 24.08.2019
3118 Clouds 8 1005 100 16093 0.38 90 13:42 24.08.2019
3119 Clouds 8 1005 100 16093 0.38 130.058 13:22 24.08.2019
3120 Clouds 8 1004 100 16093 0.38 130.058 12:58 24.08.2019
3121 Clouds 8 1004 100 16093 0.38 130.058 12:39 24.08.2019
3122 Clouds 7 1004 100 16093 0.16 279.944 12:20 24.08.2019
3123 Clouds 8 1004 93 16093 0.16 279.944 11:45 24.08.2019
3124 Clouds 8 1004 93 16093 0.16 279.944 11:24 24.08.2019
3125 Clouds 8 1004 93 14484 1.5 170 10:53 24.08.2019
3126 Clouds 8 1004 93 12874 0.16 279.944 10:24 24.08.2019
3127 Rain 8 1003 93 11265 0.16 279.944 09:58 24.08.2019
3128 Rain 8 1003 93 12874 1.5 40 09:38 24.08.2019
3129 Rain 8 1003 93 12874 1.5 40 09:18 24.08.2019
3130 Rain 8 1003 93 6437 2.6 60 08:41 24.08.2019
3131 Rain 8 1003 93 6437 2.6 60 08:23 24.08.2019
3132 Rain 8 1003 93 1810 2.6 360 07:50 24.08.2019
3133 Rain 8 1002 87 16093 1.04 189.779 07:28 24.08.2019
3134 Rain 9 1002 81 11265 1.5 160 06:31 24.08.2019
3135 Rain 10 1002 87 8047 3.6 340 05:57 24.08.2019
3136 Rain 10 1002 87 4828 4.1 320 05:35 24.08.2019
3137 Rain 11 1001 71 16093 2.6 360 03:40 24.08.2019
3138 Rain 12 1001 58 14484 5.7 260 02:39 24.08.2019
3139 Rain 13 1000 67 14484 6.2 230 01:52 24.08.2019
3140 Clouds 14 1000 67 16093 1.11 192.646 01:22 24.08.2019
3141 Clouds 13 1001 67 16093 3.6 230 00:44 24.08.2019
3142 Clouds 13 1001 67 16093 3.6 230 00:21 24.08.2019
3143 Clouds 12 1001 76 16093 2.1 200 23:43 23.08.2019
3144 Clouds 12 1001 76 12874 2.1 220 23:19 23.08.2019
3145 Clouds 11 1001 76 14484 2.6 190 22:44 23.08.2019
3146 Clouds 11 1001 76 16093 1.27 153.536 22:24 23.08.2019
3147 Clouds 10 1001 87 16093 4.1 170 21:54 23.08.2019
3148 Rain 10 1001 81 14484 0.96 158.95 21:36 23.08.2019
3149 Rain 10 1001 81 14484 0.96 158.95 21:36 23.08.2019
3150 Rain 10 1001 81 14484 0.96 158.95 21:36 23.08.2019
3151 Rain 9 1001 81 14484 0.27 178.297 21:18 23.08.2019
3152 Rain 9 1001 87 11265 2.1 100 20:45 23.08.2019
3153 Rain 9 1001 87 12874 1.5 90 20:27 23.08.2019
3154 Clouds 8 1001 87 12874 1.5 130 19:46 23.08.2019
3155 Clouds 8 1001 87 12874 1.5 130 19:46 23.08.2019
3156 Clouds 8 1001 87 12874 1.5 130 19:19 23.08.2019
3157 Clouds 7 1001 93 14484 2.1 50 18:55 23.08.2019
3158 Clouds 7 1001 93 14484 2.1 50 18:36 23.08.2019
3159 Clouds 7 1001 93 14484 2.1 50 18:18 23.08.2019
3160 Clouds 7 1001 93 14484 1.5 60 17:41 23.08.2019
3161 Clouds 6 1001 93 14484 1.5 60 17:23 23.08.2019
3162 Clouds 6 1001 93 14484 2.1 40 16:49 23.08.2019
3163 Clouds 6 1001 93 14484 2.1 40 16:30 23.08.2019
3164 Clouds 7 1001 93 16093 2.1 120 15:59 23.08.2019
3165 Clouds 7 1001 93 16093 2.1 120 15:39 23.08.2019
3166 Clouds 7 1001 93 16093 2.1 120 15:21 23.08.2019
3167 Clouds 7 1001 93 16093 2.6 50 14:44 23.08.2019
3168 Clouds 7 1001 93 16093 2.6 50 14:21 23.08.2019
3169 Rain 8 1001 87 16093 1.5 70 13:59 23.08.2019
3170 Rain 8 1001 87 16093 1.5 70 13:41 23.08.2019
3171 Rain 8 1001 87 16093 1.5 70 13:23 23.08.2019
3172 Clouds 8 1002 87 16093 1.5 60 12:58 23.08.2019
3173 Clouds 8 1002 87 16093 1.5 60 12:40 23.08.2019
3174 Clouds 9 1002 87 16093 1.5 60 12:21 23.08.2019
3175 Clouds 9 1002 87 16093 2.1 70 11:57 23.08.2019
3176 Clouds 9 1002 87 16093 2.1 70 11:39 23.08.2019
3177 Clouds 9 1002 87 16093 2.1 70 11:19 23.08.2019
3178 Clouds 8 1001 87 16093 0.22 58.46 10:54 23.08.2019
3179 Clouds 8 1001 87 16093 0.22 58.46 10:36 23.08.2019
3180 Clouds 9 1001 87 16093 0.64 117.049 10:18 23.08.2019
3181 Clouds 9 1001 81 16093 0.64 117.049 09:43 23.08.2019
3182 Clouds 9 1001 81 16093 0.64 117.049 09:43 23.08.2019
3183 Clouds 10 1001 81 16093 0.79 154.016 09:20 23.08.2019
3184 Clouds 9 1002 81 16093 0.79 154.016 08:45 23.08.2019
3185 Clouds 10 1002 81 16093 0.79 154.016 08:20 23.08.2019
3186 Clouds 11 1001 71 16093 1.5 270 07:56 23.08.2019
3187 Clouds 11 1001 71 16093 1.5 270 07:38 23.08.2019
3188 Clouds 11 1001 71 16093 1.5 270 07:20 23.08.2019
3189 Clouds 13 1002 51 14484 2.6 230 06:41 23.08.2019
3190 Clouds 13 1002 51 14484 2.6 230 06:21 23.08.2019
3191 Clear 14 1002 51 16093 2.6 230 05:44 23.08.2019
3192 Clear 14 1002 51 16093 2.6 230 05:23 23.08.2019
3193 Clouds 15 1002 38 16093 2.1 220 03:38 23.08.2019
3194 Clear 15 1003 44 16093 1.5 230 02:37 23.08.2019
3195 Clear 15 1003 44 16093 1.5 230 02:19 23.08.2019
3196 Clouds 15 1004 50 16093 1.97 186.006 00:46 23.08.2019
3197 Clouds 14 1004 50 16093 1.8 160.202 00:23 23.08.2019
3198 Clear 13 1004 58 16093 1.8 160.202 23:59 22.08.2019
3199 Clear 13 1004 58 16093 1.8 160.202 23:40 22.08.2019
3200 Clear 14 1004 58 16093 1.8 160.202 23:20 22.08.2019
3201 Clouds 12 1005 62 16093 1.8 160.202 22:42 22.08.2019
3202 Clouds 12 1005 62 16093 1.8 160.202 22:23 22.08.2019
3203 Clear 11 1005 66 16093 1.5 110 21:58 22.08.2019
3204 Clear 11 1005 66 16093 1.5 110 21:58 22.08.2019
3205 Clear 10 1005 66 16093 1.5 110 21:40 22.08.2019
3206 Clear 10 1005 66 16093 1.5 110 21:21 22.08.2019
3207 Clouds 9 1005 81 16093 0.96 124.904 20:57 22.08.2019
3208 Clouds 8 1005 81 16093 0.96 124.904 20:39 22.08.2019
3209 Clouds 8 1005 81 16093 0.96 124.904 20:19 22.08.2019
3210 Clear 7 1006 93 16093 2.1 80 19:56 22.08.2019
3211 Clear 7 1006 93 16093 2.1 80 19:37 22.08.2019
3212 Clear 6 1006 93 16093 2.1 80 19:19 22.08.2019
3213 Clouds 6 1006 86 16093 2.1 60 18:56 22.08.2019
3214 Clouds 6 1006 86 16093 2.1 60 18:38 22.08.2019
3215 Clouds 5 1006 86 16093 2.1 60 18:18 22.08.2019
3216 Clouds 4 1005 93 12874 1.1 76.37 17:43 22.08.2019
3217 Clouds 4 1006 93 12874 1.5 70 17:23 22.08.2019
3218 Clouds 3 1006 93 12874 1.5 70 16:58 22.08.2019
3219 Clouds 4 1006 93 12874 1.5 70 16:40 22.08.2019
3220 Clouds 4 1006 93 12874 1.5 70 16:21 22.08.2019
3221 Clouds 4 1006 93 12874 1.5 70 16:21 22.08.2019
3222 Clouds 4 1005 86 16093 2.1 50 15:59 22.08.2019
3223 Clouds 4 1005 86 16093 2.1 50 15:39 22.08.2019
3224 Clouds 4 1005 86 16093 2.1 50 15:39 22.08.2019
3225 Clouds 4 1005 86 16093 2.1 50 15:21 22.08.2019
3226 Clouds 4 1005 86 16093 2.1 50 15:20 22.08.2019
3227 Clouds 4 1006 93 16093 2.6 50 14:56 22.08.2019
3228 Clouds 4 1006 93 16093 2.6 50 14:38 22.08.2019
3229 Clouds 4 1006 93 16093 2.6 50 14:18 22.08.2019
3230 Clear 4 1006 93 16093 1.5 70 13:55 22.08.2019
3231 Clear 4 1006 93 16093 1.5 70 13:36 22.08.2019
3232 Clear 4 1006 93 16093 1.5 70 13:18 22.08.2019
3233 Clouds 5 1006 93 16093 1.25 70.466 12:40 22.08.2019
3234 Clouds 5 1006 93 16093 1.17 67.433 12:21 22.08.2019
3235 Clear 5 1006 93 16093 2.6 50 11:55 22.08.2019
3236 Clear 5 1006 93 16093 2.6 50 11:36 22.08.2019
3237 Clear 6 1006 93 16093 2.6 50 11:18 22.08.2019
3238 Clear 6 1006 87 16093 1.5 90 10:57 22.08.2019
3239 Clear 6 1006 87 16093 1.5 90 10:36 22.08.2019
3240 Clear 6 1006 87 16093 1.5 90 10:18 22.08.2019
3241 Clear 7 1005 87 16093 1.34 55.635 09:40 22.08.2019
3242 Clear 7 1005 87 16093 1.28 66.837 09:21 22.08.2019
3243 Clear 8 1006 87 16093 1.28 66.837 08:58 22.08.2019
3244 Clear 8 1006 87 16093 1.28 66.837 08:39 22.08.2019
3245 Clear 8 1006 87 16093 1.28 66.837 08:20 22.08.2019
3246 Clear 10 1005 58 14484 2.1 200 07:42 22.08.2019
3247 Clear 10 1005 58 14484 2.1 200 07:23 22.08.2019
3248 Clear 12 1005 50 14484 3.1 170 06:55 22.08.2019
3249 Clear 12 1005 50 14484 3.1 170 06:37 22.08.2019
3250 Clear 12 1005 50 16093 2.6 200 06:18 22.08.2019
3251 Clear 13 1005 47 16093 1.5 260 04:42 22.08.2019
3252 Clouds 13 1005 44 16093 4.6 230 02:52 22.08.2019
3253 Clouds 13 1005 44 16093 4.6 230 02:34 22.08.2019
3254 Clear 13 1005 41 16093 1.44 308.331 01:26 22.08.2019
3255 Clear 12 1005 47 16093 1.44 308.331 00:47 22.08.2019
3256 Clear 12 1005 47 16093 1.44 308.331 00:28 22.08.2019
3257 Clouds 12 1005 54 16093 2.24 331.912 23:58 21.08.2019
3258 Clouds 12 1005 47 16093 2.6 10 23:39 21.08.2019
3259 Clouds 12 1005 47 16093 2.6 10 23:19 21.08.2019
3260 Clear 11 1005 62 16093 2.24 331.912 22:55 21.08.2019
3261 Clear 11 1005 62 16093 2.24 331.912 22:37 21.08.2019
3262 Clear 11 1005 62 16093 2.24 331.912 22:19 21.08.2019
3263 Clear 10 1005 71 14484 2.6 350 21:55 21.08.2019
3264 Clear 10 1005 71 14484 2.6 350 21:37 21.08.2019
3265 Clear 9 1005 71 14484 2.6 350 21:18 21.08.2019
3266 Fog 9 1004 71 16093 2.1 0 20:43 21.08.2019
3267 Fog 9 1004 71 16093 2.1 0 20:43 21.08.2019
3268 Fog 8 1004 71 16093 2.1 0 20:24 21.08.2019
3269 Rain 8 1004 81 16093 2.1 260 19:58 21.08.2019
3270 Rain 8 1005 87 11265 2.1 300 19:39 21.08.2019
3271 Rain 8 1005 87 11265 2.1 300 19:39 21.08.2019
3272 Rain 7 1005 87 11265 2.1 300 19:20 21.08.2019
3273 Rain 7 1005 87 11265 2.6 290 18:56 21.08.2019
3274 Rain 7 1005 100 9656 2.6 330 18:37 21.08.2019
3275 Rain 7 1005 100 9656 2.6 330 18:37 21.08.2019
3276 Rain 7 1004 100 11265 3.6 220 18:19 21.08.2019
3277 Rain 7 1005 100 9656 1.5 230 17:42 21.08.2019
3278 Rain 7 1005 100 9656 1.5 230 17:21 21.08.2019
3279 Rain 7 1005 100 4828 1.61 270.32 16:56 21.08.2019
3280 Rain 7 1005 100 4426 1.61 270.32 16:37 21.08.2019
3281 Rain 7 1005 100 4426 1.61 270.32 16:18 21.08.2019
3282 Rain 7 1005 93 9656 2.1 230 15:56 21.08.2019
3283 Rain 7 1005 93 9656 2.1 230 15:37 21.08.2019
3284 Rain 7 1005 93 9656 2.1 230 15:18 21.08.2019
3285 Rain 7 1005 87 14484 1.5 220 14:39 21.08.2019
3286 Rain 7 1005 87 14484 1.5 220 14:21 21.08.2019
3287 Rain 7 1005 87 11265 1.38 319.998 13:59 21.08.2019
3288 Rain 8 1005 87 11265 1.38 319.998 13:40 21.08.2019
3289 Rain 8 1005 87 11265 1.66 324.342 13:19 21.08.2019
3290 Rain 8 1005 87 16093 1.66 324.342 12:57 21.08.2019
3291 Rain 8 1005 87 4828 1.5 360 12:38 21.08.2019
3292 Rain 8 1005 87 4828 1.5 360 12:19 21.08.2019
3293 Rain 8 1005 81 11265 1.5 270 11:43 21.08.2019
3294 Rain 8 1005 81 11265 1.5 270 11:24 21.08.2019
3295 Rain 9 1005 76 16093 1.5 220 10:58 21.08.2019
3296 Clouds 9 1005 76 16093 1.5 220 10:38 21.08.2019
3297 Clouds 9 1005 76 16093 1.5 220 10:20 21.08.2019
3298 Rain 10 1005 76 16093 0.57 165.792 09:58 21.08.2019
3299 Rain 10 1005 76 16093 0.57 165.792 09:40 21.08.2019
3300 Rain 10 1005 76 16093 1.15 315.952 09:21 21.08.2019
3301 Clouds 10 1006 62 16093 1.15 315.952 08:49 21.08.2019
3302 Clouds 10 1006 62 16093 1.15 315.952 08:25 21.08.2019
3303 Clouds 12 1006 50 14484 4.1 310 07:45 21.08.2019
3304 Clouds 11 1006 50 14484 4.1 310 07:26 21.08.2019
3305 Clouds 14 1006 41 16093 2.6 290 06:51 21.08.2019
3306 Clouds 14 1006 41 16093 2.6 290 06:33 21.08.2019
3307 Clouds 13 1006 46 16093 2.1 300 05:57 21.08.2019
3308 Clouds 14 1006 46 16093 2.1 300 05:28 21.08.2019
3309 Clouds 15 1006 46 16093 3.1 250 04:42 21.08.2019
3310 Clear 15 1008 42 16093 0.99 318.661 02:40 21.08.2019
3311 Clear 15 1008 36 16093 1.5 250 01:30 21.08.2019
3312 Clear 15 1009 43 16093 0.52 327.171 00:41 21.08.2019
3313 Clear 15 1009 41 16093 0.4 132.082 00:20 21.08.2019
3314 Clear 14 1009 41 16093 0.4 132.082 23:45 20.08.2019
3315 Clear 14 1009 41 16093 0.4 132.082 23:20 20.08.2019
3316 Clear 14 1010 50 14484 1.5 300 22:59 20.08.2019
3317 Clear 14 1010 50 14484 1.5 300 22:40 20.08.2019
3318 Clear 14 1010 50 14484 1.5 300 22:40 20.08.2019
3319 Clear 13 1010 50 14484 1.5 300 22:21 20.08.2019
3320 Clear 13 1011 62 16093 0.4 132.082 21:58 20.08.2019
3321 Clear 12 1011 62 16093 0.33 138.715 21:39 20.08.2019
3322 Clear 11 1011 62 16093 0.8 51.754 21:19 20.08.2019
3323 Clear 10 1011 70 16093 0.8 51.754 20:58 20.08.2019
3324 Clear 10 1011 70 16093 0.8 51.754 20:58 20.08.2019
3325 Clear 10 1011 70 16093 0.8 51.754 20:40 20.08.2019
3326 Clear 9 1011 70 16093 0.8 51.754 20:21 20.08.2019
3327 Clear 7 1011 81 14484 0.8 51.754 19:39 20.08.2019
3328 Clear 7 1011 81 14484 0.8 51.754 19:21 20.08.2019
3329 Clouds 7 1012 93 11265 0.8 51.754 18:56 20.08.2019
3330 Clouds 7 1011 70 16093 2.1 20 18:38 20.08.2019
3331 Clouds 4 1011 70 16093 2.1 20 18:19 20.08.2019
3332 Clouds 4 1011 70 16093 2.1 20 18:19 20.08.2019
3333 Clouds 4 1011 70 16093 2.1 20 17:56 20.08.2019
3334 Clear 4 1012 100 12874 1.43 20.189 17:38 20.08.2019
3335 Clear 3 1012 93 12874 1.43 20.189 17:19 20.08.2019
3336 Clear 3 1012 93 12874 1.43 20.189 16:44 20.08.2019
3337 Clear 3 1012 93 12874 1.43 20.189 16:25 20.08.2019
3338 Clear 3 1012 93 14484 1.43 20.189 15:43 20.08.2019
3339 Clear 4 1012 86 16093 1.83 14.659 15:19 20.08.2019
3340 Clear 4 1012 86 16093 1.83 14.659 14:59 20.08.2019
3341 Clear 4 1012 86 16093 1.83 14.659 14:41 20.08.2019
3342 Clear 5 1012 86 16093 1.83 14.659 14:21 20.08.2019
3343 Clear 5 1012 75 16093 1.83 14.659 13:57 20.08.2019
3344 Clear 5 1012 75 16093 1.83 14.659 13:38 20.08.2019
3345 Clouds 6 1012 70 16093 4.1 350 13:20 20.08.2019
3346 Clear 6 1013 70 16093 2.6 60 12:51 20.08.2019
3347 Clear 6 1013 70 16093 2.6 60 12:28 20.08.2019
3348 Clouds 6 1012 70 16093 3.1 350 11:58 20.08.2019
3349 Clear 6 1013 75 16093 2.6 60 11:38 20.08.2019
3350 Clear 6 1013 75 16093 2.1 60 11:19 20.08.2019
3351 Clear 6 1013 75 16093 2.1 60 11:19 20.08.2019
3352 Clear 6 1013 75 16093 2.1 60 10:57 20.08.2019
3353 Clear 6 1013 75 16093 2.1 60 10:57 20.08.2019
3354 Clear 6 1013 75 16093 2.1 60 10:38 20.08.2019
3355 Clear 7 1013 66 16093 3.1 40 10:20 20.08.2019
3356 Clear 7 1013 66 16093 3.1 40 09:43 20.08.2019
3357 Clear 8 1013 66 16093 3.1 40 09:25 20.08.2019
3358 Clear 8 1013 57 16093 3.6 30 08:57 20.08.2019
3359 Clear 9 1013 57 16093 3.6 30 08:39 20.08.2019
3360 Clear 9 1013 50 16093 2.1 50 08:20 20.08.2019
3361 Clear 10 1013 50 16093 2.1 50 07:56 20.08.2019
3362 Clear 11 1013 50 16093 2.1 50 07:37 20.08.2019
3363 Clouds 11 1013 50 16093 3.1 60 07:18 20.08.2019
3364 Clear 12 1013 44 14484 3.1 50 06:28 20.08.2019
3365 Clouds 13 1014 44 16093 2.1 60 05:51 20.08.2019
3366 Clouds 13 1014 44 16093 2.1 60 05:30 20.08.2019
3367 Clouds 14 1014 43 16093 3.6 70 04:18 20.08.2019
3368 Clouds 15 1015 39 16093 2.6 40 02:44 20.08.2019
3369 Clouds 14 1015 39 16093 4.1 110 01:43 20.08.2019
3370 Clouds 14 1015 39 16093 4.1 110 00:59 20.08.2019
3371 Clouds 14 1016 35 16093 2.1 70 00:40 20.08.2019
3372 Clouds 14 1016 41 16093 4.1 120 00:19 20.08.2019
3373 Clear 13 1017 37 16093 2.6 60 23:40 19.08.2019
3374 Clear 13 1017 40 16093 1.51 95.363 23:18 19.08.2019
3375 Clear 13 1017 40 16093 1.51 95.363 22:56 19.08.2019
3376 Clear 12 1017 40 16093 1.51 95.363 22:38 19.08.2019
3377 Clear 12 1018 50 16093 1.51 95.363 22:18 19.08.2019
3378 Clear 11 1018 50 16093 1.51 95.363 21:56 19.08.2019
3379 Clear 11 1018 50 16093 1.32 90.871 21:37 19.08.2019
3380 Clear 11 1018 50 16093 1.32 90.871 21:37 19.08.2019
3381 Clear 10 1018 61 16093 3.1 90 21:18 19.08.2019
3382 Clear 9 1018 61 16093 3.1 90 20:40 19.08.2019
3383 Clear 9 1018 61 16093 3.1 90 20:40 19.08.2019
3384 Clear 9 1018 61 16093 3.1 90 20:40 19.08.2019
3385 Clear 9 1018 61 16093 3.1 90 20:20 19.08.2019
3386 Clear 7 1019 75 16093 1.18 114.031 19:59 19.08.2019
3387 Clear 7 1019 75 16093 1.18 114.031 19:40 19.08.2019
3388 Clear 6 1019 75 16093 1.18 114.031 19:19 19.08.2019
3389 Clear 6 1019 86 14484 1.18 114.031 18:58 19.08.2019
3390 Clear 5 1019 86 14484 1.18 114.031 18:39 19.08.2019
3391 Clouds 5 1019 80 16093 1.5 50 18:20 19.08.2019
3392 Clouds 4 1019 80 16093 1.5 50 17:54 19.08.2019
3393 Clouds 4 1019 86 14484 1.5 80 17:36 19.08.2019
3394 Clouds 3 1020 80 14484 1.5 10 17:18 19.08.2019
3395 Clouds 3 1020 80 14484 1.5 10 16:38 19.08.2019
3396 Clouds 3 1020 80 14484 1.5 10 16:20 19.08.2019
3397 Clouds 3 1020 80 16093 2.1 50 15:56 19.08.2019
3398 Clouds 3 1020 80 16093 2.1 50 15:38 19.08.2019
3399 Clouds 3 1020 80 16093 2.1 50 15:19 19.08.2019
3400 Clear 4 1020 80 16093 3.1 70 14:43 19.08.2019
3401 Clear 4 1020 80 16093 3.1 70 14:23 19.08.2019
3402 Clear 4 1021 86 16093 1.08 48.252 13:58 19.08.2019
3403 Clear 5 1021 86 16093 1.08 48.252 13:38 19.08.2019
3404 Clear 5 1021 86 16093 1.45 36.696 13:20 19.08.2019
3405 Clouds 5 1021 81 16093 1.5 70 12:57 19.08.2019
3406 Clouds 6 1021 81 16093 1.5 70 12:39 19.08.2019
3407 Clouds 6 1021 81 16093 1.5 70 12:19 19.08.2019
3408 Clouds 6 1022 70 16093 3.1 60 11:40 19.08.2019
3409 Clouds 7 1022 70 16093 3.1 60 11:21 19.08.2019
3410 Clouds 6 1022 66 16093 3.1 60 10:58 19.08.2019
3411 Clouds 6 1022 66 16093 3.1 60 10:37 19.08.2019
3412 Clouds 7 1022 66 16093 3.1 60 10:18 19.08.2019
3413 Clouds 8 1023 61 16093 2.1 60 09:45 19.08.2019
3414 Clouds 8 1023 61 16093 2.1 60 09:24 19.08.2019
3415 Clouds 8 1023 61 16093 2.1 60 09:24 19.08.2019
3416 Clouds 8 1023 62 16093 2.1 60 08:59 19.08.2019
3417 Clouds 9 1023 62 16093 2.1 60 08:41 19.08.2019
3418 Clouds 9 1023 62 16093 2.1 60 08:41 19.08.2019
3419 Clouds 9 1023 62 16093 2.1 60 08:20 19.08.2019
3420 Clouds 10 1024 54 16093 1.5 50 07:49 19.08.2019
3421 Clouds 11 1024 54 16093 1.5 50 07:31 19.08.2019
3422 Clouds 12 1024 50 16093 1.5 100 06:52 19.08.2019
3423 Clouds 12 1024 50 16093 1.5 100 06:33 19.08.2019
3424 Clouds 13 1024 41 16093 1.5 80 05:21 19.08.2019
3425 Clouds 13 1025 41 16093 1.11 82.045 04:27 19.08.2019
3426 Clouds 14 1026 35 16093 3.1 40 03:24 19.08.2019
3427 Clear 14 1026 38 16093 3.1 120 02:29 19.08.2019
3428 Clear 14 1027 35 16093 4.6 110 01:35 19.08.2019
3429 Clouds 13 1027 43 16093 6.7 40 00:44 19.08.2019
3430 Clouds 13 1028 38 16093 2.6 60 00:23 19.08.2019
3431 Clouds 13 1028 47 16093 4.6 40 23:43 18.08.2019
3432 Rain 13 1029 47 16093 2.6 80 23:22 18.08.2019
3433 Clear 12 1029 54 16093 3.6 40 22:57 18.08.2019
3434 Rain 12 1029 54 16093 3.6 40 22:38 18.08.2019
3435 Clear 12 1029 54 16093 3.6 40 22:20 18.08.2019
3436 Clear 11 1029 62 16093 4.6 70 21:56 18.08.2019
3437 Clear 11 1029 62 16093 4.6 70 21:37 18.08.2019
3438 Clear 11 1029 62 16093 4.6 70 21:19 18.08.2019
3439 Clear 10 1029 66 16093 4.6 60 20:44 18.08.2019
3440 -273 0 0 0 0 0 20:25 18.08.2019
3441 Clouds 8 1030 81 16093 2.53 36.526 19:56 18.08.2019
3442 Clouds 8 1030 81 16093 2.53 36.526 19:56 18.08.2019
3443 Clouds 8 1030 81 16093 2.53 36.526 19:38 18.08.2019
3444 Clouds 8 1030 81 16093 2.53 36.526 19:19 18.08.2019
3445 Clouds 7 1029 87 16093 2.53 36.526 18:41 18.08.2019
3446 Clouds 7 1029 87 16093 1.96 14.05 18:23 18.08.2019
3447 Clouds 4 1030 93 14484 2.1 70 17:59 18.08.2019
3448 Clouds 4 1030 93 14484 2.1 70 17:41 18.08.2019
3449 Clouds 4 1030 93 14484 2.1 70 17:19 18.08.2019
3450 Rain 5 1030 93 14484 1.96 14.05 16:57 18.08.2019
3451 Clouds 5 1030 93 14484 1.96 14.05 16:38 18.08.2019
3452 Clouds 5 1030 93 14484 1.96 14.05 16:20 18.08.2019
3453 Clouds 5 1029 87 16093 2.6 60 15:57 18.08.2019
3454 Rain 5 1030 93 11265 1.96 14.05 15:38 18.08.2019
3455 Rain 5 1030 93 11265 1.52 25.606 15:20 18.08.2019
3456 Rain 6 1030 100 6437 2.1 70 14:54 18.08.2019
3457 Rain 6 1030 100 4426 2.6 80 14:36 18.08.2019
3458 Rain 6 1030 100 4426 2.6 80 14:18 18.08.2019
3459 Rain 6 1030 100 3621 3.6 60 13:42 18.08.2019
3460 Rain 8 1030 87 1408 4.6 90 13:24 18.08.2019
3461 Rain 8 1031 87 2414 5.1 50 12:58 18.08.2019
3462 Rain 8 1030 87 4828 1.5 40 12:39 18.08.2019
3463 Rain 8 1030 87 4828 1.5 40 12:21 18.08.2019
3464 Rain 8 1029 87 16093 1.06 11.055 11:43 18.08.2019
3465 Rain 8 1030 87 14484 1.5 60 11:23 18.08.2019
3466 Clouds 8 1030 93 16093 1.06 11.055 10:59 18.08.2019
3467 Clouds 8 1030 93 16093 1.06 11.055 10:40 18.08.2019
3468 Clouds 8 1030 93 16093 1.06 11.055 10:19 18.08.2019
3469 Clouds 9 1030 87 16093 1.06 11.055 09:44 18.08.2019
3470 Clouds 8 1030 87 16093 0.91 341.545 09:21 18.08.2019
3471 Clear 10 1031 81 16093 0.91 341.545 08:44 18.08.2019
3472 Clear 10 1031 81 16093 0.91 341.545 08:25 18.08.2019
3473 Clear 13 1031 50 16093 2.1 350 07:58 18.08.2019
3474 Clear 13 1031 50 16093 2.1 350 07:39 18.08.2019
3475 Clear 13 1031 50 16093 2.1 350 07:21 18.08.2019
3476 Clouds 15 1031 44 16093 5.1 90 05:45 18.08.2019
3477 Clouds 16 1031 36 16093 3.6 10 04:25 18.08.2019
3478 Clouds 16 1031 33 16093 2.1 330 03:20 18.08.2019
3479 Clouds 16 1031 47 16093 3.1 320 02:42 18.08.2019
3480 Clouds 16 1032 50 16093 3.6 360 02:18 18.08.2019
3481 Clouds 15 1032 38 16093 1.02 73.769 01:28 18.08.2019
3482 Clouds 15 1032 50 16093 3.6 330 00:43 18.08.2019
3483 Clouds 15 1033 50 16093 1.2 92.332 00:23 18.08.2019
3484 Clouds 14 1032 50 16093 1.5 30 23:58 17.08.2019
3485 Clouds 14 1033 51 16093 1.2 92.332 23:38 17.08.2019
3486 Clouds 14 1033 51 16093 1.2 92.332 23:20 17.08.2019
3487 Clear 13 1033 54 16093 1.2 92.332 22:58 17.08.2019
3488 Clear 13 1033 54 16093 1.2 92.332 22:40 17.08.2019
3489 Clear 13 1033 54 16093 1.2 92.332 22:21 17.08.2019
3490 Haze 13 1032 66 9656 2.6 350 21:55 17.08.2019
3491 Clear 12 1033 58 16093 3.1 80 21:37 17.08.2019
3492 Clear 12 1033 58 16093 3.1 80 21:18 17.08.2019
3493 Clear 11 1033 87 16093 1.09 23.738 20:39 17.08.2019
3494 Clear 9 1033 87 16093 1.09 23.738 20:20 17.08.2019
3495 Clouds 9 1031 87 16093 2.6 340 19:56 17.08.2019
3496 Mist 8 1032 100 12874 1.09 23.738 19:37 17.08.2019
3497 Mist 8 1032 100 12874 1.09 23.738 19:19 17.08.2019
3498 Fog 8 1031 100 805 1.09 23.738 18:39 17.08.2019
3499 Fog 7 1031 100 805 1.31 356.752 18:19 17.08.2019
3500 Fog 7 1031 100 402 1.31 356.752 17:55 17.08.2019
3501 Mist 7 1030 100 14484 1.31 356.752 17:37 17.08.2019
3502 Mist 7 1030 100 14484 1.31 356.752 17:18 17.08.2019
3503 Clouds 7 1029 93 14484 1.5 280 16:43 17.08.2019
3504 Clouds 7 1029 93 14484 1.5 280 16:25 17.08.2019
3505 Clouds 7 1029 93 16093 1.31 356.752 15:57 17.08.2019
3506 Clouds 7 1029 93 16093 2.1 270 15:38 17.08.2019
3507 Clouds 7 1029 93 16093 2.1 270 15:20 17.08.2019
3508 Clouds 7 1029 93 16093 2.1 270 15:20 17.08.2019
3509 Clouds 7 1028 93 16093 3.1 220 14:41 17.08.2019
3510 Clouds 7 1028 93 16093 3.1 220 14:22 17.08.2019
3511 Clouds 7 1027 87 16093 3.6 260 13:47 17.08.2019
3512 Clouds 7 1027 87 16093 3.6 260 13:23 17.08.2019
3513 Rain 7 1026 87 16093 3.6 270 12:58 17.08.2019
3514 Rain 8 1026 87 16093 4.1 260 12:39 17.08.2019
3515 Rain 8 1026 87 16093 4.1 260 12:19 17.08.2019
3516 Rain 8 1025 87 16093 2.6 270 11:44 17.08.2019
3517 Rain 8 1025 87 16093 3.6 260 11:21 17.08.2019
3518 Clouds 8 1023 93 16093 5.1 280 10:56 17.08.2019
3519 Clear 8 1023 87 16093 4.6 230 10:38 17.08.2019
3520 Clear 8 1023 87 16093 4.6 230 10:18 17.08.2019
3521 Rain 8 1022 93 11265 6.2 230 09:44 17.08.2019
3522 Clouds 8 1022 87 16093 6.7 250 09:26 17.08.2019
3523 Rain 9 1021 81 14484 4.1 230 08:54 17.08.2019
3524 Rain 9 1021 76 16093 4.6 240 08:25 17.08.2019
3525 Rain 10 1021 81 14484 4.1 250 07:46 17.08.2019
3526 Rain 11 1021 81 14484 4.1 250 07:21 17.08.2019
3527 Rain 11 1020 93 8047 4.6 240 06:42 17.08.2019
3528 Rain 11 1020 100 4828 5.7 230 05:31 17.08.2019
3529 Rain 12 1021 93 3219 3.6 240 04:29 17.08.2019
3530 Rain 13 1020 93 8047 4.1 230 03:19 17.08.2019
3531 Rain 13 1020 87 16093 7.7 240 01:46 17.08.2019
3532 Rain 13 1020 87 16093 7.7 240 01:27 17.08.2019
3533 Rain 12 1020 100 16093 6.2 240 00:54 17.08.2019
3534 Rain 13 1021 100 16093 7.7 240 00:28 17.08.2019
3535 Rain 13 1020 93 4828 4.1 220 23:50 16.08.2019
3536 Rain 12 1021 93 8047 7.2 240 23:27 16.08.2019
3537 Rain 12 1021 93 8047 6.2 230 22:56 16.08.2019
3538 Rain 12 1021 93 6437 5.1 240 22:37 16.08.2019
3539 Rain 12 1021 93 6437 5.1 240 22:18 16.08.2019
3540 Rain 12 1021 93 8047 5.1 240 21:40 16.08.2019
3541 Rain 12 1021 93 8047 5.1 240 21:20 16.08.2019
3542 Rain 12 1021 93 6437 6.2 240 20:56 16.08.2019
3543 Rain 12 1022 100 8047 5.7 240 20:37 16.08.2019
3544 Rain 12 1022 100 8047 5.7 240 20:18 16.08.2019
3545 Rain 11 1022 100 6437 4.1 240 19:42 16.08.2019
3546 Rain 11 1022 100 6437 4.1 240 19:22 16.08.2019
3547 Rain 11 1022 100 6437 5.1 240 18:44 16.08.2019
3548 Rain 11 1022 93 6437 4.1 220 18:26 16.08.2019
3549 Rain 11 1022 93 6437 4.1 230 17:57 16.08.2019
3550 Rain 11 1023 93 4828 3.6 230 17:39 16.08.2019
3551 Rain 11 1023 93 4828 3.6 230 17:20 16.08.2019
3552 Rain 11 1023 93 4828 3.6 230 17:20 16.08.2019
3553 Rain 11 1023 93 4828 4.6 230 16:42 16.08.2019
3554 Rain 11 1023 93 4828 4.6 230 16:22 16.08.2019
3555 Rain 11 1023 100 8047 4.6 230 15:59 16.08.2019
3556 Rain 11 1023 100 8047 4.6 230 15:40 16.08.2019
3557 Rain 11 1023 100 8047 4.6 230 15:21 16.08.2019
3558 Rain 12 1023 100 8047 5.1 220 14:58 16.08.2019
3559 Rain 11 1024 100 8047 5.1 230 14:39 16.08.2019
3560 Rain 12 1024 100 8047 5.1 230 14:19 16.08.2019
3561 Rain 12 1024 93 6437 3.1 230 13:42 16.08.2019
3562 Rain 12 1024 93 8047 4.1 230 13:23 16.08.2019
3563 Rain 12 1024 93 11265 2.6 210 12:58 16.08.2019
3564 Rain 12 1024 93 11265 2.6 210 12:37 16.08.2019
3565 Rain 12 1024 93 11265 2.6 210 12:37 16.08.2019
3566 Rain 12 1024 93 11265 2.6 210 12:19 16.08.2019
3567 Rain 12 1025 100 14484 3.1 240 11:42 16.08.2019
3568 Rain 12 1025 100 14484 3.1 240 11:24 16.08.2019
3569 Rain 12 1025 100 12874 2.6 220 10:44 16.08.2019
3570 Rain 12 1025 100 12874 2.6 220 10:26 16.08.2019
3571 Rain 12 1025 100 16093 2.6 210 09:56 16.08.2019
3572 Rain 12 1025 100 14484 3.1 210 09:37 16.08.2019
3573 Rain 12 1025 100 14484 3.1 210 09:18 16.08.2019
3574 Rain 12 1025 100 14484 3.1 210 09:18 16.08.2019
3575 Rain 12 1025 100 11265 3.1 210 08:41 16.08.2019
3576 Rain 13 1025 100 11265 3.1 210 08:21 16.08.2019
3577 Rain 13 1025 100 11265 3.1 200 07:55 16.08.2019
3578 Rain 13 1025 93 12874 3.6 210 07:33 16.08.2019
3579 Rain 13 1025 93 11265 3.6 220 06:59 16.08.2019
3580 Rain 13 1025 93 11265 2.6 210 06:31 16.08.2019
3581 Rain 13 1025 93 11265 3.1 210 05:42 16.08.2019
3582 Rain 13 1026 87 14484 3.1 210 04:31 16.08.2019
3583 Clouds 14 1026 82 14484 4.1 200 02:46 16.08.2019
3584 Clouds 14 1025 82 16093 3.6 220 01:42 16.08.2019
3585 Clouds 14 1025 82 16093 3.6 220 01:19 16.08.2019
3586 Clouds 13 1026 82 16093 4.1 220 00:41 16.08.2019
3587 Clouds 13 1026 82 16093 4.1 220 00:21 16.08.2019
3588 Clouds 13 1026 82 16093 2.6 210 23:45 15.08.2019
3589 Clouds 13 1026 82 16093 2.6 210 23:22 15.08.2019
3590 Clouds 13 1025 87 16093 3.6 260 22:58 15.08.2019
3591 Clouds 13 1025 87 16093 3.6 260 22:39 15.08.2019
3592 Clouds 13 1025 87 16093 3.6 260 22:20 15.08.2019
3593 Clouds 13 1025 87 16093 2.6 240 21:55 15.08.2019
3594 Rain 12 1025 87 16093 4.1 250 21:37 15.08.2019
3595 Rain 12 1025 87 16093 4.1 250 21:18 15.08.2019
3596 Rain 12 1025 87 14484 4.1 250 20:43 15.08.2019
3597 Rain 12 1024 87 16093 3.1 230 20:22 15.08.2019
3598 Rain 12 1024 87 14484 3.6 230 19:57 15.08.2019
3599 Clouds 12 1024 87 16093 4.1 230 19:39 15.08.2019
3600 Clouds 11 1024 81 16093 1.5 210 19:20 15.08.2019
3601 Clouds 12 1024 93 16093 3.6 230 18:47 15.08.2019
3602 Rain 11 1024 93 16093 2.6 220 18:23 15.08.2019
3603 Rain 11 1024 93 14484 3.6 220 17:58 15.08.2019
3604 Rain 11 1024 93 16093 2.1 210 17:38 15.08.2019
3605 Rain 11 1024 93 16093 2.1 210 17:19 15.08.2019
3606 Rain 11 1024 100 12874 2.1 230 16:56 15.08.2019
3607 Rain 11 1023 100 12874 3.6 220 16:38 15.08.2019
3608 Rain 11 1023 100 12874 3.6 220 16:20 15.08.2019
3609 Rain 11 1023 93 14484 3.6 220 15:38 15.08.2019
3610 Rain 11 1023 93 14484 3.6 220 15:19 15.08.2019
3611 Rain 11 1023 93 14484 4.1 230 14:55 15.08.2019
3612 Rain 11 1023 93 14484 4.1 230 14:36 15.08.2019
3613 Rain 11 1023 93 14484 4.1 230 14:18 15.08.2019
3614 Rain 11 1023 93 14484 2.1 230 13:55 15.08.2019
3615 Rain 11 1023 93 14484 2.1 230 13:36 15.08.2019
3616 Rain 11 1023 93 14484 2.1 230 13:18 15.08.2019
3617 Clouds 11 1022 93 16093 4.1 230 12:40 15.08.2019
3618 Clouds 11 1022 93 16093 4.1 230 12:20 15.08.2019
3619 Clouds 11 1022 93 16093 2.1 250 11:57 15.08.2019
3620 Rain 11 1022 87 16093 4.6 220 11:37 15.08.2019
3621 Rain 11 1022 87 16093 4.6 220 11:18 15.08.2019
3622 Clouds 11 1022 93 16093 2.1 240 10:57 15.08.2019
3623 Rain 11 1022 87 16093 2.6 240 10:36 15.08.2019
3624 Rain 11 1022 87 16093 2.6 240 10:18 15.08.2019
3625 Clouds 12 1022 93 16093 2.05 242.345 09:42 15.08.2019
3626 Rain 12 1022 87 16093 2.6 230 09:22 15.08.2019
3627 Rain 12 1022 93 16093 4.6 220 08:39 15.08.2019
3628 Rain 12 1022 93 16093 4.6 220 08:21 15.08.2019
3629 Rain 12 1021 87 16093 3.6 230 07:56 15.08.2019
3630 Rain 12 1021 82 16093 4.1 230 07:37 15.08.2019
3631 Rain 12 1021 82 16093 4.1 230 07:18 15.08.2019
3632 Rain 13 1022 82 14484 4.1 250 06:43 15.08.2019
3633 Rain 13 1021 82 11265 4.1 260 06:22 15.08.2019
3634 Rain 14 1021 72 16093 4.6 260 05:29 15.08.2019
3635 Clouds 14 1022 67 16093 4.1 250 04:56 15.08.2019
3636 Clouds 15 1022 63 16093 5.1 280 03:53 15.08.2019
3637 Clouds 15 1022 63 16093 5.1 280 03:18 15.08.2019
3638 Clouds 16 1022 63 16093 6.7 260 02:25 15.08.2019
3639 Clouds 15 1021 59 16093 6.2 260 01:39 15.08.2019
3640 Clouds 15 1021 59 16093 7.2 240 00:55 15.08.2019
3641 Clouds 15 1021 55 16093 8.2 260 00:36 15.08.2019
3642 Clouds 15 1021 55 16093 8.2 260 00:18 15.08.2019
3643 Clouds 15 1021 59 16093 8.7 280 23:54 14.08.2019
3644 Clouds 15 1021 59 16093 8.7 280 23:36 14.08.2019
3645 Clouds 15 1021 59 16093 8.7 280 23:18 14.08.2019
3646 Clouds 15 1021 67 16093 5.7 260 22:41 14.08.2019
3647 Clouds 15 1021 67 16093 5.7 260 22:22 14.08.2019
3648 Clouds 15 1021 63 16093 6.2 270 21:57 14.08.2019
3649 Clouds 15 1021 63 16093 7.2 260 21:38 14.08.2019
3650 Clouds 14 1021 63 16093 7.2 260 21:20 14.08.2019
3651 Clouds 14 1021 72 16093 5.7 250 20:56 14.08.2019
3652 Clouds 14 1021 72 16093 5.7 250 20:37 14.08.2019
3653 Clouds 14 1021 72 16093 5.7 250 20:18 14.08.2019
3654 Clouds 14 1020 76 16093 5.1 270 19:40 14.08.2019
3655 Clouds 14 1020 76 16093 5.1 270 19:22 14.08.2019
3656 Clouds 14 1020 87 16093 2.1 260 18:57 14.08.2019
3657 Clouds 14 1020 82 12874 4.6 250 18:39 14.08.2019
3658 Clouds 14 1020 82 12874 4.6 250 18:21 14.08.2019
3659 Clouds 13 1020 82 14484 4.1 240 17:59 14.08.2019
3660 Clouds 13 1020 82 14484 4.1 240 17:38 14.08.2019
3661 Clouds 13 1020 82 14484 4.1 240 17:20 14.08.2019
3662 Clouds 14 1020 87 16093 4.6 230 16:55 14.08.2019
3663 Clouds 14 1020 87 16093 4.6 230 16:37 14.08.2019
3664 Clouds 14 1020 87 16093 4.6 230 16:18 14.08.2019
3665 Mist 14 1020 87 4023 2.1 220 15:42 14.08.2019
3666 Mist 14 1020 87 4023 2.1 220 15:18 14.08.2019
3667 Clouds 13 1019 93 16093 2.1 200 14:55 14.08.2019
3668 Clouds 13 1019 93 16093 2.1 200 14:36 14.08.2019
3669 Clouds 13 1019 93 16093 2.1 200 14:18 14.08.2019
3670 Clouds 14 1018 87 16093 4.1 230 13:43 14.08.2019
3671 Clouds 14 1018 87 16093 4.1 230 13:43 14.08.2019
3672 Clouds 14 1018 87 16093 4.1 230 13:24 14.08.2019
3673 Clouds 14 1018 87 16093 4.1 230 13:24 14.08.2019
3674 Clouds 14 1018 87 16093 4.6 230 12:57 14.08.2019
3675 Clouds 15 1018 82 14484 4.6 220 12:38 14.08.2019
3676 Clouds 15 1018 82 14484 4.6 220 12:20 14.08.2019
3677 Rain 15 1017 87 16093 5.1 230 11:55 14.08.2019
3678 Rain 15 1017 87 16093 5.1 230 11:37 14.08.2019
3679 Rain 15 1017 87 16093 5.1 230 11:18 14.08.2019
3680 Clouds 15 1017 93 16093 5.1 220 10:42 14.08.2019
3681 Clouds 15 1017 93 16093 4.1 210 10:23 14.08.2019
3682 Clouds 15 1016 87 16093 4.1 220 09:55 14.08.2019
3683 Clouds 16 1016 93 11265 1.5 300 09:36 14.08.2019
3684 Clouds 16 1016 93 11265 1.5 300 09:18 14.08.2019
3685 Mist 16 1015 93 6437 3.6 240 08:36 14.08.2019
3686 Mist 16 1015 93 6437 3.6 240 08:18 14.08.2019
3687 Rain 16 1015 93 16093 5.1 240 07:45 14.08.2019
3688 Rain 16 1015 93 11265 6.2 250 07:27 14.08.2019
3689 Rain 16 1014 93 11265 6.2 280 06:45 14.08.2019
3690 Rain 17 1014 93 4828 3.1 270 05:52 14.08.2019
3691 Rain 17 1013 88 11265 6.7 280 04:54 14.08.2019
3692 Rain 17 1013 93 11265 4.1 200 03:37 14.08.2019
3693 Rain 17 1012 88 3219 3.1 0 02:32 14.08.2019
3694 Rain 17 1013 93 4828 3.1 200 01:45 14.08.2019
3695 Rain 17 1013 93 4828 3.1 230 00:59 14.08.2019
3696 Rain 16 1013 93 16093 3.6 200 23:50 13.08.2019
3697 Rain 16 1013 93 11265 3.6 220 23:25 13.08.2019
3698 Rain 16 1014 93 14484 2.6 230 22:59 13.08.2019
3699 Rain 16 1013 93 14484 3.6 220 22:39 13.08.2019
3700 Rain 16 1013 93 14484 3.6 220 22:21 13.08.2019
3701 Rain 16 1013 93 14484 3.1 270 21:58 13.08.2019
3702 Rain 16 1013 93 14484 3.1 240 21:37 13.08.2019
3703 Rain 16 1013 93 14484 3.1 240 21:19 13.08.2019
3704 Rain 16 1014 93 8047 4.1 240 20:56 13.08.2019
3705 Rain 16 1013 88 14484 4.6 240 20:36 13.08.2019
3706 Rain 16 1013 88 14484 4.6 240 20:18 13.08.2019
3707 Rain 15 1013 100 16093 6.7 220 19:42 13.08.2019
3708 Rain 16 1013 100 16093 6.7 220 19:21 13.08.2019
3709 Rain 16 1013 100 16093 6.2 230 18:56 13.08.2019
3710 Rain 15 1013 87 4828 3.6 240 18:37 13.08.2019
3711 Rain 15 1013 87 4828 3.6 240 18:18 13.08.2019
3712 Rain 15 1012 93 14484 6.7 230 17:41 13.08.2019
3713 Rain 15 1012 93 14484 6.7 230 17:21 13.08.2019
3714 Rain 15 1012 93 16093 7.2 230 16:56 13.08.2019
3715 Rain 15 1012 93 16093 8.7 230 16:38 13.08.2019
3716 Rain 15 1012 93 16093 8.7 230 16:20 13.08.2019
3717 Rain 15 1012 93 16093 8.2 220 15:40 13.08.2019
3718 Rain 15 1012 93 16093 8.2 220 15:20 13.08.2019
3719 Rain 15 1012 93 16093 5.7 230 14:59 13.08.2019
3720 Rain 15 1012 87 4828 3.1 210 14:40 13.08.2019
3721 Rain 15 1012 87 4828 3.1 210 14:19 13.08.2019
3722 Rain 15 1012 87 4828 3.1 210 14:19 13.08.2019
3723 Rain 15 1012 93 16093 4.1 240 13:42 13.08.2019
3724 Rain 15 1012 93 16093 4.1 240 13:23 13.08.2019
3725 Rain 15 1012 93 14484 3.1 220 12:59 13.08.2019
3726 Rain 15 1013 87 12874 2.1 270 12:41 13.08.2019
3727 Rain 15 1013 87 12874 2.1 270 12:22 13.08.2019
3728 Rain 15 1013 82 16093 2.6 0 11:59 13.08.2019
3729 Rain 16 1013 77 12874 2.1 300 11:38 13.08.2019
3730 Rain 16 1013 77 12874 2.1 300 11:20 13.08.2019
3731 Rain 16 1013 68 16093 3.1 310 10:56 13.08.2019
3732 Rain 17 1013 77 16093 2.6 290 10:37 13.08.2019
3733 Rain 17 1013 77 16093 2.6 290 10:19 13.08.2019
3734 Rain 17 1013 77 16093 2.04 221.697 09:43 13.08.2019
3735 Rain 17 1013 77 16093 3.11 259.695 09:23 13.08.2019
3736 Rain 17 1013 77 16093 3.11 259.695 09:23 13.08.2019
3737 Rain 18 1013 72 16093 3.11 259.695 08:44 13.08.2019
3738 Rain 18 1013 72 16093 3.11 259.695 08:23 13.08.2019
3739 Clouds 19 1014 68 16093 3.11 259.695 07:58 13.08.2019
3740 Clouds 19 1014 68 16093 3.11 259.695 07:37 13.08.2019
3741 Clouds 20 1014 49 16093 2.1 170 07:00 13.08.2019
3742 Clouds 20 1014 49 16093 2.1 170 06:40 13.08.2019
3743 Clouds 21 1015 46 14484 2.1 160 05:35 13.08.2019
3744 Clear 22 1016 35 16093 4.1 240 03:35 13.08.2019
3745 Clear 22 1017 46 16093 2.1 200 02:20 13.08.2019
3746 Clear 21 1017 49 16093 2.6 240 01:19 13.08.2019
3747 Clear 21 1018 52 16093 2.6 210 00:47 13.08.2019
3748 Clear 19 1018 59 16093 2.44 222.157 23:57 12.08.2019
3749 Clear 19 1018 59 16093 2.44 222.157 23:38 12.08.2019
3750 Clear 18 1018 59 16093 2.44 222.157 23:19 12.08.2019
3751 Clear 18 1018 59 16093 2.44 222.157 23:19 12.08.2019
3752 Clouds 18 1019 67 16093 2.44 222.157 22:40 12.08.2019
3753 Clouds 17 1019 67 16093 2.44 222.157 22:20 12.08.2019
3754 Clouds 17 1019 67 16093 2.44 222.157 22:20 12.08.2019
3755 Clear 16 1019 71 16093 2.44 222.157 21:56 12.08.2019
3756 Clear 16 1019 71 16093 2.44 222.157 21:37 12.08.2019
3757 Clear 15 1019 71 16093 1.56 178.935 21:19 12.08.2019
3758 Clear 13 1020 81 14484 2.1 70 20:57 12.08.2019
3759 Clear 13 1020 81 14484 2.1 70 20:38 12.08.2019
3760 Clear 12 1020 81 14484 2.1 70 20:20 12.08.2019
3761 Clear 11 1020 87 16093 1.5 70 19:56 12.08.2019
3762 Clear 11 1020 87 16093 1.5 70 19:37 12.08.2019
3763 Clear 11 1020 87 16093 1.5 70 19:19 12.08.2019
3764 Clear 9 1020 93 11265 2.1 60 18:55 12.08.2019
3765 Clear 9 1020 93 11265 2.1 60 18:37 12.08.2019
3766 Clear 9 1020 93 11265 2.1 60 18:37 12.08.2019
3767 Clear 9 1020 93 11265 2.1 60 18:19 12.08.2019
3768 Clear 8 1020 100 12874 2.6 60 17:46 12.08.2019
3769 Clear 8 1020 100 12874 2.6 60 17:28 12.08.2019
3770 Clear 8 1020 93 12874 2.1 80 16:57 12.08.2019
3771 Clear 8 1020 93 12874 2.1 80 16:39 12.08.2019
3772 Clear 8 1020 93 12874 2.1 80 16:39 12.08.2019
3773 Clear 8 1020 93 12874 2.1 80 16:20 12.08.2019
3774 Clear 8 1019 100 14484 2.1 60 15:59 12.08.2019
3775 Clear 8 1019 100 14484 2.1 60 15:40 12.08.2019
3776 Clear 8 1019 100 14484 2.1 60 15:21 12.08.2019
3777 -273 0 0 0 0 0 14:56 12.08.2019
3778 Clear 9 1019 93 16093 3.1 60 14:38 12.08.2019
3779 Clear 9 1019 93 16093 3.1 60 14:18 12.08.2019
3780 Clear 9 1019 93 16093 3.1 60 14:18 12.08.2019
3781 Clear 9 1019 93 16093 2.6 70 13:43 12.08.2019
3782 Clear 9 1019 93 16093 2.6 70 13:24 12.08.2019
3783 Clear 10 1019 93 16093 0.78 153.533 12:57 12.08.2019
3784 Clear 10 1019 93 16093 0.78 153.533 12:57 12.08.2019
3785 Clear 9 1019 93 16093 0.78 153.533 12:39 12.08.2019
3786 Clear 10 1019 93 16093 0.79 230.782 12:18 12.08.2019
3787 Clear 11 1018 87 16093 0.79 230.782 11:41 12.08.2019
3788 Clear 11 1018 87 16093 0.79 230.782 11:23 12.08.2019
3789 -273 0 0 0 0 0 10:42 12.08.2019
3790 Clear 12 1018 87 16093 0.79 230.782 10:23 12.08.2019
3791 Clear 12 1018 87 16093 0.79 230.782 10:23 12.08.2019
3792 Clear 12 1018 87 16093 0.79 230.782 10:23 12.08.2019
3793 Clear 13 1018 82 16093 0.79 230.782 09:56 12.08.2019
3794 Clear 13 1018 82 16093 0.79 230.782 09:38 12.08.2019
3795 Clear 13 1018 82 16093 1.91 248.885 09:19 12.08.2019
3796 Clear 14 1017 59 16093 1.91 248.885 08:57 12.08.2019
3797 Clouds 14 1017 67 16093 1.91 248.885 08:38 12.08.2019
3798 Clouds 14 1017 67 16093 1.91 248.885 08:38 12.08.2019
3799 Clouds 15 1017 67 16093 1.91 248.885 08:19 12.08.2019
3800 Clear 17 1017 45 16093 2.1 270 07:49 12.08.2019
3801 Clouds 16 1017 52 16093 2.1 250 07:27 12.08.2019
3802 Clear 18 1017 40 16093 3.1 280 06:47 12.08.2019
3803 Clear 19 1017 40 16093 4.1 250 05:38 12.08.2019
3804 Clouds 20 1018 43 16093 2.6 230 02:44 12.08.2019
3805 Clouds 20 1018 42 16093 2.1 230 01:55 12.08.2019
3806 Clouds 20 1018 42 16093 2.1 230 01:21 12.08.2019
3807 Clouds 20 1018 52 16093 2.6 220 00:58 12.08.2019
3808 Clouds 19 1018 52 16093 2.6 220 00:38 12.08.2019
3809 Clouds 19 1018 52 16093 2.6 220 00:19 12.08.2019
3810 Clear 19 1019 68 16093 3.24 262.183 23:54 11.08.2019
3811 Clear 19 1019 68 16093 3.24 262.183 23:36 11.08.2019
3812 Clear 19 1019 68 16093 3.24 262.183 23:18 11.08.2019
3813 Clear 19 1019 68 16093 3.24 262.183 23:18 11.08.2019
3814 Clear 18 1019 77 16093 1.5 200 22:40 11.08.2019
3815 Clear 17 1019 77 16093 1.5 200 22:19 11.08.2019
3816 Clear 16 1019 77 16093 3.24 262.183 21:59 11.08.2019
3817 Clear 16 1019 77 16093 3.24 262.183 21:40 11.08.2019
3818 Clear 15 1019 77 16093 1.22 207.381 21:21 11.08.2019
3819 Clouds 14 1019 87 16093 1.22 207.381 20:57 11.08.2019
3820 Clouds 14 1019 87 16093 1.22 207.381 20:57 11.08.2019
3821 Clouds 14 1019 87 16093 1.22 207.381 20:39 11.08.2019
3822 Clouds 14 1019 87 16093 1.22 207.381 20:20 11.08.2019
3823 Mist 13 1019 87 14484 1.5 70 19:43 11.08.2019
3824 Mist 12 1019 87 14484 1.5 70 19:19 11.08.2019
3825 Rain 11 1019 100 14484 1.5 60 18:42 11.08.2019
3826 Rain 11 1019 100 14484 1.5 60 18:23 11.08.2019
3827 Mist 10 1019 100 3219 1.5 40 17:59 11.08.2019
3828 Mist 10 1019 100 4023 1.5 130 17:40 11.08.2019
3829 Mist 9 1019 100 4023 1.5 130 17:20 11.08.2019
3830 Clear 9 1019 100 11265 0.17 139.289 16:56 11.08.2019
3831 Mist 9 1019 100 1207 2.1 80 16:38 11.08.2019
3832 Mist 10 1019 100 1207 2.1 80 16:19 11.08.2019
3833 Clouds 10 1019 100 16093 1.5 80 15:44 11.08.2019
3834 Clouds 10 1019 100 16093 1.5 80 15:24 11.08.2019
3835 Clouds 11 1018 93 16093 2.1 160 14:59 11.08.2019
3836 Rain 11 1019 100 16093 1.5 70 14:39 11.08.2019
3837 Rain 11 1019 100 16093 1.5 70 14:20 11.08.2019
3838 Clouds 11 1019 93 16093 1.5 80 13:44 11.08.2019
3839 Clouds 11 1019 93 16093 1.5 80 13:25 11.08.2019
3840 Clouds 11 1019 93 16093 1.5 80 13:25 11.08.2019
3841 Clouds 12 1018 100 16093 0.28 305.417 12:56 11.08.2019
3842 Clouds 12 1018 100 16093 0.28 305.417 12:36 11.08.2019
3843 Clouds 12 1018 100 16093 1.01 336.899 12:18 11.08.2019
3844 Clouds 12 1018 93 16093 1.01 336.899 11:39 11.08.2019
3845 Clouds 12 1018 93 16093 1.01 336.899 11:20 11.08.2019
3846 Clouds 13 1018 93 16093 1.5 50 10:55 11.08.2019
3847 Clouds 13 1018 93 16093 1.5 50 10:55 11.08.2019
3848 Clouds 13 1018 93 16093 1.5 50 10:37 11.08.2019
3849 Clouds 13 1018 93 16093 1.5 50 10:18 11.08.2019
3850 Clouds 13 1018 93 16093 1.5 50 10:18 11.08.2019
3851 Rain 14 1018 82 16093 1.01 336.899 09:42 11.08.2019
3852 Clouds 14 1018 93 16093 2.1 40 09:23 11.08.2019
3853 Rain 14 1018 82 16093 0.71 282.248 08:49 11.08.2019
3854 Rain 14 1018 82 14484 1.5 20 08:29 11.08.2019
3855 Clouds 15 1017 72 16093 0.71 282.248 07:57 11.08.2019
3856 Clouds 15 1017 72 16093 0.71 282.248 07:30 11.08.2019
3857 Clouds 16 1017 72 16093 0.71 282.248 06:46 11.08.2019
3858 Clouds 17 1017 72 16093 0.71 282.248 06:26 11.08.2019
3859 Clouds 17 1017 59 16093 3.6 280 04:38 11.08.2019
3860 Clouds 18 1017 52 16093 3.1 260 02:50 11.08.2019
3861 Rain 18 1017 59 16093 2.6 250 01:56 11.08.2019
3862 Rain 18 1017 59 16093 2.6 250 01:28 11.08.2019
3863 Clouds 17 1017 68 16093 3.1 290 00:54 11.08.2019
3864 Clear 17 1018 72 16093 1.53 337.146 00:34 11.08.2019
3865 Clouds 16 1018 87 12874 2.6 290 23:49 10.08.2019
3866 Clouds 16 1018 87 12874 2.6 290 23:29 10.08.2019
3867 Rain 16 1018 72 16093 2.1 240 22:48 10.08.2019
3868 Rain 15 1018 82 14484 1.14 216.153 22:27 10.08.2019
3869 Rain 15 1018 77 16093 1.14 216.153 21:59 10.08.2019
3870 Rain 15 1018 77 16093 1.14 216.153 21:40 10.08.2019
3871 Rain 15 1018 77 16093 0.94 212.167 21:21 10.08.2019
3872 Clouds 14 1018 82 16093 1.5 190 20:57 10.08.2019
3873 Clouds 14 1018 82 14484 0.94 212.167 20:39 10.08.2019
3874 Clouds 14 1018 82 14484 0.94 212.167 20:19 10.08.2019
3875 Clouds 13 1018 87 14484 2.6 70 19:43 10.08.2019
3876 Clouds 13 1018 87 14484 2.6 70 19:24 10.08.2019
3877 Clouds 13 1018 87 14484 2.6 70 19:24 10.08.2019
3878 Clouds 12 1018 93 16093 2.1 80 18:42 10.08.2019
3879 Clouds 11 1018 93 16093 2.1 80 18:24 10.08.2019
3880 Clouds 11 1018 93 16093 0.27 294.584 17:56 10.08.2019
3881 Clouds 11 1019 93 12874 0.27 294.584 17:38 10.08.2019
3882 Clouds 11 1019 93 12874 0.27 294.584 17:19 10.08.2019
3883 Clouds 10 1019 100 12874 1.5 50 16:42 10.08.2019
3884 Clouds 10 1019 100 12874 1.5 50 16:22 10.08.2019
3885 Clouds 10 1019 93 16093 0.27 294.584 15:45 10.08.2019
3886 Clouds 10 1019 93 14484 2.1 50 15:22 10.08.2019
3887 Clouds 11 1019 87 16093 0.84 283.377 14:44 10.08.2019
3888 Clouds 11 1019 87 16093 0.84 283.377 14:44 10.08.2019
3889 Clouds 11 1019 87 16093 0.84 283.377 14:21 10.08.2019
3890 Clouds 11 1019 93 16093 0.84 283.377 13:41 10.08.2019
3891 Clouds 11 1019 93 16093 0.63 321.44 13:20 10.08.2019
3892 Clouds 12 1019 87 16093 0.63 321.44 12:55 10.08.2019
3893 Clouds 12 1019 87 16093 0.63 321.44 12:37 10.08.2019
3894 Clouds 12 1019 87 16093 0.82 338.263 12:18 10.08.2019
3895 Clouds 12 1018 82 16093 1.5 160 11:41 10.08.2019
3896 Clouds 12 1018 82 16093 1.5 160 11:22 10.08.2019
3897 Clouds 13 1018 72 16093 2.1 210 10:55 10.08.2019
3898 Clouds 13 1018 72 16093 2.1 210 10:37 10.08.2019
3899 Clouds 13 1018 72 16093 2.1 210 10:19 10.08.2019
3900 Clouds 13 1018 72 16093 2.6 240 09:42 10.08.2019
3901 Clouds 14 1018 72 16093 2.6 240 09:23 10.08.2019
3902 Clouds 15 1018 67 16093 3.1 270 08:42 10.08.2019
3903 Clouds 15 1018 67 16093 3.1 270 08:22 10.08.2019
3904 Clear 16 1018 63 16093 4.1 270 07:54 10.08.2019
3905 Clear 16 1018 63 16093 4.1 270 07:29 10.08.2019
3906 Clear 16 1018 63 16093 4.1 270 07:29 10.08.2019
3907 Clear 17 1018 59 16093 5.7 250 06:49 10.08.2019
3908 Clear 17 1018 59 16093 5.7 250 06:49 10.08.2019
3909 Clear 17 1018 59 16093 5.7 250 06:29 10.08.2019
3910 Clear 18 1018 56 16093 5.7 260 05:28 10.08.2019
3911 Clear 19 1018 56 16093 6.7 220 04:53 10.08.2019
3912 Clear 19 1018 56 16093 7.2 230 03:26 10.08.2019
3913 Clouds 19 1019 59 16093 5.1 230 02:32 10.08.2019
3914 Rain 18 1019 68 16093 4.1 250 01:44 10.08.2019
3915 Rain 18 1019 63 16093 4.6 260 01:23 10.08.2019
3916 Rain 17 1019 72 16093 5.1 220 00:57 10.08.2019
3917 Rain 17 1019 72 16093 5.1 220 00:39 10.08.2019
3918 Clouds 17 1019 72 16093 5.1 220 00:18 10.08.2019
3919 Rain 16 1019 87 12874 3.1 200 23:38 09.08.2019
3920 Rain 15 1019 87 12874 3.1 200 23:20 09.08.2019
3921 Clouds 15 1020 93 16093 2.14 277.747 22:54 09.08.2019
3922 Clouds 15 1020 87 16093 2.1 220 22:36 09.08.2019
3923 Clouds 15 1020 87 16093 2.1 220 22:18 09.08.2019
3924 Clouds 14 1020 93 16093 2.1 230 21:40 09.08.2019
3925 Clouds 14 1020 93 16093 2.1 230 21:21 09.08.2019
3926 Clouds 14 1020 93 16093 1.5 230 20:57 09.08.2019
3927 Clouds 14 1020 93 14484 2.1 200 20:38 09.08.2019
3928 Clouds 14 1020 93 14484 2.1 200 20:18 09.08.2019
3929 Rain 14 1020 93 16093 1 279.898 19:43 09.08.2019
3930 Rain 13 1020 93 11265 1.5 180 19:22 09.08.2019
3931 Rain 13 1020 93 11265 1.5 180 19:22 09.08.2019
3932 Rain 13 1020 100 16093 1 279.898 18:56 09.08.2019
3933 Rain 12 1020 100 11265 1 279.898 18:38 09.08.2019
3934 Rain 12 1020 100 11265 1 279.898 18:38 09.08.2019
3935 Rain 12 1020 100 11265 1.16 277.009 18:19 09.08.2019
3936 Rain 13 1019 100 9656 1.5 140 17:42 09.08.2019
3937 Rain 13 1019 100 9656 1.5 140 17:24 09.08.2019
3938 Rain 13 1020 93 4828 1.5 90 16:54 09.08.2019
3939 Rain 13 1019 100 9656 1.16 277.009 16:36 09.08.2019
3940 Rain 13 1019 100 9656 1.16 277.009 16:18 09.08.2019
3941 Rain 13 1019 100 12874 1.16 277.009 15:41 09.08.2019
3942 Rain 13 1019 100 12874 1.35 250.828 15:21 09.08.2019
3943 Rain 13 1019 100 12874 1.35 250.828 15:21 09.08.2019
3944 Rain 13 1019 93 12874 1.35 250.828 14:57 09.08.2019
3945 Rain 13 1019 93 12874 1.35 250.828 14:38 09.08.2019
3946 Rain 13 1019 93 12874 1.35 250.828 14:20 09.08.2019
3947 Clouds 14 1019 87 16093 2.6 180 13:45 09.08.2019
3948 Clouds 14 1019 77 16093 1.5 0 13:21 09.08.2019
3949 Clouds 14 1019 77 16093 1.5 70 12:56 09.08.2019
3950 Clouds 14 1019 77 16093 1.5 70 12:37 09.08.2019
3951 Clouds 14 1019 77 16093 1.5 70 12:18 09.08.2019
3952 Clouds 14 1020 77 16093 2.1 250 11:41 09.08.2019
3953 Clouds 14 1020 77 16093 2.1 250 11:20 09.08.2019
3954 Clouds 15 1020 72 16093 1.5 270 10:42 09.08.2019
3955 Clouds 15 1020 72 16093 1.5 270 10:22 09.08.2019
3956 Clouds 15 1020 77 16093 2.1 270 09:59 09.08.2019
3957 Clouds 15 1020 77 16093 2.1 270 09:38 09.08.2019
3958 Clouds 15 1020 77 16093 2.1 270 09:19 09.08.2019
3959 Clouds 16 1020 63 16093 2.1 240 08:44 09.08.2019
3960 Clouds 16 1020 63 16093 2.1 240 08:25 09.08.2019
3961 Clouds 17 1020 52 16093 3.6 220 07:56 09.08.2019
3962 -273 0 0 0 0 0 07:56 09.08.2019
3963 Clouds 17 1020 52 16093 3.6 220 07:56 09.08.2019
3964 Clouds 18 1020 52 16093 3.6 220 07:37 09.08.2019
3965 Clouds 17 1020 59 16093 2.6 240 07:19 09.08.2019
3966 Clear 18 1020 46 14484 2.6 200 06:40 09.08.2019
3967 Clear 19 1020 46 14484 2.6 200 06:20 09.08.2019
3968 Clear 19 1021 46 16093 2.6 190 05:30 09.08.2019
3969 Clear 19 1022 52 16093 3.1 290 02:27 09.08.2019
3970 Clear 19 1023 49 16093 3.1 250 01:23 09.08.2019
3971 Clear 19 1023 63 16093 1.5 230 00:41 09.08.2019
3972 Clear 19 1023 63 16093 1.5 230 00:22 09.08.2019
3973 Clouds 18 1023 77 16093 1.66 205.732 23:56 08.08.2019
3974 Clouds 17 1023 77 16093 1.66 205.732 23:37 08.08.2019
3975 Clouds 17 1023 77 16093 1.66 205.732 23:18 08.08.2019
3976 Clouds 16 1024 82 14484 1.66 205.732 22:38 08.08.2019
3977 Clouds 16 1024 82 14484 1.66 205.732 22:19 08.08.2019
3978 Mist 15 1024 82 14484 1.66 205.732 21:59 08.08.2019
3979 Mist 14 1024 82 14484 1.66 205.732 21:41 08.08.2019
3980 Mist 13 1024 82 14484 1.14 155.361 21:22 08.08.2019
3981 Mist 13 1024 87 9656 2.1 100 20:57 08.08.2019
3982 Mist 12 1025 93 16093 1.2 159.124 20:39 08.08.2019
3983 Mist 12 1025 93 16093 1.2 159.124 20:19 08.08.2019
3984 Mist 12 1024 87 16093 1.2 159.124 19:48 08.08.2019
3985 Mist 11 1025 100 16093 1.5 70 19:28 08.08.2019
3986 Mist 11 1025 93 16093 1.2 159.124 18:57 08.08.2019
3987 Mist 10 1025 100 16093 1.5 80 18:36 08.08.2019
3988 Mist 10 1025 100 16093 1.5 80 18:18 08.08.2019
3989 Mist 10 1025 100 16093 1.5 80 18:18 08.08.2019
3990 Mist 9 1025 100 14484 2.6 60 17:42 08.08.2019
3991 Mist 9 1025 100 14484 2.6 60 17:23 08.08.2019
3992 Mist 9 1025 93 12874 2.6 90 16:56 08.08.2019
3993 Mist 9 1025 93 12874 2.6 90 16:37 08.08.2019
3994 Mist 9 1025 93 12874 2.6 90 16:37 08.08.2019
3995 Mist 9 1025 93 12874 2.6 90 16:19 08.08.2019
3996 Mist 9 1024 93 16093 0.79 103.186 15:56 08.08.2019
3997 Mist 9 1024 93 16093 0.79 103.186 15:37 08.08.2019
3998 Mist 9 1024 93 16093 1 79.095 15:19 08.08.2019
3999 Mist 10 1024 100 16093 2.6 60 14:37 08.08.2019
4000 Mist 10 1024 100 16093 2.6 60 14:18 08.08.2019
4001 Mist 10 1024 100 16093 2.6 60 14:18 08.08.2019
4002 Clear 10 1024 100 16093 1 79.095 13:42 08.08.2019
4003 Clear 10 1024 100 16093 0.96 73.358 13:23 08.08.2019
4004 Clear 11 1024 100 16093 2.1 70 12:57 08.08.2019
4005 Clear 11 1024 100 16093 2.1 70 12:38 08.08.2019
4006 Clear 11 1024 100 16093 2.1 70 12:18 08.08.2019
4007 Clear 11 1025 100 16093 1.5 80 11:42 08.08.2019
4008 Clear 11 1025 100 16093 1.5 80 11:24 08.08.2019
4009 Clear 12 1024 93 16093 0.92 33.294 10:41 08.08.2019
4010 Clear 12 1024 93 16093 0.92 33.294 10:22 08.08.2019
4011 Clear 13 1024 93 16093 0.92 33.294 09:58 08.08.2019
4012 Clear 13 1024 93 16093 0.92 33.294 09:39 08.08.2019
4013 Clear 13 1024 93 16093 0.84 338.816 09:20 08.08.2019
4014 Clear 14 1024 87 16093 0.99 356.525 08:40 08.08.2019
4015 Clear 14 1024 87 16093 0.99 356.525 08:21 08.08.2019
4016 Clouds 15 1024 82 16093 1.5 270 07:56 08.08.2019
4017 -273 0 0 0 0 0 07:56 08.08.2019
4018 Clouds 15 1024 82 16093 1.5 270 07:37 08.08.2019
4019 Clouds 16 1024 82 16093 1.5 270 07:18 08.08.2019
4020 Rain 16 1024 68 16093 2.1 230 06:41 08.08.2019
4021 Rain 16 1023 72 16093 2.61 336.998 05:57 08.08.2019
4022 Rain 16 1023 72 16093 1.5 200 05:39 08.08.2019
4023 Rain 17 1024 67 16093 2.1 220 03:59 08.08.2019
4024 Rain 17 1024 67 16093 2.1 220 03:39 08.08.2019
4025 Rain 16 1024 87 12874 3.1 322.217 01:42 08.08.2019
4026 Rain 17 1024 82 9656 2.1 150 00:57 08.08.2019
4027 Rain 16 1024 77 8047 2.03 312.783 00:21 08.08.2019
4028 Rain 17 1023 77 16093 3.1 260 23:38 07.08.2019
4029 Rain 16 1023 77 16093 3.1 260 23:18 07.08.2019
4030 Mist 16 1024 77 16093 2.1 230 22:41 07.08.2019
4031 Mist 16 1024 77 16093 2.1 230 22:21 07.08.2019
4032 Mist 15 1024 87 16093 2.03 312.783 21:58 07.08.2019
4033 Clouds 14 1024 87 16093 2.03 312.783 21:40 07.08.2019
4034 Clouds 14 1024 87 16093 1.41 308.793 21:21 07.08.2019
4035 Mist 14 1023 93 8047 1.5 190 20:59 07.08.2019
4036 Mist 14 1023 93 14484 1.4 276.75 20:41 07.08.2019
4037 Mist 13 1023 93 14484 1.4 276.75 20:20 07.08.2019
4038 Mist 13 1023 93 14484 1.4 276.75 20:20 07.08.2019
4039 Mist 13 1023 93 16093 1.4 276.75 19:55 07.08.2019
4040 Mist 13 1023 93 16093 1.4 276.75 19:36 07.08.2019
4041 Mist 13 1023 93 16093 1.4 276.75 19:18 07.08.2019
4042 Mist 13 1023 100 11265 1.4 276.75 18:40 07.08.2019
4043 Mist 13 1023 100 11265 0.96 254.656 18:20 07.08.2019
4044 Fog 13 1023 100 14484 0.96 254.656 17:56 07.08.2019
4045 Fog 13 1023 93 11265 0.96 254.656 17:38 07.08.2019
4046 Fog 13 1023 93 11265 0.96 254.656 17:19 07.08.2019
4047 Fog 12 1023 100 16093 0.96 254.656 16:56 07.08.2019
4048 Fog 12 1023 100 16093 0.96 254.656 16:56 07.08.2019
4049 Mist 12 1023 100 16093 0.96 254.656 16:37 07.08.2019
4050 Mist 12 1023 100 16093 0.96 254.656 16:19 07.08.2019
4051 Mist 12 1023 100 4023 0.96 254.656 15:42 07.08.2019
4052 Mist 13 1023 93 16093 1.5 70 15:20 07.08.2019
4053 Mist 13 1023 93 16093 1.5 70 15:20 07.08.2019
4054 Clouds 12 1023 100 16093 1.09 208.85 14:50 07.08.2019
4055 Clouds 12 1023 93 16093 1.09 208.85 14:30 07.08.2019
4056 Rain 12 1023 93 16093 1.5 180 13:59 07.08.2019
4057 Rain 12 1023 93 16093 1.09 208.85 13:39 07.08.2019
4058 Rain 12 1023 93 16093 1.16 234.071 13:19 07.08.2019
4059 Rain 12 1023 100 11265 1.16 234.071 12:57 07.08.2019
4060 Rain 12 1023 100 11265 1.16 234.071 12:38 07.08.2019
4061 Rain 13 1023 100 11265 1.31 236.747 12:19 07.08.2019
4062 Rain 13 1023 100 2012 1.5 60 11:57 07.08.2019
4063 Rain 12 1023 100 1609 1.31 236.747 11:39 07.08.2019
4064 Rain 12 1023 100 1609 1.31 236.747 11:18 07.08.2019
4065 Clouds 12 1023 100 16093 1.31 236.747 10:40 07.08.2019
4066 Clouds 12 1023 100 16093 1.31 236.747 10:20 07.08.2019
4067 Rain 13 1023 93 8047 2.1 180 09:55 07.08.2019
4068 Rain 13 1023 93 12874 1.31 236.747 09:37 07.08.2019
4069 Rain 13 1023 93 12874 0.68 240.318 09:18 07.08.2019
4070 Rain 13 1022 93 16093 0.68 240.318 08:45 07.08.2019
4071 Rain 13 1022 93 16093 1.5 0 08:24 07.08.2019
4072 Rain 14 1022 87 11265 1.5 0 07:50 07.08.2019
4073 Rain 14 1022 77 6437 2.1 350 07:29 07.08.2019
4074 Rain 16 1021 63 16093 2.1 120 06:44 07.08.2019
4075 Rain 16 1021 63 16093 2.1 120 06:21 07.08.2019
4076 Rain 17 1021 52 16093 3.1 340 05:41 07.08.2019
4077 Rain 18 1021 63 16093 2.11 263.837 04:37 07.08.2019
4078 Clouds 19 1020 56 16093 2.6 260 02:55 07.08.2019
4079 Clouds 19 1020 56 16093 2.6 260 02:36 07.08.2019
4080 Clouds 19 1020 60 16093 2.1 270 01:50 07.08.2019
4081 Clouds 19 1020 63 16093 4.6 290 00:54 07.08.2019
4082 Clouds 19 1020 63 16093 4.6 290 00:24 07.08.2019
4083 Clouds 18 1020 63 16093 2.6 290 23:57 06.08.2019
4084 Rain 18 1020 72 16093 3.1 290 23:36 06.08.2019
4085 Rain 18 1020 72 16093 3.1 290 23:18 06.08.2019
4086 Rain 17 1020 67 16093 3.6 330 22:40 06.08.2019
4087 Rain 17 1020 67 16093 3.6 330 22:21 06.08.2019
4088 Clouds 17 1020 68 16093 4.6 300 21:57 06.08.2019
4089 Clouds 16 1019 72 16093 4.1 290 21:38 06.08.2019
4090 Clouds 17 1019 72 16093 4.1 290 21:19 06.08.2019
4091 Rain 16 1019 93 14484 3.1 270 20:45 06.08.2019
4092 Rain 16 1019 82 16093 4.1 250 20:27 06.08.2019
4093 Rain 15 1019 82 12874 4.6 280 19:56 06.08.2019
4094 Rain 15 1019 82 16093 5.1 270 19:37 06.08.2019
4095 Rain 15 1019 82 16093 5.1 270 19:18 06.08.2019
4096 Clouds 14 1019 93 16093 2.1 260 18:41 06.08.2019
4097 Clouds 14 1019 93 16093 2.1 260 18:21 06.08.2019
4098 Rain 14 1018 93 16093 4.6 240 17:57 06.08.2019
4099 Rain 14 1018 100 16093 4.1 240 17:37 06.08.2019
4100 Rain 14 1018 100 16093 4.1 240 17:19 06.08.2019
4101 Rain 14 1018 100 16093 5.1 230 16:44 06.08.2019
4102 Rain 13 1018 100 16093 5.1 230 16:25 06.08.2019
4103 Rain 13 1018 100 16093 4.6 230 15:59 06.08.2019
4104 Rain 14 1018 93 16093 4.6 230 15:40 06.08.2019
4105 Rain 14 1018 93 16093 4.6 230 15:21 06.08.2019
4106 Rain 14 1017 93 16093 5.1 230 14:54 06.08.2019
4107 Rain 14 1017 93 16093 5.1 230 14:36 06.08.2019
4108 Rain 14 1017 93 16093 5.1 230 14:18 06.08.2019
4109 Rain 14 1017 93 16093 6.2 230 13:45 06.08.2019
4110 Rain 14 1017 93 16093 6.2 230 13:26 06.08.2019
4111 Rain 14 1017 93 16093 6.7 230 12:59 06.08.2019
4112 Rain 14 1017 93 16093 7.7 230 12:40 06.08.2019
4113 Rain 14 1017 93 16093 7.7 230 12:21 06.08.2019
4114 Rain 14 1017 93 16093 7.2 230 11:45 06.08.2019
4115 Rain 14 1017 93 16093 6.2 230 11:20 06.08.2019
4116 Rain 14 1017 93 16093 6.2 230 10:59 06.08.2019
4117 Rain 14 1017 100 16093 5.1 220 10:39 06.08.2019
4118 Rain 14 1017 100 16093 5.1 220 10:21 06.08.2019
4119 Rain 14 1017 100 16093 4.1 230 09:43 06.08.2019
4120 Rain 14 1017 100 16093 4.1 230 09:22 06.08.2019
4121 Rain 14 1017 100 14484 5.1 230 08:51 06.08.2019
4122 Rain 14 1017 100 16093 5.1 220 08:30 06.08.2019
4123 Rain 15 1017 100 16093 4.1 220 07:59 06.08.2019
4124 Rain 14 1018 93 16093 4.1 210 07:31 06.08.2019
4125 Rain 15 1017 87 8047 3.1 210 06:45 06.08.2019
4126 Rain 15 1018 100 11265 3.6 210 06:24 06.08.2019
4127 Rain 15 1018 100 14484 3.1 200 05:46 06.08.2019
4128 Rain 16 1019 87 12874 3.1 160 02:51 06.08.2019
4129 Clouds 17 1020 72 16093 3.1 150 01:26 06.08.2019
4130 Clouds 17 1020 67 16093 3.1 150 00:55 06.08.2019
4131 Clouds 17 1020 67 16093 3.1 150 00:23 06.08.2019
4132 Clouds 16 1021 72 16093 0.58 127.832 23:21 05.08.2019
4133 Clouds 16 1021 77 16093 1.5 120 22:58 05.08.2019
4134 Clouds 16 1021 77 16093 1.5 120 22:39 05.08.2019
4135 Clouds 15 1021 77 16093 1.5 120 22:20 05.08.2019
4136 Rain 15 1021 77 14484 0.58 127.832 21:42 05.08.2019
4137 Clouds 14 1021 82 14484 0.6 132.087 21:21 05.08.2019
4138 Clouds 14 1021 87 16093 0.6 85.799 20:58 05.08.2019
4139 Mist 14 1021 87 16093 1.5 50 20:39 05.08.2019
4140 Mist 13 1021 87 16093 1.5 50 20:21 05.08.2019
4141 Mist 13 1022 87 14484 0.6 85.799 19:57 05.08.2019
4142 Mist 13 1021 93 16093 0.6 85.799 19:38 05.08.2019
4143 Mist 13 1021 93 16093 0.6 85.799 19:19 05.08.2019
4144 Clouds 12 1022 93 16093 0.6 85.799 18:41 05.08.2019
4145 Clouds 12 1022 93 16093 0.68 113.055 18:20 05.08.2019
4146 Clouds 11 1021 93 16093 0.68 113.055 17:48 05.08.2019
4147 Clouds 11 1022 100 16093 0.68 113.055 17:29 05.08.2019
4148 Clouds 11 1022 100 12874 0.68 113.055 16:59 05.08.2019
4149 Clouds 11 1022 100 12874 0.68 113.055 16:59 05.08.2019
4150 Clouds 11 1022 100 16093 0.68 113.055 16:41 05.08.2019
4151 Clouds 11 1022 100 16093 0.68 113.055 16:22 05.08.2019
4152 -273 0 0 0 0 0 15:41 05.08.2019
4153 Rain 11 1022 100 11265 1.5 90 15:20 05.08.2019
4154 Clouds 11 1022 100 16093 1.5 90 14:42 05.08.2019
4155 Clouds 11 1022 100 16093 1.5 90 14:22 05.08.2019
4156 Clouds 11 1022 93 16093 0.75 106.269 13:49 05.08.2019
4157 Clouds 11 1022 100 16093 1 107.364 13:24 05.08.2019
4158 Clouds 11 1022 100 16093 1 107.364 12:56 05.08.2019
4159 Clouds 11 1022 100 16093 1 107.364 12:37 05.08.2019
4160 Clouds 11 1022 100 16093 0.96 90.24 12:18 05.08.2019
4161 Clouds 11 1022 93 16093 0.96 90.24 11:42 05.08.2019
4162 Clouds 11 1022 93 16093 0.96 90.24 11:24 05.08.2019
4163 Clouds 11 1022 100 16093 0.96 90.24 10:46 05.08.2019
4164 Clouds 11 1022 100 16093 0.96 90.24 10:28 05.08.2019
4165 Clear 12 1022 87 16093 1.5 170 09:55 05.08.2019
4166 Clear 12 1022 87 16093 1.5 170 09:36 05.08.2019
4167 Clouds 12 1022 87 16093 2.1 160 09:18 05.08.2019
4168 Clouds 13 1022 82 16093 2.1 210 08:43 05.08.2019
4169 Clouds 13 1022 82 16093 2.1 210 08:23 05.08.2019
4170 Clouds 14 1022 77 16093 3.6 230 07:47 05.08.2019
4171 Clouds 14 1022 77 16093 3.6 230 07:27 05.08.2019
4172 Rain 15 1022 77 16093 3.1 200 06:51 05.08.2019
4173 Rain 15 1022 67 16093 2.6 0 05:53 05.08.2019
4174 Rain 16 1022 63 16093 4.1 210 05:23 05.08.2019
4175 Rain 16 1022 63 16093 5.1 190 04:35 05.08.2019
4176 Rain 16 1022 59 16093 3.1 220 03:47 05.08.2019
4177 Clear 16 1022 63 16093 3.1 210 02:37 05.08.2019
4178 Clouds 16 1022 72 16093 3.6 220 01:40 05.08.2019
4179 Clouds 16 1022 72 16093 3.6 220 01:40 05.08.2019
4180 Clouds 16 1022 72 16093 3.6 220 01:40 05.08.2019
4181 Rain 14 1022 87 8047 1.95 208.51 00:56 05.08.2019
4182 Rain 14 1022 76 16093 4.1 220 00:37 05.08.2019
4183 Rain 14 1022 76 16093 4.1 220 00:18 05.08.2019
4184 Rain 13 1022 87 16093 4.1 220 23:41 04.08.2019
4185 Rain 13 1022 87 16093 4.1 220 23:21 04.08.2019
4186 Rain 12 1022 93 14484 4.1 210 22:57 04.08.2019
4187 Rain 12 1021 93 12874 3.6 200 22:37 04.08.2019
4188 Rain 12 1021 93 12874 3.6 200 22:19 04.08.2019
4189 Rain 12 1021 82 12874 3.1 220 21:45 04.08.2019
4190 Rain 12 1021 82 14484 4.1 240 21:24 04.08.2019
4191 Rain 12 1021 81 12874 4.6 260 20:57 04.08.2019
4192 Rain 12 1021 87 11265 3.1 250 20:38 04.08.2019
4193 Rain 12 1021 87 11265 3.1 250 20:18 04.08.2019
4194 Rain 12 1021 82 11265 3.1 250 19:48 04.08.2019
4195 Rain 12 1021 82 11265 2.6 230 19:26 04.08.2019
4196 Rain 11 1020 71 16093 2.1 210 18:44 04.08.2019
4197 Rain 11 1020 71 16093 2.1 210 18:44 04.08.2019
4198 Rain 12 1021 71 11265 3.6 210 18:22 04.08.2019
4199 Rain 12 1021 71 11265 3.6 210 18:22 04.08.2019
4200 Clouds 12 1020 76 14484 3.6 230 17:59 04.08.2019
4201 Clouds 12 1020 76 14484 3.6 230 17:40 04.08.2019
4202 Clouds 12 1020 71 16093 2.1 0 17:21 04.08.2019
4203 Clear 12 1020 93 16093 1.59 216.733 16:44 04.08.2019
4204 Clear 12 1020 93 16093 1.59 216.733 16:26 04.08.2019
4205 Clouds 12 1020 87 16093 1.59 216.733 15:55 04.08.2019
4206 Clouds 12 1020 87 16093 3.1 230 15:37 04.08.2019
4207 Clouds 12 1020 87 16093 3.1 230 15:18 04.08.2019
4208 Clouds 12 1020 82 16093 2.6 270 14:42 04.08.2019
4209 Clouds 13 1020 67 16093 3.1 240 14:20 04.08.2019
4210 Clouds 13 1020 87 16093 4.1 190 13:43 04.08.2019
4211 Clouds 13 1020 87 16093 4.1 190 13:23 04.08.2019
4212 Clouds 13 1019 67 16093 2.1 210 12:47 04.08.2019
4213 Clouds 13 1019 67 16093 2.1 210 12:29 04.08.2019
4214 Clear 14 1019 72 16093 3.6 260 11:58 04.08.2019
4215 Clear 14 1019 72 16093 3.6 260 11:39 04.08.2019
4216 Clear 14 1019 72 16093 3.6 260 11:21 04.08.2019
4217 Rain 15 1018 82 16093 4.6 230 10:43 04.08.2019
4218 Rain 15 1018 82 16093 4.6 230 10:21 04.08.2019
4219 Rain 16 1017 77 16093 5.7 230 09:46 04.08.2019
4220 Rain 15 1017 77 16093 5.7 230 09:25 04.08.2019
4221 Rain 16 1016 77 16093 3.1 0 08:57 04.08.2019
4222 Rain 16 1016 77 16093 3.1 0 08:32 04.08.2019
4223 Rain 18 1015 68 16093 8.7 230 07:54 04.08.2019
4224 Rain 18 1015 68 16093 8.7 230 07:22 04.08.2019
4225 Rain 18 1015 72 14484 9.3 240 06:28 04.08.2019
4226 Rain 18 1015 77 16093 7.7 220 05:57 04.08.2019
4227 Rain 17 1015 88 12874 5.1 210 03:34 04.08.2019
4228 Rain 16 1015 93 16093 4.1 210 01:52 04.08.2019
4229 Rain 16 1015 93 16093 3.6 210 01:28 04.08.2019
4230 Rain 16 1015 93 9656 4.6 200 00:41 04.08.2019
4231 Rain 16 1015 93 9656 4.6 200 00:23 04.08.2019
4232 Rain 16 1015 93 4023 4.1 210 23:42 03.08.2019
4233 Rain 16 1015 93 8047 4.1 220 23:19 03.08.2019
4234 Rain 16 1015 88 4828 4.6 220 22:57 03.08.2019
4235 Rain 16 1015 88 3621 3.1 220 22:38 03.08.2019
4236 Rain 16 1015 88 3621 3.1 220 22:19 03.08.2019
4237 Rain 15 1015 100 4828 1.5 80 21:39 03.08.2019
4238 Rain 15 1015 100 4828 1.5 80 21:20 03.08.2019
4239 Rain 15 1015 93 3621 2.7 195.572 20:45 03.08.2019
4240 Rain 15 1014 93 4828 1.5 100 20:24 03.08.2019
4241 Rain 15 1015 100 1609 2.7 195.572 19:43 03.08.2019
4242 Rain 15 1015 93 1408 2.1 40 19:25 03.08.2019
4243 Rain 15 1014 93 2816 2.6 60 18:57 03.08.2019
4244 Rain 14 1014 93 8047 2.6 70 18:39 03.08.2019
4245 Rain 14 1014 93 8047 2.6 70 18:20 03.08.2019
4246 Rain 14 1014 93 14484 1.5 20 17:42 03.08.2019
4247 Rain 14 1014 93 14484 1.5 20 17:18 03.08.2019
4248 Rain 14 1014 93 14484 1.77 153.594 16:38 03.08.2019
4249 Rain 14 1014 93 14484 1.77 153.594 16:19 03.08.2019
4250 Rain 14 1014 93 14484 1.77 153.594 15:45 03.08.2019
4251 Rain 14 1014 93 16093 2.36 178.909 15:25 03.08.2019
4252 Rain 14 1014 93 16093 2.36 178.909 14:46 03.08.2019
4253 Rain 15 1014 93 16093 2.36 178.909 14:23 03.08.2019
4254 Clouds 15 1014 100 16093 2.1 50 13:57 03.08.2019
4255 Clouds 15 1014 100 16093 2.1 50 13:36 03.08.2019
4256 Clouds 15 1014 100 16093 2.1 50 13:18 03.08.2019
4257 Rain 15 1014 93 16093 1.5 140 12:41 03.08.2019
4258 Rain 15 1014 93 16093 1.5 140 12:23 03.08.2019
4259 Clouds 15 1014 93 16093 4.1 170 11:52 03.08.2019
4260 Clouds 15 1014 93 16093 1.5 170 11:33 03.08.2019
4261 Clouds 15 1014 93 16093 3.6 170 10:46 03.08.2019
4262 Rain 15 1014 100 16093 1.5 60 10:24 03.08.2019
4263 Rain 16 1014 93 16093 2.1 170 09:45 03.08.2019
4264 Rain 15 1014 100 16093 1.5 110 09:24 03.08.2019
4265 Rain 15 1014 93 6437 3.72 206.234 08:56 03.08.2019
4266 Rain 15 1014 93 3621 3.72 206.234 08:24 03.08.2019
4267 Rain 15 1014 93 6437 3.72 206.234 07:38 03.08.2019
4268 Rain 15 1014 93 9656 3.72 206.234 06:47 03.08.2019
4269 Rain 15 1013 93 11265 2.1 160 05:47 03.08.2019
4270 Rain 14 1013 100 6437 4.1 160 02:43 03.08.2019
4271 Rain 14 1014 100 4426 5.1 160 01:54 03.08.2019
4272 Rain 13 1014 100 3219 5.1 140 00:56 03.08.2019
4273 Rain 13 1014 93 1810 3.1 100 00:29 03.08.2019
4274 Rain 12 1015 100 2213 2.6 80 23:41 02.08.2019
4275 Rain 12 1015 100 2213 2.6 80 23:20 02.08.2019
4276 Rain 12 1014 93 3219 1.5 110 22:57 02.08.2019
4277 Rain 11 1015 93 2414 2.1 80 22:39 02.08.2019
4278 Rain 11 1015 93 2414 2.1 80 22:20 02.08.2019
4279 Rain 11 1015 100 1609 4.1 80 21:55 02.08.2019
4280 Rain 11 1016 93 1810 4.6 70 21:36 02.08.2019
4281 Rain 10 1016 93 1810 4.6 70 21:18 02.08.2019
4282 Rain 10 1016 93 6437 1.5 70 20:41 02.08.2019
4283 Rain 10 1016 93 6437 1.5 70 20:21 02.08.2019
4284 Rain 11 1016 93 4426 1.5 80 19:49 02.08.2019
4285 Rain 11 1016 87 4023 2.1 40 19:29 02.08.2019
4286 Rain 10 1017 87 11265 1.5 60 18:45 02.08.2019
4287 Rain 11 1017 87 11265 1.5 60 18:27 02.08.2019
4288 Clouds 10 1017 87 16093 2.1 120 17:48 02.08.2019
4289 Clouds 10 1017 87 14484 3.6 60 17:26 02.08.2019
4290 Clouds 10 1017 93 16093 2.6 160 16:59 02.08.2019
4291 Rain 10 1018 87 12874 2.6 70 16:39 02.08.2019
4292 Rain 10 1018 87 12874 2.6 70 16:20 02.08.2019
4293 Rain 10 1018 87 11265 2.6 70 15:45 02.08.2019
4294 Rain 10 1018 87 14484 2.6 70 15:20 02.08.2019
4295 -273 0 0 0 0 0 14:47 02.08.2019
4296 Clouds 10 1018 81 16093 1.5 70 14:19 02.08.2019
4297 Clouds 11 1018 71 11265 0.93 216.956 13:50 02.08.2019
4298 Clouds 11 1018 71 11265 1.42 213.556 13:29 02.08.2019
4299 Clouds 11 1018 81 16093 1.5 180 12:47 02.08.2019
4300 Clouds 11 1018 76 16093 1.35 259.206 12:25 02.08.2019
4301 Clouds 11 1017 62 16093 2.1 240 11:59 02.08.2019
4302 Clouds 11 1017 62 16093 2.1 240 11:40 02.08.2019
4303 Clouds 11 1017 62 16093 2.1 240 11:22 02.08.2019
4304 Clouds 12 1017 71 16093 1.5 290 10:44 02.08.2019
4305 Clouds 12 1017 71 16093 1.5 290 10:24 02.08.2019
4306 Clouds 13 1016 54 16093 3.1 280 09:53 02.08.2019
4307 Clouds 13 1016 54 16093 3.1 280 09:29 02.08.2019
4308 Clouds 14 1016 51 16093 4.1 290 08:54 02.08.2019
4309 Clouds 14 1016 51 16093 4.1 290 08:25 02.08.2019
4310 Clouds 15 1015 67 16093 2.1 250 07:54 02.08.2019
4311 Clouds 15 1015 48 16093 2.6 280 07:35 02.08.2019
4312 Clouds 16 1015 45 16093 3.6 300 06:58 02.08.2019
4313 Clouds 16 1015 45 16093 3.6 300 06:27 02.08.2019
4314 Clear 17 1015 42 16093 4.6 260 05:41 02.08.2019
4315 Clouds 18 1014 45 14484 7.2 280 03:32 02.08.2019
4316 Clouds 17 1014 48 14484 6.2 270 02:37 02.08.2019
4317 Clear 16 1014 67 12874 5.1 230 01:34 02.08.2019
4318 Clouds 15 1014 87 12874 4.1 220 00:31 02.08.2019
4319 Rain 14 1014 82 12874 3.6 210 23:44 01.08.2019
4320 Rain 14 1014 82 12874 3.6 210 23:24 01.08.2019
4321 Rain 14 1014 93 4828 3.6 250 22:42 01.08.2019
4322 Rain 13 1013 87 6437 4.6 230 22:22 01.08.2019
4323 Rain 13 1013 93 9656 4.6 230 21:55 01.08.2019
4324 Rain 13 1013 93 11265 4.6 220 21:37 01.08.2019
4325 Rain 13 1013 93 11265 4.6 220 21:19 01.08.2019
4326 Rain 13 1012 93 4828 2.6 210 20:44 01.08.2019
4327 Rain 13 1013 100 4023 3.1 250 20:23 01.08.2019
4328 Rain 12 1012 100 4023 3.6 230 19:45 01.08.2019
4329 Rain 12 1012 93 4828 2.6 230 19:24 01.08.2019
4330 Rain 12 1012 93 4828 5.7 220 18:59 01.08.2019
4331 Rain 12 1012 93 3219 2.6 220 18:40 01.08.2019
4332 Rain 12 1012 93 3219 2.6 220 18:22 01.08.2019
4333 Rain 12 1012 100 6437 2.1 220 17:46 01.08.2019
4334 Rain 12 1011 93 3219 3.6 180 17:27 01.08.2019
4335 Rain 12 1012 87 9656 2.6 200 16:45 01.08.2019
4336 Rain 12 1012 87 8047 4.1 220 16:22 01.08.2019
4337 Rain 12 1011 87 14484 2.6 200 15:46 01.08.2019
4338 Rain 13 1011 87 12874 3.6 200 15:21 01.08.2019
4339 Rain 13 1011 93 11265 3.1 200 14:58 01.08.2019
4340 Rain 13 1011 93 11265 4.1 180 14:40 01.08.2019
4341 Rain 13 1011 93 11265 4.1 180 14:18 01.08.2019
4342 Rain 13 1011 93 12874 2.6 200 13:41 01.08.2019
4343 Rain 13 1011 93 12874 2.6 200 13:41 01.08.2019
4344 Rain 13 1011 93 12874 2.6 200 13:22 01.08.2019
4345 Rain 13 1011 93 16093 1.5 150 12:59 01.08.2019
4346 Rain 13 1011 93 16093 1.5 150 12:59 01.08.2019
4347 Rain 13 1011 93 12874 2.6 170 12:41 01.08.2019
4348 Rain 13 1011 93 12874 2.6 170 12:21 01.08.2019
4349 Rain 14 1011 87 9656 2.1 230 11:42 01.08.2019
4350 Rain 13 1011 87 9656 2.1 230 11:22 01.08.2019
4351 Rain 13 1011 87 9656 2.1 230 11:22 01.08.2019
4352 Rain 14 1011 82 16093 1.09 171.981 10:46 01.08.2019
4353 Rain 14 1010 87 11265 2.6 250 10:28 01.08.2019
4354 Rain 14 1010 87 12874 2.1 270 09:59 01.08.2019
4355 Rain 14 1009 82 9656 3.1 290 09:39 01.08.2019
4356 Rain 15 1009 82 9656 3.1 290 09:21 01.08.2019
4357 Rain 16 1009 67 14484 7.2 280 08:42 01.08.2019
4358 Rain 16 1009 67 14484 7.2 280 08:19 01.08.2019
4359 Rain 19 1008 52 12874 8.2 290 07:47 01.08.2019
4360 Rain 19 1008 40 14484 10.8 270 07:24 01.08.2019
4361 Clouds 22 1007 38 16093 4.6 220 06:47 01.08.2019
4362 Clouds 22 1007 33 16093 4.1 190 05:48 01.08.2019
4363 Clouds 23 1007 38 16093 2.7 225.495 04:18 01.08.2019
4364 Clouds 23 1008 36 16093 2.38 201.43 02:32 01.08.2019
4365 Clear 23 1010 43 16093 2.1 90 00:42 01.08.2019
4366 Clear 22 1010 43 16093 2.1 90 00:24 01.08.2019
4367 Clear 22 1011 52 16093 2.37 175.785 23:42 31.07.2019
4368 Clear 21 1011 52 16093 2.37 175.785 23:20 31.07.2019
4369 Clouds 20 1011 56 16093 2.37 175.785 22:47 31.07.2019
4370 Clouds 20 1011 56 16093 2.37 175.785 22:29 31.07.2019
4371 Clouds 19 1011 63 16093 1.5 130 21:45 31.07.2019
4372 Clouds 18 1011 63 16093 1.5 130 21:25 31.07.2019
4373 Clouds 17 1012 67 16093 2.1 70 20:58 31.07.2019
4374 Clouds 17 1012 67 16093 2.1 70 20:58 31.07.2019
4375 Clouds 16 1012 67 16093 2.1 70 20:39 31.07.2019
4376 Clouds 16 1012 67 16093 2.1 70 20:21 31.07.2019
4377 Clouds 14 1012 82 16093 2.1 90 19:41 31.07.2019
4378 Clouds 13 1012 82 16093 2.1 90 19:23 31.07.2019
4379 Clouds 13 1013 93 14484 1.38 144.981 18:53 31.07.2019
4380 Clouds 12 1013 93 14484 0.97 119.862 18:25 31.07.2019
4381 Clouds 12 1013 87 14484 1.5 50 17:57 31.07.2019
4382 Clouds 11 1013 87 14484 1.5 50 17:39 31.07.2019
4383 Clouds 11 1013 87 14484 1.5 50 17:19 31.07.2019
4384 Clear 11 1013 93 12874 2.1 80 16:43 31.07.2019
4385 Clear 10 1013 93 12874 2.1 80 16:20 31.07.2019
4386 Clear 10 1013 93 16093 1.5 80 15:44 31.07.2019
4387 Clear 10 1013 93 16093 1.5 80 15:24 31.07.2019
4388 Clear 11 1013 93 16093 2.6 70 14:43 31.07.2019
4389 Clear 11 1013 93 16093 2.6 70 14:22 31.07.2019
4390 Clear 11 1013 93 16093 1.07 126.827 13:58 31.07.2019
4391 Clear 11 1013 93 16093 1.07 126.827 13:38 31.07.2019
4392 Clear 11 1013 93 16093 1.03 131.338 13:20 31.07.2019
4393 Clear 11 1013 87 16093 2.6 90 12:45 31.07.2019
4394 Clear 12 1013 87 16093 2.6 90 12:27 31.07.2019
4395 Clear 12 1013 87 16093 1.5 80 11:59 31.07.2019
4396 Clear 12 1013 87 16093 1.5 80 11:38 31.07.2019
4397 Clear 12 1013 87 16093 1.5 80 11:19 31.07.2019
4398 Clear 13 1013 87 14484 1.5 50 10:41 31.07.2019
4399 Clear 13 1013 87 14484 1.5 50 10:20 31.07.2019
4400 Clear 14 1013 77 14484 0.67 219.695 09:44 31.07.2019
4401 Clear 15 1013 77 14484 1.24 286.447 09:24 31.07.2019
4402 Clouds 15 1012 68 16093 1.24 286.447 08:57 31.07.2019
4403 Clouds 16 1013 59 14484 1.5 170 08:39 31.07.2019
4404 Clouds 16 1012 68 16093 1.36 271.818 08:20 31.07.2019
4405 Clouds 17 1012 68 16093 1.36 271.818 07:35 31.07.2019
4406 Clouds 19 1013 43 16093 2.1 250 06:32 31.07.2019
4407 Clouds 20 1013 43 16093 2.1 240 04:52 31.07.2019
4408 Smoke 19 1014 59 12874 3.1 20 01:48 31.07.2019
4409 Clouds 18 1015 68 14484 2.1 140 23:58 30.07.2019
4410 Clouds 18 1015 68 14484 2.1 140 23:39 30.07.2019
4411 Clouds 18 1015 68 14484 2.1 140 23:19 30.07.2019
4412 Clouds 16 1015 77 16093 1.86 267.037 22:45 30.07.2019
4413 Clouds 16 1015 77 16093 1.86 267.037 22:25 30.07.2019
4414 Clouds 15 1015 82 14484 1.86 267.037 21:54 30.07.2019
4415 Clouds 15 1015 87 16093 1.86 267.037 21:36 30.07.2019
4416 Clouds 15 1015 87 16093 1.7 194.855 21:18 30.07.2019
4417 Clouds 14 1016 93 16093 1.5 80 20:41 30.07.2019
4418 Clouds 13 1016 93 16093 1.5 80 20:23 30.07.2019
4419 Clouds 13 1016 93 16093 3.6 120 19:58 30.07.2019
4420 Rain 12 1016 93 12874 2.6 70 19:38 30.07.2019
4421 Rain 11 1016 100 12874 3.1 70 18:56 30.07.2019
4422 Rain 11 1016 100 12874 3.1 70 18:38 30.07.2019
4423 Rain 11 1016 100 12874 3.1 70 18:18 30.07.2019
4424 Rain 11 1015 100 12874 1.5 30 17:41 30.07.2019
4425 Rain 11 1015 100 12874 1.5 30 17:19 30.07.2019
4426 Rain 11 1015 93 6437 2.6 60 16:51 30.07.2019
4427 Rain 11 1015 93 12874 0.87 164.809 16:21 30.07.2019
4428 Rain 11 1015 100 12874 0.87 164.809 15:58 30.07.2019
4429 Clouds 11 1015 100 14484 2.6 60 15:37 30.07.2019
4430 Clouds 10 1015 100 14484 2.6 60 15:18 30.07.2019
4431 Clouds 11 1015 100 16093 2.6 80 14:42 30.07.2019
4432 Clouds 11 1015 100 16093 2.6 80 14:20 30.07.2019
4433 Clouds 11 1015 100 14484 1.5 90 13:47 30.07.2019
4434 Clouds 11 1015 100 14484 1.5 90 13:29 30.07.2019
4435 Clouds 12 1015 100 16093 1.5 80 12:58 30.07.2019
4436 Clouds 12 1015 100 16093 1.5 80 12:39 30.07.2019
4437 Clouds 12 1015 100 16093 1.5 80 12:21 30.07.2019
4438 Clear 12 1014 93 16093 1.5 70 11:40 30.07.2019
4439 Clear 12 1014 93 16093 1.5 70 11:20 30.07.2019
4440 Clear 13 1014 93 16093 1.15 257.905 10:46 30.07.2019
4441 Clear 13 1014 93 16093 1.15 257.905 10:27 30.07.2019
4442 Clouds 14 1014 82 16093 2.1 80 09:50 30.07.2019
4443 Clouds 14 1014 82 16093 2.1 80 09:31 30.07.2019
4444 Clouds 15 1014 77 16093 2.18 255.109 08:58 30.07.2019
4445 Clouds 15 1014 77 16093 1.5 110 08:31 30.07.2019
4446 Rain 17 1013 63 16093 2.6 170 07:48 30.07.2019
4447 Rain 17 1013 63 16093 2.6 170 07:29 30.07.2019
4448 Clouds 17 1013 56 16093 2.1 110 06:48 30.07.2019
4449 Clouds 19 1013 56 16093 2.1 110 06:22 30.07.2019
4450 Rain 18 1014 52 14484 3.57 273.602 05:33 30.07.2019
4451 Thunderstorm 19 1013 52 16093 2.1 250 03:28 30.07.2019
4452 Clouds 19 1014 60 16093 3.1 240 01:21 30.07.2019
4453 Clouds 18 1014 72 16093 3.1 210 00:22 30.07.2019
4454 Clouds 17 1014 77 16093 1.62 272.556 23:47 29.07.2019
4455 Clouds 17 1014 77 16093 1.62 272.556 23:27 29.07.2019
4456 Clouds 16 1014 82 16093 3.1 210 22:58 29.07.2019
4457 Clouds 16 1014 82 16093 3.1 210 22:39 29.07.2019
4458 Clouds 16 1014 82 16093 3.1 210 22:20 29.07.2019
4459 Rain 16 1014 82 16093 1.5 220 21:59 29.07.2019
4460 Rain 15 1014 82 16093 1.62 272.556 21:40 29.07.2019
4461 Rain 15 1014 82 16093 0.53 245.872 21:22 29.07.2019
4462 Rain 14 1014 87 16093 1.5 0 20:55 29.07.2019
4463 Clouds 14 1014 93 16093 0.53 245.872 20:36 29.07.2019
4464 Clouds 14 1014 93 16093 0.53 245.872 20:18 29.07.2019
4465 Clouds 14 1014 93 16093 0.53 245.872 19:41 29.07.2019
4466 Clouds 14 1014 93 16093 0.53 245.872 19:21 29.07.2019
4467 Clouds 13 1014 87 16093 0.53 245.872 18:43 29.07.2019
4468 Clouds 13 1014 87 16093 0.7 292.909 18:23 29.07.2019
4469 Clouds 13 1013 93 16093 0.7 292.909 17:56 29.07.2019
4470 Clouds 13 1013 93 16093 2.1 180 17:37 29.07.2019
4471 Clouds 13 1013 93 16093 2.1 180 17:19 29.07.2019
4472 Clouds 13 1013 93 16093 0.7 292.909 16:42 29.07.2019
4473 Clouds 12 1013 93 16093 0.7 292.909 16:23 29.07.2019
4474 Clouds 12 1013 93 16093 0.7 292.909 15:53 29.07.2019
4475 Clouds 12 1013 93 16093 2.1 160 15:34 29.07.2019
4476 Clouds 13 1013 93 16093 2.1 270 14:56 29.07.2019
4477 Clouds 13 1013 93 16093 2.1 270 14:56 29.07.2019
4478 Clouds 13 1013 93 16093 2.1 270 14:37 29.07.2019
4479 Clouds 12 1013 93 16093 2.1 270 14:19 29.07.2019
4480 Clouds 13 1012 93 16093 1.03 286.609 13:42 29.07.2019
4481 Clouds 13 1012 93 16093 1.08 272.129 13:23 29.07.2019
4482 Clouds 13 1012 93 16093 1.08 272.129 12:42 29.07.2019
4483 Clouds 13 1012 93 16093 1.05 298.584 12:24 29.07.2019
4484 Clouds 13 1012 93 16093 3.1 230 11:44 29.07.2019
4485 Clouds 13 1012 93 16093 3.1 230 11:23 29.07.2019
4486 Rain 13 1012 93 16093 2.1 220 10:57 29.07.2019
4487 Rain 13 1012 93 16093 2.1 220 10:56 29.07.2019
4488 Rain 13 1012 93 16093 2.1 230 10:38 29.07.2019
4489 Rain 13 1011 93 16093 1.5 210 10:19 29.07.2019
4490 Rain 14 1011 87 16093 1.5 260 09:38 29.07.2019
4491 Rain 14 1011 87 16093 1.5 260 09:19 29.07.2019
4492 Rain 14 1011 87 16093 2.1 260 08:36 29.07.2019
4493 Rain 15 1011 87 16093 2.1 260 08:18 29.07.2019
4494 Rain 15 1011 87 16093 2.6 260 07:41 29.07.2019
4495 Rain 15 1011 87 16093 2.6 260 07:20 29.07.2019
4496 Rain 16 1010 82 16093 3.1 260 05:47 29.07.2019
4497 Rain 17 1010 72 16093 3.1 240 04:54 29.07.2019
4498 Clouds 16 1010 72 11265 1.5 330 02:27 29.07.2019
4499 Rain 16 1010 82 11265 2.22 318.671 01:45 29.07.2019
4500 Haze 16 1010 82 9656 2.6 240 01:23 29.07.2019
4501 Rain 16 1010 77 12874 3.6 300 00:43 29.07.2019
4502 Rain 16 1010 77 12874 3.6 300 00:20 29.07.2019
4503 Rain 16 1010 63 16093 4.1 250 23:41 28.07.2019
4504 Rain 17 1010 63 16093 4.1 250 23:19 28.07.2019
4505 Rain 17 1010 63 16093 4.1 250 23:19 28.07.2019
4506 Clouds 17 1010 72 16093 1.5 280 22:41 28.07.2019
4507 Clouds 17 1010 72 16093 1.5 280 22:22 28.07.2019
4508 Rain 17 1010 82 14484 1.5 250 21:49 28.07.2019
4509 Rain 16 1010 77 14484 1.5 260 21:19 28.07.2019
4510 Rain 15 1010 87 16093 0.81 254.95 20:48 28.07.2019
4511 Rain 15 1010 87 12874 3.1 220 20:29 28.07.2019
4512 Clouds 14 1010 87 14484 2.6 220 19:56 28.07.2019
4513 Clouds 14 1010 93 14484 1.5 250 19:38 28.07.2019
4514 Clouds 14 1010 93 14484 1.5 250 19:19 28.07.2019
4515 Clouds 13 1009 93 12874 0.81 254.95 18:43 28.07.2019
4516 Clouds 13 1009 93 12874 0.83 272.681 18:24 28.07.2019
4517 Clouds 12 1009 100 12874 0.83 272.681 17:43 28.07.2019
4518 Clouds 12 1009 100 12874 0.83 272.681 17:22 28.07.2019
4519 Clouds 12 1009 100 14484 0.83 272.681 16:58 28.07.2019
4520 Clouds 12 1009 100 14484 0.83 272.681 16:39 28.07.2019
4521 Clouds 12 1009 100 14484 0.83 272.681 16:21 28.07.2019
4522 Clouds 12 1009 100 16093 0.83 272.681 15:43 28.07.2019
4523 Clouds 12 1009 100 16093 0.86 320.28 15:21 28.07.2019
4524 Clouds 12 1008 100 16093 0.86 320.28 14:38 28.07.2019
4525 Clouds 12 1008 100 16093 0.86 320.28 14:19 28.07.2019
4526 Mist 12 1008 93 6437 2.1 160 13:55 28.07.2019
4527 Clouds 12 1008 93 16093 0.86 320.28 13:36 28.07.2019
4528 Clouds 12 1008 93 16093 0.46 259.38 13:18 28.07.2019
4529 Clouds 13 1008 100 16093 0.46 259.38 12:40 28.07.2019
4530 Clouds 13 1008 100 16093 0.94 337.689 12:22 28.07.2019
4531 Clouds 13 1008 93 16093 0.94 337.689 11:48 28.07.2019
4532 Clouds 13 1008 93 16093 0.94 337.689 11:27 28.07.2019
4533 Clouds 13 1008 93 14484 0.94 337.689 10:42 28.07.2019
4534 Clouds 13 1008 93 14484 0.94 337.689 10:22 28.07.2019
4535 Clouds 14 1007 77 16093 2.6 50 09:54 28.07.2019
4536 Clouds 14 1007 77 16093 2.6 50 09:36 28.07.2019
4537 Clouds 14 1007 77 16093 2.6 50 09:18 28.07.2019
4538 Clouds 15 1007 77 16093 2.1 330 08:41 28.07.2019
4539 Clouds 15 1007 77 16093 2.1 330 08:18 28.07.2019
4540 Clouds 16 1007 72 16093 2.1 290 07:39 28.07.2019
4541 Clouds 17 1007 59 16093 2.1 330 06:46 28.07.2019
4542 Clouds 17 1007 59 16093 0.46 339.341 05:59 28.07.2019
4543 Rain 17 1007 77 6437 2.6 40 04:37 28.07.2019
4544 Clouds 19 1007 49 16093 1.5 250 02:24 28.07.2019
4545 Clouds 19 1007 49 16093 0.81 321.507 01:21 28.07.2019
4546 Clouds 18 1007 55 16093 1.5 0 00:47 28.07.2019
4547 Clouds 18 1007 55 16093 1.5 0 00:22 28.07.2019
4548 Rain 18 1008 59 16093 2.1 340 23:46 27.07.2019
4549 Rain 18 1008 59 16093 2.1 340 23:22 27.07.2019
4550 Rain 17 1008 67 16093 0.42 229.488 22:42 27.07.2019
4551 Rain 17 1008 67 16093 0.42 229.488 22:23 27.07.2019
4552 Rain 16 1008 77 16093 1.5 300 21:43 27.07.2019
4553 Rain 15 1008 77 16093 1.5 300 21:22 27.07.2019
4554 Mist 15 1008 87 16093 0.69 189.641 20:53 27.07.2019
4555 Mist 14 1008 87 16093 0.69 189.641 20:26 27.07.2019
4556 Mist 14 1008 93 14484 0.69 189.641 19:58 27.07.2019
4557 Clouds 13 1008 93 14484 1.5 80 19:38 27.07.2019
4558 Clouds 13 1008 93 14484 1.5 80 19:19 27.07.2019
4559 Clouds 13 1008 100 11265 1.5 60 18:46 27.07.2019
4560 Mist 13 1007 93 9656 0.69 189.641 18:27 27.07.2019
4561 Mist 13 1007 93 8047 1.5 20 17:49 27.07.2019
4562 Fog 13 1008 100 11265 2.1 70 17:31 27.07.2019
4563 Mist 12 1007 93 12874 0.76 65.587 16:53 27.07.2019
4564 Mist 12 1007 100 8047 0.76 65.587 16:34 27.07.2019
4565 Mist 12 1007 93 2414 0.76 65.587 15:56 27.07.2019
4566 Fog 12 1007 93 402 1.5 50 15:28 27.07.2019
4567 Fog 12 1007 93 16093 1.5 10 14:59 27.07.2019
4568 Mist 12 1007 93 1207 1.5 60 14:41 27.07.2019
4569 Mist 12 1007 93 1207 1.5 60 14:21 27.07.2019
4570 Mist 12 1007 93 1609 1.5 60 13:46 27.07.2019
4571 Mist 12 1007 100 12874 1.5 90 13:22 27.07.2019
4572 Mist 12 1007 100 8047 2.1 170 12:49 27.07.2019
4573 Mist 12 1007 100 14484 0.55 280.944 12:26 27.07.2019
4574 Mist 12 1007 93 4828 0.55 280.944 11:46 27.07.2019
4575 Mist 13 1007 100 8047 0.55 280.944 11:25 27.07.2019
4576 Mist 13 1007 93 16093 0.55 280.944 10:57 27.07.2019
4577 Mist 13 1007 93 14484 0.55 280.944 10:39 27.07.2019
4578 Mist 13 1007 93 14484 0.55 280.944 10:19 27.07.2019
4579 Rain 13 1006 100 16093 0.55 280.944 09:40 27.07.2019
4580 Rain 13 1006 100 16093 0.5 206.769 09:22 27.07.2019
4581 Rain 13 1006 93 6437 0.84 247.359 08:47 27.07.2019
4582 Rain 14 1006 93 16093 0.84 247.359 08:27 27.07.2019
4583 Clouds 14 1006 82 16093 0.84 247.359 07:47 27.07.2019
4584 Clouds 14 1006 82 16093 0.84 247.359 07:27 27.07.2019
4585 Clouds 15 1006 82 16093 0.84 247.359 06:55 27.07.2019
4586 Clouds 15 1006 82 16093 0.84 247.359 06:29 27.07.2019
4587 Clouds 15 1005 87 16093 1.5 70 05:49 27.07.2019
4588 Rain 15 1005 87 14484 0.88 165.077 04:59 27.07.2019
4589 Rain 15 1005 87 14484 0.88 165.077 04:25 27.07.2019
4590 Rain 15 1005 82 11265 0.69 136.58 02:44 27.07.2019
4591 Rain 14 1005 87 12874 2.6 170 02:26 27.07.2019
4592 Rain 15 1005 82 14484 1.5 220 01:44 27.07.2019
4593 Rain 14 1005 87 14484 2.6 190 00:58 27.07.2019
4594 Rain 14 1005 87 8047 3.1 190 00:32 27.07.2019
4595 Rain 14 1004 82 9656 2.1 210 23:53 26.07.2019
4596 Rain 14 1005 87 8047 2.6 160 23:32 26.07.2019
4597 Rain 14 1004 87 8047 2.6 190 22:56 26.07.2019
4598 Rain 14 1004 87 8047 2.6 190 22:38 26.07.2019
4599 Rain 14 1004 87 8047 2.6 190 22:20 26.07.2019
4600 Mist 14 1004 100 6437 3.6 180 21:44 26.07.2019
4601 Mist 14 1004 100 6437 3.6 180 21:44 26.07.2019
4602 Rain 15 1004 100 6437 3.6 180 21:18 26.07.2019
4603 Rain 15 1004 93 6437 1.73 186.998 20:42 26.07.2019
4604 Rain 15 1004 93 6437 1.73 186.998 20:22 26.07.2019
4605 Rain 14 1004 93 4828 1.5 170 19:43 26.07.2019
4606 Rain 14 1004 93 6437 1.5 190 19:24 26.07.2019
4607 Rain 14 1004 100 1609 2.6 150 18:56 26.07.2019
4608 Rain 14 1004 100 4023 1.73 186.998 18:36 26.07.2019
4609 Rain 14 1004 100 4023 1.1 190.444 18:18 26.07.2019
4610 Rain 14 1004 100 2414 1.1 190.444 17:42 26.07.2019
4611 Rain 15 1004 93 1609 1.5 50 17:19 26.07.2019
4612 Rain 14 1004 93 1609 1.5 60 16:56 26.07.2019
4613 Rain 14 1004 93 1609 1.5 60 16:56 26.07.2019
4614 Rain 14 1004 100 4828 1.1 190.444 16:37 26.07.2019
4615 Rain 14 1004 100 4828 1.1 190.444 16:19 26.07.2019
4616 Rain 15 1004 93 14484 2.1 70 15:45 26.07.2019
4617 Rain 14 1004 100 16093 2.1 50 15:26 26.07.2019
4618 Rain 14 1004 93 4426 2.6 120 14:58 26.07.2019
4619 Rain 15 1004 100 12874 2.1 70 14:40 26.07.2019
4620 Rain 15 1004 100 12874 2.1 70 14:21 26.07.2019
4621 Rain 15 1004 100 11265 1.5 60 13:40 26.07.2019
4622 Rain 15 1004 100 11265 1.5 60 13:22 26.07.2019
4623 Rain 15 1005 87 14484 2.1 80 12:47 26.07.2019
4624 Rain 16 1005 87 14484 2.1 80 12:20 26.07.2019
4625 Smoke 16 1005 77 16093 3.1 80 11:40 26.07.2019
4626 Smoke 16 1005 77 16093 3.1 80 11:20 26.07.2019
4627 Smoke 17 1004 77 16093 2.6 60 10:55 26.07.2019
4628 Smoke 17 1004 77 16093 2.6 60 10:37 26.07.2019
4629 Smoke 17 1004 82 8047 2.1 140 09:55 26.07.2019
4630 Smoke 17 1004 68 16093 1.14 103.266 09:37 26.07.2019
4631 Smoke 18 1004 60 14484 0.4 216.048 08:44 26.07.2019
4632 Smoke 18 1004 60 14484 0.4 216.048 08:23 26.07.2019
4633 Smoke 19 1005 56 16093 1.5 160 07:59 26.07.2019
4634 Smoke 19 1005 56 16093 1.5 160 07:29 26.07.2019
4635 Smoke 20 1005 68 16093 0.4 216.048 06:53 26.07.2019
4636 Clouds 21 1006 53 12874 2.1 230 05:23 26.07.2019
4637 Clouds 21 1007 52 14484 0.91 267.867 04:28 26.07.2019
4638 Clouds 20 1007 52 14484 1.81 261.271 03:18 26.07.2019
4639 Clouds 19 1009 63 12874 2.1 230 01:43 26.07.2019
4640 Clouds 19 1009 63 12874 3.1 290 00:47 26.07.2019
4641 Clouds 18 1009 63 12874 4.1 280 23:59 25.07.2019
4642 Clouds 18 1009 63 12874 4.1 280 23:25 25.07.2019
4643 Clouds 18 1010 68 12874 3.1 270 22:58 25.07.2019
4644 Clouds 18 1010 68 12874 3.1 270 22:39 25.07.2019
4645 Clouds 18 1010 68 12874 3.1 270 22:20 25.07.2019
4646 Clouds 17 1010 68 12874 4.1 250 21:45 25.07.2019
4647 Clouds 17 1010 72 12874 3.1 260 21:22 25.07.2019
4648 Clouds 17 1011 72 14484 2.6 260 20:48 25.07.2019
4649 Clouds 16 1011 72 14484 2.6 260 20:29 25.07.2019
4650 Clouds 16 1011 72 14484 4.1 240 19:54 25.07.2019
4651 Clouds 16 1011 72 14484 4.1 240 19:36 25.07.2019
4652 Clouds 16 1011 72 14484 4.1 240 19:18 25.07.2019
4653 Clouds 16 1011 72 14484 5.1 240 18:39 25.07.2019
4654 Clouds 16 1011 72 14484 5.1 240 18:20 25.07.2019
4655 Clouds 16 1011 72 12874 3.6 250 17:44 25.07.2019
4656 Clouds 16 1011 72 12874 2.1 260 17:24 25.07.2019
4657 Clouds 15 1011 77 14484 4.6 250 16:45 25.07.2019
4658 Clouds 15 1011 77 14484 4.6 250 16:26 25.07.2019
4659 Clouds 15 1011 72 16093 5.7 290 15:56 25.07.2019
4660 Clouds 15 1011 72 16093 5.7 290 15:36 25.07.2019
4661 Clouds 16 1011 72 16093 5.7 290 15:18 25.07.2019
4662 Clouds 16 1010 72 16093 5.1 250 14:41 25.07.2019
4663 Clouds 16 1010 72 16093 5.1 250 14:22 25.07.2019
4664 Clouds 16 1009 72 16093 6.2 230 13:43 25.07.2019
4665 Clouds 16 1009 72 16093 6.2 230 13:25 25.07.2019
4666 Thunderstorm 17 1009 63 16093 5.1 230 12:39 25.07.2019
4667 Thunderstorm 17 1009 63 16093 5.1 230 12:21 25.07.2019
4668 Clouds 17 1009 52 16093 2.6 270 11:42 25.07.2019
4669 Clouds 18 1009 52 16093 5.7 240 11:23 25.07.2019
4670 Clouds 19 1008 52 16093 2.02 235.657 10:45 25.07.2019
4671 Clouds 19 1008 60 16093 5.7 230 10:26 25.07.2019
4672 Clouds 21 1008 49 16093 4.1 230 09:52 25.07.2019
4673 Clouds 21 1008 49 16093 4.1 230 09:34 25.07.2019
4674 Clouds 21 1007 43 16093 5.1 250 08:53 25.07.2019
4675 Clouds 21 1007 43 16093 5.1 250 08:33 25.07.2019
4676 Clouds 22 1007 47 16093 5.1 240 07:42 25.07.2019
4677 Clouds 22 1006 49 16093 6.2 240 07:24 25.07.2019
4678 Clear 23 1006 36 16093 5.7 230 06:40 25.07.2019
4679 Clear 24 1006 36 16093 5.7 220 05:37 25.07.2019
4680 Smoke 25 1006 44 16093 4.6 260 04:55 25.07.2019
4681 Smoke 25 1006 41 16093 5.1 220 03:32 25.07.2019
4682 Smoke 26 1007 41 16093 3.1 210 01:27 25.07.2019
4683 Smoke 26 1007 41 16093 1.32 241.487 00:37 25.07.2019
4684 Smoke 26 1007 41 16093 1.89 164.591 00:18 25.07.2019
4685 Smoke 25 1007 41 16093 2.6 210 23:43 24.07.2019
4686 Smoke 25 1007 41 16093 2.6 210 23:24 24.07.2019
4687 Smoke 24 1007 50 16093 1.5 150 22:45 24.07.2019
4688 Smoke 24 1007 50 16093 1.5 150 22:23 24.07.2019
4689 Smoke 23 1007 56 11265 1.5 0 21:56 24.07.2019
4690 Smoke 23 1007 56 11265 1.5 0 21:38 24.07.2019
4691 Smoke 23 1007 56 11265 1.5 0 21:19 24.07.2019
4692 Smoke 22 1007 60 11265 1.43 161.881 20:47 24.07.2019
4693 Smoke 21 1007 60 11265 1.43 161.881 20:29 24.07.2019
4694 Smoke 20 1008 68 9656 1.5 70 19:59 24.07.2019
4695 Smoke 20 1008 68 9656 1.5 70 19:59 24.07.2019
4696 Smoke 20 1008 68 9656 1.5 70 19:59 24.07.2019
4697 Smoke 20 1008 68 9656 1.5 70 19:40 24.07.2019
4698 Smoke 19 1008 68 9656 1.5 70 19:20 24.07.2019
4699 Smoke 19 1008 72 11265 1.43 161.881 18:43 24.07.2019
4700 Smoke 18 1008 72 11265 1.2 146.336 18:24 24.07.2019
4701 Smoke 18 1008 72 11265 1.2 146.336 18:24 24.07.2019
4702 Smoke 17 1008 72 11265 1.2 146.336 17:48 24.07.2019
4703 Smoke 17 1008 72 11265 1.2 146.336 17:23 24.07.2019
4704 Smoke 17 1008 77 12874 1.2 146.336 16:59 24.07.2019
4705 Smoke 17 1008 77 12874 1.2 146.336 16:39 24.07.2019
4706 Smoke 17 1008 77 12874 1.2 146.336 16:20 24.07.2019
4707 Smoke 17 1008 72 14484 1.5 80 15:38 24.07.2019
4708 Smoke 18 1008 72 14484 1.5 80 15:19 24.07.2019
4709 Smoke 18 1008 72 16093 1.46 64.225 14:46 24.07.2019
4710 Smoke 18 1008 72 16093 1.46 64.225 14:21 24.07.2019
4711 Smoke 18 1008 72 16093 1.46 64.225 13:40 24.07.2019
4712 Smoke 18 1008 72 16093 1.23 65.023 13:22 24.07.2019
4713 Smoke 19 1008 68 16093 2.6 90 12:53 24.07.2019
4714 Smoke 19 1008 68 16093 2.6 90 12:35 24.07.2019
4715 Clouds 19 1008 64 16093 2.1 60 11:55 24.07.2019
4716 Clouds 19 1008 64 16093 2.1 60 11:37 24.07.2019
4717 Clouds 19 1008 64 16093 2.1 60 11:18 24.07.2019
4718 Smoke 21 1008 53 12874 4.6 110 10:41 24.07.2019
4719 Smoke 21 1008 53 12874 4.6 110 10:23 24.07.2019
4720 Rain 21 1008 46 16093 4.1 110 09:44 24.07.2019
4721 Rain 22 1007 77 8047 3.1 60 09:22 24.07.2019
4722 Rain 23 1006 44 4828 5.7 100 08:44 24.07.2019
4723 Rain 23 1007 64 6437 6.2 60 08:26 24.07.2019
4724 Smoke 26 1006 42 2816 4.1 340 07:46 24.07.2019
4725 Smoke 26 1006 42 3219 3.6 350 07:20 24.07.2019
4726 Smoke 27 1006 30 16093 3.1 330 06:28 24.07.2019
4727 Smoke 28 1007 30 16093 2.1 320 05:24 24.07.2019
4728 Smoke 28 1009 32 11265 0.84 80.996 01:55 24.07.2019
4729 Smoke 28 1010 37 11265 2.1 210 00:58 24.07.2019
4730 Smoke 28 1010 37 11265 2.1 210 00:39 24.07.2019
4731 Smoke 27 1011 41 11265 0.71 307.292 23:57 23.07.2019
4732 Smoke 27 1011 41 11265 0.71 307.292 23:37 23.07.2019
4733 Smoke 26 1011 41 11265 0.71 307.292 23:18 23.07.2019
4734 Smoke 25 1012 47 11265 0.71 307.292 22:38 23.07.2019
4735 Smoke 24 1012 47 11265 0.71 307.292 22:19 23.07.2019
4736 Smoke 23 1012 56 9656 0.71 307.292 21:45 23.07.2019
4737 Smoke 23 1012 56 9656 0.71 307.292 21:27 23.07.2019
4738 Smoke 21 1013 60 11265 0.54 280.894 20:49 23.07.2019
4739 Smoke 20 1013 60 11265 0.54 280.894 20:30 23.07.2019
4740 Smoke 19 1013 68 14484 1.5 80 19:44 23.07.2019
4741 Smoke 19 1013 68 14484 1.5 80 19:24 23.07.2019
4742 Smoke 17 1013 72 14484 2.1 70 18:59 23.07.2019
4743 Smoke 17 1013 72 14484 2.1 70 18:40 23.07.2019
4744 Smoke 17 1013 72 14484 2.1 70 18:40 23.07.2019
4745 Smoke 17 1013 72 14484 2.1 70 18:20 23.07.2019
4746 Smoke 16 1013 77 16093 0.66 3.889 17:43 23.07.2019
4747 Smoke 15 1013 77 16093 0.66 3.889 17:22 23.07.2019
4748 Smoke 15 1013 87 16093 0.66 3.889 16:48 23.07.2019
4749 Smoke 14 1013 87 16093 0.66 3.889 16:27 23.07.2019
4750 Clear 15 1014 82 14484 0.66 3.889 15:57 23.07.2019
4751 Clear 15 1014 82 14484 0.66 3.889 15:38 23.07.2019
4752 Clear 14 1014 82 14484 1.4 358.325 15:20 23.07.2019
4753 Clear 14 1013 82 16093 1.4 358.325 14:37 23.07.2019
4754 Clear 14 1013 82 16093 1.4 358.325 14:18 23.07.2019
4755 Clear 15 1014 82 16093 1.4 358.325 13:56 23.07.2019
4756 Clear 15 1014 82 16093 1.4 358.325 13:37 23.07.2019
4757 Clear 15 1014 82 16093 1.25 357.711 13:19 23.07.2019
4758 Clear 15 1014 87 16093 1.25 357.711 12:42 23.07.2019
4759 Clear 16 1014 87 16093 1.25 349.679 12:24 23.07.2019
4760 Clear 17 1014 77 16093 1.25 349.679 11:42 23.07.2019
4761 Clear 17 1014 77 16093 1.25 349.679 11:23 23.07.2019
4762 Clear 17 1014 72 16093 1.25 349.679 10:51 23.07.2019
4763 Clear 17 1014 72 16093 1.25 349.679 10:26 23.07.2019
4764 Clear 19 1014 60 14484 1.25 349.679 09:44 23.07.2019
4765 Clear 20 1014 60 14484 0.61 327.529 09:22 23.07.2019
4766 Clear 21 1014 50 16093 0.92 304.089 08:57 23.07.2019
4767 Clear 21 1014 50 16093 0.92 304.089 08:38 23.07.2019
4768 Clear 22 1014 50 16093 0.92 304.089 08:18 23.07.2019
4769 Clear 23 1014 36 16093 1.5 180 07:50 23.07.2019
4770 Clear 23 1014 36 16093 1.5 180 07:32 23.07.2019
4771 Clear 25 1014 34 16093 1.5 200 06:37 23.07.2019
4772 Clear 26 1015 34 16093 2.1 150 04:51 23.07.2019
4773 Clear 26 1017 38 16093 0.38 133.297 01:57 23.07.2019
4774 Clear 26 1017 38 16093 0.28 307.482 01:20 23.07.2019
4775 Clear 25 1018 41 16093 0.28 307.482 00:27 23.07.2019
4776 Clear 25 1018 44 16093 0.73 243.049 23:41 22.07.2019
4777 Clear 24 1018 44 16093 0.73 243.049 23:21 22.07.2019
4778 Clear 24 1019 49 16093 0.73 243.049 22:48 22.07.2019
4779 Clear 23 1019 49 16093 0.73 243.049 22:30 22.07.2019
4780 Clear 22 1019 56 14484 1.5 130 21:59 22.07.2019
4781 Clear 22 1019 56 14484 1.5 130 21:41 22.07.2019
4782 Clear 21 1019 56 14484 1.5 130 21:20 22.07.2019
4783 Clear 20 1019 56 14484 0.88 202.43 20:47 22.07.2019
4784 Clear 20 1019 56 14484 0.88 202.43 20:29 22.07.2019
4785 Clear 20 1019 56 14484 0.88 202.43 20:29 22.07.2019
4786 Clear 18 1020 63 14484 2.1 90 19:44 22.07.2019
4787 Clear 18 1020 63 14484 2.1 90 19:26 22.07.2019
4788 Clear 17 1020 72 11265 2.6 80 18:58 22.07.2019
4789 Clear 16 1020 72 11265 2.6 80 18:39 22.07.2019
4790 Clear 16 1020 72 11265 2.6 80 18:21 22.07.2019
4791 Clear 14 1020 82 11265 2.6 70 17:41 22.07.2019
4792 Clear 13 1020 82 11265 2.6 70 17:23 22.07.2019
4793 Clear 13 1020 87 11265 2.1 50 16:41 22.07.2019
4794 Clear 12 1020 87 11265 2.1 50 16:21 22.07.2019
4795 Clear 12 1020 87 12874 2.1 90 15:58 22.07.2019
4796 Clear 12 1020 87 12874 2.1 90 15:37 22.07.2019
4797 Clear 12 1020 87 12874 2.1 90 15:18 22.07.2019
4798 Clear 12 1020 87 14484 2.6 90 14:43 22.07.2019
4799 Clear 13 1020 87 14484 2.6 90 14:20 22.07.2019
4800 Clear 13 1019 82 14484 2.1 60 13:46 22.07.2019
4801 Clear 13 1019 82 14484 2.1 60 13:28 22.07.2019
4802 Clear 13 1019 87 14484 0.47 32.341 12:46 22.07.2019
4803 Clear 14 1019 87 14484 0.47 32.341 12:27 22.07.2019
4804 Clear 15 1019 82 16093 0.45 325.923 11:45 22.07.2019
4805 Clear 15 1019 82 16093 0.45 325.923 11:25 22.07.2019
4806 Clear 16 1019 72 16093 0.45 325.923 10:53 22.07.2019
4807 Clear 16 1019 72 16093 0.45 325.923 10:30 22.07.2019
4808 Clear 18 1018 60 16093 1.5 130 09:45 22.07.2019
4809 Clear 18 1018 60 16093 1.5 130 09:25 22.07.2019
4810 Clear 20 1018 41 16093 1.5 20 08:47 22.07.2019
4811 Clear 20 1018 41 16093 1.5 20 08:26 22.07.2019
4812 Clear 22 1018 38 16093 3.1 230 07:59 22.07.2019
4813 Clear 22 1018 38 16093 3.1 230 07:40 22.07.2019
4814 Clear 22 1018 38 16093 3.1 230 07:21 22.07.2019
4815 Clear 23 1018 38 16093 4.6 210 03:58 22.07.2019
4816 Clouds 23 1019 43 16093 4.1 220 02:43 22.07.2019
4817 Clouds 22 1020 46 16093 3.1 200 00:57 22.07.2019
4818 Clouds 22 1020 46 16093 3.1 200 00:29 22.07.2019
4819 Clouds 22 1020 52 14484 2.6 230 23:57 21.07.2019
4820 Clouds 21 1020 52 14484 2.6 230 23:36 21.07.2019
4821 Clouds 21 1020 52 16093 3.6 210 22:55 21.07.2019
4822 Clouds 20 1020 52 16093 3.6 210 22:36 21.07.2019
4823 Clouds 20 1020 52 16093 3.6 210 22:18 21.07.2019
4824 Clouds 19 1020 68 16093 2.55 237.506 21:44 21.07.2019
4825 Clouds 18 1020 68 16093 2.09 227.625 21:24 21.07.2019
4826 Smoke 18 1020 72 16093 1.5 140 20:55 21.07.2019
4827 Smoke 17 1020 72 16093 1.5 140 20:37 21.07.2019
4828 Smoke 17 1020 72 16093 1.5 140 20:19 21.07.2019
4829 Smoke 16 1020 72 16093 2.39 230.866 19:47 21.07.2019
4830 Smoke 16 1020 72 16093 2.39 230.866 19:24 21.07.2019
4831 Clouds 16 1020 72 16093 1.5 240 18:48 21.07.2019
4832 Clouds 15 1020 72 16093 1.5 240 18:26 21.07.2019
4833 Clouds 14 1020 77 16093 1.5 260 17:44 21.07.2019
4834 Clouds 14 1020 77 16093 1.5 260 17:20 21.07.2019
4835 Clouds 14 1020 77 16093 1.5 200 16:58 21.07.2019
4836 Clouds 14 1020 77 16093 1.5 200 16:39 21.07.2019
4837 Clouds 14 1020 82 16093 1.35 187.95 16:20 21.07.2019
4838 Clouds 14 1020 77 16093 2.1 200 15:37 21.07.2019
4839 Clouds 14 1020 77 16093 2.1 200 15:19 21.07.2019
4840 Clouds 14 1020 77 16093 1.5 190 14:42 21.07.2019
4841 Clouds 14 1020 77 16093 1.5 190 14:22 21.07.2019
4842 Clouds 14 1020 82 16093 1.22 182.715 13:52 21.07.2019
4843 Clouds 14 1019 72 16093 3.1 220 13:32 21.07.2019
4844 Clouds 15 1019 72 16093 3.1 200 12:45 21.07.2019
4845 Clouds 15 1019 72 16093 3.1 200 12:26 21.07.2019
4846 Clouds 15 1020 82 16093 2.6 160 11:52 21.07.2019
4847 Clouds 15 1019 72 16093 1.5 210 11:31 21.07.2019
4848 Clouds 15 1019 77 16093 0.83 267.72 10:58 21.07.2019
4849 Clouds 15 1018 63 16093 3.6 230 10:40 21.07.2019
4850 Clouds 15 1018 63 16093 3.6 230 10:22 21.07.2019
4851 Clouds 16 1018 59 16093 3.6 210 09:38 21.07.2019
4852 Clouds 16 1019 67 16093 2.08 252.6 09:20 21.07.2019
4853 Clouds 16 1018 59 16093 2.1 240 08:45 21.07.2019
4854 Clouds 16 1018 59 16093 2.1 240 08:25 21.07.2019
4855 Clouds 17 1017 55 14484 5.1 250 07:38 21.07.2019
4856 Clouds 18 1017 55 12874 7.7 260 06:50 21.07.2019
4857 Clouds 18 1017 49 12874 7.7 270 05:41 21.07.2019
4858 Clouds 20 1016 52 14484 6.7 240 02:43 21.07.2019
4859 Smoke 20 1016 52 16093 5.7 230 00:58 21.07.2019
4860 Smoke 20 1016 52 16093 5.7 230 00:39 21.07.2019
4861 Smoke 20 1016 52 16093 5.7 230 00:18 21.07.2019
4862 Smoke 19 1016 63 14484 4.1 190 23:39 20.07.2019
4863 Smoke 18 1016 63 14484 4.1 190 23:19 20.07.2019
4864 Smoke 17 1017 72 14484 2.1 110 22:43 20.07.2019
4865 Smoke 17 1017 72 14484 2.1 110 22:21 20.07.2019
4866 Smoke 16 1017 77 16093 5.33 244.71 21:45 20.07.2019
4867 Smoke 16 1017 77 16093 2.84 225.186 21:26 20.07.2019
4868 Smoke 16 1017 77 14484 1.5 120 20:56 20.07.2019
4869 Smoke 15 1017 77 14484 1.5 120 20:38 20.07.2019
4870 Smoke 15 1017 77 14484 1.5 120 20:38 20.07.2019
4871 Smoke 15 1017 77 14484 1.5 120 20:18 20.07.2019
4872 Clouds 15 1017 82 14484 1.5 110 19:42 20.07.2019
4873 Clouds 14 1017 82 14484 1.5 110 19:19 20.07.2019
4874 Clouds 13 1017 87 12874 2.1 80 18:40 20.07.2019
4875 Clouds 13 1017 87 12874 2.1 80 18:20 20.07.2019
4876 Clouds 12 1017 87 16093 2.6 70 17:48 20.07.2019
4877 Clouds 12 1017 87 16093 2.6 70 17:20 20.07.2019
4878 Clouds 12 1017 93 16093 2.1 80 16:44 20.07.2019
4879 Clouds 12 1017 93 16093 2.1 80 16:25 20.07.2019
4880 Clouds 11 1017 87 14484 3.1 60 15:57 20.07.2019
4881 Clouds 11 1017 87 14484 3.1 60 15:38 20.07.2019
4882 Clouds 11 1017 87 14484 3.1 60 15:19 20.07.2019
4883 Clear 11 1017 93 12874 1.5 50 14:43 20.07.2019
4884 Clear 11 1017 93 12874 1.5 50 14:21 20.07.2019
4885 Rain 11 1017 93 16093 2.1 110 13:38 20.07.2019
4886 Rain 12 1017 93 16093 2.1 110 13:20 20.07.2019
4887 Clear 13 1016 87 16093 1.09 189.117 12:52 20.07.2019
4888 Clear 13 1016 87 16093 1.17 212.903 12:21 20.07.2019
4889 Clear 13 1016 82 16093 1.17 212.903 11:56 20.07.2019
4890 Clear 13 1016 82 16093 1.17 212.903 11:24 20.07.2019
4891 Clear 15 1016 68 16093 3.6 210 10:55 20.07.2019
4892 Clear 15 1016 68 16093 3.6 210 10:36 20.07.2019
4893 Clouds 15 1015 72 16093 1.5 210 10:18 20.07.2019
4894 Clouds 17 1015 59 16093 2.6 220 09:43 20.07.2019
4895 Clouds 16 1015 68 16093 1.5 180 09:18 20.07.2019
4896 Clouds 17 1015 55 16093 3.1 250 08:39 20.07.2019
4897 Clouds 18 1015 55 16093 3.1 250 08:19 20.07.2019
4898 Clouds 18 1015 59 16093 3.1 240 07:20 20.07.2019
4899 Clouds 19 1015 52 16093 4.1 220 06:41 20.07.2019
4900 Clouds 19 1014 52 16093 2.1 0 04:31 20.07.2019
4901 Clouds 20 1015 46 16093 4.1 220 03:28 20.07.2019
4902 Clouds 19 1014 55 16093 2.1 0 01:21 20.07.2019
4903 Clouds 19 1015 45 14484 4.1 280 00:46 20.07.2019
4904 Clouds 19 1015 45 14484 4.1 280 00:21 20.07.2019
4905 Clouds 19 1015 52 16093 3.6 180 23:44 19.07.2019
4906 Clouds 19 1014 55 16093 3.1 0 23:25 19.07.2019
4907 Clouds 19 1015 55 14484 5.7 220 22:50 19.07.2019
4908 Clouds 19 1015 55 14484 5.7 220 22:26 19.07.2019
4909 Clouds 18 1014 55 16093 5.1 220 21:51 19.07.2019
4910 Clouds 18 1014 55 16093 5.1 220 21:33 19.07.2019
4911 Clouds 18 1014 63 16093 3.1 210 20:58 19.07.2019
4912 Clouds 18 1014 63 16093 3.1 210 20:38 19.07.2019
4913 Clouds 18 1014 63 16093 3.1 210 20:20 19.07.2019
4914 Clouds 17 1014 67 16093 2.6 180 19:35 19.07.2019
4915 Clouds 16 1014 72 16093 2.6 230 18:46 19.07.2019
4916 Clouds 15 1014 72 16093 2.6 230 18:25 19.07.2019
4917 Clouds 14 1014 77 16093 3.1 230 17:56 19.07.2019
4918 Clouds 14 1014 77 16093 3.1 230 17:29 19.07.2019
4919 Clouds 14 1014 77 16093 1.51 208.334 16:57 19.07.2019
4920 Clouds 14 1013 72 16093 4.1 220 16:39 19.07.2019
4921 Clouds 14 1013 72 16093 4.1 220 16:18 19.07.2019
4922 Clouds 14 1013 72 16093 4.1 220 15:44 19.07.2019
4923 Clouds 14 1013 72 16093 3.1 200 15:25 19.07.2019
4924 Clouds 14 1013 63 16093 2.6 200 14:45 19.07.2019
4925 Clouds 14 1013 63 16093 2.6 200 14:45 19.07.2019
4926 Clouds 15 1013 63 16093 2.6 200 14:25 19.07.2019
4927 Clouds 15 1012 63 16093 1.5 220 13:57 19.07.2019
4928 Clouds 15 1013 77 16093 1.5 250 13:38 19.07.2019
4929 Clouds 15 1013 77 16093 1.5 250 13:20 19.07.2019
4930 Clouds 15 1012 77 16093 2.1 280 12:44 19.07.2019
4931 Clouds 16 1012 59 16093 1.5 230 12:25 19.07.2019
4932 Clouds 17 1012 77 16093 1.5 260 11:46 19.07.2019
4933 Clouds 17 1011 59 16093 4.1 290 11:19 19.07.2019
4934 Clouds 17 1011 82 16093 2.6 240 10:48 19.07.2019
4935 Clouds 17 1011 60 16093 4.1 280 10:23 19.07.2019
4936 Smoke 18 1010 68 16093 2.6 210 09:59 19.07.2019
4937 Smoke 18 1010 68 16093 2.6 210 09:41 19.07.2019
4938 Smoke 19 1010 68 16093 2.6 210 09:22 19.07.2019
4939 Smoke 19 1009 56 16093 2.6 240 08:49 19.07.2019
4940 Smoke 20 1009 56 16093 2.6 240 08:27 19.07.2019
4941 Rain 21 1009 56 16093 3.1 190 07:32 19.07.2019
4942 Rain 22 1009 56 16093 6.7 220 06:26 19.07.2019
4943 Clouds 23 1009 60 16093 1.5 200 02:58 19.07.2019
4944 Clouds 22 1010 64 16093 2.1 270 01:21 19.07.2019
4945 Clouds 22 1010 68 16093 2.1 140 00:47 19.07.2019
4946 Clouds 21 1010 64 16093 4.1 270 23:59 18.07.2019
4947 Clouds 20 1010 77 16093 2.75 253.103 23:40 18.07.2019
4948 Clouds 20 1010 77 16093 2.75 253.103 23:22 18.07.2019
4949 Clouds 19 1010 82 16093 2.75 253.103 22:42 18.07.2019
4950 Clouds 19 1010 82 16093 2.75 253.103 22:20 18.07.2019
4951 Clouds 19 1010 72 16093 2.1 280 21:56 18.07.2019
4952 Clouds 18 1010 88 16093 2.75 253.103 21:37 18.07.2019
4953 Clouds 17 1010 88 16093 1.44 193.282 21:18 18.07.2019
4954 Rain 17 1010 93 12874 2.1 260 20:42 18.07.2019
4955 Rain 17 1010 93 12874 2.1 260 20:23 18.07.2019
4956 Rain 17 1009 87 16093 2.6 0 19:47 18.07.2019
4957 Rain 16 1009 77 14484 1.42 216.435 19:27 18.07.2019
4958 Rain 15 1009 87 14484 1.5 60 18:50 18.07.2019
4959 Rain 15 1009 87 14484 1.5 60 18:22 18.07.2019
4960 Clouds 15 1008 82 14484 2.6 90 17:56 18.07.2019
4961 Clouds 15 1008 82 14484 2.6 90 17:36 18.07.2019
4962 Clouds 15 1008 82 14484 2.6 90 17:18 18.07.2019
4963 Clouds 14 1008 87 12874 2.6 90 16:43 18.07.2019
4964 Clouds 14 1008 87 12874 2.6 90 16:24 18.07.2019
4965 Clouds 14 1007 87 14484 1.5 80 15:55 18.07.2019
4966 Clouds 14 1007 87 14484 1.5 80 15:36 18.07.2019
4967 Clouds 14 1007 93 14484 1.5 90 14:55 18.07.2019
4968 Clouds 14 1007 93 14484 1.5 90 14:37 18.07.2019
4969 Clouds 15 1006 87 14484 2.1 60 13:57 18.07.2019
4970 Clouds 15 1006 87 14484 2.1 60 13:36 18.07.2019
4971 Clouds 15 1006 82 16093 0.43 106.661 13:18 18.07.2019
4972 Clouds 16 1006 82 16093 0.43 106.661 12:42 18.07.2019
4973 Clouds 16 1006 77 16093 0.86 138.008 12:18 18.07.2019
4974 Clouds 16 1006 77 16093 0.86 138.008 11:50 18.07.2019
4975 Clouds 17 1006 77 16093 0.86 138.008 11:27 18.07.2019
4976 Clouds 17 1005 77 16093 0.86 138.008 10:52 18.07.2019
4977 Clouds 17 1005 77 16093 0.86 138.008 10:23 18.07.2019
4978 Clouds 18 1004 88 16093 2.1 260 09:44 18.07.2019
4979 Clouds 18 1004 68 16093 1.5 50 09:23 18.07.2019
4980 Clouds 19 1004 72 16093 1.09 285.701 08:43 18.07.2019
4981 Clouds 19 1004 72 16093 1.09 285.701 08:19 18.07.2019
4982 Clouds 21 1003 49 16093 1.5 260 07:37 18.07.2019
4983 Clouds 22 1003 64 16093 1.09 285.701 07:19 18.07.2019
4984 Rain 22 1003 44 16093 1.5 240 06:35 18.07.2019
4985 Rain 22 1003 72 16093 4.1 280 04:20 18.07.2019
4986 Clouds 25 1003 41 16093 2.1 200 02:52 18.07.2019
4987 Clouds 24 1003 46 16093 0.93 143.106 01:37 18.07.2019
4988 Clouds 23 1004 46 16093 0.93 143.106 00:28 18.07.2019
4989 Clear 22 1004 52 16093 2.6 250 23:49 17.07.2019
4990 Clear 21 1004 52 16093 2.6 250 23:19 17.07.2019
4991 Clouds 21 1004 63 16093 0.3 223.517 22:44 17.07.2019
4992 Clouds 20 1004 63 16093 0.3 223.517 22:23 17.07.2019
4993 Clouds 19 1004 77 16093 0.3 223.517 21:59 17.07.2019
4994 Clouds 18 1004 77 16093 0.3 223.517 21:40 17.07.2019
4995 Clouds 18 1004 77 16093 0.3 223.517 21:40 17.07.2019
4996 Clouds 18 1004 77 16093 0.87 218.474 21:21 17.07.2019
4997 Mist 17 1005 93 16093 1.5 130 20:58 17.07.2019
4998 Mist 16 1005 93 16093 1.5 130 20:39 17.07.2019
4999 Mist 16 1004 93 9656 0.8 228.841 20:20 17.07.2019
5000 Mist 15 1005 93 3219 0.8 228.841 19:43 17.07.2019
5001 Mist 14 1004 93 3219 1.5 0 19:22 17.07.2019
5002 Mist 14 1004 93 3219 1.5 0 18:56 17.07.2019
5003 Mist 14 1005 93 1207 2.1 130 18:38 17.07.2019
5004 Mist 13 1004 93 402 2.1 60 18:18 17.07.2019
5005 Mist 12 1004 93 402 2.1 60 17:43 17.07.2019
5006 Mist 12 1004 93 402 2.1 60 17:23 17.07.2019
5007 Fog 11 1004 100 805 2.1 60 16:42 17.07.2019
5008 Mist 11 1004 93 11265 0.46 121.886 16:22 17.07.2019
5009 Clouds 11 1004 93 11265 0.46 121.886 15:51 17.07.2019
5010 Clear 11 1004 100 16093 0.46 121.886 15:32 17.07.2019
5011 Clear 11 1004 93 12874 0.53 350.125 14:58 17.07.2019
5012 Clear 11 1004 93 12874 0.53 350.125 14:40 17.07.2019
5013 Clear 11 1004 93 12874 0.53 350.125 14:21 17.07.2019
5014 Clear 11 1004 100 16093 0.53 350.125 13:56 17.07.2019
5015 Clear 11 1004 100 16093 0.53 350.125 13:36 17.07.2019
5016 Clouds 11 1003 93 16093 1.5 60 13:18 17.07.2019
5017 Clouds 12 1003 93 16093 1.5 60 12:39 17.07.2019
5018 Clear 12 1003 87 16093 0.83 350.243 12:19 17.07.2019
5019 Clear 13 1003 87 16093 0.83 350.243 11:43 17.07.2019
5020 Clear 13 1003 87 16093 0.83 350.243 11:19 17.07.2019
5021 Clear 13 1003 87 16093 0.83 350.243 10:49 17.07.2019
5022 Clear 14 1003 87 16093 0.83 350.243 10:24 17.07.2019
5023 Clouds 14 1003 72 16093 0.83 350.243 09:46 17.07.2019
5024 Clouds 15 1003 68 16093 2.1 220 09:28 17.07.2019
5025 Clouds 16 1003 63 16093 2.1 220 08:56 17.07.2019
5026 Clouds 17 1003 63 16093 2.1 220 08:37 17.07.2019
5027 Clouds 17 1002 63 16093 2.6 170 08:18 17.07.2019
5028 Clouds 17 1002 63 16093 2.6 170 07:41 17.07.2019
5029 Clouds 17 1002 63 16093 2.6 170 07:22 17.07.2019
5030 Clouds 18 1003 59 16093 1.5 180 06:46 17.07.2019
5031 Clouds 19 1003 59 16093 1.5 180 06:27 17.07.2019
5032 Clouds 19 1003 63 16093 0.78 242.876 05:41 17.07.2019
5033 Clouds 18 1003 63 16093 2.1 210 04:59 17.07.2019
5034 Clouds 18 1003 63 16093 2.1 210 04:22 17.07.2019
5035 Rain 18 1004 72 16093 1.16 174.182 02:45 17.07.2019
5036 Clouds 16 1005 82 16093 2.1 190 01:43 17.07.2019
5037 Clouds 16 1005 82 16093 2.1 190 01:23 17.07.2019
5038 Rain 16 1005 82 11265 3.1 150 00:43 17.07.2019
5039 Rain 16 1005 82 11265 3.1 150 00:23 17.07.2019
5040 Rain 15 1005 87 16093 2.6 130 23:49 16.07.2019
5041 Rain 15 1005 87 16093 2.6 130 23:28 16.07.2019
5042 Rain 16 1005 87 9656 3.6 120 22:57 16.07.2019
5043 Rain 16 1005 82 11265 2.6 160 22:39 16.07.2019
5044 Rain 16 1005 77 12874 2.6 160 22:19 16.07.2019
5045 Rain 17 1005 72 16093 3.6 130 21:43 16.07.2019
5046 Rain 16 1005 72 16093 3.6 130 21:20 16.07.2019
5047 Rain 17 1005 72 11265 3.1 130 20:56 16.07.2019
5048 Rain 17 1005 72 14484 3.1 110 20:38 16.07.2019
5049 Clouds 16 1005 67 16093 1.5 130 20:19 16.07.2019
5050 Clouds 16 1005 67 16093 1.5 130 19:44 16.07.2019
5051 Clouds 16 1005 67 16093 1.5 130 19:26 16.07.2019
5052 Rain 16 1005 67 16093 1.5 80 18:45 16.07.2019
5053 Rain 15 1005 67 16093 1.5 80 18:21 16.07.2019
5054 Rain 15 1005 72 16093 0.61 133.668 17:55 16.07.2019
5055 Rain 15 1005 72 16093 0.61 133.668 17:36 16.07.2019
5056 Rain 14 1005 77 16093 0.61 133.668 16:59 16.07.2019
5057 Rain 14 1005 77 16093 0.61 133.668 16:38 16.07.2019
5058 Clouds 14 1005 77 16093 0.61 133.668 16:18 16.07.2019
5059 Clouds 14 1005 77 16093 0.61 133.668 15:40 16.07.2019
5060 Clouds 14 1005 82 14484 2.6 50 15:21 16.07.2019
5061 Clouds 14 1005 82 14484 2.6 50 14:58 16.07.2019
5062 Clouds 14 1005 82 14484 2.6 50 14:39 16.07.2019
5063 Clouds 15 1005 82 14484 2.6 50 14:20 16.07.2019
5064 Clouds 15 1004 77 14484 0.53 84.884 13:44 16.07.2019
5065 Clouds 15 1004 77 14484 0.53 84.884 13:44 16.07.2019
5066 Clouds 14 1003 77 16093 0.38 120.267 13:21 16.07.2019
5067 Clear 15 1004 67 14484 0.38 120.267 12:45 16.07.2019
5068 Clear 15 1004 67 14484 0.39 37.875 12:21 16.07.2019
5069 Clouds 16 1003 52 16093 2.6 250 11:58 16.07.2019
5070 Clouds 16 1003 52 16093 2.6 250 11:40 16.07.2019
5071 Clouds 16 1003 52 16093 2.6 250 11:21 16.07.2019
5072 Rain 17 1003 46 16093 3.1 250 10:45 16.07.2019
5073 Rain 17 1003 46 16093 3.1 250 10:45 16.07.2019
5074 Rain 17 1003 46 16093 3.1 250 10:22 16.07.2019
5075 Clear 19 1003 46 14484 2.1 280 09:56 16.07.2019
5076 Clear 19 1003 46 14484 2.1 280 09:36 16.07.2019
5077 Rain 20 1003 43 16093 4.6 250 09:18 16.07.2019
5078 Rain 20 1003 43 16093 4.6 250 08:41 16.07.2019
5079 Clouds 21 1003 38 16093 4.6 210 08:19 16.07.2019
5080 Clouds 22 1003 33 16093 2.1 250 07:41 16.07.2019
5081 Clouds 23 1003 33 16093 2.1 250 07:23 16.07.2019
5082 Clear 24 1003 33 16093 1.5 220 06:47 16.07.2019
5083 Clear 24 1003 33 16093 1.5 220 06:22 16.07.2019
5084 Smoke 24 1003 36 16093 1.78 186.536 05:33 16.07.2019
5085 Smoke 25 1004 36 16093 2.6 240 04:57 16.07.2019
5086 Smoke 25 1004 33 16093 1.78 186.536 03:54 16.07.2019
5087 Smoke 25 1005 33 16093 2.01 188.577 03:18 16.07.2019
5088 Smoke 25 1005 33 16093 2.01 188.577 02:30 16.07.2019
5089 Smoke 25 1005 36 16093 1.5 290 01:43 16.07.2019
5090 Smoke 24 1006 38 16093 2.1 250 00:42 16.07.2019
5091 Smoke 24 1006 46 16093 1.42 196.207 00:20 16.07.2019
5092 Smoke 24 1006 46 16093 1.42 196.207 23:45 15.07.2019
5093 Smoke 24 1006 46 16093 1.42 196.207 23:27 15.07.2019
5094 Smoke 23 1007 52 16093 1.42 196.207 22:47 15.07.2019
5095 Smoke 22 1007 52 16093 1.42 196.207 22:22 15.07.2019
5096 Smoke 21 1007 63 16093 1.42 196.207 21:58 15.07.2019
5097 Smoke 21 1007 63 16093 1.42 196.207 21:40 15.07.2019
5098 Smoke 20 1007 63 16093 1.03 184.292 21:20 15.07.2019
5099 Smoke 19 1008 68 16093 1.03 184.292 20:55 15.07.2019
5100 Smoke 19 1008 68 16093 1.03 184.292 20:36 15.07.2019
5101 Smoke 18 1008 68 16093 1.5 40 20:18 15.07.2019
5102 Smoke 17 1008 72 16093 2.1 50 19:39 15.07.2019
5103 Smoke 16 1008 82 14484 2.1 60 19:19 15.07.2019
5104 Smoke 15 1008 82 14484 2.1 60 18:50 15.07.2019
5105 Smoke 14 1009 93 14484 2.1 70 18:23 15.07.2019
5106 Smoke 14 1009 93 14484 2.1 70 17:59 15.07.2019
5107 Smoke 13 1009 93 14484 2.1 70 17:41 15.07.2019
5108 Clear 13 1009 93 14484 2.1 70 17:22 15.07.2019
5109 Smoke 12 1009 93 14484 0.83 153.435 16:58 15.07.2019
5110 Smoke 12 1009 93 14484 0.83 153.435 16:38 15.07.2019
5111 Smoke 12 1008 93 12874 1.5 80 16:20 15.07.2019
5112 Smoke 12 1008 93 12874 1.5 80 15:45 15.07.2019
5113 Smoke 12 1008 93 12874 1.5 80 15:27 15.07.2019
5114 Smoke 12 1008 100 14484 2.1 40 14:59 15.07.2019
5115 Smoke 12 1008 100 14484 2.1 40 14:40 15.07.2019
5116 Smoke 12 1008 100 14484 2.1 40 14:21 15.07.2019
5117 Smoke 13 1008 87 12874 1.5 80 13:48 15.07.2019
5118 Smoke 13 1008 87 12874 1.5 80 13:21 15.07.2019
5119 Smoke 14 1008 77 16093 2.1 270 12:57 15.07.2019
5120 Smoke 14 1008 77 16093 2.1 270 12:37 15.07.2019
5121 Smoke 15 1008 82 3621 0.39 11.339 12:18 15.07.2019
5122 Smoke 16 1008 82 16093 1.5 190 11:41 15.07.2019
5123 Smoke 16 1008 82 16093 1.5 190 11:41 15.07.2019
5124 Smoke 16 1008 72 4023 2.1 220 11:20 15.07.2019
5125 Smoke 17 1007 82 16093 0.39 11.339 10:43 15.07.2019
5126 Smoke 17 1007 82 16093 0.39 11.339 10:24 15.07.2019
5127 Smoke 18 1007 68 16093 0.39 11.339 09:43 15.07.2019
5128 Smoke 18 1007 68 16093 0.49 269.303 09:23 15.07.2019
5129 Smoke 20 1007 49 16093 2.1 160 08:47 15.07.2019
5130 Smoke 20 1007 49 16093 2.1 160 08:27 15.07.2019
5131 Smoke 21 1007 44 16093 2.1 170 07:55 15.07.2019
5132 Smoke 21 1007 44 16093 2.1 170 07:33 15.07.2019
5133 Thunderstorm 22 1007 47 16093 3.1 190 06:50 15.07.2019
5134 Thunderstorm 23 1007 47 16093 3.1 190 06:30 15.07.2019
5135 Smoke 23 1007 38 16093 3.1 190 05:43 15.07.2019
5136 Smoke 24 1007 38 16093 3.1 200 04:52 15.07.2019
5137 Smoke 24 1007 38 16093 3.1 200 04:34 15.07.2019
5138 Smoke 25 1007 36 16093 3.6 190 03:29 15.07.2019
5139 Smoke 25 1008 38 16093 3.6 190 02:26 15.07.2019
5140 Smoke 24 1008 44 16093 2.1 210 01:38 15.07.2019
5141 Smoke 24 1009 46 16093 3.1 200 00:54 15.07.2019
5142 Smoke 23 1009 46 16093 3.1 200 00:29 15.07.2019
5143 Smoke 23 1009 53 16093 2.1 210 00:00 15.07.2019
5144 Smoke 23 1009 53 16093 2.1 210 23:41 14.07.2019
5145 Smoke 23 1009 53 16093 2.1 210 23:21 14.07.2019
5146 Smoke 22 1010 56 16093 3.1 200 22:58 14.07.2019
5147 Smoke 22 1010 56 16093 3.1 200 22:39 14.07.2019
5148 Clear 22 1010 64 16093 1.5 150 22:21 14.07.2019
5149 Smoke 20 1010 64 16093 1.5 150 21:46 14.07.2019
5150 Smoke 20 1010 64 16093 1.5 150 21:20 14.07.2019
5151 Smoke 19 1011 68 16093 1.19 208.101 20:59 14.07.2019
5152 Smoke 19 1011 68 16093 1.19 208.101 20:39 14.07.2019
5153 Smoke 19 1011 68 16093 1.19 208.101 20:20 14.07.2019
5154 Smoke 17 1011 77 16093 1.5 90 19:56 14.07.2019
5155 Smoke 17 1011 77 16093 1.5 90 19:38 14.07.2019
5156 Smoke 16 1010 77 16093 1.5 100 19:19 14.07.2019
5157 Smoke 15 1011 82 16093 1.5 70 18:41 14.07.2019
5158 Smoke 15 1011 82 16093 1.5 70 18:22 14.07.2019
5159 Smoke 14 1011 87 14484 2.1 70 17:58 14.07.2019
5160 Smoke 13 1011 87 14484 2.1 70 17:23 14.07.2019
5161 Mist 13 1010 93 12874 2.1 80 16:55 14.07.2019
5162 Mist 12 1010 93 12874 2.1 80 16:26 14.07.2019
5163 Mist 12 1010 100 14484 2.1 60 15:58 14.07.2019
5164 Mist 12 1010 100 14484 2.1 60 15:40 14.07.2019
5165 Mist 12 1010 100 14484 2.1 60 15:22 14.07.2019
5166 Mist 12 1010 93 14484 0.38 123.982 14:45 14.07.2019
5167 Mist 13 1010 93 14484 0.38 123.982 14:20 14.07.2019
5168 Haze 13 1010 82 16093 1.5 140 13:46 14.07.2019
5169 Haze 14 1010 82 16093 1.5 140 13:24 14.07.2019
5170 Haze 14 1010 82 4828 1.5 150 12:57 14.07.2019
5171 Haze 14 1009 77 16093 0.42 62.511 12:38 14.07.2019
5172 Haze 16 1009 59 14484 3.1 200 12:18 14.07.2019
5173 Haze 16 1009 77 4828 0.82 260.926 11:45 14.07.2019
5174 Haze 16 1009 77 4828 0.82 260.926 11:20 14.07.2019
5175 Clear 17 1009 68 14484 3.6 250 10:43 14.07.2019
5176 Clear 17 1009 68 14484 3.6 250 10:21 14.07.2019
5177 Smoke 18 1008 77 16093 0.82 260.926 09:48 14.07.2019
5178 Smoke 18 1008 77 16093 0.82 260.926 09:29 14.07.2019
5179 Smoke 19 1008 64 16093 1.42 247.861 08:46 14.07.2019
5180 Smoke 20 1008 64 16093 1.42 247.861 08:27 14.07.2019
5181 Smoke 21 1008 60 16093 2.6 170 07:43 14.07.2019
5182 Rain 21 1007 56 14484 2.1 200 07:19 14.07.2019
5183 Smoke 23 1007 50 16093 6.2 200 05:46 14.07.2019
5184 Thunderstorm 23 1008 68 11265 4.1 160 03:53 14.07.2019
5185 Thunderstorm 24 1008 41 16093 3.1 230 03:34 14.07.2019
5186 Smoke 24 1008 44 16093 2.6 240 02:52 14.07.2019
5187 Smoke 24 1008 44 16093 2.6 240 02:22 14.07.2019
5188 Smoke 23 1009 56 16093 2.1 250 01:35 14.07.2019
5189 Smoke 23 1009 56 16093 2.1 250 01:35 14.07.2019
5190 Smoke 23 1009 56 16093 2.1 250 01:35 14.07.2019
5191 Smoke 22 1010 64 16093 2.1 170 00:59 14.07.2019
5192 Smoke 22 1010 64 16093 2.1 170 00:40 14.07.2019
5193 Smoke 21 1010 68 16093 2.6 190 00:20 14.07.2019
5194 Smoke 21 1010 68 16093 2.6 190 23:56 13.07.2019
5195 Smoke 21 1010 68 16093 2.6 190 23:37 13.07.2019
5196 Smoke 20 1010 68 14484 2.88 230.613 23:19 13.07.2019
5197 Smoke 19 1010 82 16093 2.6 160 22:40 13.07.2019
5198 Smoke 18 1010 88 8047 2.1 140 22:21 13.07.2019
5199 Smoke 18 1010 77 16093 2.1 130 21:45 13.07.2019
5200 Smoke 17 1010 77 11265 3.1 140 21:20 13.07.2019
5201 Smoke 17 1011 88 16093 1.32 199.175 20:47 13.07.2019
5202 Smoke 17 1011 88 16093 1.32 199.175 20:28 13.07.2019
5203 Smoke 16 1011 93 14484 1.32 199.175 19:48 13.07.2019
5204 Smoke 16 1011 93 14484 1.32 199.175 19:29 13.07.2019
5205 Rain 16 1010 93 8047 2.1 50 18:46 13.07.2019
5206 Rain 15 1010 93 8047 2.1 50 18:23 13.07.2019
5207 Mist 15 1010 87 6437 2.1 150 17:42 13.07.2019
5208 Mist 15 1010 87 6437 2.1 150 17:42 13.07.2019
5209 Smoke 15 1010 93 14484 1.1 151.961 17:22 13.07.2019
5210 Smoke 15 1010 93 14484 1.1 151.961 16:58 13.07.2019
5211 Mist 15 1010 100 8047 1.1 151.961 16:39 13.07.2019
5212 Mist 15 1010 93 4023 1.5 0 16:21 13.07.2019
5213 Mist 15 1009 87 8047 1.1 151.961 15:45 13.07.2019
5214 Smoke 15 1010 93 11265 0.89 122.451 15:22 13.07.2019
5215 Smoke 15 1010 93 11265 0.89 122.451 14:46 13.07.2019
5216 Smoke 15 1010 93 11265 0.89 122.451 14:25 13.07.2019
5217 Smoke 15 1010 93 16093 0.89 122.451 13:47 13.07.2019
5218 Smoke 15 1010 93 16093 0.99 130.145 13:27 13.07.2019
5219 Smoke 15 1010 93 16093 0.99 130.145 12:59 13.07.2019
5220 Smoke 15 1009 100 14484 0.99 130.145 12:39 13.07.2019
5221 Rain 15 1010 100 16093 1.24 130.921 12:20 13.07.2019
5222 Smoke 15 1010 100 16093 1.24 130.921 11:52 13.07.2019
5223 Smoke 15 1009 93 14484 1.24 130.921 11:19 13.07.2019
5224 Smoke 16 1009 93 14484 1.24 130.921 10:45 13.07.2019
5225 Smoke 16 1009 93 16093 1.5 100 10:24 13.07.2019
5226 Smoke 16 1009 93 16093 1.5 100 09:59 13.07.2019
5227 Smoke 16 1009 93 4828 1.5 100 09:40 13.07.2019
5228 Smoke 16 1009 100 4828 1 139.73 09:18 13.07.2019
5229 Smoke 17 1009 100 4828 1.24 172.835 08:36 13.07.2019
5230 Smoke 17 1009 93 4828 1.24 172.835 08:18 13.07.2019
5231 Smoke 17 1009 93 4828 1.24 172.835 07:30 13.07.2019
5232 Smoke 17 1009 93 4828 1.5 170 06:41 13.07.2019
5233 Smoke 17 1009 82 3219 0.94 194.951 05:58 13.07.2019
5234 Smoke 17 1009 82 3219 0.94 194.951 05:29 13.07.2019
5235 Smoke 17 1009 82 3219 2.1 200 04:24 13.07.2019
5236 Mist 17 1010 100 3219 2.1 230 03:57 13.07.2019
5237 Rain 17 1009 82 3219 2.1 240 03:38 13.07.2019
5238 Rain 16 1010 100 2012 3.1 220 01:57 13.07.2019
5239 Rain 16 1010 100 2012 3.1 220 01:39 13.07.2019
5240 Rain 16 1010 93 2414 2.6 180 01:18 13.07.2019
5241 Rain 16 1010 100 3219 2.6 190 00:51 13.07.2019
5242 Rain 16 1010 100 3219 3.1 190 00:19 13.07.2019
5243 Rain 16 1010 93 4023 1.66 239.985 23:46 12.07.2019
5244 Rain 16 1010 93 4023 1.66 239.985 23:28 12.07.2019
5245 Rain 16 1010 93 4023 1.5 190 22:46 12.07.2019
5246 Rain 16 1010 93 4023 1.5 190 22:24 12.07.2019
5247 Rain 16 1009 87 3219 1.66 239.985 21:43 12.07.2019
5248 Rain 16 1009 87 3219 0.76 197.748 21:22 12.07.2019
5249 Rain 16 1010 87 4023 2.1 170 20:56 12.07.2019
5250 Rain 15 1010 93 4828 0.76 197.748 20:37 12.07.2019
5251 Rain 15 1010 87 4828 3.1 180 20:19 12.07.2019
5252 Rain 15 1009 100 4828 2.1 60 19:42 12.07.2019
5253 Rain 15 1009 100 4828 2.1 60 19:23 12.07.2019
5254 Smoke 15 1009 87 4828 2.1 160 18:44 12.07.2019
5255 Smoke 15 1009 87 4828 2.1 160 18:21 12.07.2019
5256 Smoke 15 1009 93 6437 2.6 150 17:51 12.07.2019
5257 Smoke 15 1009 93 6437 2.6 150 17:28 12.07.2019
5258 Rain 15 1009 93 6437 1.5 110 16:48 12.07.2019
5259 Rain 15 1009 93 6437 1.5 110 16:22 12.07.2019
5260 Rain 15 1008 88 4828 2.1 270 15:42 12.07.2019
5261 Rain 15 1008 82 4828 2.1 0 15:22 12.07.2019
5262 Rain 15 1008 82 4828 2.1 0 14:58 12.07.2019
5263 Smoke 15 1009 87 4828 0.3 148.517 14:39 12.07.2019
5264 Smoke 15 1008 72 3219 4.6 290 14:20 12.07.2019
5265 Smoke 16 1008 72 3219 2.6 250 13:42 12.07.2019
5266 Smoke 16 1008 77 4828 3.1 250 13:20 12.07.2019
5267 Smoke 16 1008 77 4828 3.1 250 12:41 12.07.2019
5268 Smoke 16 1008 77 4828 2.6 250 12:21 12.07.2019
5269 Smoke 16 1008 77 4828 2.6 250 11:45 12.07.2019
5270 Smoke 16 1008 77 4828 2.6 250 11:24 12.07.2019
5271 Smoke 16 1008 72 3219 2.6 240 10:55 12.07.2019
5272 Smoke 16 1008 72 3219 2.6 240 10:37 12.07.2019
5273 Smoke 16 1007 72 4828 4.1 190 10:18 12.07.2019
5274 Smoke 17 1006 72 4828 3.1 200 09:46 12.07.2019
5275 Smoke 17 1006 72 4828 3.1 200 09:23 12.07.2019
5276 Smoke 18 1006 72 3219 4.6 200 08:42 12.07.2019
5277 Smoke 20 1006 72 3219 4.6 200 08:21 12.07.2019
5278 Smoke 21 1005 50 2414 2.1 150 07:47 12.07.2019
5279 Smoke 22 1005 50 2414 2.1 150 07:28 12.07.2019
5280 Smoke 24 1005 47 2414 2.6 20 06:29 12.07.2019
5281 Smoke 25 1004 39 2414 1.5 340 05:50 12.07.2019
5282 Smoke 27 1005 34 2816 4.6 300 03:46 12.07.2019
5283 Smoke 26 1005 50 1408 1.5 360 01:50 12.07.2019
5284 Smoke 26 1005 50 1408 1.5 360 01:32 12.07.2019
5285 Smoke 25 1006 53 1207 3.75 284.014 00:34 12.07.2019
5286 Smoke 24 1006 64 1207 1.4 275.955 23:56 11.07.2019
5287 Smoke 24 1006 64 1207 1.4 275.955 23:37 11.07.2019
5288 Smoke 24 1006 64 1207 1.4 275.955 23:37 11.07.2019
5289 Smoke 23 1006 64 1207 1.5 0 23:18 11.07.2019
5290 Smoke 23 1006 64 1207 1.5 0 22:42 11.07.2019
5291 Smoke 21 1006 64 1207 1.5 0 22:23 11.07.2019
5292 Smoke 21 1006 64 1207 1.5 0 22:23 11.07.2019
5293 Smoke 21 1006 77 1609 1.5 120 21:43 11.07.2019
5294 Smoke 20 1005 64 1207 0.97 253.159 21:20 11.07.2019
5295 Smoke 20 1005 64 1207 0.97 253.159 21:20 11.07.2019
5296 Smoke 20 1005 64 1207 0.97 253.159 20:58 11.07.2019
5297 Smoke 19 1006 82 1609 1.5 70 20:40 11.07.2019
5298 Smoke 19 1006 82 1609 1.5 70 20:22 11.07.2019
5299 Smoke 18 1006 88 2012 3.1 70 19:48 11.07.2019
5300 Smoke 18 1006 88 2012 3.1 70 19:30 11.07.2019
5301 Rain 17 1006 93 2012 2.6 70 18:57 11.07.2019
5302 Rain 17 1006 93 2012 2.6 70 18:38 11.07.2019
5303 Rain 16 1006 88 1609 2.6 120 18:20 11.07.2019
5304 Mist 16 1005 93 2816 4.1 70 17:43 11.07.2019
5305 Mist 16 1005 93 2816 4.1 70 17:25 11.07.2019
5306 Mist 16 1005 93 4023 2.6 170 16:52 11.07.2019
5307 Mist 16 1005 93 2816 3.1 80 16:24 11.07.2019
5308 Mist 16 1005 93 2816 4.1 70 15:55 11.07.2019
5309 Mist 16 1005 93 6437 2.1 60 15:36 11.07.2019
5310 Mist 16 1005 93 6437 0.96 69.64 15:18 11.07.2019
5311 Rain 17 1005 93 4426 0.96 69.64 14:43 11.07.2019
5312 Rain 17 1005 100 4023 0.96 69.64 14:21 11.07.2019
5313 Smoke 17 1005 93 12874 0.96 69.64 13:47 11.07.2019
5314 Smoke 17 1005 93 12874 0.78 6.154 13:28 11.07.2019
5315 Rain 17 1005 77 4828 2.6 150 12:46 11.07.2019
5316 Rain 18 1005 77 4828 2.6 150 12:28 11.07.2019
5317 Rain 19 1005 68 16093 1.5 20 11:58 11.07.2019
5318 Rain 19 1005 60 6437 2.6 80 11:39 11.07.2019
5319 Thunderstorm 19 1005 60 6437 2.6 80 11:21 11.07.2019
5320 Smoke 19 1005 68 16093 1.5 90 10:45 11.07.2019
5321 Smoke 20 1005 68 16093 2.1 70 10:19 11.07.2019
5322 Smoke 21 1005 73 2816 0.89 335.952 09:47 11.07.2019
5323 Smoke 21 1005 73 2816 0.89 335.952 09:28 11.07.2019
5324 Smoke 22 1005 73 9656 2.6 160 08:52 11.07.2019
5325 -273 0 0 0 0 0 08:26 11.07.2019
5326 Smoke 24 1004 57 2816 2.6 60 07:52 11.07.2019
5327 Smoke 24 1004 57 2816 2.6 60 07:34 11.07.2019
5328 Smoke 25 1004 51 2816 1.74 346.803 06:41 11.07.2019
5329 Smoke 26 1005 47 2816 2.14 270.562 05:51 11.07.2019
5330 Smoke 26 1005 47 2816 2.14 270.562 05:29 11.07.2019
5331 Smoke 26 1005 44 2414 2.14 270.562 04:54 11.07.2019
5332 Smoke 26 1006 47 2012 3.04 266.187 02:41 11.07.2019
5333 Smoke 25 1007 50 2012 2.74 268.827 01:38 11.07.2019
5334 Smoke 24 1007 53 1609 2.74 268.827 00:29 11.07.2019
5335 Smoke 23 1008 56 2012 1.5 0 23:37 10.07.2019
5336 Smoke 22 1008 56 1609 2.44 254.979 23:18 10.07.2019
5337 Smoke 23 1008 53 1609 1.5 100 22:46 10.07.2019
5338 Smoke 23 1008 53 1609 1.5 100 22:21 10.07.2019
5339 Smoke 20 1008 55 2012 1.5 80 21:45 10.07.2019
5340 Smoke 20 1008 55 2012 1.5 80 21:26 10.07.2019
5341 Smoke 18 1009 63 2816 1.38 186.345 20:57 10.07.2019
5342 Smoke 19 1009 63 2816 1.38 186.345 20:39 10.07.2019
5343 Smoke 18 1009 67 2816 1.5 70 20:19 10.07.2019
5344 Smoke 16 1009 67 2816 1.5 70 19:53 10.07.2019
5345 Smoke 15 1008 72 1609 1.5 80 19:22 10.07.2019
5346 Smoke 15 1008 72 1609 1.5 80 18:57 10.07.2019
5347 Smoke 15 1008 72 1609 1.5 80 18:38 10.07.2019
5348 Haze 16 1009 72 1609 0.85 156.209 18:20 10.07.2019
5349 Haze 16 1008 72 1609 0.85 156.209 17:41 10.07.2019
5350 Haze 15 1008 72 1609 0.85 156.209 17:20 10.07.2019
5351 Haze 15 1008 72 1609 0.85 156.209 17:20 10.07.2019
5352 Smoke 15 1009 76 2414 1.5 80 16:37 10.07.2019
5353 Haze 15 1009 76 4828 0.85 156.209 16:18 10.07.2019
5354 Haze 15 1009 76 4828 0.85 156.209 15:45 10.07.2019
5355 Haze 14 1009 76 4828 0.73 91.485 15:21 10.07.2019
5356 Haze 15 1009 82 4426 1.5 50 14:41 10.07.2019
5357 Haze 15 1009 82 4426 1.5 50 14:22 10.07.2019
5358 Haze 14 1009 82 4828 0.73 91.485 13:46 10.07.2019
5359 Haze 15 1009 77 3621 1.5 160 13:19 10.07.2019
5360 Haze 15 1009 77 3621 1.5 160 12:58 10.07.2019
5361 Haze 16 1009 77 4426 0.66 68.987 12:38 10.07.2019
5362 Haze 17 1009 77 4426 1.17 34.017 12:19 10.07.2019
5363 Haze 17 1009 72 4828 1.17 34.017 11:46 10.07.2019
5364 Haze 18 1009 72 4023 1.5 60 11:21 10.07.2019
5365 Haze 19 1009 72 4023 1.5 50 10:45 10.07.2019
5366 Haze 19 1009 72 4023 1.5 50 10:21 10.07.2019
5367 Haze 21 1009 64 2816 1.17 34.017 09:44 10.07.2019
5368 Haze 22 1009 64 2816 0.42 314.708 09:21 10.07.2019
5369 Smoke 23 1008 53 2816 0.06 290.323 08:52 10.07.2019
5370 Smoke 23 1008 53 2816 0.06 290.323 08:52 10.07.2019
5371 Smoke 23 1008 53 2816 0.06 290.323 08:29 10.07.2019
5372 Smoke 25 1008 42 2414 0.06 290.323 07:55 10.07.2019
5373 Smoke 25 1008 42 2414 0.06 290.323 07:32 10.07.2019
5374 Smoke 25 1008 42 2414 0.06 290.323 07:32 10.07.2019
5375 Smoke 27 1008 42 1609 0.06 290.323 06:57 10.07.2019
5376 Smoke 27 1009 28 1609 2.1 40 05:59 10.07.2019
5377 Smoke 29 1010 25 2414 1.5 40 04:51 10.07.2019
5378 Smoke 29 1010 25 2414 1.5 40 04:26 10.07.2019
5379 Smoke 29 1012 26 4828 1.5 0 00:47 10.07.2019
5380 Smoke 29 1012 26 4828 1.5 0 00:28 10.07.2019
5381 Smoke 28 1012 28 8047 2.6 0 23:41 09.07.2019
5382 Smoke 28 1012 28 8047 2.6 0 23:21 09.07.2019
5383 Smoke 27 1013 30 6437 3.1 100 22:42 09.07.2019
5384 Smoke 27 1013 30 6437 3.1 100 22:22 09.07.2019
5385 Smoke 26 1013 38 6437 3.1 70 21:58 09.07.2019
5386 Smoke 25 1013 38 6437 3.1 70 21:39 09.07.2019
5387 Haze 24 1013 56 1609 2.1 0 21:21 09.07.2019
5388 Haze 23 1013 43 3621 2.6 80 20:43 09.07.2019
5389 Haze 23 1013 43 3621 2.6 80 20:24 09.07.2019
5390 Smoke 19 1013 56 4828 1.09 101.641 19:42 09.07.2019
5391 Smoke 20 1013 56 4828 1.09 101.641 19:23 09.07.2019
5392 Smoke 17 1013 67 4828 1.09 101.641 18:47 09.07.2019
5393 Smoke 18 1013 67 4828 1.31 54.728 18:25 09.07.2019
5394 Smoke 18 1013 68 2414 2.1 40 17:57 09.07.2019
5395 Smoke 17 1013 72 2414 1.31 54.728 17:37 09.07.2019
5396 Smoke 17 1013 72 4828 1.31 54.728 17:19 09.07.2019
5397 Smoke 15 1013 72 4828 1.31 54.728 16:47 09.07.2019
5398 Smoke 15 1013 72 4828 1.31 54.728 16:24 09.07.2019
5399 Smoke 14 1013 82 4828 1.31 54.728 15:50 09.07.2019
5400 Smoke 14 1013 82 4828 1.31 54.728 15:31 09.07.2019
5401 Haze 13 1013 81 1810 2.07 35.383 14:58 09.07.2019
5402 Haze 13 1013 82 2012 2.07 35.383 14:39 09.07.2019
5403 Haze 15 1013 87 1609 2.07 35.383 14:18 09.07.2019
5404 Haze 14 1013 72 2213 2.07 35.383 13:44 09.07.2019
5405 Haze 14 1013 72 2213 2.17 40.076 13:24 09.07.2019
5406 Rain 15 1013 82 1810 1.5 50 12:41 09.07.2019
5407 Rain 15 1013 82 1810 1.5 50 12:22 09.07.2019
5408 Rain 15 1013 82 1810 1.5 50 12:22 09.07.2019
5409 Rain 16 1013 77 1609 2.1 30 11:58 09.07.2019
5410 Rain 16 1013 72 2213 1.5 60 11:39 09.07.2019
5411 Haze 17 1013 72 603 1.5 70 11:20 09.07.2019
5412 Haze 17 1013 68 603 1.5 30 10:50 09.07.2019
5413 Haze 17 1013 68 603 1.5 30 10:31 09.07.2019
5414 Smoke 19 1013 72 402 2.02 49.414 09:42 09.07.2019
5415 Smoke 20 1013 72 402 2.36 59.395 09:22 09.07.2019
5416 Smoke 20 1013 72 402 2.36 59.395 09:22 09.07.2019
5417 Smoke 21 1013 73 402 2.25 80.743 08:55 09.07.2019
5418 Smoke 22 1012 68 1609 2.25 80.743 08:35 09.07.2019
5419 Rain 20 1025 68 16093 1.95 270.795 03:59 05.07.2019
5420 Clouds 20 1026 56 16093 3.6 280 03:38 05.07.2019
5421 Clouds 19 1026 60 14484 3.1 220 03:19 05.07.2019
5422 Clouds 19 1026 60 14484 3.1 220 03:19 05.07.2019
5423 Clouds 19 1026 60 14484 3.1 220 02:44 05.07.2019
5424 Clouds 20 1025 56 16093 1.09 255.709 01:42 05.07.2019
5425 Clouds 19 1025 56 16093 1.71 252.169 01:23 05.07.2019
5426 Clouds 19 1026 59 16093 3.6 230 00:46 05.07.2019
5427 Clouds 19 1025 59 14484 3.1 230 23:56 04.07.2019
5428 Clouds 18 1025 59 14484 3.1 230 23:21 04.07.2019
5429 Clouds 18 1025 59 14484 3.1 230 22:57 04.07.2019
5430 Clouds 18 1025 59 14484 3.1 230 22:39 04.07.2019
5431 Clouds 18 1025 72 16093 1.5 190 22:18 04.07.2019
5432 Clouds 17 1025 63 12874 4.1 230 21:40 04.07.2019
5433 Clouds 17 1025 63 12874 4.1 230 21:22 04.07.2019
5434 Clouds 17 1025 67 14484 2.1 230 20:54 04.07.2019
5435 Clouds 17 1025 67 14484 2.1 230 20:36 04.07.2019
5436 Clouds 17 1025 72 16093 2.1 190 20:18 04.07.2019
5437 Clouds 16 1025 72 14484 2.6 230 19:41 04.07.2019
5438 Clouds 16 1024 67 16093 2.6 240 19:20 04.07.2019
5439 Clouds 16 1024 67 14484 4.1 230 18:44 04.07.2019
5440 Clouds 16 1024 67 14484 4.1 230 18:25 04.07.2019
5441 Clouds 15 1024 77 14484 5.1 250 17:47 04.07.2019
5442 Clouds 15 1023 77 14484 3.6 250 17:19 04.07.2019
5443 Clouds 15 1023 77 14484 3.6 250 16:36 04.07.2019
5444 Clouds 15 1023 72 14484 3.1 230 15:42 04.07.2019
5445 Clouds 15 1023 72 14484 3.1 230 15:24 04.07.2019
5446 Clouds 15 1023 72 14484 2.1 210 14:56 04.07.2019
5447 Clouds 15 1023 72 14484 2.1 210 14:37 04.07.2019
5448 Clouds 15 1022 72 14484 3.6 230 14:18 04.07.2019
5449 Clouds 16 1022 72 14484 3.6 230 13:54 04.07.2019
5450 Clouds 16 1022 72 14484 3.6 230 13:36 04.07.2019
5451 Clouds 16 1022 72 16093 2.6 250 13:18 04.07.2019
5452 Clouds 16 1022 72 16093 2.6 250 12:37 04.07.2019
5453 Clouds 16 1021 72 16093 2.6 250 12:19 04.07.2019
5454 Clouds 17 1021 72 16093 3.1 310 11:40 04.07.2019
5455 Clouds 17 1021 72 16093 3.6 300 11:20 04.07.2019
5456 Clouds 17 1021 68 16093 3.6 280 10:44 04.07.2019
5457 Clouds 17 1021 68 16093 3.6 280 10:25 04.07.2019
5458 Clouds 19 1020 68 16093 4.1 280 09:45 04.07.2019
5459 Clouds 19 1020 68 16093 4.1 280 09:26 04.07.2019
5460 Clouds 19 1019 68 16093 4.1 250 08:57 04.07.2019
5461 Clouds 19 1019 68 16093 4.1 250 08:29 04.07.2019
5462 Clouds 21 1018 64 16093 5.1 260 07:47 04.07.2019
5463 Clouds 21 1018 64 16093 5.1 260 07:47 04.07.2019
5464 Clouds 21 1018 64 16093 5.1 260 07:23 04.07.2019
5465 Clouds 23 1018 53 16093 6.7 270 06:56 04.07.2019
5466 Clouds 22 1017 41 16093 7.7 270 05:59 04.07.2019
5467 Clouds 25 1017 41 16093 7.7 270 05:41 04.07.2019
5468 Clouds 25 1017 44 16093 3.1 0 03:48 04.07.2019
5469 Clouds 23 1017 44 16093 2.6 0 01:46 04.07.2019
5470 Clouds 23 1017 44 16093 2.6 0 01:25 04.07.2019
5471 Clouds 22 1018 46 16093 5.1 230 00:37 04.07.2019
5472 Smoke 21 1018 56 12874 2.1 130 23:48 03.07.2019
5473 Smoke 20 1018 53 16093 1.5 230 23:20 03.07.2019
5474 Smoke 20 1018 53 16093 1.5 230 22:56 03.07.2019
5475 Smoke 20 1018 56 11265 1.5 170 22:37 03.07.2019
5476 Smoke 20 1018 56 11265 2.1 90 22:18 03.07.2019
5477 Smoke 20 1018 56 11265 2.1 90 21:50 03.07.2019
5478 Smoke 20 1018 56 11265 2.1 90 21:31 03.07.2019
5479 Smoke 19 1018 63 11265 2.1 90 20:47 03.07.2019
5480 Smoke 19 1018 63 11265 2.1 90 20:29 03.07.2019
5481 Smoke 17 1018 72 12874 1.5 90 19:57 03.07.2019
5482 Smoke 16 1018 72 12874 1.5 90 19:39 03.07.2019
5483 Clouds 15 1018 77 14484 2.1 70 18:56 03.07.2019
5484 Clouds 15 1018 77 14484 2.1 70 18:37 03.07.2019
5485 Clouds 15 1018 76 14484 2.1 60 18:19 03.07.2019
5486 Clouds 14 1018 76 14484 2.1 60 17:49 03.07.2019
5487 Clouds 14 1019 82 16093 1.5 70 17:19 03.07.2019
5488 Clouds 13 1019 82 16093 1.5 70 16:44 03.07.2019
5489 Clouds 13 1019 82 16093 1.5 70 16:44 03.07.2019
5490 Clouds 13 1019 82 16093 1.5 70 16:24 03.07.2019
5491 Clouds 13 1019 82 16093 2.1 70 15:54 03.07.2019
5492 Clouds 13 1019 82 16093 2.1 70 15:36 03.07.2019
5493 Clear 13 1019 76 16093 2.1 80 15:18 03.07.2019
5494 Clear 13 1019 76 16093 2.1 80 14:42 03.07.2019
5495 Clear 13 1019 76 16093 2.1 80 14:20 03.07.2019
5496 Clouds 13 1018 82 16093 1.5 50 13:43 03.07.2019
5497 Clouds 13 1018 82 16093 1.5 50 13:24 03.07.2019
5498 Clouds 14 1018 82 16093 0.62 98.987 12:51 03.07.2019
5499 Clear 14 1019 82 14484 0.7 208.389 12:19 03.07.2019
5500 Clear 14 1019 82 14484 0.7 208.389 11:43 03.07.2019
5501 Clear 14 1019 82 14484 0.7 208.389 11:23 03.07.2019
5502 Clear 14 1019 72 11265 0.7 208.389 10:57 03.07.2019
5503 Clear 15 1019 72 11265 0.7 208.389 10:37 03.07.2019
5504 Clear 16 1018 52 16093 2.1 210 10:18 03.07.2019
5505 Clear 18 1018 52 16093 2.1 210 09:40 03.07.2019
5506 Clear 17 1019 49 16093 3.6 230 09:20 03.07.2019
5507 Clear 17 1019 49 16093 3.6 230 08:50 03.07.2019
5508 Clear 18 1019 49 16093 3.6 230 08:28 03.07.2019
5509 Clouds 19 1019 43 16093 2.6 210 07:42 03.07.2019
5510 Clouds 19 1019 46 16093 3.1 260 07:21 03.07.2019
5511 Clouds 20 1019 46 16093 3.1 260 06:25 03.07.2019
5512 Clouds 20 1019 43 16093 4.1 260 05:34 03.07.2019
5513 Clouds 20 1020 40 16093 2.6 270 04:42 03.07.2019
5514 Clouds 20 1020 43 16093 3.6 290 03:24 03.07.2019
5515 Clouds 21 1020 37 16093 2.6 260 01:59 03.07.2019
5516 Clouds 21 1020 37 16093 2.6 260 01:21 03.07.2019
5517 Clouds 21 1021 42 16093 2.36 267.327 00:46 03.07.2019
5518 Clouds 21 1021 42 16093 1.86 265.963 00:24 03.07.2019
5519 Smoke 20 1021 42 16093 1.86 265.963 23:38 02.07.2019
5520 Smoke 20 1021 45 16093 1.5 130 23:20 02.07.2019
5521 Smoke 20 1021 45 16093 1.5 130 22:57 02.07.2019
5522 Smoke 19 1022 52 16093 1.86 265.963 22:38 02.07.2019
5523 Smoke 19 1022 55 16093 1.5 220 22:19 02.07.2019
5524 Smoke 18 1022 63 14484 1.86 265.963 21:44 02.07.2019
5525 Smoke 17 1022 63 14484 0.82 180.49 21:23 02.07.2019
5526 Smoke 17 1022 63 14484 0.86 175.781 20:58 02.07.2019
5527 Smoke 16 1023 72 14484 0.86 175.781 20:39 02.07.2019
5528 Smoke 16 1023 72 14484 0.86 175.781 20:21 02.07.2019
5529 Smoke 14 1023 76 11265 1.5 40 19:43 02.07.2019
5530 Smoke 13 1023 76 11265 1.5 40 19:23 02.07.2019
5531 Smoke 12 1023 81 16093 1.5 80 18:50 02.07.2019
5532 Smoke 12 1023 81 16093 1.5 80 18:19 02.07.2019
5533 Smoke 11 1023 87 16093 2.1 50 17:45 02.07.2019
5534 Smoke 11 1023 76 16093 1.5 40 17:24 02.07.2019
5535 Clear 11 1023 87 16093 2.6 60 16:55 02.07.2019
5536 Clear 11 1023 87 16093 2.6 60 16:35 02.07.2019
5537 Clouds 10 1023 93 16093 1.5 60 15:59 02.07.2019
5538 Clouds 10 1023 93 16093 1.5 60 15:38 02.07.2019
5539 Clouds 10 1023 81 16093 1.5 50 15:20 02.07.2019
5540 Clear 10 1023 87 16093 0.29 57.035 14:41 02.07.2019
5541 Clouds 10 1023 81 16093 0.29 57.035 14:22 02.07.2019
5542 Clear 10 1023 87 16093 0.29 57.035 13:43 02.07.2019
5543 Clear 10 1023 87 16093 0.16 151.991 13:19 02.07.2019
5544 Clear 10 1023 87 16093 0.16 151.991 12:45 02.07.2019
5545 Clear 11 1023 87 16093 0.1 291.595 12:23 02.07.2019
5546 Clear 12 1023 87 14484 1.5 70 11:45 02.07.2019
5547 Clear 12 1023 87 14484 1.5 70 11:25 02.07.2019
5548 Clouds 12 1023 82 16093 0.1 291.595 10:59 02.07.2019
5549 Clear 13 1023 82 16093 1.5 70 10:37 02.07.2019
5550 Clouds 13 1023 72 16093 0.1 291.595 10:19 02.07.2019
5551 Clear 14 1023 55 16093 0.1 291.595 09:42 02.07.2019
5552 Clear 15 1023 52 16093 2.1 320 09:19 02.07.2019
5553 Clear 16 1023 52 16093 2.1 320 08:40 02.07.2019
5554 Clouds 16 1023 48 16093 2.6 280 08:20 02.07.2019
5555 Clear 17 1023 45 16093 3.1 290 07:50 02.07.2019
5556 Clear 17 1023 45 16093 3.1 290 07:20 02.07.2019
5557 Clouds 18 1023 45 16093 2.6 240 06:42 02.07.2019
5558 Clouds 18 1023 45 16093 4.6 250 05:55 02.07.2019
5559 Clouds 18 1024 45 16093 4.6 250 02:43 02.07.2019
5560 Clouds 18 1025 52 16093 6.2 240 00:48 02.07.2019
5561 Clouds 17 1025 51 16093 8.2 250 23:43 01.07.2019
5562 Clouds 16 1025 67 16093 3.1 280 23:19 01.07.2019
5563 Clouds 17 1025 55 16093 6.7 230 22:44 01.07.2019
5564 Clouds 16 1025 51 16093 7.7 250 22:26 01.07.2019
5565 Clear 16 1025 63 16093 4.6 240 21:46 01.07.2019
5566 Clear 16 1025 63 16093 4.6 240 21:25 01.07.2019
5567 Clouds 15 1025 77 16093 5.1 240 20:51 01.07.2019
5568 Clouds 14 1025 67 16093 3.6 230 20:21 01.07.2019
5569 Clouds 14 1025 67 16093 3.6 230 19:57 01.07.2019
5570 Clouds 14 1025 77 16093 5.7 250 19:39 01.07.2019
5571 Clouds 14 1025 76 16093 3.1 260 19:21 01.07.2019
5572 Smoke 14 1025 82 16093 5.1 220 18:51 01.07.2019
5573 Smoke 14 1025 82 16093 5.1 220 18:29 01.07.2019
5574 Rain 14 1025 87 16093 1.72 257.333 17:57 01.07.2019
5575 Rain 14 1024 77 16093 1.5 240 17:39 01.07.2019
5576 Rain 14 1024 82 16093 3.1 260 17:19 01.07.2019
5577 Smoke 14 1024 93 16093 2.6 270 16:44 01.07.2019
5578 Smoke 14 1024 93 16093 2.6 270 16:24 01.07.2019
5579 Smoke 14 1024 87 16093 1.5 220 15:46 01.07.2019
5580 Smoke 14 1024 93 16093 3.1 240 15:26 01.07.2019
5581 Smoke 14 1023 93 16093 2.1 210 14:45 01.07.2019
5582 Smoke 14 1023 93 16093 2.1 210 14:45 01.07.2019
5583 Smoke 15 1023 93 16093 2.1 210 14:24 01.07.2019
5584 -273 0 0 0 0 0 13:55 01.07.2019
5585 Rain 15 1023 93 16093 3.1 220 13:37 01.07.2019
5586 Rain 15 1023 93 16093 3.1 220 13:18 01.07.2019
5587 Rain 15 1023 93 16093 2.6 220 12:39 01.07.2019
5588 Rain 15 1023 93 16093 2.6 220 12:39 01.07.2019
5589 Rain 15 1023 93 16093 2.6 220 12:20 01.07.2019
5590 Rain 15 1023 93 16093 2.6 220 12:20 01.07.2019
5591 Rain 15 1023 93 14484 1.46 230.049 11:48 01.07.2019
5592 Rain 15 1023 88 14484 5.7 230 11:28 01.07.2019
5593 Smoke 15 1023 88 14484 4.1 230 11:00 01.07.2019
5594 Smoke 15 1022 93 16093 3.1 220 10:41 01.07.2019
5595 Smoke 16 1022 93 16093 3.1 220 10:20 01.07.2019
5596 Rain 16 1022 93 16093 4.1 220 09:41 01.07.2019
5597 Rain 16 1022 93 16093 4.1 220 09:22 01.07.2019
5598 Rain 17 1022 93 16093 4.1 220 08:39 01.07.2019
5599 Rain 17 1022 93 16093 4.1 220 08:21 01.07.2019
5600 Rain 17 1021 93 16093 4.6 220 07:33 01.07.2019
5601 Rain 18 1021 100 11265 3.1 220 06:41 01.07.2019
5602 Rain 18 1020 88 9656 3.1 240 04:31 01.07.2019
5603 Smoke 24 1018 47 1609 3.1 310 00:54 01.07.2019
5604 Smoke 25 1018 54 3219 5.1 300 00:31 01.07.2019
5605 Smoke 26 1018 47 16093 2.1 250 23:58 30.06.2019
5606 Smoke 25 1018 47 16093 2.1 250 23:24 30.06.2019
5607 Smoke 25 1018 50 3219 2.6 20 22:55 30.06.2019
5608 Smoke 25 1018 50 16093 1.45 300.381 22:23 30.06.2019
5609 Smoke 24 1018 53 16093 1.45 300.381 21:58 30.06.2019
5610 Smoke 24 1018 53 16093 1.45 300.381 21:40 30.06.2019
5611 Smoke 24 1018 53 16093 0.25 41.537 21:18 30.06.2019
5612 Haze 22 1018 56 9656 2.1 120 20:41 30.06.2019
5613 Haze 22 1018 56 9656 2.1 120 20:23 30.06.2019
5614 Smoke 21 1019 60 12874 2.6 70 19:51 30.06.2019
5615 Smoke 20 1019 60 12874 2.6 70 19:25 30.06.2019
5616 Thunderstorm 20 1019 68 16093 1.07 348.354 18:48 30.06.2019
5617 Thunderstorm 19 1019 68 16093 0.33 155.225 18:22 30.06.2019
5618 Smoke 19 1019 72 16093 1.5 60 17:41 30.06.2019
5619 Smoke 19 1018 72 16093 1.5 80 17:20 30.06.2019
5620 Smoke 18 1018 72 16093 1.5 80 16:56 30.06.2019
5621 Smoke 18 1018 72 16093 1.5 80 16:37 30.06.2019
5622 Smoke 18 1018 72 16093 1.5 80 16:18 30.06.2019
5623 Smoke 18 1018 68 14484 1.5 80 15:36 30.06.2019
5624 Smoke 18 1018 68 16093 2.1 60 15:18 30.06.2019
5625 Smoke 18 1018 68 16093 2.1 70 14:45 30.06.2019
5626 Smoke 18 1018 68 16093 2.1 70 14:27 30.06.2019
5627 Haze 19 1018 72 4828 0.78 298.051 13:43 30.06.2019
5628 Haze 19 1018 72 4828 0.95 296.997 13:23 30.06.2019
5629 Haze 19 1018 68 4426 0.95 296.997 12:48 30.06.2019
5630 Haze 20 1018 64 4828 1.5 70 12:25 30.06.2019
5631 Haze 20 1017 77 4828 1.16 305.457 11:55 30.06.2019
5632 Haze 20 1017 72 3621 1.16 305.457 11:36 30.06.2019
5633 Haze 20 1017 72 3621 1.16 305.457 11:18 30.06.2019
5634 Haze 20 1017 64 3621 1.16 305.457 10:40 30.06.2019
5635 Haze 21 1017 64 3621 1.16 305.457 10:19 30.06.2019
5636 Haze 23 1017 47 3017 1.5 280 09:44 30.06.2019
5637 Haze 24 1017 47 3017 1.5 280 09:23 30.06.2019
5638 Haze 24 1017 39 3621 1.5 310 08:59 30.06.2019
5639 Haze 25 1016 34 4828 2.6 330 08:32 30.06.2019
5640 Haze 26 1016 32 4828 2.6 320 07:59 30.06.2019
5641 Haze 26 1016 33 3621 2.1 340 07:29 30.06.2019
5642 Haze 28 1016 27 9656 2.6 300 06:51 30.06.2019
5643 Smoke 29 1016 23 14484 3.6 320 05:54 30.06.2019
5644 Smoke 30 1017 25 6437 4.6 280 02:59 30.06.2019
5645 Smoke 30 1018 42 16093 2.6 200 01:31 30.06.2019
5646 Smoke 29 1018 42 12874 2.6 190 00:38 30.06.2019
5647 Smoke 28 1019 44 14484 3.5 260.699 23:57 29.06.2019
5648 Smoke 27 1019 44 14484 3.5 260.699 23:25 29.06.2019
5649 Smoke 27 1019 44 14484 3.5 260.699 23:25 29.06.2019
5650 Haze 26 1019 53 9656 3.5 260.699 22:59 29.06.2019
5651 Haze 25 1019 53 9656 3.5 260.699 22:40 29.06.2019
5652 Haze 25 1019 53 9656 3.5 260.699 22:21 29.06.2019
5653 Smoke 24 1019 56 11265 4.19 261.126 21:51 29.06.2019
5654 Smoke 23 1019 56 11265 1.4 189.873 21:23 29.06.2019
5655 Smoke 22 1020 60 12874 1.4 189.873 20:45 29.06.2019
5656 Smoke 22 1020 60 12874 1.4 189.873 20:27 29.06.2019
5657 Smoke 20 1020 68 16093 1.4 189.873 19:48 29.06.2019
5658 Smoke 20 1020 68 16093 1.4 189.873 19:24 29.06.2019
5659 Smoke 19 1019 72 8047 1.4 189.873 18:54 29.06.2019
5660 Smoke 19 1019 72 16093 1.5 90 18:27 29.06.2019
5661 Smoke 18 1019 77 16093 2.6 70 17:55 29.06.2019
5662 Smoke 18 1019 77 16093 2.6 70 17:36 29.06.2019
5663 Smoke 18 1019 77 16093 2.6 70 17:18 29.06.2019
5664 Smoke 17 1019 87 12874 2.1 50 16:42 29.06.2019
5665 Smoke 16 1019 82 14484 3.1 90 15:54 29.06.2019
5666 Smoke 16 1019 82 14484 3.1 90 15:31 29.06.2019
5667 Smoke 16 1019 82 14484 1.5 70 14:45 29.06.2019
5668 Smoke 15 1019 82 14484 1.5 70 14:26 29.06.2019
5669 Smoke 16 1018 87 16093 1.5 70 13:50 29.06.2019
5670 Smoke 16 1018 87 16093 1.5 70 13:27 29.06.2019
5671 Smoke 17 1018 82 16093 0.84 74.721 12:57 29.06.2019
5672 Smoke 17 1018 82 16093 0.84 74.721 12:37 29.06.2019
5673 Smoke 17 1018 82 16093 0.65 358.768 12:18 29.06.2019
5674 Smoke 18 1018 82 16093 0.65 358.768 11:40 29.06.2019
5675 Smoke 18 1018 82 16093 0.65 358.768 11:21 29.06.2019
5676 Smoke 20 1017 64 16093 1.5 90 10:41 29.06.2019
5677 Smoke 20 1017 64 16093 1.5 90 10:20 29.06.2019
5678 Smoke 22 1017 60 16093 0.65 358.768 09:48 29.06.2019
5679 Smoke 23 1016 39 16093 1.5 0 08:54 29.06.2019
5680 Smoke 24 1017 34 16093 1.72 280.573 08:25 29.06.2019
5681 Smoke 25 1016 34 16093 3.1 250 07:44 29.06.2019
5682 Smoke 27 1016 32 16093 2.1 280 06:47 29.06.2019
5683 Smoke 27 1016 32 16093 2.1 280 06:24 29.06.2019
5684 Smoke 28 1017 30 16093 3.6 250 03:25 29.06.2019
5685 Smoke 28 1018 37 16093 3.6 190 01:32 29.06.2019
5686 Smoke 27 1018 39 16093 3.1 200 00:32 29.06.2019
5687 Smoke 26 1019 41 16093 3.05 276.624 23:38 28.06.2019
5688 Smoke 26 1019 41 16093 3.05 276.624 23:20 28.06.2019
5689 Smoke 25 1019 47 14484 3.05 276.624 22:46 28.06.2019
5690 Smoke 24 1019 49 14484 3.05 276.624 21:58 28.06.2019
5691 Smoke 23 1019 49 14484 3.05 276.624 21:27 28.06.2019
5692 Smoke 22 1019 60 16093 1.3 230.245 20:55 28.06.2019
5693 Smoke 21 1019 60 16093 1.3 230.245 20:37 28.06.2019
5694 Smoke 20 1019 60 16093 1.3 230.245 20:18 28.06.2019
5695 Smoke 19 1019 63 14484 1.3 230.245 19:37 28.06.2019
5696 Smoke 19 1019 63 14484 1.3 230.245 19:19 28.06.2019
5697 Smoke 18 1019 72 14484 1.5 10 18:41 28.06.2019
5698 Smoke 18 1019 72 14484 1.5 10 18:21 28.06.2019
5699 Smoke 16 1019 77 12874 0.57 162.934 17:41 28.06.2019
5700 Smoke 16 1019 77 12874 0.57 162.934 17:23 28.06.2019
5701 Smoke 15 1019 82 12874 0.57 162.934 16:46 28.06.2019
5702 Smoke 14 1019 82 12874 0.57 162.934 16:18 28.06.2019
5703 Smoke 14 1019 93 12874 0.57 162.934 15:40 28.06.2019
5704 Smoke 14 1019 93 12874 0.05 151.477 15:18 28.06.2019
5705 Smoke 15 1019 82 14484 0.05 151.477 14:39 28.06.2019
5706 Smoke 15 1019 82 14484 0.05 151.477 14:21 28.06.2019
5707 Smoke 14 1018 87 16093 0.05 151.477 13:46 28.06.2019
5708 Smoke 15 1018 87 16093 0.52 75.29 13:27 28.06.2019
5709 Smoke 15 1018 87 16093 0.52 75.29 12:51 28.06.2019
5710 Smoke 15 1018 87 16093 0.52 75.29 12:32 28.06.2019
5711 Smoke 16 1018 77 14484 0.68 84.783 11:40 28.06.2019
5712 Smoke 16 1018 77 14484 0.68 84.783 11:18 28.06.2019
5713 Clouds 17 1018 72 16093 0.68 84.783 10:40 28.06.2019
5714 Clouds 17 1018 72 16093 0.68 84.783 10:18 28.06.2019
5715 Smoke 18 1018 60 8047 0.68 84.783 09:44 28.06.2019
5716 Smoke 18 1018 60 8047 0.7 28.936 09:25 28.06.2019
5717 Smoke 19 1018 64 8047 1.5 80 08:43 28.06.2019
5718 Smoke 19 1018 64 8047 1.5 80 08:24 28.06.2019
5719 Smoke 19 1018 52 6437 2.1 60 07:42 28.06.2019
5720 Haze 20 1019 53 6437 2.1 30 06:54 28.06.2019
5721 Smoke 21 1019 43 8047 1.5 360 04:35 28.06.2019
5722 Smoke 22 1019 37 9656 0.93 18.687 00:48 28.06.2019
5723 Smoke 22 1019 37 9656 1.06 39.377 00:20 28.06.2019
5724 Haze 21 1020 40 9656 1.06 39.377 23:46 27.06.2019
5725 Haze 21 1020 40 9656 1.06 39.377 23:46 27.06.2019
5726 Haze 21 1020 40 9656 1.06 39.377 23:24 27.06.2019
5727 Smoke 20 1020 40 9656 1.06 39.377 22:44 27.06.2019
5728 Smoke 20 1020 40 9656 1.06 39.377 22:25 27.06.2019
5729 Smoke 19 1020 52 16093 1.06 39.377 21:58 27.06.2019
5730 Smoke 19 1020 45 6437 1.5 100 21:40 27.06.2019
5731 Smoke 18 1020 45 6437 1.5 100 21:20 27.06.2019
5732 Smoke 17 1021 48 8047 1.5 100 20:49 27.06.2019
5733 Smoke 17 1021 48 8047 1.5 100 20:31 27.06.2019
5734 Smoke 16 1021 51 8047 2.6 80 19:50 27.06.2019
5735 Smoke 16 1021 51 8047 2.6 80 19:30 27.06.2019
5736 Smoke 16 1021 54 9656 2.1 50 18:55 27.06.2019
5737 Smoke 15 1021 54 9656 2.1 50 18:33 27.06.2019
5738 Smoke 14 1021 62 12874 2.1 70 17:58 27.06.2019
5739 Smoke 14 1021 62 12874 2.1 70 17:37 27.06.2019
5740 Smoke 14 1021 62 12874 2.1 70 17:19 27.06.2019
5741 Smoke 13 1021 66 12874 2.6 80 16:39 27.06.2019
5742 Smoke 13 1021 66 12874 2.6 80 16:19 27.06.2019
5743 Smoke 14 1020 62 12874 2.6 70 15:45 27.06.2019
5744 Smoke 11 1020 62 12874 2.6 70 15:24 27.06.2019
5745 Smoke 12 1020 66 12874 2.1 80 14:52 27.06.2019
5746 Smoke 11 1020 66 12874 2.1 80 14:30 27.06.2019
5747 Smoke 12 1020 62 12874 2.1 80 13:50 27.06.2019
5748 Smoke 12 1020 62 12874 2.1 80 13:32 27.06.2019
5749 Smoke 13 1020 67 14484 1.5 70 12:58 27.06.2019
5750 Smoke 13 1020 67 14484 1.5 70 12:38 27.06.2019
5751 Smoke 14 1020 67 14484 1.5 70 12:19 27.06.2019
5752 Smoke 15 1020 72 16093 0.49 138.161 11:42 27.06.2019
5753 Smoke 15 1020 72 16093 0.49 138.161 11:21 27.06.2019
5754 Smoke 16 1019 59 14484 0.49 138.161 10:55 27.06.2019
5755 Smoke 16 1019 59 14484 0.49 138.161 10:36 27.06.2019
5756 Smoke 16 1019 59 14484 0.49 138.161 10:18 27.06.2019
5757 Smoke 18 1019 43 8047 0.49 138.161 09:36 27.06.2019
5758 Smoke 19 1019 43 8047 0.77 258.066 09:18 27.06.2019
5759 Smoke 20 1019 43 11265 0.67 261.117 08:41 27.06.2019
5760 Smoke 20 1019 43 11265 0.67 261.117 08:19 27.06.2019
5761 Smoke 22 1019 23 12874 2.6 240 07:39 27.06.2019
5762 Smoke 23 1019 22 16093 2.6 250 06:54 27.06.2019
5763 Smoke 23 1019 22 16093 2.6 250 06:28 27.06.2019
5764 Smoke 25 1019 16 16093 3.6 30 03:22 27.06.2019
5765 Smoke 25 1020 17 16093 2.6 340 02:39 27.06.2019
5766 Smoke 25 1020 20 16093 1.5 280 01:18 27.06.2019
5767 Smoke 24 1020 20 16093 2.1 360 00:42 27.06.2019
5768 Smoke 24 1020 22 16093 2.1 360 00:19 27.06.2019
5769 Smoke 23 1020 20 16093 0.97 17.033 23:42 26.06.2019
5770 Smoke 24 1020 20 16093 0.97 17.033 23:22 26.06.2019
5771 Smoke 23 1021 22 16093 2.1 170 22:55 26.06.2019
5772 Smoke 22 1021 22 16093 2.1 170 22:37 26.06.2019
5773 Smoke 22 1021 22 16093 2.1 170 22:18 26.06.2019
5774 Smoke 21 1021 26 16093 3.1 70 21:39 26.06.2019
5775 Smoke 21 1021 26 16093 3.1 70 21:39 26.06.2019
5776 Smoke 20 1021 26 16093 3.1 70 21:19 26.06.2019
5777 Smoke 19 1021 30 16093 4.1 90 20:50 26.06.2019
5778 Smoke 19 1021 30 16093 4.1 90 20:30 26.06.2019
5779 Smoke 18 1021 45 16093 2.1 40 19:52 26.06.2019
5780 Smoke 18 1021 45 16093 2.1 40 19:52 26.06.2019
5781 Smoke 18 1021 45 16093 2.1 40 19:32 26.06.2019
5782 Smoke 16 1021 51 16093 1.5 60 18:58 26.06.2019
5783 Smoke 15 1021 51 16093 1.5 60 18:39 26.06.2019
5784 Smoke 15 1021 51 16093 1.5 60 18:21 26.06.2019
5785 Smoke 13 1021 58 14484 2.1 50 17:46 26.06.2019
5786 Smoke 13 1021 58 14484 2.1 50 17:46 26.06.2019
5787 Smoke 13 1021 58 14484 2.1 50 17:27 26.06.2019
5788 Smoke 13 1021 58 14484 2.1 50 17:27 26.06.2019
5789 Smoke 13 1021 58 14484 2.1 50 17:27 26.06.2019
5790 Smoke 13 1021 58 14484 2.1 50 17:27 26.06.2019
5791 Smoke 12 1021 71 11265 1.9 32.425 16:52 26.06.2019
5792 Smoke 12 1021 71 11265 1.9 32.425 16:30 26.06.2019
5793 Smoke 12 1020 76 14484 2.1 80 15:58 26.06.2019
5794 Smoke 12 1020 76 14484 2.1 80 15:58 26.06.2019
5795 Smoke 11 1020 76 14484 2.1 80 15:28 26.06.2019
5796 -273 0 0 0 0 0 14:57 26.06.2019
5797 Smoke 12 1020 66 14484 2.18 29.791 14:57 26.06.2019
5798 -273 0 0 0 0 0 14:37 26.06.2019
5799 Smoke 12 1020 66 14484 2.18 29.791 14:18 26.06.2019
5800 Smoke 12 1019 62 16093 2.18 29.791 13:39 26.06.2019
5801 Smoke 13 1019 62 16093 2.05 33.558 13:18 26.06.2019
5802 Smoke 14 1019 58 16093 2.1 70 12:40 26.06.2019
5803 Smoke 15 1019 58 16093 2.1 70 12:20 26.06.2019
5804 Smoke 15 1019 55 12874 3.6 60 11:37 26.06.2019
5805 Smoke 15 1019 55 12874 3.6 60 11:18 26.06.2019
5806 Smoke 17 1018 48 11265 3.6 60 10:39 26.06.2019
5807 Smoke 17 1018 48 11265 3.6 60 10:20 26.06.2019
5808 Smoke 18 1017 42 6437 3.1 50 09:36 26.06.2019
5809 Smoke 18 1017 42 6437 3.1 50 09:36 26.06.2019
5810 Smoke 18 1017 42 6437 3.1 50 09:18 26.06.2019
5811 Haze 19 1017 40 8047 3.6 50 08:23 26.06.2019
5812 Smoke 20 1016 35 4828 2.1 20 07:59 26.06.2019
5813 Smoke 20 1016 35 4828 2.1 20 07:41 26.06.2019
5814 Smoke 22 1016 33 6437 3.1 30 06:33 26.06.2019
5815 Clouds 23 1015 23 16093 1.5 290 03:34 26.06.2019
5816 Smoke 22 1016 35 16093 2.1 260 00:42 26.06.2019
5817 Smoke 22 1016 35 16093 2.1 260 00:18 26.06.2019
5818 Smoke 22 1016 35 16093 2.1 220 23:39 25.06.2019
5819 Smoke 21 1016 35 16093 2.1 220 23:20 25.06.2019
5820 Smoke 21 1016 37 16093 2.85 297.509 22:42 25.06.2019
5821 Smoke 21 1016 37 16093 2.85 297.509 22:23 25.06.2019
5822 Smoke 20 1016 43 16093 2.1 0 21:47 25.06.2019
5823 Smoke 20 1016 48 16093 2.85 297.509 21:27 25.06.2019
5824 Smoke 19 1016 59 16093 0.7 253.348 20:59 25.06.2019
5825 Smoke 18 1016 59 16093 1.2 235.992 20:37 25.06.2019
5826 Smoke 18 1016 59 16093 1.2 235.992 20:18 25.06.2019
5827 Smoke 17 1016 62 16093 1.5 120 19:45 25.06.2019
5828 Smoke 16 1016 62 16093 1.5 120 19:22 25.06.2019
5829 Smoke 14 1016 71 16093 2.6 80 18:43 25.06.2019
5830 Smoke 13 1016 71 16093 2.6 80 18:25 25.06.2019
5831 Smoke 12 1016 76 16093 2.1 70 17:49 25.06.2019
5832 Smoke 12 1016 76 16093 2.1 70 17:49 25.06.2019
5833 -273 0 0 0 0 0 17:28 25.06.2019
5834 -273 0 0 0 0 0 17:28 25.06.2019
5835 Smoke 12 1016 81 16093 1.5 80 16:55 25.06.2019
5836 Smoke 12 1016 81 16093 1.5 80 16:37 25.06.2019
5837 Smoke 12 1016 81 16093 1.5 80 16:19 25.06.2019
5838 Clear 11 1015 87 16093 1.5 60 15:40 25.06.2019
5839 Clear 10 1015 87 16093 1.5 60 15:21 25.06.2019
5840 Clear 10 1015 81 14484 0.86 335.08 14:51 25.06.2019
5841 Clear 10 1015 81 14484 0.86 335.08 14:51 25.06.2019
5842 Clear 10 1015 81 14484 0.86 335.08 14:32 25.06.2019
5843 Clear 11 1015 87 14484 0.86 335.08 13:43 25.06.2019
5844 Clear 11 1015 87 14484 0.78 333.5 13:24 25.06.2019
5845 Clear 12 1015 87 16093 0.78 333.5 12:43 25.06.2019
5846 Clear 13 1015 87 16093 1.33 320.233 12:24 25.06.2019
5847 Clear 14 1014 76 12874 1.33 320.233 11:47 25.06.2019
5848 Clear 14 1014 76 12874 1.33 320.233 11:26 25.06.2019
5849 Clear 15 1014 45 16093 1.5 270 10:59 25.06.2019
5850 -273 0 0 0 0 0 10:58 25.06.2019
5851 Clouds 15 1014 67 16093 1.5 180 10:37 25.06.2019
5852 Clouds 15 1014 67 16093 1.5 180 10:37 25.06.2019
5853 Clouds 15 1014 67 16093 1.5 180 10:19 25.06.2019
5854 Clear 18 1014 37 16093 3.6 250 09:39 25.06.2019
5855 Clouds 17 1014 40 16093 3.21 288.068 09:21 25.06.2019
5856 Clear 19 1014 28 16093 5.1 260 08:54 25.06.2019
5857 Clear 19 1014 28 16093 5.1 260 08:31 25.06.2019
5858 Clear 20 1014 31 16093 4.6 250 07:45 25.06.2019
5859 Clear 21 1014 31 16093 4.6 250 07:26 25.06.2019
5860 Clouds 21 1013 31 16093 6.2 260 06:47 25.06.2019
5861 Clouds 21 1013 31 16093 6.2 260 06:23 25.06.2019
5862 Clouds 23 1015 31 16093 5.7 250 02:44 25.06.2019
5863 Clear 22 1016 35 16093 6.2 260 00:57 25.06.2019
5864 Clear 21 1016 35 16093 6.2 260 00:25 25.06.2019
5865 Clouds 21 1016 43 16093 6.7 220 23:52 24.06.2019
5866 Clouds 20 1016 46 16093 4.1 230 23:33 24.06.2019
5867 Clouds 20 1016 68 16093 2.1 220 22:49 24.06.2019
5868 Clouds 19 1016 68 16093 2.1 220 22:22 24.06.2019
5869 Clouds 18 1016 82 16093 1.5 210 21:58 24.06.2019
5870 Rain 18 1016 82 16093 1.5 210 21:37 24.06.2019
5871 Rain 18 1016 82 16093 1.5 210 21:37 24.06.2019
5872 Rain 17 1016 87 14484 2.94 248.72 21:18 24.06.2019
5873 Rain 16 1016 87 14484 4.05 254.62 20:43 24.06.2019
5874 Clouds 16 1016 87 14484 4.05 254.62 20:23 24.06.2019
5875 Clouds 15 1017 87 16093 4.05 254.62 19:58 24.06.2019
5876 Clouds 15 1017 87 16093 4.05 254.62 19:39 24.06.2019
5877 Clouds 15 1017 87 16093 4.05 254.62 19:21 24.06.2019
5878 Clouds 14 1016 100 12874 1.5 60 18:41 24.06.2019
5879 Clouds 14 1016 100 12874 1.5 60 18:20 24.06.2019
5880 Clouds 14 1017 93 16093 0.89 285.796 17:37 24.06.2019
5881 Clouds 14 1017 93 16093 0.89 285.796 17:18 24.06.2019
5882 Rain 13 1017 93 12874 0.89 285.796 16:44 24.06.2019
5883 Rain 13 1017 93 12874 0.89 285.796 16:19 24.06.2019
5884 Rain 13 1017 93 16093 2.1 70 15:44 24.06.2019
5885 Rain 13 1017 93 16093 2.1 70 15:25 24.06.2019
5886 Clouds 13 1017 93 16093 1.14 315.496 14:37 24.06.2019
5887 Clouds 13 1017 93 16093 1.14 315.496 14:19 24.06.2019
5888 Rain 14 1017 87 14484 1 330.326 13:33 24.06.2019
5889 Clouds 14 1017 77 16093 1.5 280 12:58 24.06.2019
5890 Rain 14 1017 77 16093 1.5 280 12:39 24.06.2019
5891 Rain 14 1017 77 16093 1.5 280 12:20 24.06.2019
5892 Clouds 15 1017 77 16093 2.6 300 11:44 24.06.2019
5893 Clouds 15 1017 77 16093 2.6 300 11:26 24.06.2019
5894 Rain 15 1017 77 16093 2.6 250 10:52 24.06.2019
5895 Rain 15 1017 77 16093 2.6 250 10:33 24.06.2019
5896 Rain 15 1017 72 16093 2.1 250 09:56 24.06.2019
5897 Rain 16 1017 72 16093 2.1 250 09:37 24.06.2019
5898 Rain 16 1017 72 16093 2.1 250 09:18 24.06.2019
5899 Smoke 16 1016 68 16093 1.5 220 08:34 24.06.2019
5900 Clouds 17 1017 88 14484 3.09 312.059 07:50 24.06.2019
5901 Smoke 17 1017 88 14484 3.09 312.059 07:27 24.06.2019
5902 Smoke 18 1017 82 16093 3.09 312.059 06:57 24.06.2019
5903 Smoke 18 1017 82 16093 2.29 244.72 06:23 24.06.2019
5904 Smoke 18 1017 77 16093 2.29 244.72 05:31 24.06.2019
5905 Rain 18 1017 82 16093 1.5 250 04:34 24.06.2019
5906 Smoke 18 1017 88 12874 2.1 210 03:32 24.06.2019
5907 Rain 17 1018 82 16093 2.07 263.023 02:35 24.06.2019
5908 Rain 17 1018 82 12874 1.5 270 01:54 24.06.2019
5909 Rain 17 1018 82 16093 2.49 277.154 01:28 24.06.2019
5910 Clouds 17 1018 93 16093 2.49 277.154 00:46 24.06.2019
5911 Clouds 16 1018 93 16093 2.01 304.41 00:20 24.06.2019
5912 Rain 16 1018 93 16093 2.01 304.41 23:47 23.06.2019
5913 Rain 16 1018 93 16093 2.01 304.41 23:28 23.06.2019
5914 Rain 16 1017 82 11265 2.01 304.41 22:56 23.06.2019
5915 Rain 16 1018 93 16093 2.01 304.41 22:38 23.06.2019
5916 Rain 16 1018 93 16093 2.01 304.41 22:19 23.06.2019
5917 Rain 16 1018 93 11265 2.01 304.41 21:40 23.06.2019
5918 Rain 16 1018 93 11265 0.99 304.878 21:21 23.06.2019
5919 Rain 16 1018 93 14484 0.99 304.878 20:49 23.06.2019
5920 Clouds 16 1017 93 16093 1.5 190 20:29 23.06.2019
5921 Clouds 15 1017 93 14484 0.72 249.611 19:46 23.06.2019
5922 Clouds 15 1017 87 11265 0.72 249.611 19:22 23.06.2019
5923 Clouds 15 1017 100 14484 0.72 249.611 18:55 23.06.2019
5924 Clouds 14 1017 100 14484 0.72 249.611 18:26 23.06.2019
5925 Rain 14 1017 93 11265 1.5 50 17:59 23.06.2019
5926 Rain 15 1017 93 11265 1.5 50 17:38 23.06.2019
5927 Rain 14 1017 93 11265 1.5 50 17:19 23.06.2019
5928 Rain 15 1017 100 11265 0.37 17.447 16:43 23.06.2019
5929 Rain 14 1017 100 11265 0.37 17.447 16:23 23.06.2019
5930 Rain 15 1016 93 9656 0.37 17.447 15:41 23.06.2019
5931 Rain 14 1016 93 9656 0.2 136.228 15:22 23.06.2019
5932 Rain 15 1016 93 9656 2.6 40 14:42 23.06.2019
5933 Rain 14 1016 93 9656 2.6 40 14:24 23.06.2019
5934 Rain 14 1016 87 16093 0.2 136.228 13:59 23.06.2019
5935 Rain 14 1016 87 16093 0.2 136.228 13:41 23.06.2019
5936 Rain 14 1016 87 16093 0.44 311.831 13:19 23.06.2019
5937 Rain 15 1016 82 2213 0.44 311.831 12:47 23.06.2019
5938 Rain 15 1016 88 1609 4.1 20 12:23 23.06.2019
5939 Rain 16 1016 77 12874 3.6 30 11:58 23.06.2019
5940 Rain 16 1016 87 14484 3.6 60 11:40 23.06.2019
5941 Rain 16 1016 87 14484 3.6 60 11:21 23.06.2019
5942 Rain 15 1016 93 16093 0.71 153.147 10:46 23.06.2019
5943 Rain 16 1015 82 12874 3.6 80 10:20 23.06.2019
5944 Rain 16 1015 82 12874 3.6 80 10:20 23.06.2019
5945 Thunderstorm 16 1015 77 14484 3.1 80 09:53 23.06.2019
5946 Clouds 17 1015 63 14484 3.1 230 09:21 23.06.2019
5947 Clouds 17 1014 59 14484 0.24 223.796 08:46 23.06.2019
5948 Clouds 17 1014 59 14484 0.92 5.791 08:27 23.06.2019
5949 Clouds 18 1014 59 16093 4.1 210 07:55 23.06.2019
5950 Thunderstorm 19 1014 52 16093 5.7 200 07:24 23.06.2019
5951 Rain 19 1014 56 16093 3.1 130 06:54 23.06.2019
5952 Rain 20 1013 44 14484 4.6 40 05:55 23.06.2019
5953 Thunderstorm 24 1013 34 16093 7.2 90 04:38 23.06.2019
5954 Clear 26 1012 36 16093 3.6 250 02:20 23.06.2019
5955 Clouds 26 1013 41 16093 4.6 280 01:37 23.06.2019
5956 Clear 25 1013 41 16093 3.1 240 00:37 23.06.2019
5957 Clear 24 1013 50 16093 3.6 220 23:57 22.06.2019
5958 Clear 24 1013 50 16093 3.6 220 23:38 22.06.2019
5959 Clear 24 1013 50 16093 3.6 220 23:20 22.06.2019
5960 Clear 23 1014 53 14484 1.59 305.969 22:44 22.06.2019
5961 Clear 23 1014 53 14484 1.59 305.969 22:22 22.06.2019
5962 Clear 21 1014 64 16093 1.59 305.969 21:39 22.06.2019
5963 Clear 20 1014 64 16093 1.3 284.452 21:20 22.06.2019
5964 Clouds 19 1014 82 12874 1.3 284.452 20:51 22.06.2019
5965 Clouds 19 1014 82 12874 1.35 273.986 20:25 22.06.2019
5966 Clouds 18 1014 82 14484 1.35 273.986 19:50 22.06.2019
5967 Clouds 17 1014 82 14484 1.35 273.986 19:28 22.06.2019
5968 Clouds 16 1014 87 12874 2.1 120 18:56 22.06.2019
5969 Clouds 16 1014 87 12874 2.1 120 18:36 22.06.2019
5970 Rain 15 1014 82 14484 1.5 40 18:18 22.06.2019
5971 Rain 15 1014 82 14484 1.5 40 17:38 22.06.2019
5972 Clouds 15 1014 82 14484 1.5 40 17:18 22.06.2019
5973 Rain 15 1014 82 14484 1.5 180 16:39 22.06.2019
5974 Rain 14 1014 82 14484 1.5 180 16:20 22.06.2019
5975 Rain 15 1013 77 14484 2.1 230 15:40 22.06.2019
5976 Rain 14 1013 87 16093 2.1 190 15:22 22.06.2019
5977 Rain 15 1013 77 14484 1.5 230 14:41 22.06.2019
5978 Clouds 15 1013 77 14484 1.5 230 14:20 22.06.2019
5979 Clear 15 1013 82 14484 1.36 321.143 13:42 22.06.2019
5980 Clear 15 1013 82 14484 1.11 333.505 13:23 22.06.2019
5981 Clouds 15 1013 77 14484 2.1 150 12:53 22.06.2019
5982 Clouds 16 1013 77 14484 2.1 150 12:34 22.06.2019
5983 Smoke 17 1012 56 16093 2.1 260 11:58 22.06.2019
5984 Smoke 17 1012 56 16093 2.1 260 11:34 22.06.2019
5985 Rain 18 1012 52 14484 6.2 240 10:53 22.06.2019
5986 Rain 18 1012 52 14484 6.2 240 10:21 22.06.2019
5987 Rain 18 1012 52 14484 6.2 240 10:21 22.06.2019
5988 Rain 20 1012 49 12874 6.7 250 09:55 22.06.2019
5989 Rain 20 1012 49 12874 5.7 240 09:23 22.06.2019
5990 Rain 21 1012 38 16093 5.1 130 08:43 22.06.2019
5991 Rain 22 1012 38 16093 5.1 130 08:23 22.06.2019
5992 Rain 24 1011 26 16093 3.1 350 07:33 22.06.2019
5993 Rain 25 1011 43 16093 7.7 160 06:55 22.06.2019
5994 Rain 27 1011 28 16093 4.1 350 05:23 22.06.2019
5995 Clouds 28 1013 23 16093 1.5 250 02:33 22.06.2019
5996 Clouds 27 1014 26 16093 3.6 200 01:22 22.06.2019
5997 Clear 28 1014 28 14484 2.6 250 00:41 22.06.2019
5998 Clear 28 1014 28 14484 2.6 250 00:22 22.06.2019
5999 Clear 27 1015 32 16093 0.64 230.54 23:44 21.06.2019
6000 Clear 27 1015 32 16093 0.64 230.54 23:22 21.06.2019
6001 Clear 26 1016 39 16093 1.5 260 22:50 21.06.2019
6002 Clear 26 1016 39 16093 1.5 260 22:24 21.06.2019
6003 Clear 24 1016 44 16093 0.64 230.54 21:55 21.06.2019
6004 Clear 24 1016 44 16093 0.64 230.54 21:36 21.06.2019
6005 Clear 23 1016 44 16093 0.62 246.094 21:18 21.06.2019
6006 Clear 22 1017 56 16093 0.87 196.163 20:42 21.06.2019
6007 Clear 22 1017 56 16093 0.87 196.163 20:20 21.06.2019
6008 -273 0 0 0 0 0 19:34 21.06.2019
6009 Clear 18 1018 68 16093 1.5 90 18:49 21.06.2019
6010 Clear 18 1018 68 16093 1.5 90 18:29 21.06.2019
6011 Clear 17 1018 72 12874 0.36 99.907 17:46 21.06.2019
6012 Clear 17 1018 72 12874 0.36 99.907 17:28 21.06.2019
6013 Clear 15 1018 72 12874 1.5 60 16:40 21.06.2019
6014 Clear 15 1018 72 12874 1.5 60 16:22 21.06.2019
6015 Clear 15 1018 76 12874 2.1 70 15:40 21.06.2019
6016 Clear 14 1018 76 12874 2.1 70 15:21 21.06.2019
6017 Clear 13 1019 76 14484 0.99 46.89 14:49 21.06.2019
6018 Clear 13 1019 76 14484 0.99 46.89 14:30 21.06.2019
6019 Clear 14 1019 82 14484 0.99 46.89 13:54 21.06.2019
6020 Clear 14 1019 82 14484 1.3 31.576 13:33 21.06.2019
6021 Clear 15 1019 82 16093 1.3 31.576 12:59 21.06.2019
6022 Clear 15 1019 82 16093 1.3 31.576 12:39 21.06.2019
6023 Clear 16 1018 72 14484 0.91 11.556 12:18 21.06.2019
6024 Clear 16 1018 72 14484 0.91 11.556 12:18 21.06.2019
6025 Clear 16 1018 72 14484 0.91 11.556 12:18 21.06.2019
6026 Clear 17 1018 72 14484 0.91 11.556 11:46 21.06.2019
6027 Clear 17 1018 72 14484 0.91 11.556 11:24 21.06.2019
6028 Haze 17 1018 68 9656 0.91 11.556 10:51 21.06.2019
6029 Haze 17 1018 68 9656 0.91 11.556 10:21 21.06.2019
6030 Clear 20 1018 44 16093 0.91 11.556 09:57 21.06.2019
6031 Clear 20 1018 44 16093 0.91 11.556 09:39 21.06.2019
6032 Clear 21 1018 44 16093 0.55 220.961 09:19 21.06.2019
6033 Clouds 22 1018 36 16093 0.55 220.961 08:42 21.06.2019
6034 Clouds 22 1018 36 16093 0.04 189.926 08:22 21.06.2019
6035 Clouds 22 1018 36 16093 0.04 189.926 08:22 21.06.2019
6036 Clouds 23 1019 31 16093 2.6 230 07:50 21.06.2019
6037 Clouds 24 1019 31 16093 2.6 230 07:27 21.06.2019
6038 Clouds 25 1019 30 16093 2.1 220 06:53 21.06.2019
6039 Clouds 25 1019 30 16093 2.1 220 06:20 21.06.2019
6040 Clouds 25 1019 32 16093 4.6 240 05:25 21.06.2019
6041 Clouds 26 1020 28 16093 4.6 230 04:26 21.06.2019
6042 Clouds 27 1020 28 16093 1.11 158.449 03:33 21.06.2019
6043 Rain 27 1021 28 16093 2.1 190 02:48 21.06.2019
6044 Clouds 27 1021 34 16093 2.1 130 01:48 21.06.2019
6045 Clear 27 1022 36 16093 2.6 260 00:55 21.06.2019
6046 Clear 26 1022 36 16093 2.6 260 00:22 21.06.2019
6047 Clear 25 1022 41 16093 2.6 200 23:44 20.06.2019
6048 Clear 25 1022 41 16093 2.6 200 23:22 20.06.2019
6049 Clouds 24 1022 53 16093 1.5 0 22:56 20.06.2019
6050 Clouds 24 1022 53 16093 1.5 0 22:38 20.06.2019
6051 Clouds 24 1022 53 16093 1.5 0 22:19 20.06.2019
6052 Clouds 23 1022 56 16093 1.5 0 21:44 20.06.2019
6053 Clouds 22 1022 56 16093 1.5 0 21:19 20.06.2019
6054 Clouds 21 1023 64 16093 0.95 194.08 20:47 20.06.2019
6055 Clouds 21 1023 64 16093 0.9 192.343 20:26 20.06.2019
6056 Clear 20 1023 68 16093 2.1 90 19:58 20.06.2019
6057 Clear 20 1023 68 16093 2.1 90 19:39 20.06.2019
6058 Clear 19 1023 68 16093 2.1 90 19:18 20.06.2019
6059 Clear 18 1023 72 16093 2.6 60 18:43 20.06.2019
6060 Clear 17 1023 72 16093 2.6 60 18:23 20.06.2019
6061 Clear 16 1023 82 14484 0.58 160.212 17:55 20.06.2019
6062 Clear 16 1023 82 14484 0.58 160.212 17:37 20.06.2019
6063 Clear 15 1023 82 16093 0.58 160.212 16:56 20.06.2019
6064 Clear 14 1023 82 16093 0.58 160.212 16:37 20.06.2019
6065 Clear 14 1023 82 16093 0.58 160.212 16:18 20.06.2019
6066 Clear 13 1023 87 14484 1.5 60 15:41 20.06.2019
6067 Clear 13 1023 87 14484 1.5 60 15:22 20.06.2019
6068 Clear 13 1022 87 14484 0.91 35.172 14:47 20.06.2019
6069 Clear 13 1022 87 14484 0.91 35.172 14:23 20.06.2019
6070 Clear 13 1022 82 14484 2.1 60 13:42 20.06.2019
6071 Clear 13 1022 82 14484 2.1 60 13:42 20.06.2019
6072 Clear 13 1022 82 14484 2.1 60 13:21 20.06.2019
6073 Clear 14 1021 87 14484 1.5 20 12:50 20.06.2019
6074 Clear 14 1021 87 14484 1.5 20 12:25 20.06.2019
6075 Clear 15 1021 82 14484 1.02 339.916 11:58 20.06.2019
6076 Clear 16 1021 82 14484 1.02 339.916 11:38 20.06.2019
6077 Clear 16 1021 82 14484 1.02 339.916 11:20 20.06.2019
6078 Clear 17 1020 68 12874 1.02 339.916 10:41 20.06.2019
6079 Clear 17 1020 68 12874 1.02 339.916 10:22 20.06.2019
6080 Clear 19 1019 49 16093 1.5 300 09:40 20.06.2019
6081 Clear 19 1019 49 16093 1.5 300 09:22 20.06.2019
6082 Clear 20 1019 43 16093 1.77 280.771 08:47 20.06.2019
6083 Clear 21 1019 43 16093 1.77 280.771 08:27 20.06.2019
6084 Clear 22 1019 36 14484 1.5 300 07:55 20.06.2019
6085 Clear 21 1019 36 14484 1.5 300 07:31 20.06.2019
6086 Rain 22 1019 38 16093 1.5 320 06:43 20.06.2019
6087 Rain 22 1019 38 16093 1.5 320 06:18 20.06.2019
6088 Rain 23 1019 31 16093 2.6 10 03:37 20.06.2019
6089 Rain 23 1019 44 16093 3.6 210 00:43 20.06.2019
6090 Rain 24 1019 44 16093 3.6 210 00:24 20.06.2019
6091 Clouds 23 1019 53 16093 2.6 240 23:42 19.06.2019
6092 Clouds 23 1019 53 16093 2.6 240 23:24 19.06.2019
6093 Clear 22 1019 56 16093 2.1 230 22:48 19.06.2019
6094 Clear 22 1019 56 16093 2.1 230 22:20 19.06.2019
6095 Clouds 20 1019 68 16093 2.6 180 21:55 19.06.2019
6096 Clouds 20 1019 68 16093 2.6 180 21:55 19.06.2019
6097 Clouds 20 1019 68 16093 2.6 180 21:36 19.06.2019
6098 Clouds 20 1019 68 16093 2.6 180 21:18 19.06.2019
6099 Clouds 18 1019 72 16093 1.5 180 20:39 19.06.2019
6100 Clouds 18 1019 72 16093 1.5 180 20:20 19.06.2019
6101 Clouds 18 1019 77 16093 2.1 180 19:42 19.06.2019
6102 Clouds 17 1019 77 16093 2.1 180 19:23 19.06.2019
6103 Clouds 17 1019 82 16093 1.11 246.795 18:55 19.06.2019
6104 Clouds 16 1019 82 16093 0.44 278.446 18:22 19.06.2019
6105 Clouds 16 1018 87 16093 0.44 278.446 17:42 19.06.2019
6106 Clouds 15 1018 87 16093 0.44 278.446 17:24 19.06.2019
6107 Clouds 15 1018 87 16093 0.44 278.446 17:24 19.06.2019
6108 Clouds 14 1018 87 14484 0.44 278.446 16:43 19.06.2019
6109 Clouds 14 1018 87 14484 0.44 278.446 16:22 19.06.2019
6110 Clouds 14 1017 93 14484 2.1 130 15:58 19.06.2019
6111 Clouds 14 1017 93 14484 2.1 130 15:40 19.06.2019
6112 Clouds 14 1017 93 14484 2.1 130 15:19 19.06.2019
6113 Clouds 14 1017 93 14484 0.69 4.322 14:42 19.06.2019
6114 Clouds 14 1017 93 14484 0.69 4.322 14:22 19.06.2019
6115 Rain 15 1016 93 16093 0.69 4.322 13:43 19.06.2019
6116 Rain 15 1016 93 16093 0.88 305.233 13:25 19.06.2019
6117 Rain 15 1016 88 14484 2.1 280 12:48 19.06.2019
6118 Rain 15 1016 88 14484 2.1 280 12:22 19.06.2019
6119 -273 0 0 0 0 0 11:58 19.06.2019
6120 Rain 16 1015 88 14484 3.6 260 11:38 19.06.2019
6121 Rain 16 1015 88 14484 3.6 260 11:20 19.06.2019
6122 Rain 16 1014 68 12874 3.1 250 10:45 19.06.2019
6123 Rain 16 1014 68 12874 3.1 250 10:27 19.06.2019
6124 Clouds 17 1014 64 16093 2.6 240 09:50 19.06.2019
6125 Clouds 18 1014 64 16093 2.6 240 09:23 19.06.2019
6126 Rain 18 1013 56 14484 2.6 310 08:58 19.06.2019
6127 Rain 18 1013 56 14484 2.6 310 08:38 19.06.2019
6128 Rain 19 1013 56 14484 2.6 310 08:19 19.06.2019
6129 Rain 19 1013 53 14484 2.1 340 07:43 19.06.2019
6130 Rain 19 1013 53 14484 2.1 340 07:21 19.06.2019
6131 Rain 21 1012 49 16093 3.6 250 06:36 19.06.2019
6132 Rain 20 1011 49 16093 1.5 290 05:58 19.06.2019
6133 Clear 21 1011 49 11265 2.6 260 05:20 19.06.2019
6134 Rain 20 1011 52 14484 0.95 263.071 03:52 19.06.2019
6135 Rain 19 1011 72 11265 1.34 336.745 02:35 19.06.2019
6136 Clouds 20 1009 43 16093 1.5 0 01:37 19.06.2019
6137 Rain 20 1009 43 16093 1.26 341.938 00:53 19.06.2019
6138 Clouds 21 1009 43 16093 1.26 341.938 00:35 19.06.2019
6139 Haze 21 1009 43 16093 1.5 190 23:58 18.06.2019
6140 Clear 22 1009 43 16093 1.5 190 23:31 18.06.2019
6141 Clouds 21 1009 46 16093 2.1 320 22:56 18.06.2019
6142 Clouds 21 1009 46 16093 2.1 320 22:37 18.06.2019
6143 Clouds 21 1009 46 16093 2.1 320 22:19 18.06.2019
6144 Clouds 19 1009 52 16093 0.92 316.944 21:44 18.06.2019
6145 Clouds 19 1009 52 16093 1.15 9.725 21:22 18.06.2019
6146 Clouds 19 1009 55 14484 1.15 9.725 20:58 18.06.2019
6147 Clouds 18 1009 55 14484 0.42 358.764 20:38 18.06.2019
6148 Clouds 18 1009 55 14484 0.42 358.764 20:19 18.06.2019
6149 Clouds 17 1008 59 14484 0.42 358.764 19:39 18.06.2019
6150 Clouds 17 1008 59 14484 0.42 358.764 19:21 18.06.2019
6151 Clouds 16 1008 59 16093 1.5 40 18:49 18.06.2019
6152 Clouds 15 1008 59 16093 1.5 40 18:25 18.06.2019
6153 Clouds 14 1007 67 14484 1.61 14.114 17:46 18.06.2019
6154 Clouds 14 1007 67 14484 1.61 14.114 17:22 18.06.2019
6155 Clouds 14 1007 62 16093 1.61 14.114 16:57 18.06.2019
6156 Clouds 14 1007 62 16093 1.61 14.114 16:39 18.06.2019
6157 Clouds 13 1007 62 16093 1.61 14.114 16:20 18.06.2019
6158 Clouds 13 1007 62 16093 1.61 14.114 15:39 18.06.2019
6159 Clouds 13 1007 62 16093 2.14 356.845 15:20 18.06.2019
6160 Clouds 13 1006 66 16093 1.5 50 14:56 18.06.2019
6161 Clouds 12 1006 66 16093 1.5 50 14:37 18.06.2019
6162 Clouds 12 1006 66 16093 1.5 50 14:18 18.06.2019
6163 Clear 12 1005 62 12874 2.1 60 13:43 18.06.2019
6164 Clear 12 1005 62 12874 2.1 60 13:22 18.06.2019
6165 Clear 12 1005 58 12874 1.5 40 12:45 18.06.2019
6166 Clear 12 1005 58 12874 1.5 40 12:27 18.06.2019
6167 Clouds 14 1005 59 16093 2.6 50 11:49 18.06.2019
6168 Clouds 14 1005 59 16093 2.6 50 11:23 18.06.2019
6169 Clouds 14 1005 59 16093 2.6 50 11:23 18.06.2019
6170 Clear 14 1005 59 16093 2.1 20 10:58 18.06.2019
6171 Clear 14 1005 59 16093 2.1 20 10:38 18.06.2019
6172 Clear 14 1005 59 16093 2.1 20 10:20 18.06.2019
6173 Clouds 14 1004 77 16093 2.6 60 09:51 18.06.2019
6174 Clouds 15 1004 77 16093 2.6 60 09:24 18.06.2019
6175 Rain 15 1003 77 16093 3.5 44.642 08:48 18.06.2019
6176 Rain 16 1004 63 16093 2.6 70 08:22 18.06.2019
6177 Rain 16 1004 63 16093 3.38 40.064 07:46 18.06.2019
6178 Rain 18 1003 52 14484 2.1 360 07:24 18.06.2019
6179 Rain 18 1004 43 14484 4.6 350 06:48 18.06.2019
6180 Rain 18 1003 59 16093 6.2 130 05:24 18.06.2019
6181 Thunderstorm 20 1003 46 16093 3.1 150 04:21 18.06.2019
6182 Thunderstorm 19 1002 40 16093 3.6 140 02:45 18.06.2019
6183 Clouds 21 1001 31 16093 9.3 150 01:27 18.06.2019
6184 Rain 21 1001 72 16093 2.1 0 00:57 18.06.2019
6185 Clear 22 1001 31 16093 1.5 170 00:30 18.06.2019
6186 Clear 22 1002 37 16093 2.19 116.506 23:42 17.06.2019
6187 Clear 22 1002 37 16093 2.19 116.506 23:42 17.06.2019
6188 Clear 22 1002 37 16093 2.19 116.506 23:24 17.06.2019
6189 Clear 22 1002 40 16093 1.5 110 22:58 17.06.2019
6190 Clear 21 1002 40 16093 1.5 110 22:39 17.06.2019
6191 Clear 21 1002 40 16093 1.5 110 22:20 17.06.2019
6192 Clear 20 1002 49 16093 2.19 116.506 21:45 17.06.2019
6193 Clear 19 1002 49 16093 0.84 125.388 21:23 17.06.2019
6194 Clear 18 1002 52 16093 2.6 120 20:43 17.06.2019
6195 Clear 18 1002 52 16093 2.6 120 20:24 17.06.2019
6196 Clear 18 1003 63 12874 2.1 100 19:57 17.06.2019
6197 Clear 17 1003 63 12874 2.1 100 19:39 17.06.2019
6198 Clear 17 1003 63 12874 2.1 100 19:39 17.06.2019
6199 Haze 15 1003 72 9656 1.5 50 19:20 17.06.2019
6200 Haze 15 1003 72 9656 1.5 50 18:39 17.06.2019
6201 Haze 14 1003 76 9656 2.6 50 18:18 17.06.2019
6202 Haze 14 1003 76 9656 2.6 50 17:58 17.06.2019
6203 Haze 13 1003 76 9656 2.6 50 17:39 17.06.2019
6204 Clear 12 1003 87 14484 1.5 80 17:20 17.06.2019
6205 Clear 12 1003 87 14484 1.5 80 16:42 17.06.2019
6206 Clear 11 1003 87 14484 1.5 80 16:24 17.06.2019
6207 Clear 11 1003 93 16093 0.71 122.833 15:45 17.06.2019
6208 Clear 10 1004 93 14484 0.77 95.472 15:20 17.06.2019
6209 Clear 10 1004 93 14484 0.77 95.472 14:58 17.06.2019
6210 Clear 10 1004 93 14484 0.77 95.472 14:40 17.06.2019
6211 Clear 11 1004 93 16093 0.77 95.472 14:21 17.06.2019
6212 Clear 11 1004 93 16093 0.77 95.472 13:42 17.06.2019
6213 Clouds 11 1003 87 16093 1.5 40 13:21 17.06.2019
6214 Clear 11 1004 87 16093 0.79 89.126 12:47 17.06.2019
6215 Clear 12 1004 87 16093 0.84 113.935 12:24 17.06.2019
6216 Clear 12 1004 76 16093 0.84 113.935 11:45 17.06.2019
6217 Clear 13 1004 76 16093 0.84 113.935 11:26 17.06.2019
6218 Clear 14 1004 72 16093 1.5 100 10:56 17.06.2019
6219 Clear 14 1004 72 16093 1.5 100 10:38 17.06.2019
6220 Clear 15 1004 59 14484 1.5 60 10:20 17.06.2019
6221 Clear 16 1004 59 14484 1.5 60 09:39 17.06.2019
6222 Rain 16 1004 55 16093 1.5 115.028 09:20 17.06.2019
6223 Rain 17 1004 55 16093 1.46 117.427 08:41 17.06.2019
6224 Rain 17 1004 55 16093 1.46 117.427 08:22 17.06.2019
6225 Clouds 17 1004 59 16093 1.46 117.427 07:40 17.06.2019
6226 Clouds 17 1004 59 16093 1.46 117.427 07:20 17.06.2019
6227 Clouds 18 1004 56 14484 5.7 150 06:34 17.06.2019
6228 Clouds 21 1003 38 16093 7.2 130 05:44 17.06.2019
6229 Rain 23 1003 25 16093 3.6 80 04:34 17.06.2019
6230 Rain 23 1003 31 16093 1.22 71.714 03:45 17.06.2019
6231 Clouds 24 1004 31 16093 3.1 240 02:58 17.06.2019
6232 Clouds 24 1004 31 16093 3.1 240 02:40 17.06.2019
6233 Clouds 24 1004 36 16093 2.1 200 01:43 17.06.2019
6234 Clouds 23 1004 36 16093 1.69 35.7 01:18 17.06.2019
6235 Clear 23 1005 35 16093 2.1 200 00:41 17.06.2019
6236 Clouds 23 1005 38 16093 2.1 0 00:21 17.06.2019
6237 Clear 23 1006 35 16093 3.6 140 23:41 16.06.2019
6238 Clear 22 1006 40 12874 2.1 140 23:22 16.06.2019
6239 Clear 22 1006 40 12874 2.1 140 22:55 16.06.2019
6240 Clear 21 1006 40 12874 2.1 140 22:36 16.06.2019
6241 Clouds 21 1007 43 12874 3.1 130 22:18 16.06.2019
6242 Clouds 21 1007 43 12874 3.1 130 21:41 16.06.2019
6243 Clear 20 1007 49 16093 2.6 80 21:22 16.06.2019
6244 Clear 20 1007 49 16093 2.6 80 20:59 16.06.2019
6245 Clear 19 1007 49 16093 2.6 80 20:37 16.06.2019
6246 Clear 18 1007 52 16093 1.5 10 20:18 16.06.2019
6247 Clear 18 1007 52 16093 1.5 10 20:18 16.06.2019
6248 Clear 18 1007 52 16093 1.5 10 19:42 16.06.2019
6249 Clouds 18 1007 52 16093 2.1 50 19:22 16.06.2019
6250 Clouds 17 1007 52 16093 2.1 50 18:58 16.06.2019
6251 Clouds 17 1008 63 16093 1.76 7.392 18:40 16.06.2019
6252 Clouds 15 1008 59 16093 1.5 50 18:20 16.06.2019
6253 Clouds 15 1008 76 16093 1.58 12.001 17:47 16.06.2019
6254 Clouds 14 1008 76 16093 1.58 12.001 17:22 16.06.2019
6255 Clouds 14 1008 71 14484 2.1 70 16:57 16.06.2019
6256 Clouds 13 1008 71 14484 2.1 70 16:39 16.06.2019
6257 Clouds 13 1008 76 14484 2.1 40 16:21 16.06.2019
6258 Clouds 13 1008 76 14484 2.1 40 15:44 16.06.2019
6259 Clouds 13 1008 76 14484 2.1 40 15:24 16.06.2019
6260 Clear 13 1008 76 12874 2.6 50 14:45 16.06.2019
6261 Clear 13 1008 76 12874 2.6 50 14:24 16.06.2019
6262 Mist 13 1009 82 12874 2.6 60 13:52 16.06.2019
6263 Mist 13 1009 82 12874 2.6 60 13:28 16.06.2019
6264 Clouds 13 1008 67 16093 1.5 20 12:58 16.06.2019
6265 Rain 14 1009 76 14484 2.1 80 12:40 16.06.2019
6266 Rain 14 1008 67 16093 2.69 35.037 12:20 16.06.2019
6267 Rain 14 1008 67 16093 2.69 35.037 12:20 16.06.2019
6268 Rain 15 1009 72 16093 2.1 70 11:46 16.06.2019
6269 Rain 15 1009 67 14484 2.1 50 11:20 16.06.2019
6270 Rain 15 1009 67 14484 2.1 50 10:54 16.06.2019
6271 Rain 15 1009 67 14484 2.1 50 10:36 16.06.2019
6272 Rain 15 1008 82 14484 2.69 35.037 10:18 16.06.2019
6273 Rain 15 1008 82 14484 2.69 35.037 09:37 16.06.2019
6274 Rain 15 1009 82 16093 2.69 45.964 09:19 16.06.2019
6275 Rain 16 1009 82 16093 2.69 45.964 08:41 16.06.2019
6276 Rain 15 1009 82 14484 2.6 10 08:19 16.06.2019
6277 Rain 16 1009 82 14484 2.6 10 07:44 16.06.2019
6278 Rain 15 1009 87 4828 3.1 20 07:19 16.06.2019
6279 Rain 15 1009 87 1408 3.1 30 06:43 16.06.2019
6280 Rain 16 1009 87 4023 3.6 100 05:51 16.06.2019
6281 Rain 19 1009 55 14484 6.2 140 04:55 16.06.2019
6282 Rain 20 1008 49 12874 7.7 40 03:57 16.06.2019
6283 Rain 21 1007 38 16093 2.1 310 03:32 16.06.2019
6284 Clouds 23 1008 38 16093 3.1 350 02:36 16.06.2019
6285 Clouds 22 1008 35 16093 2.6 290 01:47 16.06.2019
6286 Clouds 22 1008 35 16093 2.6 290 01:27 16.06.2019
6287 Clear 22 1008 40 16093 1.4 29.785 00:41 16.06.2019
6288 Clear 22 1008 40 16093 2.43 351.293 00:22 16.06.2019
6289 Clear 21 1009 46 16093 1.5 260 23:46 15.06.2019
6290 Clear 21 1009 46 16093 1.5 260 23:25 15.06.2019
6291 Clear 20 1009 45 16093 2.43 351.293 22:50 15.06.2019
6292 Clear 20 1009 45 16093 2.43 351.293 22:28 15.06.2019
6293 Clouds 19 1009 55 16093 2.43 351.293 21:58 15.06.2019
6294 Clouds 19 1009 55 16093 2.43 351.293 21:40 15.06.2019
6295 Clear 18 1009 63 16093 1.1 297.873 21:20 15.06.2019
6296 Clear 17 1009 63 16093 0.87 276.501 20:43 15.06.2019
6297 Clouds 17 1009 72 16093 0.87 276.501 20:22 15.06.2019
6298 Clouds 16 1009 72 16093 0.87 276.501 19:46 15.06.2019
6299 Clouds 16 1009 72 16093 0.87 276.501 19:24 15.06.2019
6300 Clouds 15 1008 72 16093 1.5 30 18:42 15.06.2019
6301 Clouds 15 1008 72 16093 1.5 30 18:23 15.06.2019
6302 Clouds 14 1008 72 16093 0.98 57.497 17:44 15.06.2019
6303 Clouds 14 1008 72 16093 0.98 57.497 17:25 15.06.2019
6304 Clouds 13 1007 76 16093 0.98 57.497 16:49 15.06.2019
6305 Clouds 13 1007 76 14484 0.98 57.497 16:20 15.06.2019
6306 Clouds 12 1007 76 14484 0.98 57.497 15:45 15.06.2019
6307 Clouds 12 1007 76 14484 0.8 166.677 15:24 15.06.2019
6308 Clouds 12 1006 76 14484 2.1 120 14:54 15.06.2019
6309 Clouds 12 1006 76 14484 2.1 120 14:36 15.06.2019
6310 Clouds 13 1006 72 16093 0.8 166.677 14:18 15.06.2019
6311 Clouds 13 1006 72 16093 0.8 166.677 13:42 15.06.2019
6312 Clouds 14 1005 63 16093 3.1 330 13:20 15.06.2019
6313 Rain 15 1005 67 16093 0.8 166.677 12:52 15.06.2019
6314 Rain 15 1005 67 16093 0.8 166.677 12:27 15.06.2019
6315 Rain 15 1005 67 16093 0.8 166.677 12:27 15.06.2019
6316 Clouds 16 1005 55 16093 3.1 220 11:54 15.06.2019
6317 Clouds 16 1005 55 16093 3.1 220 11:35 15.06.2019
6318 Clouds 16 1004 55 14484 4.1 220 10:55 15.06.2019
6319 Clouds 17 1004 55 14484 4.1 220 10:37 15.06.2019
6320 Rain 17 1004 45 14484 1.5 200 10:19 15.06.2019
6321 Rain 18 1004 42 16093 4.6 260 09:43 15.06.2019
6322 Rain 18 1004 40 16093 5.1 220 09:23 15.06.2019
6323 Rain 19 1004 40 16093 5.1 220 08:50 15.06.2019
6324 Rain 19 1004 40 16093 5.1 220 08:31 15.06.2019
6325 Rain 20 1003 40 16093 5.7 250 07:50 15.06.2019
6326 Rain 20 1003 40 16093 5.7 250 07:24 15.06.2019
6327 Clouds 21 1003 31 16093 3.6 180 06:39 15.06.2019
6328 Clouds 21 1003 31 16093 3.6 180 06:39 15.06.2019
6329 Clouds 21 1003 37 16093 3.6 190 06:00 15.06.2019
6330 Rain 22 1004 27 16093 4.6 210 05:24 15.06.2019
6331 Rain 22 1004 27 16093 5.7 230 04:44 15.06.2019
6332 Rain 23 1005 29 16093 2.1 260 03:42 15.06.2019
6333 Clouds 23 1005 27 16093 6.7 270 02:55 15.06.2019
6334 Clouds 23 1005 25 16093 6.2 230 02:21 15.06.2019
6335 Clouds 22 1005 27 16093 7.7 300 01:43 15.06.2019
6336 Rain 24 1005 29 16093 9.3 290 00:56 15.06.2019
6337 Rain 24 1006 21 16093 8.7 230 00:37 15.06.2019
6338 Clear 24 1006 29 16093 6.2 210 23:54 14.06.2019
6339 Clear 24 1006 29 16093 6.2 210 23:25 14.06.2019
6340 Clear 24 1007 31 16093 5.7 230 22:43 14.06.2019
6341 Clear 23 1007 31 16093 5.7 230 22:23 14.06.2019
6342 Clear 23 1008 37 16093 2.6 210 21:59 14.06.2019
6343 Clear 23 1008 37 16093 2.6 210 21:40 14.06.2019
6344 Clear 20 1009 48 16093 3.81 262.364 21:21 14.06.2019
6345 Clear 19 1009 48 16093 3.81 262.364 20:42 14.06.2019
6346 Clear 19 1009 59 16093 3.81 262.364 20:18 14.06.2019
6347 Clear 19 1009 59 16093 3.81 262.364 19:53 14.06.2019
6348 Clouds 17 1009 59 16093 3.81 262.364 19:23 14.06.2019
6349 Clouds 17 1009 59 16093 3.81 262.364 18:58 14.06.2019
6350 Clear 16 1010 62 16093 3.81 262.364 18:40 14.06.2019
6351 Clouds 14 1009 67 16093 0.93 210.265 18:22 14.06.2019
6352 Clear 14 1010 71 14484 2.6 50 17:48 14.06.2019
6353 Clear 14 1010 71 14484 2.6 50 17:30 14.06.2019
6354 Clouds 12 1010 81 12874 2.6 60 16:58 14.06.2019
6355 Clouds 12 1010 81 12874 2.6 60 16:40 14.06.2019
6356 Clouds 11 1010 87 12874 3.1 80 16:19 14.06.2019
6357 Clouds 11 1010 87 12874 3.1 80 15:41 14.06.2019
6358 Clouds 11 1011 76 14484 2.6 80 15:23 14.06.2019
6359 Clouds 10 1010 87 12874 3.1 80 15:23 14.06.2019
6360 Clouds 11 1011 76 14484 2.6 80 14:56 14.06.2019
6361 Clouds 11 1011 76 14484 2.6 80 14:38 14.06.2019
6362 Clouds 12 1010 81 14484 1.5 60 14:19 14.06.2019
6363 -273 0 0 0 0 0 14:19 14.06.2019
6364 Clouds 11 1010 81 14484 1.5 60 13:42 14.06.2019
6365 Clouds 11 1010 81 14484 1.5 60 13:24 14.06.2019
6366 Clear 12 1010 87 12874 1.5 90 12:42 14.06.2019
6367 Clear 12 1010 87 12874 1.5 90 12:42 14.06.2019
6368 Clear 13 1010 87 12874 1.5 90 12:24 14.06.2019
6369 Clouds 14 1010 59 16093 0.44 234.068 11:57 14.06.2019
6370 Clear 14 1010 67 16093 0.44 234.068 11:38 14.06.2019
6371 Clear 16 1010 48 16093 1.5 220 11:20 14.06.2019
6372 Clear 17 1010 48 16093 1.5 220 10:42 14.06.2019
6373 Clear 19 1009 37 14484 3.1 200 10:18 14.06.2019
6374 Clear 19 1009 37 14484 3.1 200 09:43 14.06.2019
6375 Clear 19 1009 37 14484 3.1 200 09:22 14.06.2019
6376 Clear 20 1009 35 14484 3.1 210 08:46 14.06.2019
6377 Clear 21 1009 29 14484 4.1 200 08:19 14.06.2019
6378 Clear 21 1009 29 14484 4.1 200 07:50 14.06.2019
6379 Clouds 21 1009 35 16093 2.6 0 07:21 14.06.2019
6380 Clouds 22 1010 33 16093 3.1 260 06:34 14.06.2019
6381 Clouds 22 1010 31 16093 3.1 250 05:56 14.06.2019
6382 Clouds 23 1010 31 16093 4.6 260 05:19 14.06.2019
6383 Clouds 22 1010 31 16093 4.6 260 04:45 14.06.2019
6384 Clouds 22 1011 33 16093 5.1 220 03:52 14.06.2019
6385 Clouds 22 1011 33 16093 5.1 220 03:25 14.06.2019
6386 Rain 22 1011 33 16093 8.7 240 02:49 14.06.2019
6387 Rain 22 1011 33 16093 8.7 240 02:27 14.06.2019
6388 Rain 22 1011 33 16093 8.7 240 02:27 14.06.2019
6389 Rain 22 1011 40 16093 4.01 261.601 00:58 14.06.2019
6390 Rain 22 1011 35 16093 4.14 255.662 00:23 14.06.2019
6391 Rain 21 1011 35 16093 4.14 255.662 23:59 13.06.2019
6392 Clouds 20 1011 55 12874 4.14 255.662 23:41 13.06.2019
6393 Clear 20 1012 46 16093 2.1 250 23:21 13.06.2019
6394 Clear 21 1012 46 16093 2.1 250 22:40 13.06.2019
6395 Clear 21 1012 55 16093 4.14 255.662 22:21 13.06.2019
6396 Clear 20 1012 55 16093 4.14 255.662 21:40 13.06.2019
6397 Clear 19 1012 55 16093 3.3 245.321 21:20 13.06.2019
6398 Clear 18 1012 55 16093 3.3 245.321 20:58 13.06.2019
6399 Clear 18 1012 55 16093 3.3 245.321 20:39 13.06.2019
6400 Clouds 17 1011 67 16093 3.3 245.321 20:19 13.06.2019
6401 Clouds 17 1011 67 16093 3.3 245.321 19:42 13.06.2019
6402 Clouds 16 1011 55 16093 3.3 245.321 19:22 13.06.2019
6403 Clouds 16 1011 55 16093 3.3 245.321 18:58 13.06.2019
6404 Clear 15 1011 76 16093 3.3 245.321 18:40 13.06.2019
6405 Clouds 14 1011 67 16093 1.3 211.221 18:21 13.06.2019
6406 Clear 13 1011 76 16093 1.3 211.221 17:43 13.06.2019
6407 Clear 12 1011 87 14484 1.3 211.221 17:20 13.06.2019
6408 Clear 12 1011 87 14484 1.3 211.221 16:53 13.06.2019
6409 Clear 11 1011 87 14484 1.3 211.221 16:22 13.06.2019
6410 Clouds 10 1010 93 14484 1.3 211.221 15:59 13.06.2019
6411 Clouds 10 1010 93 14484 1.3 211.221 15:40 13.06.2019
6412 Clear 10 1009 93 16093 1.5 130 15:19 13.06.2019
6413 Clear 10 1009 93 16093 1.5 130 14:48 13.06.2019
6414 Clear 11 1009 93 16093 1.5 130 14:29 13.06.2019
6415 Rain 12 1009 82 16093 0.82 227.717 13:47 13.06.2019
6416 Rain 12 1009 76 16093 0.82 227.717 13:22 13.06.2019
6417 Rain 12 1009 76 16093 0.82 227.717 12:58 13.06.2019
6418 Clouds 13 1009 82 14484 1.5 70 12:38 13.06.2019
6419 Rain 14 1009 59 16093 1.38 295.487 12:20 13.06.2019
6420 Rain 14 1009 51 14484 1.38 295.487 11:44 13.06.2019
6421 Rain 15 1008 55 12874 5.7 280 11:25 13.06.2019
6422 Rain 15 1008 55 12874 5.7 280 10:48 13.06.2019
6423 Rain 15 1008 55 12874 5.7 280 10:28 13.06.2019
6424 Clouds 16 1007 45 16093 3.1 290 09:52 13.06.2019
6425 -273 0 0 0 0 0 09:29 13.06.2019
6426 Rain 17 1007 40 16093 6.2 270 08:56 13.06.2019
6427 Rain 17 1007 40 16093 6.2 270 08:56 13.06.2019
6428 Rain 18 1007 45 11265 4.1 270 08:38 13.06.2019
6429 Rain 19 1007 34 11265 4.1 320 08:19 13.06.2019
6430 Clear 19 1007 30 16093 3.6 250 07:38 13.06.2019
6431 Clouds 20 1006 30 16093 4.6 250 07:19 13.06.2019
6432 Clear 21 1007 27 16093 4.1 250 06:40 13.06.2019
6433 Clouds 21 1007 23 16093 5.1 260 06:21 13.06.2019
6434 Clouds 22 1007 23 16093 5.1 260 05:39 13.06.2019
6435 Haze 22 1007 30 11265 4.1 320 05:19 13.06.2019
6436 Clear 22 1007 26 16093 4.6 300 03:49 13.06.2019
6437 Haze 22 1008 35 9656 4.6 320 01:59 13.06.2019
6438 Clouds 21 1008 28 16093 4.6 260 00:32 13.06.2019
6439 Clouds 21 1008 35 16093 4.6 270 23:38 12.06.2019
6440 Clear 20 1008 32 16093 5.7 240 23:20 12.06.2019
6441 Clouds 21 1009 35 16093 6.7 250 22:41 12.06.2019
6442 Clear 20 1009 45 16093 3.6 230 22:22 12.06.2019
6443 Clear 19 1009 45 16093 3.6 230 21:47 12.06.2019
6444 Clear 19 1009 45 16093 3.6 230 21:28 12.06.2019
6445 Clear 18 1009 59 14484 2.1 260 20:49 12.06.2019
6446 Clear 17 1009 59 14484 2.1 260 20:31 12.06.2019
6447 Clear 17 1009 67 16093 3.36 258.299 19:59 12.06.2019
6448 Clear 16 1009 67 16093 3.36 258.299 19:40 12.06.2019
6449 Clear 16 1009 67 16093 3.36 258.299 19:22 12.06.2019
6450 Clear 14 1009 71 14484 3.36 258.299 18:49 12.06.2019
6451 Clear 14 1009 71 14484 3.36 258.299 18:28 12.06.2019
6452 Clear 12 1009 76 14484 1.5 70 17:51 12.06.2019
6453 Clear 12 1009 76 14484 1.5 70 17:23 12.06.2019
6454 Clear 11 1009 81 11265 2.1 90 16:59 12.06.2019
6455 Clear 11 1009 81 11265 2.1 90 16:39 12.06.2019
6456 Clear 10 1009 87 11265 2.1 90 16:20 12.06.2019
6457 Clear 10 1009 87 11265 2.1 90 15:46 12.06.2019
6458 Clear 9 1009 87 11265 2.1 90 15:28 12.06.2019
6459 Clear 9 1009 93 12874 0.3 7.943 14:39 12.06.2019
6460 Clear 10 1008 87 14484 1.5 110 14:20 12.06.2019
6461 Clear 9 1008 87 14484 1.5 110 13:42 12.06.2019
6462 Clouds 10 1008 87 16093 1.5 90 13:20 12.06.2019
6463 Clouds 10 1008 87 16093 1.5 90 13:20 12.06.2019
6464 Clouds 10 1008 87 16093 1.5 90 12:56 12.06.2019
6465 Clouds 11 1008 87 16093 1.5 90 12:37 12.06.2019
6466 Clouds 11 1008 81 16093 1.15 324.689 12:19 12.06.2019
6467 Clouds 11 1008 81 16093 1.15 324.689 12:19 12.06.2019
6468 Clear 12 1008 81 16093 1.15 324.689 11:44 12.06.2019
6469 Clear 12 1008 81 16093 1.15 324.689 11:26 12.06.2019
6470 Clear 13 1007 62 14484 1.15 324.689 10:50 12.06.2019
6471 -273 0 0 0 0 0 10:23 12.06.2019
6472 Clear 15 1007 48 14484 1.15 324.689 09:45 12.06.2019
6473 Rain 17 1007 42 16093 1.86 293.894 09:23 12.06.2019
6474 Rain 17 1007 42 16093 1.86 293.894 09:23 12.06.2019
6475 Rain 17 1007 42 16093 1.86 293.894 08:53 12.06.2019
6476 Clouds 17 1007 35 16093 3.6 210 08:21 12.06.2019
6477 Clouds 18 1007 35 16093 3.6 210 07:39 12.06.2019
6478 Clouds 19 1007 35 16093 1.5 230 06:53 12.06.2019
6479 Clouds 20 1007 37 16093 2.51 285.961 05:27 12.06.2019
6480 Clouds 20 1008 40 16093 2.1 170 04:34 12.06.2019
6481 Rain 20 1009 37 14484 5.1 290 01:32 12.06.2019
6482 Clear 21 1009 45 16093 2.6 220 00:40 12.06.2019
6483 Clear 20 1010 52 16093 2.91 259.331 23:48 11.06.2019
6484 Clear 20 1010 52 16093 2.91 259.331 23:29 11.06.2019
6485 Clear 19 1011 55 16093 2.6 240 22:44 11.06.2019
6486 Clouds 18 1010 55 16093 2.6 190 22:20 11.06.2019
6487 Clouds 17 1010 55 16093 2.6 190 21:57 11.06.2019
6488 Clouds 17 1011 63 16093 2.6 230 21:38 11.06.2019
6489 Rain 16 1011 72 16093 1.5 130 21:20 11.06.2019
6490 Rain 16 1011 67 16093 1.5 210 20:48 11.06.2019
6491 Rain 16 1011 67 16093 1.5 210 20:26 11.06.2019
6492 Rain 15 1011 67 16093 1.44 251.98 20:26 11.06.2019
6493 Rain 14 1012 76 16093 3.1 150 19:55 11.06.2019
6494 Rain 14 1012 76 16093 3.1 150 19:34 11.06.2019
6495 Rain 13 1012 82 14484 2.1 110 18:58 11.06.2019
6496 Rain 12 1011 76 16093 2.6 120 18:23 11.06.2019
6497 -273 0 0 0 0 0 17:54 11.06.2019
6498 Rain 12 1012 87 14484 2.1 60 17:36 11.06.2019
6499 Rain 11 1012 81 16093 1.5 150 17:18 11.06.2019
6500 Rain 11 1012 81 14484 2.6 70 16:41 11.06.2019
6501 Clouds 11 1012 87 16093 2.1 160 16:23 11.06.2019
6502 Rain 11 1012 81 12874 2.6 180 15:43 11.06.2019
6503 Rain 11 1012 81 12874 2.6 180 15:24 11.06.2019
6504 Clouds 11 1012 81 16093 0.81 68.555 14:54 11.06.2019
6505 Clouds 11 1012 76 16093 0.81 68.555 14:23 11.06.2019
6506 Clouds 12 1012 76 16093 0.81 68.555 13:57 11.06.2019
6507 Rain 12 1012 71 11265 0.81 68.555 13:37 11.06.2019
6508 Clouds 12 1012 81 16093 1.5 180 13:18 11.06.2019
6509 Clouds 12 1012 76 16093 2.1 200 12:40 11.06.2019
6510 Clouds 13 1012 76 16093 2.1 200 12:21 11.06.2019
6511 Clouds 13 1012 71 16093 2.1 170 11:41 11.06.2019
6512 Clouds 13 1012 67 16093 3.1 270 11:21 11.06.2019
6513 Clear 14 1012 63 14484 3.6 240 10:50 11.06.2019
6514 Clear 14 1012 63 14484 3.6 240 10:26 11.06.2019
6515 Clear 15 1012 59 16093 3.6 220 09:50 11.06.2019
6516 Clear 16 1012 59 16093 3.6 220 09:25 11.06.2019
6517 Clouds 16 1012 52 16093 3.1 220 08:49 11.06.2019
6518 Clouds 17 1012 52 16093 3.1 220 08:30 11.06.2019
6519 Clouds 17 1012 48 16093 2.1 270 07:55 11.06.2019
6520 Clouds 17 1012 48 16093 2.1 270 07:31 11.06.2019
6521 Clouds 17 1012 55 16093 1.5 350 06:51 11.06.2019
6522 Rain 18 1013 55 9656 4.1 290 05:00 11.06.2019
6523 Rain 18 1013 49 16093 3.1 80 03:55 11.06.2019
6524 Clouds 21 1014 37 16093 2.1 240 01:43 11.06.2019
6525 Clouds 20 1015 40 16093 3.6 230 00:49 11.06.2019
6526 Clouds 19 1015 40 16093 2.1 230 00:23 11.06.2019
6527 Clouds 20 1016 45 16093 1.5 140 23:41 10.06.2019
6528 Clear 20 1017 55 16093 2.1 210 22:59 10.06.2019
6529 Clear 19 1017 55 16093 2.1 210 22:41 10.06.2019
6530 Clear 19 1017 55 16093 2.1 210 22:23 10.06.2019
6531 Clouds 18 1017 63 16093 2.15 228.734 21:41 10.06.2019
6532 Clouds 16 1018 72 16093 1.75 197.908 21:23 10.06.2019
6533 Clouds 16 1018 72 16093 1.75 197.908 20:57 10.06.2019
6534 Clouds 16 1018 72 16093 1.75 197.908 20:38 10.06.2019
6535 Clouds 14 1018 63 16093 1.75 197.908 20:19 10.06.2019
6536 Clouds 15 1018 76 16093 1.75 197.908 19:43 10.06.2019
6537 Clouds 14 1018 71 16093 1.75 197.908 19:22 10.06.2019
6538 Clouds 14 1018 71 16093 1.75 197.908 18:56 10.06.2019
6539 Clear 13 1018 81 16093 1.75 197.908 18:38 10.06.2019
6540 Clouds 12 1018 76 16093 1.5 0 18:19 10.06.2019
6541 Clouds 11 1018 76 16093 0.92 158.766 17:41 10.06.2019
6542 Clouds 10 1019 87 16093 1.5 100 17:22 10.06.2019
6543 Clouds 11 1019 87 16093 1.5 100 16:46 10.06.2019
6544 Clouds 10 1019 87 16093 1.5 100 16:28 10.06.2019
6545 Mist 10 1019 87 9656 3.1 70 15:56 10.06.2019
6546 Rain 10 1019 87 11265 2.6 80 15:37 10.06.2019
6547 Clear 9 1019 93 16093 2.1 80 15:19 10.06.2019
6548 Clear 9 1019 93 16093 2.1 80 14:41 10.06.2019
6549 Clear 9 1019 93 16093 2.1 100 14:21 10.06.2019
6550 Clear 9 1019 93 16093 2.1 100 13:45 10.06.2019
6551 Clear 10 1019 93 16093 2.1 100 13:23 10.06.2019
6552 Rain 10 1019 87 14484 0.4 174.999 12:48 10.06.2019
6553 Rain 10 1019 87 14484 0.79 331.256 12:29 10.06.2019
6554 Rain 11 1019 87 16093 0.79 331.256 11:52 10.06.2019
6555 Rain 11 1019 87 16093 0.79 331.256 11:30 10.06.2019
6556 Rain 12 1018 67 16093 2.1 240 10:58 10.06.2019
6557 Rain 12 1018 71 16093 0.79 331.256 10:38 10.06.2019
6558 Clear 12 1018 76 16093 2.1 160 10:18 10.06.2019
6559 Clouds 13 1018 59 12874 0.79 331.256 09:48 10.06.2019
6560 Clouds 14 1018 59 12874 0.79 331.256 09:29 10.06.2019
6561 Clouds 15 1018 59 16093 2.6 220 08:48 10.06.2019
6562 Clouds 16 1018 59 16093 2.6 220 08:26 10.06.2019
6563 Clouds 16 1017 67 16093 1.31 262.778 07:27 10.06.2019
6564 Rain 16 1018 72 9656 2.1 50 04:42 10.06.2019
6565 Rain 20 1018 33 16093 2.6 270 02:29 10.06.2019
6566 Rain 21 1018 37 16093 2.1 220 01:49 10.06.2019
6567 Rain 21 1018 37 16093 2.17 248.886 00:59 10.06.2019
6568 Rain 21 1019 35 16093 3.1 210 00:36 10.06.2019
6569 Clear 21 1019 42 16093 2.1 220 23:46 09.06.2019
6570 Clear 20 1020 45 16093 4.1 260 23:21 09.06.2019
6571 Clear 20 1020 45 16093 4.1 260 22:45 09.06.2019
6572 Clear 20 1020 45 16093 4.1 260 22:26 09.06.2019
6573 Clear 18 1020 52 16093 4.1 210 21:47 09.06.2019
6574 Clear 18 1020 52 16093 4.1 210 21:28 09.06.2019
6575 Clear 17 1020 55 16093 2.6 240 20:58 09.06.2019
6576 Clear 17 1020 55 16093 2.6 240 20:40 09.06.2019
6577 Clear 16 1020 67 16093 1.26 219.881 20:21 09.06.2019
6578 Clear 16 1020 67 16093 1.26 219.881 19:42 09.06.2019
6579 Clouds 15 1020 67 16093 1.1 203.405 19:18 09.06.2019
6580 Clear 14 1020 66 16093 1.5 110 18:43 09.06.2019
6581 Clouds 12 1020 71 16093 0.66 138.715 18:25 09.06.2019
6582 Clear 11 1020 76 12874 0.66 138.715 17:53 09.06.2019
6583 Clear 10 1020 76 12874 0.66 138.715 17:30 09.06.2019
6584 Clear 9 1020 81 14484 2.6 70 16:58 09.06.2019
6585 Clear 9 1020 81 14484 2.6 70 16:39 09.06.2019
6586 Clear 9 1020 87 14484 1.5 80 16:20 09.06.2019
6587 Clear 9 1020 87 14484 1.5 80 15:50 09.06.2019
6588 Clear 8 1020 87 14484 1.5 80 15:29 09.06.2019
6589 Clear 8 1019 87 14484 1.5 60 14:54 09.06.2019
6590 Clear 8 1019 87 14484 1.5 60 14:36 09.06.2019
6591 Clear 9 1019 93 14484 1.5 50 14:18 09.06.2019
6592 Clear 9 1019 93 14484 1.5 50 13:44 09.06.2019
6593 Clouds 10 1018 87 16093 0.94 31.752 12:56 09.06.2019
6594 Clear 9 1018 76 16093 0.94 31.752 12:34 09.06.2019
6595 Clear 9 1018 76 16093 0.94 31.752 12:34 09.06.2019
6596 Clear 11 1018 76 16093 1.09 323.899 11:51 09.06.2019
6597 Clear 11 1018 76 16093 1.09 323.899 11:30 09.06.2019
6598 -273 0 0 0 0 0 10:59 09.06.2019
6599 -273 0 0 0 0 0 10:59 09.06.2019
6600 Clear 13 1017 71 12874 1.22 348.967 10:40 09.06.2019
6601 Clouds 13 1017 67 16093 1.22 348.967 10:20 09.06.2019
6602 Clouds 14 1017 67 16093 1.22 348.967 09:38 09.06.2019
6603 Clear 16 1016 32 12874 1.5 230 09:20 09.06.2019
6604 Clear 16 1016 32 12874 1.5 230 08:45 09.06.2019
6605 Clear 17 1016 32 12874 2.1 230 07:53 09.06.2019
6606 Rain 19 1016 37 14484 2.6 280 06:45 09.06.2019
6607 Rain 18 1016 37 16093 1.5 260 06:20 09.06.2019
6608 Rain 18 1016 72 12874 1.5 250 03:21 09.06.2019
6609 Rain 20 1016 26 16093 5.1 10 01:37 09.06.2019
6610 Rain 20 1016 26 16093 5.1 10 01:37 09.06.2019
6611 Rain 20 1016 32 16093 0.99 331.617 01:19 09.06.2019
6612 Rain 20 1016 34 16093 1.5 180 00:31 09.06.2019
6613 Clear 19 1016 42 16093 2.1 240 23:41 08.06.2019
6614 Clear 19 1016 42 16093 2.1 240 23:23 08.06.2019
6615 Clear 18 1016 59 14484 1.5 240 22:55 08.06.2019
6616 Clear 18 1016 59 14484 1.5 240 22:36 08.06.2019
6617 Clouds 16 1017 76 14484 0.95 263.846 22:18 08.06.2019
6618 Clouds 15 1017 76 14484 0.95 263.846 21:41 08.06.2019
6619 Clouds 15 1017 76 11265 1.1 255.055 21:23 08.06.2019
6620 Clouds 14 1017 76 11265 1.1 255.055 20:45 08.06.2019
6621 Clouds 13 1017 76 11265 1.1 255.055 20:25 08.06.2019
6622 Rain 12 1017 71 12874 1.1 255.055 19:58 08.06.2019
6623 Clouds 12 1017 76 12874 1.1 255.055 19:38 08.06.2019
6624 Clouds 12 1017 71 16093 1.5 50 19:19 08.06.2019
6625 Clouds 11 1017 81 12874 0.96 260.567 18:41 08.06.2019
6626 Clouds 11 1017 81 12874 0.2 181.134 18:23 08.06.2019
6627 Clouds 10 1017 76 12874 0.2 181.134 17:45 08.06.2019
6628 Clouds 10 1017 87 12874 2.1 60 17:22 08.06.2019
6629 Clouds 9 1017 87 12874 0.2 181.134 16:53 08.06.2019
6630 Clouds 9 1017 87 12874 0.2 181.134 16:34 08.06.2019
6631 Clouds 9 1017 93 11265 0.2 181.134 15:53 08.06.2019
6632 Clouds 8 1017 93 11265 0.2 181.134 15:33 08.06.2019
6633 Clear 7 1017 93 11265 2.6 50 14:48 08.06.2019
6634 Clear 8 1017 93 11265 2.6 50 14:29 08.06.2019
6635 Clear 9 1016 81 12874 0.72 14.537 13:49 08.06.2019
6636 Clouds 9 1016 87 16093 1.36 31.511 12:54 08.06.2019
6637 Clouds 9 1016 81 12874 1.5 60 12:34 08.06.2019
6638 Clouds 10 1016 81 12874 2.6 70 11:51 08.06.2019
6639 Clouds 10 1016 81 12874 2.6 70 11:28 08.06.2019
6640 Clear 12 1016 76 11265 1.14 332.986 10:48 08.06.2019
6641 Clear 12 1016 76 11265 1.14 332.986 10:27 08.06.2019
6642 Clear 13 1015 55 12874 2.1 270 09:58 08.06.2019
6643 Clear 13 1015 55 12874 2.1 270 09:33 08.06.2019
6644 Clouds 16 1015 45 14484 3.6 330 08:52 08.06.2019
6645 Clouds